# Wetter Temperatur Luftdruck Luftfeuchtigkeit Sichtweite Windgeschwindigkeit Windrichtung Zeit
1 Clouds 11 1030 82 10000 0.61 341 08:30 02.10.2022
2 Clouds 11 1030 82 10000 0.86 358 08:30 02.10.2022
3 Clouds 12 1029 80 10000 0.84 48 05:21 02.10.2022
4 Clear 13 1029 75 10000 1.41 32 01:29 02.10.2022
5 Clear 13 1029 73 10000 1.41 32 00:38 02.10.2022
6 Clear 14 1029 71 10000 1.61 23 23:29 01.10.2022
7 Clear 15 1029 67 10000 1.56 20 21:58 01.10.2022
8 Clouds 17 1026 63 10000 0.91 289 19:21 01.10.2022
9 Clouds 21 1025 37 10000 0.45 258 17:46 01.10.2022
10 Clouds 21 1025 37 10000 0.89 321 15:32 01.10.2022
11 Clouds 19 1025 35 10000 0.45 5 14:18 01.10.2022
12 Clouds 11 1023 44 10000 1.31 289 12:34 01.10.2022
13 Clouds 7 1023 42 10000 1.07 310 11:23 01.10.2022
14 Clouds 7 1023 42 10000 1.07 310 10:53 01.10.2022
15 Clouds 5 1023 42 10000 1.07 310 10:30 01.10.2022
16 Clouds 7 1024 67 10000 1.36 6 09:25 01.10.2022
17 Clouds 7 1023 74 10000 2.15 15 08:27 01.10.2022
18 Clouds 4 1025 57 10000 2.81 19 03:47 01.10.2022
19 Clear 4 1025 60 10000 2.69 15 03:18 01.10.2022
20 Clouds 6 1025 88 10000 3.37 13 23:21 30.09.2022
21 Clouds 6 1024 91 10000 3.22 17 22:18 30.09.2022
22 Clouds 9 1023 92 10000 3.1 11 20:57 30.09.2022
23 Clouds 12 1021 92 10000 2.89 6 20:20 30.09.2022
24 Clouds 12 1017 83 10000 2.49 352 18:32 30.09.2022
25 Clouds 13 1015 70 10000 2.63 1 16:54 30.09.2022
26 Clouds 11 1014 73 10000 3.26 354 14:24 30.09.2022
27 Clouds 10 1013 76 10000 3.11 351 12:50 30.09.2022
28 Clouds 10 1012 72 10000 3.15 351 11:56 30.09.2022
29 Clouds 6 1013 93 10000 2.73 9 09:24 30.09.2022
30 Clouds 5 1014 95 10000 3.09 13 07:50 30.09.2022
31 Clouds 7 1009 98 106 2.58 14 03:19 30.09.2022
32 Rain 8 1008 97 269 3.21 360 01:23 30.09.2022
33 Clouds 10 1005 85 3136 0.89 125 21:40 29.09.2022
34 Clouds 10 1005 85 152 0.89 63 21:19 29.09.2022
35 Rain 11 1004 90 152 2.3 359 19:56 29.09.2022
36 Rain 11 1003 83 5074 0.89 183 17:49 29.09.2022
37 Rain 12 1003 78 9219 0.45 0 16:29 29.09.2022
38 Rain 13 1002 65 9219 3.13 217 15:37 29.09.2022
39 Clouds 12 1002 80 10000 1.31 272 14:59 29.09.2022
40 Clouds 14 1003 67 10000 1.27 284 12:22 29.09.2022
41 Clouds 11 1004 76 10000 0.45 0 08:44 29.09.2022
42 Clouds 9 1006 92 10000 2.34 13 04:46 29.09.2022
43 Clouds 9 1006 91 10000 1.8 15 02:36 29.09.2022
44 Clouds 11 1009 94 10000 2.7 11 23:21 28.09.2022
45 Clouds 12 1009 95 10000 2.91 8 21:31 28.09.2022
46 Clouds 13 1008 92 10000 2.91 3 20:51 28.09.2022
47 Clouds 11 1008 87 10000 2.75 4 19:56 28.09.2022
48 Clouds 16 1006 64 10000 2.74 346 16:35 28.09.2022
49 Clouds 20 1009 51 10000 1.97 305 13:28 28.09.2022
50 Clouds 20 1009 51 10000 1.97 305 13:28 28.09.2022
51 Clouds 17 1010 66 10000 2.11 330 11:45 28.09.2022
52 Clouds 13 1011 83 10000 1.98 333 09:36 28.09.2022
53 Clouds 12 1012 79 10000 2.25 355 07:42 28.09.2022
54 Clouds 12 1012 73 10000 1.95 348 05:32 28.09.2022
55 Clouds 10 1014 77 10000 3.05 11 01:44 28.09.2022
56 Clouds 11 1016 87 10000 3.1 14 00:28 28.09.2022
57 Clouds 10 1015 91 10000 3.15 10 22:40 27.09.2022
58 Clouds 11 1015 91 10000 3.05 10 21:20 27.09.2022
59 Clouds 11 1014 86 10000 3.16 2 20:26 27.09.2022
60 Clouds 10 1014 87 10000 3.09 3 19:37 27.09.2022
61 Clouds 12 1011 59 10000 3.17 342 17:46 27.09.2022
62 Clouds 19 1010 45 10000 3.03 338 16:25 27.09.2022
63 Clouds 19 1010 44 10000 2.91 335 15:18 27.09.2022
64 Clouds 18 1011 50 10000 2.31 329 13:36 27.09.2022
65 Clouds 15 1012 64 10000 2.7 343 12:23 27.09.2022
66 Clouds 12 1012 79 10000 3.28 353 09:49 27.09.2022
67 Clouds 11 1011 79 10000 2.82 6 07:41 27.09.2022
68 Clouds 10 1012 71 10000 2.79 4 03:51 27.09.2022
69 Clear 8 1014 76 10000 2.44 14 01:36 27.09.2022
70 Clouds 9 1016 90 10000 2.46 12 23:39 26.09.2022
71 Clouds 10 1016 90 10000 2.67 10 23:20 26.09.2022
72 Clouds 12 1016 87 10000 3.04 9 20:48 26.09.2022
73 Clouds 13 1014 81 10000 2.95 5 19:34 26.09.2022
74 Clouds 16 1012 67 10000 3.18 356 18:35 26.09.2022
75 Clouds 17 1010 49 10000 1.95 320 16:58 26.09.2022
76 Clouds 18 1012 46 10000 2.24 250 14:46 26.09.2022
77 Clear 12 1013 43 10000 1.84 242 11:36 26.09.2022
78 Clear 10 1014 76 10000 1.19 267 10:41 26.09.2022
79 Clear 10 1014 76 10000 1.62 345 10:21 26.09.2022
80 Clear 9 1014 81 10000 1.62 345 09:56 26.09.2022
81 Clouds 8 1014 81 10000 2.29 8 09:24 26.09.2022
82 Clouds 8 1014 82 10000 2.29 8 08:57 26.09.2022
83 Clouds 8 1017 92 10000 2.27 16 02:58 26.09.2022
84 Clouds 10 1017 90 10000 2.24 11 00:35 26.09.2022
85 Clouds 10 1017 90 10000 2.27 11 22:59 25.09.2022
86 Clouds 11 1017 87 10000 2.35 9 21:41 25.09.2022
87 Clouds 11 1016 85 10000 2.46 6 20:49 25.09.2022
88 Clouds 13 1016 81 10000 2.53 4 19:43 25.09.2022
89 Clouds 15 1015 75 10000 2.31 9 18:43 25.09.2022
90 Clouds 15 1014 68 10000 2.17 345 18:20 25.09.2022
91 Clouds 15 1013 59 10000 1.83 329 16:45 25.09.2022
92 Clouds 15 1013 55 10000 1.81 338 15:45 25.09.2022
93 Clouds 14 1013 52 10000 1.21 272 14:29 25.09.2022
94 Clouds 14 1014 70 10000 1.85 230 12:57 25.09.2022
95 Clouds 11 1014 73 10000 0.84 261 10:36 25.09.2022
96 Clouds 8 1014 90 10000 1.2 10 08:25 25.09.2022
97 Clouds 9 1014 89 10000 0.93 326 06:23 25.09.2022
98 Clouds 9 1014 89 10000 0.93 326 06:23 25.09.2022
99 Rain 10 1015 83 10000 0.89 44 02:57 25.09.2022
100 Clouds 11 1015 97 3761 2.01 13 22:35 24.09.2022
101 Clouds 12 1015 96 10000 2.79 17 21:19 24.09.2022
102 Clouds 15 1013 75 8082 1.79 281 19:23 24.09.2022
103 Rain 15 1012 84 4468 2.13 237 17:50 24.09.2022
104 Clouds 17 1013 79 6860 2.82 224 16:27 24.09.2022
105 Clouds 16 1014 83 10000 2.88 226 15:21 24.09.2022
106 Rain 16 1016 83 10000 3.29 225 13:27 24.09.2022
107 Rain 16 1016 78 10000 3.29 225 12:50 24.09.2022
108 Rain 14 1016 87 10000 2.14 211 10:54 24.09.2022
109 Clouds 13 1016 91 10000 1.01 206 09:40 24.09.2022
110 Clouds 13 1016 92 10000 0.63 61 08:43 24.09.2022
111 Clouds 12 1016 91 10000 1.99 26 07:24 24.09.2022
112 Clouds 13 1015 90 10000 2.11 19 04:40 24.09.2022
113 Clouds 15 1017 90 10000 1.12 241 02:19 24.09.2022
114 Rain 16 1018 93 10000 1.05 19 22:28 23.09.2022
115 Rain 15 1018 96 10000 0.32 68 21:28 23.09.2022
116 Clouds 16 1018 96 10000 0.32 68 20:56 23.09.2022
117 Clouds 17 1017 95 10000 0.99 217 20:19 23.09.2022
118 Clouds 18 1018 84 9100 0.89 0 18:26 23.09.2022
119 Clouds 21 1020 55 10000 2.68 273 13:45 23.09.2022
120 Clouds 15 1021 73 10000 0.45 0 10:27 23.09.2022
121 Clouds 15 1021 79 10000 1.1 226 08:57 23.09.2022
122 Clouds 15 1020 94 10000 1.13 203 04:56 23.09.2022
123 Clouds 13 1022 90 10000 0.49 5 23:31 22.09.2022
124 Clouds 14 1021 85 10000 0.34 335 22:29 22.09.2022
125 Clouds 15 1021 85 10000 0.34 335 21:47 22.09.2022
126 Clouds 16 1020 84 10000 0.42 322 20:45 22.09.2022
127 Clouds 19 1019 76 10000 0.53 214 19:23 22.09.2022
128 Clouds 20 1018 60 10000 1.21 189 16:53 22.09.2022
129 Clear 15 1019 49 10000 1.9 220 11:36 22.09.2022
130 Clear 14 1020 63 10000 1.19 225 10:20 22.09.2022
131 Clear 12 1020 81 10000 0.67 32 08:22 22.09.2022
132 Clear 13 1020 79 10000 0.84 41 06:21 22.09.2022
133 Clear 12 1021 85 10000 0.74 54 02:28 22.09.2022
134 Clear 15 1022 78 10000 1.87 35 22:32 21.09.2022
135 Clear 15 1021 79 10000 2.38 28 21:38 21.09.2022
136 Clouds 17 1020 68 10000 2.55 21 19:30 21.09.2022
137 Clouds 17 1020 68 10000 2.55 21 19:30 21.09.2022
138 Clouds 18 1017 39 10000 0.72 266 17:45 21.09.2022
139 Clouds 24 1018 44 10000 1.79 223 16:22 21.09.2022
140 Clear 23 1019 48 10000 1.34 245 13:57 21.09.2022
141 Clear 20 1018 48 10000 2.25 215 11:44 21.09.2022
142 Clear 16 1018 52 10000 1.54 226 11:22 21.09.2022
143 Clear 15 1019 58 10000 1.02 237 09:44 21.09.2022
144 Clear 13 1021 85 10000 0.49 1 08:50 21.09.2022
145 Clear 13 1021 78 10000 1.45 21 04:57 21.09.2022
146 Clear 12 1021 69 10000 1.69 18 02:40 21.09.2022
147 Clear 12 1022 68 10000 1.01 16 02:19 21.09.2022
148 Clear 14 1022 60 10000 0.69 31 00:20 21.09.2022
149 Clear 15 1022 59 10000 2.02 26 21:53 20.09.2022
150 Clear 20 1022 58 10000 2.56 18 20:33 20.09.2022
151 Clear 19 1018 44 10000 2.22 359 18:51 20.09.2022
152 Clear 26 1018 48 10000 1.34 228 15:57 20.09.2022
153 Clear 25 1019 46 10000 1.79 244 14:29 20.09.2022
154 Clear 20 1020 53 10000 0.45 236 12:32 20.09.2022
155 Clear 13 1021 78 10000 2.02 19 08:50 20.09.2022
156 Clouds 13 1021 78 10000 2.4 23 08:24 20.09.2022
157 Clouds 13 1020 73 10000 2.41 19 04:40 20.09.2022
158 Clouds 15 1021 66 10000 2.14 12 02:24 20.09.2022
159 Clouds 15 1021 43 10000 2.15 17 22:44 19.09.2022
160 Clouds 15 1021 50 10000 3.08 20 21:28 19.09.2022
161 Clouds 13 1021 50 10000 3.11 20 20:40 19.09.2022
162 Clouds 21 1017 42 10000 2.79 2 18:49 19.09.2022
163 Clouds 23 1016 29 10000 2.09 341 17:37 19.09.2022
164 Clouds 22 1018 46 10000 1.33 257 13:49 19.09.2022
165 Clouds 18 1017 21 10000 0.81 275 12:26 19.09.2022
166 Clouds 12 1017 29 10000 1.07 11 10:19 19.09.2022
167 Clouds 12 1019 75 10000 2.21 25 08:37 19.09.2022
168 Clouds 15 1020 76 10000 2.54 23 04:26 19.09.2022
169 Clouds 16 1020 75 10000 1.93 17 00:52 19.09.2022
170 Clouds 15 1020 66 10000 0.89 22 22:42 18.09.2022
171 Clouds 15 1019 55 10000 1.58 37 21:26 18.09.2022
172 Clouds 20 1018 56 10000 1.38 18 19:40 18.09.2022
173 Clouds 24 1017 46 10000 1.79 218 17:52 18.09.2022
174 Clouds 24 1017 43 10000 2.24 208 16:49 18.09.2022
175 Clouds 22 1018 47 10000 0.45 271 14:51 18.09.2022
176 Clouds 20 1019 52 10000 1.56 229 13:41 18.09.2022
177 Clouds 17 1020 56 10000 0.45 352 12:20 18.09.2022
178 Clouds 15 1018 32 10000 0.5 320 09:44 18.09.2022
179 Clouds 11 1019 62 10000 1.17 3 01:44 18.09.2022
180 Clouds 11 1019 62 10000 1.28 5 01:20 18.09.2022
181 Clouds 13 1019 63 10000 1.68 12 22:57 17.09.2022
182 Clouds 11 1019 71 10000 2.63 15 20:55 17.09.2022
183 Clear 14 1018 66 10000 2.84 8 19:39 17.09.2022
184 Clear 19 1014 36 10000 2.93 344 18:21 17.09.2022
185 Clear 23 1015 28 10000 1.41 312 14:24 17.09.2022
186 Clouds 21 1016 26 10000 1.4 325 13:26 17.09.2022
187 Clouds 14 1015 30 10000 2.21 360 10:49 17.09.2022
188 Clouds 10 1017 91 10000 3.86 13 06:53 17.09.2022
189 Clouds 11 1017 91 10000 3.72 10 05:49 17.09.2022
190 Clouds 13 1017 90 10000 3.5 7 23:39 16.09.2022
191 Clouds 14 1017 89 10000 3.32 3 22:19 16.09.2022
192 Clouds 20 1016 92 10000 3.34 5 20:44 16.09.2022
193 Clouds 18 1013 81 10000 2.03 358 19:29 16.09.2022
194 Clouds 19 1013 59 10000 1.79 13 16:22 16.09.2022
195 Clouds 21 1013 55 10000 1.71 358 14:51 16.09.2022
196 Clouds 19 1016 59 10000 0.45 0 12:52 16.09.2022
197 Clear 14 1015 76 10000 1.56 345 09:55 16.09.2022
198 Clouds 13 1017 89 10000 2.26 12 07:23 16.09.2022
199 Clouds 13 1017 89 10000 2.26 12 06:48 16.09.2022
200 Clouds 14 1017 89 10000 2.08 14 05:55 16.09.2022
201 Clouds 16 1018 87 10000 2.09 16 01:45 16.09.2022
202 Rain 15 1017 92 10000 2.67 21 21:33 15.09.2022
203 Clouds 18 1016 75 10000 2.62 14 20:33 15.09.2022
204 Rain 16 1015 78 10000 1.59 11 18:57 15.09.2022
205 Rain 19 1014 78 10000 1.55 13 17:39 15.09.2022
206 Rain 19 1014 75 10000 1.83 358 17:20 15.09.2022
207 Clouds 22 1014 67 10000 1.68 334 15:38 15.09.2022
208 Clouds 21 1016 59 10000 2.02 204 12:50 15.09.2022
209 Clouds 19 1016 62 10000 1.71 202 11:47 15.09.2022
210 Clouds 14 1015 54 10000 0.25 186 09:43 15.09.2022
211 Clear 14 1016 85 10000 1.6 36 05:37 15.09.2022
212 Clear 15 1016 84 10000 2.17 34 02:58 15.09.2022
213 Clear 15 1015 88 10000 1.14 348 22:51 14.09.2022
214 Clouds 18 1013 75 10000 1.96 201 20:24 14.09.2022
215 Clouds 22 1013 57 10000 1.34 308 19:32 14.09.2022
216 Clouds 23 1013 53 10000 1.79 248 17:28 14.09.2022
217 Clouds 23 1013 52 10000 1.34 200 16:36 14.09.2022
218 Clouds 23 1013 52 10000 1.34 200 16:36 14.09.2022
219 Clouds 23 1013 60 10000 0.45 215 14:47 14.09.2022
220 Clouds 20 1013 79 10000 3.33 218 12:33 14.09.2022
221 Clouds 16 1014 92 10000 2.58 207 09:51 14.09.2022
222 Clouds 15 1014 92 2258 1.1 229 07:55 14.09.2022
223 Clouds 15 1014 91 6208 0.82 190 06:48 14.09.2022
224 Clouds 16 1014 90 9229 0.45 271 06:23 14.09.2022
225 Rain 18 1015 91 838 2.61 181 01:55 14.09.2022
226 Clouds 18 1016 91 838 2.61 181 01:30 14.09.2022
227 Clouds 17 1017 90 617 2.7 178 00:52 14.09.2022
228 Rain 18 1016 90 624 0.45 47 23:54 13.09.2022
229 Rain 17 1016 90 624 0.45 47 23:36 13.09.2022
230 Rain 18 1016 88 10000 3.24 216 23:18 13.09.2022
231 Clouds 18 1016 87 10000 0.45 23 22:22 13.09.2022
232 Rain 18 1016 84 1207 1.64 177 20:29 13.09.2022
233 Rain 19 1016 83 2783 0.45 0 18:21 13.09.2022
234 Clouds 20 1016 90 10000 2.86 180 15:58 13.09.2022
235 Rain 20 1018 85 10000 4.01 207 14:47 13.09.2022
236 Rain 21 1018 70 10000 1.34 236 13:25 13.09.2022
237 Clouds 19 1017 73 10000 1.86 173 09:49 13.09.2022
238 Clouds 18 1016 70 10000 2 171 07:21 13.09.2022
239 Clouds 22 1018 95 10000 1.64 212 00:31 13.09.2022
240 Clouds 22 1018 88 10000 1.2 177 22:51 12.09.2022
241 Clouds 22 1018 87 10000 1.52 180 22:22 12.09.2022
242 Clouds 20 1016 78 10000 1.53 133 20:42 12.09.2022
243 Clouds 28 1014 50 10000 2.68 196 18:52 12.09.2022
244 Clouds 29 1014 36 10000 2.91 192 17:25 12.09.2022
245 Rain 28 1019 53 10000 3.03 222 14:39 12.09.2022
246 Clouds 22 1016 37 10000 2.74 209 11:51 12.09.2022
247 Clouds 25 1016 43 10000 1.49 202 09:57 12.09.2022
248 Clouds 19 1020 81 10000 1.16 50 04:57 12.09.2022
249 Clouds 19 1020 81 10000 0.12 6 04:27 12.09.2022
250 Clouds 20 1020 72 10000 0.76 112 23:47 11.09.2022
251 Clouds 21 1019 68 10000 1.13 67 22:43 11.09.2022
252 Clouds 21 1018 63 10000 0.71 22 20:51 11.09.2022
253 Clear 26 1017 60 10000 0.82 256 20:18 11.09.2022
254 Clear 25 1016 46 10000 2.63 236 19:25 11.09.2022
255 Clear 28 1018 44 10000 0.45 155 18:36 11.09.2022
256 Clear 30 1018 39 10000 1.79 291 16:47 11.09.2022
257 Clear 27 1020 42 10000 2.24 306 14:56 11.09.2022
258 Clear 24 1021 52 10000 0.89 21 12:53 11.09.2022
259 Clear 19 1020 55 10000 0.78 24 09:28 11.09.2022
260 Clear 16 1022 79 10000 1.39 23 07:21 11.09.2022
261 Clear 18 1023 72 10000 1.27 13 01:18 11.09.2022
262 Clear 18 1022 70 10000 0.96 31 23:20 10.09.2022
263 Clear 18 1022 71 10000 1.17 18 21:33 10.09.2022
264 Clouds 19 1020 67 10000 0.95 355 19:49 10.09.2022
265 Clouds 21 1019 52 10000 1.02 244 19:29 10.09.2022
266 Clouds 23 1019 52 10000 1.02 244 18:55 10.09.2022
267 Clouds 25 1018 40 10000 2.15 218 16:51 10.09.2022
268 Clouds 26 1021 41 10000 2.24 269 14:43 10.09.2022
269 Clouds 22 1022 49 10000 0.45 234 12:53 10.09.2022
270 Clear 17 1021 48 10000 2.12 228 11:19 10.09.2022
271 Clear 17 1021 55 10000 1.58 230 09:51 10.09.2022
272 Clouds 15 1022 65 10000 0.55 296 08:37 10.09.2022
273 Clouds 13 1023 78 10000 1.26 1 07:49 10.09.2022
274 Clouds 14 1023 92 10000 1.16 25 00:51 10.09.2022
275 Clouds 15 1023 93 10000 1.6 24 23:33 09.09.2022
276 Clouds 14 1022 92 10000 2.15 17 22:19 09.09.2022
277 Clouds 14 1021 91 10000 2.42 7 20:47 09.09.2022
278 Clouds 20 1018 60 10000 2.24 273 19:25 09.09.2022
279 Clouds 20 1018 60 10000 2.24 273 18:47 09.09.2022
280 Clouds 24 1019 43 10000 2.24 289 16:28 09.09.2022
281 Clouds 24 1019 48 10000 1.34 0 13:49 09.09.2022
282 Clouds 21 1019 60 10000 2.24 222 12:32 09.09.2022
283 Clouds 15 1020 81 10000 1.77 231 09:55 09.09.2022
284 Clear 15 1020 79 10000 0.4 34 05:19 09.09.2022
285 Clear 15 1020 77 10000 0.8 35 03:20 09.09.2022
286 Clouds 15 1019 83 10000 1.74 2 21:53 08.09.2022
287 Clouds 15 1018 81 10000 1.55 354 20:51 08.09.2022
288 Clouds 16 1018 77 10000 1.6 6 20:31 08.09.2022
289 Clouds 16 1017 66 10000 0.4 310 19:56 08.09.2022
290 Clouds 23 1017 46 10000 1.79 196 18:22 08.09.2022
291 Clouds 24 1017 41 10000 1.79 262 16:19 08.09.2022
292 Clouds 22 1018 42 10000 1.34 302 14:40 08.09.2022
293 Clouds 21 1018 41 10000 1.79 267 13:27 08.09.2022
294 Clouds 18 1019 58 10000 2.96 219 11:57 08.09.2022
295 Clouds 16 1018 62 10000 2.72 217 10:52 08.09.2022
296 Clouds 14 1018 69 10000 0.71 160 08:21 08.09.2022
297 Clouds 14 1017 66 10000 0.88 156 06:41 08.09.2022
298 Clouds 16 1018 61 10000 0.66 156 02:36 08.09.2022
299 Clouds 16 1018 61 10000 0.36 180 02:18 08.09.2022
300 Clouds 16 1018 60 10000 0.45 205 00:27 08.09.2022
301 Clouds 18 1017 59 10000 1.04 147 22:42 07.09.2022
302 Clouds 18 1018 55 10000 0.21 57 21:42 07.09.2022
303 Clouds 18 1018 55 10000 0.21 57 21:42 07.09.2022
304 Clouds 23 1017 51 10000 1.04 346 20:42 07.09.2022
305 Clouds 25 1016 48 10000 1.19 258 19:36 07.09.2022
306 Clouds 25 1016 40 10000 1.34 251 17:28 07.09.2022
307 Clouds 23 1018 48 10000 1.34 287 12:49 07.09.2022
308 Clouds 19 1019 64 10000 4.03 210 10:46 07.09.2022
309 Clouds 11 1018 60 10000 1.14 172 08:38 07.09.2022
310 Clouds 15 1019 77 10000 1.03 99 06:57 07.09.2022
311 Clouds 17 1021 69 10000 0.75 72 02:46 07.09.2022
312 Clouds 18 1021 64 10000 2.14 22 22:44 06.09.2022
313 Clouds 20 1020 64 10000 1.44 4 21:39 06.09.2022
314 Clear 22 1018 60 10000 1.32 233 20:21 06.09.2022
315 Clear 25 1017 45 10000 2.53 225 18:45 06.09.2022
316 Clear 25 1017 35 10000 2.86 231 17:56 06.09.2022
317 Clear 25 1017 32 10000 3.16 229 17:20 06.09.2022
318 Clear 24 1017 32 10000 3.16 229 16:37 06.09.2022
319 Clear 28 1020 36 10000 0.45 293 14:55 06.09.2022
320 Clear 27 1020 36 10000 1.34 212 13:44 06.09.2022
321 Clear 26 1020 39 10000 1.79 251 13:21 06.09.2022
322 Clear 21 1022 73 10000 2.9 210 11:29 06.09.2022
323 Clear 20 1020 55 10000 2.9 210 10:33 06.09.2022
324 Clouds 17 1022 82 10000 0.15 34 08:29 06.09.2022
325 Clouds 17 1022 80 10000 0.47 21 06:58 06.09.2022
326 Clouds 17 1022 91 10000 0.25 36 01:23 06.09.2022
327 Clouds 20 1022 91 10000 0.48 114 23:19 05.09.2022
328 Clouds 17 1022 89 10000 0.8 116 21:39 05.09.2022
329 Clear 17 1022 85 10000 0.91 123 20:32 05.09.2022
330 Clouds 25 1021 76 10000 1.82 242 18:59 05.09.2022
331 Clouds 25 1021 76 10000 1.82 242 18:38 05.09.2022
332 Clouds 25 1021 71 10000 2.15 230 18:19 05.09.2022
333 Clouds 26 1020 48 10000 4.45 209 16:25 05.09.2022
334 Clear 28 1022 43 10000 1.79 306 15:23 05.09.2022
335 Clouds 25 1022 43 10000 1.34 277 12:56 05.09.2022
336 Clouds 21 1023 67 10000 3.54 201 11:37 05.09.2022
337 Clouds 18 1024 78 10000 0.45 62 08:58 05.09.2022
338 Clouds 18 1024 80 10000 0.86 97 05:20 05.09.2022
339 Clouds 17 1024 94 10000 0.98 108 01:35 05.09.2022
340 Clouds 20 1023 84 10000 1.12 132 22:29 04.09.2022
341 Clouds 21 1023 84 10000 1.12 132 21:59 04.09.2022
342 Clouds 22 1021 75 10000 1.23 146 20:35 04.09.2022
343 Clouds 24 1019 53 10000 3.58 212 18:39 04.09.2022
344 Clouds 24 1019 41 10000 4.5 210 17:43 04.09.2022
345 Clouds 26 1020 36 10000 2.24 260 16:24 04.09.2022
346 Clear 26 1021 35 10000 2.24 279 14:25 04.09.2022
347 Clear 23 1021 57 10000 0.45 298 12:52 04.09.2022
348 Clear 18 1022 68 10000 3 210 11:28 04.09.2022
349 Clear 20 1019 57 10000 2.3 205 09:38 04.09.2022
350 Clear 14 1020 85 10000 0.57 54 06:35 04.09.2022
351 Clear 15 1020 82 10000 0.84 40 03:18 04.09.2022
352 Clouds 16 1018 72 10000 0.44 76 22:53 03.09.2022
353 Clouds 17 1017 71 10000 0.49 70 21:42 03.09.2022
354 Clouds 18 1016 69 10000 0.64 200 21:22 03.09.2022
355 Clouds 23 1015 49 10000 3.61 217 18:41 03.09.2022
356 Clouds 24 1015 42 10000 1.79 286 17:19 03.09.2022
357 Clouds 24 1016 45 10000 1.79 257 15:49 03.09.2022
358 Clouds 24 1016 49 10000 3.13 325 14:42 03.09.2022
359 Clouds 23 1016 59 10000 2.24 281 13:50 03.09.2022
360 Clouds 19 1018 81 10000 3.33 212 11:32 03.09.2022
361 Clouds 16 1018 92 10000 2.18 193 09:32 03.09.2022
362 Clouds 15 1017 91 10000 0.85 141 07:53 03.09.2022
363 Rain 16 1016 92 10000 0.41 117 04:51 03.09.2022
364 Clouds 16 1017 91 10000 0.5 86 02:40 03.09.2022
365 Clouds 17 1017 89 10000 0.57 51 23:44 02.09.2022
366 Clouds 17 1017 88 10000 0.08 68 22:21 02.09.2022
367 Clouds 18 1016 85 10000 0.77 225 20:42 02.09.2022
368 Clouds 19 1015 82 10000 1.26 227 19:47 02.09.2022
369 Clouds 21 1016 82 10000 2.73 229 18:50 02.09.2022
370 Clouds 21 1012 47 10000 2.85 224 18:25 02.09.2022
371 Rain 24 1012 45 10000 3.46 222 17:24 02.09.2022
372 Clouds 23 1015 54 10000 1.79 233 16:31 02.09.2022
373 Clouds 23 1015 54 10000 1.79 233 16:31 02.09.2022
374 Clouds 25 1015 45 10000 1.79 265 13:32 02.09.2022
375 Clouds 16 1015 50 10000 2.41 202 10:43 02.09.2022
376 Clouds 18 1015 54 10000 1.94 196 09:42 02.09.2022
377 Clouds 18 1015 64 10000 0.64 167 08:45 02.09.2022
378 Clouds 16 1017 84 10000 1.31 51 06:46 02.09.2022
379 Clouds 16 1018 84 10000 1.26 41 06:18 02.09.2022
380 Clear 18 1018 81 10000 1.25 59 23:19 01.09.2022
381 Clear 19 1018 78 10000 1.4 48 21:47 01.09.2022
382 Clear 19 1017 75 10000 0.28 355 21:27 01.09.2022
383 Clouds 19 1016 70 10000 0.43 357 20:52 01.09.2022
384 Clouds 25 1017 48 10000 0.45 255 19:25 01.09.2022
385 Clouds 26 1016 45 10000 1.34 221 18:18 01.09.2022
386 Clouds 26 1017 48 10000 1.34 192 16:47 01.09.2022
387 Clouds 26 1018 46 10000 1.79 261 14:41 01.09.2022
388 Clouds 23 1019 57 10000 0.45 0 13:20 01.09.2022
389 Clouds 16 1017 47 10000 2.76 214 11:57 01.09.2022
390 Clouds 15 1017 47 10000 2.76 214 11:39 01.09.2022
391 Clouds 15 1017 57 10000 2.15 209 11:18 01.09.2022
392 Clouds 17 1018 75 10000 0.43 112 09:20 01.09.2022
393 Clouds 12 1020 92 10000 1.23 44 06:28 01.09.2022
394 Clouds 14 1022 90 10000 2.41 35 01:45 01.09.2022
395 Clouds 14 1021 90 10000 2.59 34 00:33 01.09.2022
396 Clouds 15 1022 88 10000 1.98 35 22:21 31.08.2022
397 Clouds 17 1021 86 3600 0.78 354 20:22 31.08.2022
398 Rain 16 1022 87 2227 1.22 32 18:19 31.08.2022
399 Rain 18 1018 78 7186 2.01 39 16:31 31.08.2022
400 Clouds 21 1021 71 3692 2.12 213 14:44 31.08.2022
401 Rain 18 1018 57 10000 1.48 204 12:24 31.08.2022
402 Rain 21 1021 70 10000 1.48 204 11:37 31.08.2022
403 Clouds 20 1021 80 10000 0.45 294 09:20 31.08.2022
404 Clouds 19 1021 81 10000 1.1 51 06:18 31.08.2022
405 Clouds 19 1022 85 10000 2.73 25 23:21 30.08.2022
406 Clouds 20 1022 86 10000 2.95 24 21:49 30.08.2022
407 Clear 20 1021 84 10000 3.09 17 20:58 30.08.2022
408 Clouds 22 1018 50 10000 1.48 319 18:49 30.08.2022
409 Clear 28 1020 35 10000 1.79 208 15:29 30.08.2022
410 Clear 27 1021 47 10000 1.34 259 13:24 30.08.2022
411 Clear 24 1020 49 10000 2.58 217 11:22 30.08.2022
412 Clear 22 1020 49 10000 2.58 217 10:57 30.08.2022
413 Clear 16 1022 88 10000 0.94 37 07:46 30.08.2022
414 Clear 17 1023 84 10000 0.49 43 02:34 30.08.2022
415 Rain 18 1023 82 10000 0.89 237 23:20 29.08.2022
416 Clouds 19 1022 82 5635 2.12 335 22:24 29.08.2022
417 Clouds 20 1022 78 5990 1.82 245 21:25 29.08.2022
418 Rain 23 1020 82 4590 2.35 256 19:52 29.08.2022
419 Clouds 28 1019 33 10000 1.79 277 17:52 29.08.2022
420 Clouds 29 1019 34 10000 2.24 190 17:24 29.08.2022
421 Clouds 29 1019 35 10000 0.45 310 16:37 29.08.2022
422 Clouds 24 1022 56 10000 2.99 221 14:45 29.08.2022
423 Clouds 23 1022 56 10000 0.45 0 12:53 29.08.2022
424 Clouds 18 1019 39 10000 2.21 200 11:19 29.08.2022
425 Clouds 24 1019 48 10000 1.59 200 09:45 29.08.2022
426 Clear 16 1022 87 10000 0.5 67 08:28 29.08.2022
427 Clear 16 1022 88 10000 0.59 43 04:57 29.08.2022
428 Clouds 17 1022 89 10000 0.65 86 00:20 29.08.2022
429 Clouds 18 1021 87 10000 0.62 80 22:37 28.08.2022
430 Clouds 19 1021 87 10000 1.32 44 21:43 28.08.2022
431 Clouds 20 1020 87 10000 3.18 360 20:54 28.08.2022
432 Rain 21 1020 82 10000 1.27 65 19:20 28.08.2022
433 Rain 24 1019 66 10000 2.27 45 18:20 28.08.2022
434 Clouds 26 1016 49 10000 1.59 49 16:57 28.08.2022
435 Clouds 25 1015 38 10000 0.3 137 15:55 28.08.2022
436 Clear 26 1019 45 10000 1.34 229 14:21 28.08.2022
437 Clear 22 1019 55 10000 1.94 226 12:31 28.08.2022
438 Clear 11 1017 54 10000 1.16 241 10:40 28.08.2022
439 Clear 21 1017 69 10000 0.84 241 09:41 28.08.2022
440 Clear 17 1017 78 10000 0.27 246 08:36 28.08.2022
441 Clear 13 1019 91 10000 0.94 28 07:41 28.08.2022
442 Clouds 16 1018 87 10000 0.89 199 01:31 28.08.2022
443 Clouds 17 1019 87 10000 0.45 58 00:22 28.08.2022
444 Rain 16 1019 89 10000 0.45 34 22:31 27.08.2022
445 Rain 16 1019 89 10000 0.45 42 20:53 27.08.2022
446 Rain 15 1018 88 10000 0.45 54 19:38 27.08.2022
447 Clouds 25 1014 58 9415 0.99 45 16:42 27.08.2022
448 Clouds 24 1014 51 9738 0.26 126 15:31 27.08.2022
449 Clouds 25 1015 47 10000 2.24 244 14:35 27.08.2022
450 Clear 23 1016 66 10000 2.13 221 12:22 27.08.2022
451 Clear 13 1015 65 10000 1.71 219 10:33 27.08.2022
452 Clear 17 1015 74 10000 1.07 214 09:40 27.08.2022
453 Clouds 16 1017 91 10000 1.73 30 06:55 27.08.2022
454 Clouds 18 1018 90 10000 1.99 20 02:27 27.08.2022
455 Clouds 18 1019 89 10000 2.3 36 23:51 26.08.2022
456 Clouds 19 1019 88 10000 2.48 16 21:59 26.08.2022
457 Clouds 19 1017 86 10000 0.45 18 20:23 26.08.2022
458 Rain 22 1016 87 10000 2.42 5 18:32 26.08.2022
459 Clouds 23 1016 72 10000 1.26 21 16:40 26.08.2022
460 Clouds 24 1016 59 10000 0.77 344 15:25 26.08.2022
461 Clouds 24 1018 52 10000 0.89 312 13:20 26.08.2022
462 Clouds 21 1019 70 10000 0.43 334 11:48 26.08.2022
463 Clouds 19 1020 82 10000 1.54 15 11:22 26.08.2022
464 Clouds 16 1020 92 10000 2.27 16 09:53 26.08.2022
465 Clouds 15 1021 91 10000 3.18 20 04:56 26.08.2022
466 Clouds 17 1023 90 10000 1.34 19 00:55 26.08.2022
467 Rain 18 1023 88 10000 0.45 0 22:45 25.08.2022
468 Rain 18 1022 93 8714 1.43 256 20:57 25.08.2022
469 Rain 19 1020 90 10000 1 315 19:36 25.08.2022
470 Clouds 18 1020 90 10000 3.52 22 18:35 25.08.2022
471 Clouds 18 1021 92 10000 3.37 25 17:32 25.08.2022
472 Rain 19 1021 87 10000 2.71 63 16:45 25.08.2022
473 Rain 22 1022 75 5425 0.45 242 15:37 25.08.2022
474 Clouds 24 1017 63 7417 1.57 3 13:59 25.08.2022
475 Clouds 19 1018 63 8455 0.79 245 11:25 25.08.2022
476 Clouds 18 1018 63 8455 0.79 245 10:44 25.08.2022
477 Clouds 18 1021 90 10000 1.63 33 07:35 25.08.2022
478 Rain 19 1022 92 10000 1.34 15 03:44 25.08.2022
479 Clouds 21 1021 88 10000 2.06 345 23:37 24.08.2022
480 Clouds 20 1021 92 9402 0.64 317 22:56 24.08.2022
481 Rain 21 1021 87 10000 0.74 160 21:55 24.08.2022
482 Clouds 21 1020 87 10000 1.98 55 21:28 24.08.2022
483 Rain 22 1020 85 4108 1.1 204 19:56 24.08.2022
484 Clouds 25 1015 48 10000 0.37 130 16:58 24.08.2022
485 Clouds 28 1015 38 10000 1.59 211 15:54 24.08.2022
486 Clouds 31 1017 36 10000 0.89 244 15:18 24.08.2022
487 Clear 28 1019 50 10000 0.89 274 12:51 24.08.2022
488 Clear 24 1020 68 10000 0.45 49 11:18 24.08.2022
489 Clear 18 1021 81 10000 0.45 204 08:45 24.08.2022
490 Clear 19 1020 77 10000 0.38 68 05:26 24.08.2022
491 Clouds 19 1019 88 10000 0.84 43 00:41 24.08.2022
492 Clouds 20 1020 86 10000 1.58 42 22:38 23.08.2022
493 Clouds 18 1020 88 10000 2.19 31 21:55 23.08.2022
494 Clouds 21 1019 85 10000 2.46 24 20:43 23.08.2022
495 Clouds 23 1017 71 10000 1.96 10 18:58 23.08.2022
496 Clouds 22 1016 61 10000 1.03 322 17:56 23.08.2022
497 Clouds 28 1018 52 10000 1.34 252 17:21 23.08.2022
498 Clouds 28 1017 39 10000 1.34 280 15:54 23.08.2022
499 Clouds 30 1017 39 10000 1.79 190 13:54 23.08.2022
500 Clouds 27 1018 45 10000 1.34 233 12:46 23.08.2022
501 Clouds 22 1019 60 10000 0.45 0 10:57 23.08.2022
502 Clouds 20 1019 66 10000 1.46 3 10:32 23.08.2022
503 Clouds 21 1017 50 10000 0.83 340 10:32 23.08.2022
504 Clouds 17 1019 74 10000 2.18 12 08:55 23.08.2022
505 Clouds 17 1019 74 10000 2.71 20 08:22 23.08.2022
506 Clouds 17 1019 73 10000 2.71 20 07:52 23.08.2022
507 Clouds 17 1019 72 10000 3.09 19 07:22 23.08.2022
508 Clouds 16 1019 93 10000 3.17 16 06:19 23.08.2022
509 Clouds 17 1019 92 10000 2.92 14 01:43 23.08.2022
510 Clouds 17 1020 93 10000 2.87 10 00:26 23.08.2022
511 Clouds 18 1020 93 10000 2.87 10 23:30 22.08.2022
512 Clouds 18 1019 92 10000 2.97 9 22:19 22.08.2022
513 Clouds 22 1017 74 10000 2.74 2 19:51 22.08.2022
514 Clouds 21 1017 74 10000 2.74 2 19:30 22.08.2022
515 Clouds 25 1016 59 10000 3.13 359 18:36 22.08.2022
516 Clouds 27 1015 45 10000 3.16 349 15:45 22.08.2022
517 Clouds 27 1015 44 10000 2.66 346 14:46 22.08.2022
518 Clouds 23 1018 46 10000 1.79 253 11:20 22.08.2022
519 Clouds 17 1019 66 10000 2.94 9 08:54 22.08.2022
520 Clouds 16 1018 92 10000 3.08 11 04:45 22.08.2022
521 Clouds 17 1020 93 10000 2.94 10 00:54 22.08.2022
522 Clouds 17 1020 93 10000 2.94 10 00:35 22.08.2022
523 Clouds 18 1020 93 10000 2.9 15 22:56 21.08.2022
524 Clouds 18 1020 94 10000 3.2 16 21:45 21.08.2022
525 Clouds 24 1019 90 10000 3.07 9 20:58 21.08.2022
526 Clouds 24 1018 77 10000 3.14 9 19:28 21.08.2022
527 Clouds 25 1017 67 10000 3.08 1 18:21 21.08.2022
528 Clouds 25 1016 44 10000 2.17 339 16:21 21.08.2022
529 Clouds 26 1016 44 10000 2.17 339 15:43 21.08.2022
530 Clouds 29 1017 38 10000 1.79 248 13:58 21.08.2022
531 Clouds 28 1018 38 10000 1.34 222 13:40 21.08.2022
532 Clouds 26 1019 43 10000 1.34 171 12:37 21.08.2022
533 Clouds 23 1018 42 10000 0.71 280 09:32 21.08.2022
534 Clouds 17 1021 71 10000 1.19 348 08:56 21.08.2022
535 Clouds 17 1021 70 10000 1.45 2 08:38 21.08.2022
536 Clouds 18 1021 70 10000 2.23 17 07:28 21.08.2022
537 Clouds 19 1022 68 10000 2.05 13 04:18 21.08.2022
538 Clouds 17 1022 76 10000 1.94 21 00:31 21.08.2022
539 Clouds 18 1022 80 10000 2.3 23 22:59 20.08.2022
540 Clouds 19 1022 78 10000 2.37 21 21:39 20.08.2022
541 Clouds 20 1021 74 10000 2.35 22 20:43 20.08.2022
542 Clouds 22 1020 60 10000 2.35 356 19:41 20.08.2022
543 Clouds 26 1019 45 10000 1.72 334 18:33 20.08.2022
544 Clouds 26 1018 37 10000 1.35 317 17:52 20.08.2022
545 Clouds 28 1019 34 10000 1.34 294 17:18 20.08.2022
546 Clear 29 1020 35 10000 1.79 238 15:37 20.08.2022
547 Clear 26 1022 37 10000 1.79 260 13:27 20.08.2022
548 Clear 23 1022 44 10000 1.76 227 11:52 20.08.2022
549 Clear 22 1021 43 10000 0.27 298 09:43 20.08.2022
550 Clear 16 1022 52 10000 1.17 26 08:34 20.08.2022
551 Clear 15 1023 65 10000 2.68 23 05:55 20.08.2022
552 Clear 14 1024 84 10000 2.88 17 01:46 20.08.2022
553 Clear 14 1025 86 10000 2.97 18 00:35 20.08.2022
554 Clear 15 1024 89 10000 3.12 18 23:19 19.08.2022
555 Clear 15 1024 89 10000 3.12 18 22:33 19.08.2022
556 Clear 18 1021 61 10000 3.13 3 20:20 19.08.2022
557 Clear 25 1019 38 10000 2.88 341 17:35 19.08.2022
558 Clear 25 1019 33 10000 1.58 321 15:19 19.08.2022
559 Clear 24 1021 31 10000 1.34 219 13:21 19.08.2022
560 Clear 19 1021 48 10000 2.11 360 10:53 19.08.2022
561 Clear 17 1022 53 10000 2.7 4 10:21 19.08.2022
562 Clouds 12 1021 94 10000 3.2 12 06:27 19.08.2022
563 Clouds 13 1022 94 10000 3.14 10 00:56 19.08.2022
564 Clouds 13 1022 93 10000 3.1 10 00:26 19.08.2022
565 Clouds 13 1022 93 10000 3.1 10 23:37 18.08.2022
566 Clouds 13 1022 92 10000 3.27 7 22:38 18.08.2022
567 Clouds 13 1021 92 10000 3.42 5 21:55 18.08.2022
568 Clouds 13 1020 88 10000 3.13 5 21:26 18.08.2022
569 Clouds 13 1018 73 10000 3.21 2 19:55 18.08.2022
570 Clouds 15 1017 65 10000 3.49 3 19:25 18.08.2022
571 Clouds 16 1017 66 10000 2.74 357 17:49 18.08.2022
572 Clouds 15 1016 72 10000 2.45 352 16:55 18.08.2022
573 Clouds 21 1015 54 10000 2.61 358 14:22 18.08.2022
574 Clouds 22 1015 54 10000 2.61 358 13:58 18.08.2022
575 Clouds 21 1016 46 10000 1.34 196 12:31 18.08.2022
576 Clouds 15 1016 71 10000 2.87 1 11:21 18.08.2022
577 Clouds 16 1015 69 10000 2.8 5 09:43 18.08.2022
578 Clouds 15 1015 68 10000 0.45 277 07:57 18.08.2022
579 Clouds 12 1016 95 10000 2.66 8 06:43 18.08.2022
580 Clouds 13 1016 93 10000 2.93 31 02:59 18.08.2022
581 Clouds 14 1016 93 10000 3.02 23 22:51 17.08.2022
582 Clouds 15 1014 88 9894 3.4 14 21:26 17.08.2022
583 Clouds 16 1012 70 10000 1.19 318 19:59 17.08.2022
584 Clouds 16 1011 61 10000 2.06 231 18:39 17.08.2022
585 Rain 22 1012 51 7168 2.24 258 17:21 17.08.2022
586 Rain 22 1013 51 10000 2.24 270 16:20 17.08.2022
587 Rain 17 1011 62 10000 3.18 199 14:46 17.08.2022
588 Clouds 22 1012 57 10000 2.85 199 12:36 17.08.2022
589 Clouds 21 1012 62 10000 3.01 195 11:25 17.08.2022
590 Clouds 16 1013 79 10000 1.63 179 09:29 17.08.2022
591 Clear 15 1013 78 10000 0.98 106 06:50 17.08.2022
592 Clear 18 1014 68 10000 1.43 93 01:23 17.08.2022
593 Clear 16 1013 87 10000 1.35 73 23:32 16.08.2022
594 Clear 17 1013 83 10000 1.18 97 21:33 16.08.2022
595 Clouds 18 1011 74 10000 0.98 135 20:25 16.08.2022
596 Clouds 18 1011 74 10000 0.98 135 19:40 16.08.2022
597 Clouds 22 1012 73 10000 1.89 171 17:56 16.08.2022
598 Clouds 22 1012 73 10000 1.89 171 17:56 16.08.2022
599 Rain 23 1013 55 10000 0.89 258 17:23 16.08.2022
600 Clouds 27 1012 44 10000 2.68 290 15:45 16.08.2022
601 Clouds 27 1012 38 10000 2.68 254 14:54 16.08.2022
602 Clouds 27 1012 39 10000 2.68 275 14:36 16.08.2022
603 Clouds 25 1013 48 10000 3.13 255 12:39 16.08.2022
604 Clear 19 1011 52 10000 3.22 203 10:23 16.08.2022
605 Clear 18 1011 63 10000 1.82 179 08:55 16.08.2022
606 Clear 16 1013 79 10000 0.94 114 08:26 16.08.2022
607 Clear 15 1013 79 10000 0.87 90 06:48 16.08.2022
608 Clear 17 1014 75 10000 1.47 116 00:32 16.08.2022
609 Clear 18 1013 75 10000 2.78 28 22:24 15.08.2022
610 Clear 18 1013 75 10000 2.78 28 21:51 15.08.2022
611 Clouds 18 1011 65 10000 1.11 6 20:32 15.08.2022
612 Clouds 22 1011 69 10000 1.37 237 19:59 15.08.2022
613 Clouds 24 1011 67 10000 1.79 257 17:59 15.08.2022
614 Clouds 26 1011 45 10000 2.24 270 16:25 15.08.2022
615 Clouds 26 1011 43 10000 1.79 352 15:52 15.08.2022
616 Clear 26 1012 46 10000 0.89 240 13:50 15.08.2022
617 Clear 23 1012 57 10000 1.34 256 11:24 15.08.2022
618 Clear 19 1013 74 10000 0.45 0 09:40 15.08.2022
619 Clouds 18 1013 72 10000 0.25 127 07:32 15.08.2022
620 Clouds 16 1013 88 10000 0.57 108 04:34 15.08.2022
621 Clear 18 1014 55 10000 1.31 69 00:22 15.08.2022
622 Clear 19 1013 51 10000 0.73 63 22:29 14.08.2022
623 Clear 17 1013 51 10000 0.73 63 21:35 14.08.2022
624 Clouds 22 1011 46 10000 1.44 221 19:46 14.08.2022
625 Clouds 26 1010 31 10000 3.21 233 18:42 14.08.2022
626 Clouds 26 1010 27 10000 4.47 232 17:48 14.08.2022
627 Clouds 29 1010 28 10000 4.86 230 16:32 14.08.2022
628 Clouds 27 1010 28 10000 5.25 232 15:48 14.08.2022
629 Clear 28 1011 31 10000 4.72 222 14:19 14.08.2022
630 Clear 28 1013 23 10000 2.24 332 13:49 14.08.2022
631 Clear 27 1013 36 10000 2.24 0 12:55 14.08.2022
632 Clear 23 1014 54 10000 3.78 220 11:31 14.08.2022
633 Clear 19 1013 55 10000 2.7 215 10:26 14.08.2022
634 Clouds 17 1015 84 10000 0.91 205 08:20 14.08.2022
635 Clouds 17 1015 81 10000 0.21 172 06:20 14.08.2022
636 Clouds 19 1017 82 10000 1.36 85 02:35 14.08.2022
637 Clouds 21 1018 81 10000 1.09 198 23:23 13.08.2022
638 Clouds 21 1018 78 10000 1.91 225 22:28 13.08.2022
639 Clouds 22 1018 70 10000 1.79 134 20:58 13.08.2022
640 Clouds 23 1018 63 10000 1.79 43 19:50 13.08.2022
641 Clouds 23 1018 66 10000 1.34 45 19:19 13.08.2022
642 Clouds 27 1018 56 10000 0.89 109 17:22 13.08.2022
643 Clouds 33 1016 34 10000 0.89 220 15:18 13.08.2022
644 Clouds 33 1016 32 10000 1.34 275 14:24 13.08.2022
645 Clouds 31 1017 37 10000 1.79 236 13:36 13.08.2022
646 Clear 23 1015 29 10000 2.08 231 11:49 13.08.2022
647 Clear 27 1016 41 10000 1.32 208 09:43 13.08.2022
648 Clear 22 1017 61 10000 1.52 38 07:48 13.08.2022
649 Clear 19 1021 90 10000 1.66 38 02:33 13.08.2022
650 Clouds 20 1021 88 10000 2.66 27 23:45 12.08.2022
651 Clouds 20 1021 82 10000 2.56 33 21:40 12.08.2022
652 Clouds 21 1021 91 9366 4.84 354 19:51 12.08.2022
653 Rain 22 1020 87 10000 3 83 19:24 12.08.2022
654 Rain 27 1020 86 8559 3.92 39 18:31 12.08.2022
655 Rain 28 1019 60 10000 2.24 81 16:27 12.08.2022
656 Clouds 30 1017 41 10000 2.36 30 15:23 12.08.2022
657 Clouds 27 1017 41 10000 1.08 14 13:50 12.08.2022
658 Clouds 28 1019 44 10000 0.45 309 12:50 12.08.2022
659 Clouds 16 1019 57 10000 1.17 14 09:22 12.08.2022
660 Clear 21 1019 63 10000 1.98 22 07:46 12.08.2022
661 Clear 18 1021 84 10000 2.07 26 06:24 12.08.2022
662 Clouds 19 1023 84 10000 1.41 30 00:49 12.08.2022
663 Clouds 19 1022 83 10000 1.43 27 23:59 11.08.2022
664 Clouds 20 1023 82 10000 1.65 31 23:27 11.08.2022
665 Clouds 21 1022 82 10000 1.68 13 21:55 11.08.2022
666 Clouds 21 1022 81 10000 1.89 28 21:28 11.08.2022
667 Clouds 19 1022 85 10000 1.89 28 20:31 11.08.2022
668 Rain 19 1020 89 10000 2.43 44 19:34 11.08.2022
669 Rain 26 1022 91 6180 1.14 348 18:57 11.08.2022
670 Rain 31 1021 86 10000 1.82 126 17:22 11.08.2022
671 Rain 23 1019 61 10000 2.11 308 15:48 11.08.2022
672 Clouds 27 1018 46 10000 0.7 191 14:40 11.08.2022
673 Clouds 25 1021 47 10000 0.45 259 11:59 11.08.2022
674 Clouds 22 1020 49 10000 0.3 7 09:22 11.08.2022
675 Clouds 18 1022 78 10000 1.4 39 06:52 11.08.2022
676 Clouds 20 1022 73 10000 1.39 35 02:49 11.08.2022
677 Clouds 19 1022 71 10000 1.62 33 23:57 10.08.2022
678 Clouds 18 1022 82 10000 1.71 43 21:49 10.08.2022
679 Clouds 18 1022 89 10000 0.69 79 21:18 10.08.2022
680 Clouds 18 1022 89 10000 0.69 79 20:35 10.08.2022
681 Clouds 18 1023 92 10000 1.03 169 18:53 10.08.2022
682 Clouds 31 1021 87 7130 1.9 72 17:27 10.08.2022
683 Clouds 26 1018 39 10000 2.14 216 14:53 10.08.2022
684 Clear 29 1022 40 10000 2.24 234 13:33 10.08.2022
685 Clear 26 1020 46 10000 1.75 215 10:50 10.08.2022
686 Clear 12 1021 62 10000 0.2 153 08:39 10.08.2022
687 Clouds 20 1022 68 10000 1.08 43 07:35 10.08.2022
688 Clouds 16 1024 93 10000 1.44 45 04:50 10.08.2022
689 Clouds 17 1025 92 10000 2.01 37 01:33 10.08.2022
690 Clouds 18 1025 91 10000 2.06 38 23:31 09.08.2022
691 Clouds 18 1025 90 10000 0.45 59 21:58 09.08.2022
692 Clouds 19 1025 91 10000 0.08 75 21:23 09.08.2022
693 Rain 18 1026 91 10000 0.45 0 19:18 09.08.2022
694 Rain 19 1026 89 3339 1.09 320 17:37 09.08.2022
695 Rain 19 1026 89 4183 1.53 346 17:19 09.08.2022
696 Rain 21 1025 81 10000 1.79 351 16:22 09.08.2022
697 Rain 24 1023 68 10000 1.75 229 14:50 09.08.2022
698 Clear 25 1023 60 10000 1.45 204 11:29 09.08.2022
699 Clear 20 1022 61 10000 0.42 63 08:52 09.08.2022
700 Clear 17 1024 86 10000 1.69 45 07:57 09.08.2022
701 Clear 18 1024 85 10000 1.47 33 04:49 09.08.2022
702 Clouds 18 1023 73 10000 2.66 34 00:36 09.08.2022
703 Clouds 21 1023 83 10000 2.83 35 23:24 08.08.2022
704 Clouds 19 1023 80 10000 2.83 35 22:38 08.08.2022
705 Clouds 20 1023 84 10000 2.23 26 21:40 08.08.2022
706 Clouds 19 1022 89 10000 1.82 344 20:34 08.08.2022
707 Clouds 18 1024 90 10000 1.12 294 19:34 08.08.2022
708 Rain 24 1022 82 2056 0.45 0 17:56 08.08.2022
709 Rain 26 1020 60 10000 0.45 247 15:47 08.08.2022
710 Clouds 29 1018 40 10000 0.76 234 14:46 08.08.2022
711 Clear 26 1021 42 10000 0.45 227 12:30 08.08.2022
712 Clear 19 1019 54 10000 0.87 200 10:25 08.08.2022
713 Clear 20 1021 74 10000 1.74 24 07:49 08.08.2022
714 Clouds 17 1022 86 10000 1.94 30 03:39 08.08.2022
715 Clouds 17 1022 83 10000 2.46 29 22:53 07.08.2022
716 Clouds 18 1022 86 10000 0.88 351 21:41 07.08.2022
717 Clouds 19 1023 89 10000 1.08 272 20:55 07.08.2022
718 Clouds 19 1021 89 10000 1.39 359 20:18 07.08.2022
719 Clouds 20 1021 89 10000 1.39 359 19:51 07.08.2022
720 Clouds 23 1023 93 10000 2.01 279 18:41 07.08.2022
721 Rain 21 1022 79 10000 1.15 281 17:21 07.08.2022
722 Rain 22 1021 79 10000 1.15 281 16:41 07.08.2022
723 Rain 26 1018 65 10000 1.44 351 15:25 07.08.2022
724 Clouds 28 1020 42 10000 1.79 198 13:44 07.08.2022
725 Clear 25 1021 50 10000 1.44 245 12:19 07.08.2022
726 Clear 16 1019 60 10000 1.14 237 10:37 07.08.2022
727 Clouds 16 1022 77 10000 1.48 18 08:26 07.08.2022
728 Clouds 17 1022 78 10000 1.53 30 04:26 07.08.2022
729 Clouds 19 1023 73 10000 1.79 30 01:50 07.08.2022
730 Clouds 20 1024 76 10000 1.91 52 22:28 06.08.2022
731 Rain 18 1023 91 10000 2.27 78 21:28 06.08.2022
732 Rain 19 1023 93 10000 3.03 46 19:42 06.08.2022
733 Rain 21 1024 93 7703 3.45 346 18:33 06.08.2022
734 Rain 23 1023 72 10000 0.89 45 17:37 06.08.2022
735 Clouds 27 1018 44 10000 3.43 232 14:52 06.08.2022
736 Clouds 29 1022 36 10000 1.79 230 13:49 06.08.2022
737 Clouds 25 1023 53 10000 2.3 217 11:59 06.08.2022
738 Clouds 16 1020 39 10000 1.94 221 10:33 06.08.2022
739 Rain 22 1021 50 10000 0.8 204 09:21 06.08.2022
740 Clouds 17 1023 79 10000 1.16 36 03:54 06.08.2022
741 Clouds 19 1024 83 10000 0.45 221 23:54 05.08.2022
742 Clouds 19 1024 87 10000 3.22 25 22:33 05.08.2022
743 Rain 21 1023 80 10000 0.61 95 19:59 05.08.2022
744 Rain 20 1022 79 10000 0.89 0 18:46 05.08.2022
745 Rain 18 1023 92 10000 1.72 116 18:25 05.08.2022
746 Rain 20 1022 80 9716 1.65 201 16:49 05.08.2022
747 Rain 30 1023 88 8960 5.25 50 15:22 05.08.2022
748 Clouds 27 1023 88 8960 5.25 50 14:31 05.08.2022
749 Clouds 28 1020 38 10000 1.79 137 13:24 05.08.2022
750 Clouds 27 1021 36 10000 0.45 301 12:30 05.08.2022
751 Clouds 21 1019 44 10000 1.77 220 10:53 05.08.2022
752 Clear 22 1020 66 10000 0.84 79 08:30 05.08.2022
753 Clouds 16 1022 80 10000 1.58 58 07:22 05.08.2022
754 Clouds 20 1022 79 10000 0.45 263 01:28 05.08.2022
755 Rain 20 1023 80 10000 1.5 317 22:32 04.08.2022
756 Rain 20 1022 78 10000 1.79 0 21:27 04.08.2022
757 Rain 21 1022 75 10000 0.89 217 20:44 04.08.2022
758 Rain 22 1021 73 10000 0.89 225 19:48 04.08.2022
759 Clouds 25 1021 61 10000 0.89 0 18:42 04.08.2022
760 Rain 29 1020 85 10000 3.29 47 18:23 04.08.2022
761 Clouds 27 1018 57 10000 0.93 1 14:38 04.08.2022
762 Clear 29 1019 36 10000 2.24 297 13:18 04.08.2022
763 Clear 22 1018 38 10000 1.94 207 11:20 04.08.2022
764 Clear 23 1019 60 10000 0.83 56 07:54 04.08.2022
765 Clear 17 1021 87 10000 0.96 49 06:40 04.08.2022
766 Clouds 19 1022 84 10000 2.01 42 02:35 04.08.2022
767 Clouds 20 1023 82 10000 0.89 127 23:46 03.08.2022
768 Rain 20 1023 81 10000 0.89 67 22:59 03.08.2022
769 Rain 21 1023 79 10000 0.45 245 20:50 03.08.2022
770 Rain 23 1021 70 10000 1.34 302 19:46 03.08.2022
771 Rain 26 1019 65 10000 2.26 237 18:37 03.08.2022
772 Clouds 29 1016 35 10000 2.38 35 16:26 03.08.2022
773 Clouds 29 1016 35 10000 2.38 35 15:32 03.08.2022
774 Clear 31 1019 36 10000 0.89 187 12:44 03.08.2022
775 Clear 25 1018 44 10000 0.82 236 09:46 03.08.2022
776 Clear 21 1021 70 10000 0.92 28 04:51 03.08.2022
777 Clear 21 1021 68 10000 0.72 41 03:52 03.08.2022
778 Clouds 19 1021 70 10000 0.67 56 01:45 03.08.2022
779 Clouds 21 1021 65 10000 1.54 52 23:41 02.08.2022
780 Clouds 19 1020 67 10000 2.2 37 21:59 02.08.2022
781 Clouds 19 1020 67 10000 2.2 37 21:40 02.08.2022
782 Clouds 27 1020 59 10000 0.89 248 19:38 02.08.2022
783 Clouds 28 1017 42 10000 1.07 9 16:42 02.08.2022
784 Clear 31 1020 39 10000 1.34 274 13:21 02.08.2022
785 Clear 24 1020 53 10000 1.03 231 09:53 02.08.2022
786 Clear 18 1023 69 10000 1.18 28 08:26 02.08.2022
787 Clear 18 1023 69 10000 1.18 28 07:50 02.08.2022
788 Clear 20 1023 65 10000 0.45 0 04:55 02.08.2022
789 Clear 20 1024 78 10000 2.89 26 01:26 02.08.2022
790 Clear 22 1024 82 10000 3.07 18 22:57 01.08.2022
791 Clear 22 1022 82 10000 2.71 18 20:57 01.08.2022
792 Clouds 24 1021 73 10000 2.31 15 19:41 01.08.2022
793 Rain 25 1021 73 10000 2.6 13 18:43 01.08.2022
794 Clouds 29 1020 62 10000 2.12 7 16:54 01.08.2022
795 Clouds 29 1018 45 10000 1.21 276 16:29 01.08.2022
796 Clouds 29 1018 45 10000 1.21 276 15:31 01.08.2022
797 Clouds 31 1021 39 10000 2.24 259 14:43 01.08.2022
798 Clear 28 1022 50 10000 1.79 237 12:52 01.08.2022
799 Clear 19 1020 43 10000 0.89 219 10:30 01.08.2022
800 Clear 22 1021 59 10000 0.77 21 08:41 01.08.2022
801 Clouds 17 1023 77 10000 2.21 29 06:50 01.08.2022
802 Clouds 16 1023 85 10000 2.65 28 04:24 01.08.2022
803 Clouds 17 1024 90 10000 3.22 23 00:55 01.08.2022
804 Clouds 19 1024 90 10000 3.02 20 22:42 31.07.2022
805 Clouds 20 1023 90 10000 2.3 10 21:46 31.07.2022
806 Clouds 24 1023 78 10000 0.45 218 20:18 31.07.2022
807 Clouds 24 1021 79 10000 0.45 266 18:38 31.07.2022
808 Clouds 30 1021 81 10000 2.57 27 16:18 31.07.2022
809 Clouds 30 1022 44 10000 1.79 261 13:53 31.07.2022
810 Clear 28 1022 52 10000 0.45 271 12:29 31.07.2022
811 Clear 22 1024 72 10000 0.62 290 10:22 31.07.2022
812 Clear 20 1024 76 10000 1.07 9 08:18 31.07.2022
813 Clear 17 1023 92 10000 1.87 25 03:49 31.07.2022
814 Clouds 19 1024 92 10000 3.05 17 23:53 30.07.2022
815 Clouds 21 1024 90 10000 2.24 18 22:19 30.07.2022
816 Clouds 21 1024 90 10000 2.26 18 22:19 30.07.2022
817 Clouds 21 1024 90 10000 2.26 18 21:50 30.07.2022
818 Clouds 23 1023 82 10000 1.99 355 20:58 30.07.2022
819 Clouds 24 1020 61 10000 1.9 351 19:59 30.07.2022
820 Clouds 25 1019 49 10000 1.41 335 19:20 30.07.2022
821 Clear 29 1021 50 10000 1.79 288 17:45 30.07.2022
822 Clear 29 1021 48 10000 2.24 309 15:55 30.07.2022
823 Clear 28 1020 42 10000 1.3 239 15:25 30.07.2022
824 Clouds 27 1022 51 10000 1.79 266 13:20 30.07.2022
825 Clouds 26 1022 56 10000 1.79 274 12:20 30.07.2022
826 Clouds 22 1023 75 10000 1.06 257 10:35 30.07.2022
827 Clouds 21 1023 80 10000 0.85 278 09:57 30.07.2022
828 Clouds 16 1022 93 10000 1.6 15 07:55 30.07.2022
829 Clouds 15 1022 96 10000 1.46 9 04:20 30.07.2022
830 Clouds 16 1022 96 10000 2.13 7 02:28 30.07.2022
831 Clouds 17 1022 93 10000 1.76 19 22:46 29.07.2022
832 Clouds 18 1020 88 10000 1.94 11 21:24 29.07.2022
833 Clouds 18 1020 88 10000 1.94 11 20:41 29.07.2022
834 Clouds 25 1018 70 10000 1.73 262 18:26 29.07.2022
835 Clouds 24 1020 57 10000 3.15 217 15:38 29.07.2022
836 Clouds 23 1017 54 10000 3.42 218 13:45 29.07.2022
837 Clouds 22 1021 59 10000 4.02 223 11:30 29.07.2022
838 Clouds 19 1020 71 10000 0.98 326 08:50 29.07.2022
839 Clouds 18 1019 73 9587 1.13 315 08:20 29.07.2022
840 Clouds 19 1019 88 10000 0.59 85 02:29 29.07.2022
841 Rain 19 1019 88 10000 1.71 57 23:18 28.07.2022
842 Rain 19 1017 85 10000 1.39 23 21:29 28.07.2022
843 Clear 24 1017 85 10000 1.39 23 20:34 28.07.2022
844 Clouds 24 1016 79 10000 0.91 27 19:44 28.07.2022
845 Clouds 24 1015 72 8574 0.58 229 19:24 28.07.2022
846 Clear 25 1015 70 10000 2.04 217 17:44 28.07.2022
847 Clear 26 1015 64 9815 2.51 209 16:57 28.07.2022
848 Clear 25 1015 63 9747 3.04 202 16:28 28.07.2022
849 Clouds 24 1018 48 10000 1.79 352 13:30 28.07.2022
850 Clouds 24 1018 48 10000 2.09 214 11:27 28.07.2022
851 Clear 18 1018 59 10000 0.34 124 06:45 28.07.2022
852 Clear 15 1017 72 10000 0.16 86 05:31 28.07.2022
853 Clear 17 1018 69 10000 0.51 87 01:23 28.07.2022
854 Clear 16 1018 72 10000 2.08 26 22:41 27.07.2022
855 Clear 21 1016 57 10000 1 318 21:29 27.07.2022
856 Clear 24 1014 39 10000 2.05 237 19:43 27.07.2022
857 Clear 25 1013 29 10000 4.35 223 17:50 27.07.2022
858 Clear 30 1016 30 10000 2.68 284 15:52 27.07.2022
859 Clear 30 1016 31 10000 1.79 254 14:58 27.07.2022
860 Clear 30 1016 33 10000 2.68 171 14:35 27.07.2022
861 Clear 29 1016 37 10000 2.24 215 12:50 27.07.2022
862 Clear 19 1018 71 10000 0.28 310 07:54 27.07.2022
863 Clear 14 1017 84 10000 0.91 19 06:56 27.07.2022
864 Clouds 17 1020 80 10000 1.33 4 01:59 27.07.2022
865 Clouds 17 1019 87 10000 3.43 14 22:29 26.07.2022
866 Clouds 17 1018 74 10000 2.69 357 21:20 26.07.2022
867 Clouds 19 1016 57 10000 1.96 311 20:28 26.07.2022
868 Clouds 21 1015 43 10000 2.21 274 18:43 26.07.2022
869 Clouds 22 1015 36 10000 3.8 248 17:58 26.07.2022
870 Clear 30 1017 32 10000 2.68 263 15:59 26.07.2022
871 Clear 30 1017 33 10000 2.68 300 15:18 26.07.2022
872 Clear 24 1016 33 10000 3.45 215 13:20 26.07.2022
873 Clear 26 1018 49 10000 3.1 221 11:20 26.07.2022
874 Clear 20 1020 66 10000 1.14 259 08:55 26.07.2022
875 Clear 15 1020 76 10000 1.97 15 05:49 26.07.2022
876 Clouds 18 1023 87 10000 2.86 19 00:37 26.07.2022
877 Clouds 16 1023 92 10000 3.6 25 22:53 25.07.2022
878 Clouds 19 1022 92 10000 3.84 17 22:22 25.07.2022
879 Clouds 17 1022 92 10000 3.84 17 21:38 25.07.2022
880 Clouds 19 1021 83 10000 3.77 5 20:40 25.07.2022
881 Clouds 27 1018 54 10000 3.49 351 19:27 25.07.2022
882 Clouds 33 1018 44 10000 2.81 320 18:18 25.07.2022
883 Clouds 29 1017 38 10000 2.87 283 17:27 25.07.2022
884 Rain 31 1020 28 10000 0.89 254 14:44 25.07.2022
885 Clouds 29 1018 29 10000 3.74 213 12:21 25.07.2022
886 Clouds 27 1019 35 10000 1.34 203 09:18 25.07.2022
887 Clear 23 1022 47 10000 0.45 200 03:23 25.07.2022
888 Clear 23 1022 37 10000 1.31 25 23:54 24.07.2022
889 Clear 22 1021 37 10000 1.4 38 22:56 24.07.2022
890 Clear 22 1021 38 10000 1.06 4 22:26 24.07.2022
891 Clear 24 1019 40 10000 1 248 21:19 24.07.2022
892 Clear 24 1019 40 10000 1 248 20:50 24.07.2022
893 Clear 31 1018 30 10000 2.97 234 20:19 24.07.2022
894 Clear 33 1017 23 10000 3.91 237 18:38 24.07.2022
895 Clear 34 1018 22 10000 4.37 224 16:29 24.07.2022
896 Clear 34 1018 22 10000 4.37 224 15:45 24.07.2022
897 Clear 34 1021 26 10000 0.89 281 14:19 24.07.2022
898 Clear 32 1021 25 10000 1.34 249 12:52 24.07.2022
899 Clear 29 1022 36 10000 0.45 65 11:38 24.07.2022
900 Clear 24 1020 29 10000 2.54 211 10:59 24.07.2022
901 Clear 24 1021 41 10000 1.21 211 08:31 24.07.2022
902 Clear 21 1023 67 10000 0.37 66 07:47 24.07.2022
903 Clear 18 1023 60 10000 0.53 22 04:45 24.07.2022
904 Clear 21 1024 56 10000 1.08 61 00:28 24.07.2022
905 Clear 22 1021 53 10000 0.62 272 21:28 23.07.2022
906 Clear 27 1020 37 10000 2.45 228 19:59 23.07.2022
907 Clouds 30 1019 31 10000 3.07 240 18:50 23.07.2022
908 Clear 30 1019 28 10000 3.87 222 17:28 23.07.2022
909 Clear 30 1019 28 10000 3.87 222 16:31 23.07.2022
910 Clear 32 1021 27 10000 2.68 274 15:22 23.07.2022
911 Clear 33 1021 27 10000 0.89 221 14:58 23.07.2022
912 Clouds 32 1021 29 10000 1.79 292 14:26 23.07.2022
913 Clouds 29 1022 33 10000 1.34 228 12:44 23.07.2022
914 Clouds 24 1023 52 10000 3.52 214 10:45 23.07.2022
915 Clouds 24 1023 58 10000 3.12 205 09:54 23.07.2022
916 Clouds 22 1023 64 10000 2.39 199 08:30 23.07.2022
917 Clouds 21 1022 59 10000 0.78 122 03:38 23.07.2022
918 Clouds 22 1023 70 10000 1.2 78 00:39 23.07.2022
919 Clouds 20 1022 74 10000 2.07 81 22:19 22.07.2022
920 Clouds 23 1020 63 10000 1.62 61 20:39 22.07.2022
921 Clouds 32 1019 45 10000 0.3 51 19:32 22.07.2022
922 Clouds 34 1018 38 10000 1.59 259 18:23 22.07.2022
923 Clouds 31 1018 29 10000 2.46 240 16:46 22.07.2022
924 Clouds 32 1018 25 10000 3.96 217 14:20 22.07.2022
925 Clear 24 1020 32 10000 2.83 215 10:41 22.07.2022
926 Clear 23 1021 46 10000 1.5 194 09:25 22.07.2022
927 Clear 21 1023 62 10000 0.58 92 08:26 22.07.2022
928 Clear 21 1023 57 10000 0.78 34 04:48 22.07.2022
929 Clouds 20 1023 78 10000 1.33 71 23:45 21.07.2022
930 Clouds 23 1022 67 10000 1.42 86 22:25 21.07.2022
931 Clouds 23 1021 64 10000 1.65 67 20:48 21.07.2022
932 Clouds 30 1020 51 10000 2.3 40 18:54 21.07.2022
933 Clouds 31 1019 33 10000 0.87 235 17:29 21.07.2022
934 Clouds 32 1019 33 10000 0.87 235 16:53 21.07.2022
935 Clear 33 1022 30 10000 0.89 0 14:52 21.07.2022
936 Clear 33 1022 30 10000 1.34 229 14:22 21.07.2022
937 Clear 28 1024 40 10000 0.89 192 12:27 21.07.2022
938 Clear 23 1025 62 10000 2.42 217 10:39 21.07.2022
939 Clear 20 1025 71 10000 1.58 214 08:54 21.07.2022
940 Clear 20 1025 72 10000 1.58 214 08:35 21.07.2022
941 Clear 17 1024 81 10000 0.57 63 07:23 21.07.2022
942 Clear 18 1024 89 10000 0.81 35 03:48 21.07.2022
943 Clouds 21 1025 82 10000 2.1 28 23:23 20.07.2022
944 Clouds 21 1024 71 10000 1.01 2 22:20 20.07.2022
945 Clouds 23 1022 61 10000 0.9 258 20:49 20.07.2022
946 Clouds 24 1022 59 10000 0.68 224 19:48 20.07.2022
947 Clouds 23 1021 45 10000 2.36 228 19:19 20.07.2022
948 Clouds 23 1021 45 10000 2.36 228 18:33 20.07.2022
949 Clouds 24 1020 39 10000 3.43 226 17:43 20.07.2022
950 Clear 26 1020 32 10000 4.97 213 15:59 20.07.2022
951 Clear 31 1022 30 10000 1.79 289 14:54 20.07.2022
952 Clear 30 1022 34 10000 2.24 239 13:44 20.07.2022
953 Clear 28 1023 35 10000 2.68 279 11:31 20.07.2022
954 Clouds 20 1023 57 10000 1.07 124 07:36 20.07.2022
955 Clouds 21 1021 61 10000 0.92 62 01:58 20.07.2022
956 Clouds 22 1021 59 10000 1.04 79 00:43 20.07.2022
957 Clouds 21 1021 56 10000 1.35 77 22:39 19.07.2022
958 Clouds 21 1020 56 10000 0.78 125 22:21 19.07.2022
959 Clear 28 1020 51 10000 2.64 229 20:50 19.07.2022
960 Clear 32 1017 36 10000 3.55 198 19:38 19.07.2022
961 Clear 33 1017 27 10000 4.93 207 18:43 19.07.2022
962 Clear 32 1017 23 10000 4.93 212 17:56 19.07.2022
963 Clear 32 1017 20 10000 4.65 213 15:50 19.07.2022
964 Clear 34 1020 21 10000 1.79 286 13:51 19.07.2022
965 Clear 30 1021 37 10000 3.18 212 11:34 19.07.2022
966 Clear 25 1020 40 10000 2.56 205 09:54 19.07.2022
967 Clear 25 1020 47 10000 1.97 209 08:48 19.07.2022
968 Clear 20 1023 62 10000 0.41 171 08:21 19.07.2022
969 Clear 21 1023 61 10000 0.51 62 07:18 19.07.2022
970 Clear 21 1023 57 10000 0.34 66 05:20 19.07.2022
971 Clear 22 1023 55 10000 0.34 66 04:40 19.07.2022
972 Clear 22 1023 65 10000 0.77 70 00:18 19.07.2022
973 Clear 23 1023 64 10000 0.83 116 23:20 18.07.2022
974 Clear 21 1023 64 10000 0.84 115 22:51 18.07.2022
975 Clear 24 1021 50 10000 2.09 216 21:27 18.07.2022
976 Clear 24 1021 50 10000 2.08 216 20:49 18.07.2022
977 Clouds 31 1018 26 10000 3.58 212 19:21 18.07.2022
978 Clouds 34 1019 25 10000 3.68 212 16:45 18.07.2022
979 Clouds 35 1022 22 10000 1.34 227 15:40 18.07.2022
980 Clear 33 1022 26 10000 1.34 0 13:40 18.07.2022
981 Clear 31 1023 32 10000 0.89 290 12:21 18.07.2022
982 Clear 24 1022 39 10000 1.94 207 10:24 18.07.2022
983 Clear 20 1025 60 10000 0.31 95 08:20 18.07.2022
984 Clear 21 1025 56 10000 0.82 45 06:39 18.07.2022
985 Clear 22 1025 48 10000 1.17 82 23:19 17.07.2022
986 Clear 23 1025 48 10000 1.17 82 22:32 17.07.2022
987 Clear 22 1024 46 10000 1.36 57 21:40 17.07.2022
988 Clear 31 1022 49 10000 0.16 286 20:46 17.07.2022
989 Clouds 31 1021 37 10000 1.02 262 20:18 17.07.2022
990 Clouds 33 1020 24 10000 1.41 328 19:25 17.07.2022
991 Clouds 33 1020 19 10000 3.11 356 17:55 17.07.2022
992 Clouds 33 1020 19 10000 3.11 356 17:36 17.07.2022
993 Clear 35 1020 17 10000 3.03 354 16:45 17.07.2022
994 Clear 36 1020 16 10000 2.32 349 16:22 17.07.2022
995 Clear 34 1022 21 10000 1.07 283 13:58 17.07.2022
996 Clear 34 1023 22 10000 0.89 241 13:24 17.07.2022
997 Clear 22 1022 20 10000 0.59 252 10:23 17.07.2022
998 Clear 24 1023 31 10000 2 23 07:55 17.07.2022
999 Clear 23 1024 42 10000 1.94 29 02:35 17.07.2022
1000 Clouds 22 1024 38 10000 2.72 22 00:33 17.07.2022
1001 Clouds 21 1024 40 10000 2.87 20 22:43 16.07.2022
1002 Clouds 24 1022 47 10000 2.79 13 20:45 16.07.2022
1003 Clear 33 1019 25 10000 2.77 2 18:58 16.07.2022
1004 Clear 33 1019 21 10000 3.18 357 17:48 16.07.2022
1005 Clear 36 1019 19 10000 3.34 356 16:22 16.07.2022
1006 Clear 33 1021 22 10000 0.45 269 13:26 16.07.2022
1007 Clear 24 1020 24 10000 0.99 315 10:29 16.07.2022
1008 Clear 25 1021 28 10000 0.85 331 09:26 16.07.2022
1009 Clear 24 1021 28 10000 0.85 331 08:41 16.07.2022
1010 Clear 20 1023 53 10000 2.14 15 07:23 16.07.2022
1011 Clear 22 1023 47 10000 1.62 20 03:35 16.07.2022
1012 Clear 21 1024 48 10000 2.39 27 00:45 16.07.2022
1013 Clear 20 1023 52 10000 2.79 21 22:56 15.07.2022
1014 Clear 23 1023 55 10000 3.06 19 22:24 15.07.2022
1015 Clear 31 1022 55 10000 2.94 13 20:41 15.07.2022
1016 Clouds 31 1018 26 10000 3.47 355 19:34 15.07.2022
1017 Clouds 32 1018 21 10000 3.19 349 18:23 15.07.2022
1018 Clouds 34 1018 19 10000 2.48 334 16:53 15.07.2022
1019 Clouds 33 1019 19 10000 1.43 283 14:19 15.07.2022
1020 Clouds 31 1022 18 10000 0.45 0 12:28 15.07.2022
1021 Clouds 24 1021 21 10000 1.28 342 10:52 15.07.2022
1022 Clear 19 1024 51 10000 2.73 20 07:48 15.07.2022
1023 Clear 20 1024 45 10000 2.91 21 02:51 15.07.2022
1024 Clear 22 1025 37 10000 3 18 00:39 15.07.2022
1025 Clear 22 1025 37 10000 3 18 00:39 15.07.2022
1026 Clear 20 1025 39 10000 2.96 20 22:56 14.07.2022
1027 Clear 20 1025 43 10000 3.07 21 22:19 14.07.2022
1028 Clear 20 1025 43 10000 3.07 21 21:37 14.07.2022
1029 Clear 22 1023 45 10000 2.97 17 21:18 14.07.2022
1030 Clear 22 1023 45 10000 2.95 16 20:42 14.07.2022
1031 Clear 30 1022 33 10000 2.66 3 20:18 14.07.2022
1032 Clear 31 1021 15 10000 3.48 4 17:25 14.07.2022
1033 Clear 33 1021 14 10000 3.35 7 16:18 14.07.2022
1034 Clear 33 1021 14 10000 3.16 6 14:44 14.07.2022
1035 Clear 34 1023 14 10000 0.45 325 13:39 14.07.2022
1036 Clear 31 1024 22 10000 0.45 244 12:23 14.07.2022
1037 Clear 28 1024 44 10000 0.45 223 11:26 14.07.2022
1038 Clear 25 1022 26 10000 1.15 345 10:51 14.07.2022
1039 Clear 20 1026 73 10000 2.04 22 08:28 14.07.2022
1040 Clear 19 1025 69 10000 1.65 28 03:42 14.07.2022
1041 Clear 21 1026 64 10000 1.46 43 00:55 14.07.2022
1042 Clouds 22 1026 63 10000 1.64 53 23:41 13.07.2022
1043 Clouds 22 1025 63 10000 2.13 42 22:27 13.07.2022
1044 Clouds 21 1025 63 10000 2.13 42 21:32 13.07.2022
1045 Clouds 24 1024 59 10000 1.7 18 20:38 13.07.2022
1046 Clouds 29 1021 30 10000 1.22 318 18:22 13.07.2022
1047 Clear 33 1021 27 10000 1.39 256 17:22 13.07.2022
1048 Clear 34 1021 26 10000 1.9 223 15:59 13.07.2022
1049 Clear 32 1024 29 10000 1.34 0 13:50 13.07.2022
1050 Clear 28 1025 43 10000 2.14 217 11:30 13.07.2022
1051 Clear 24 1025 59 10000 2.01 216 10:44 13.07.2022
1052 Clear 20 1024 55 10000 0.9 195 09:29 13.07.2022
1053 Clear 20 1026 74 10000 0.59 61 08:23 13.07.2022
1054 Clear 21 1026 67 10000 1.61 37 04:36 13.07.2022
1055 Clouds 21 1026 60 10000 2.37 21 00:47 13.07.2022
1056 Clouds 21 1025 58 10000 2.26 17 22:46 12.07.2022
1057 Clouds 22 1024 54 10000 2.12 17 21:46 12.07.2022
1058 Clouds 23 1024 55 10000 2.29 19 20:53 12.07.2022
1059 Clouds 27 1023 47 10000 2.19 24 19:48 12.07.2022
1060 Clouds 27 1022 43 10000 2.38 27 18:35 12.07.2022
1061 Clear 33 1020 26 10000 1.12 312 16:24 12.07.2022
1062 Clear 33 1023 23 10000 0.89 247 14:32 12.07.2022
1063 Clear 33 1023 23 10000 0.89 247 14:32 12.07.2022
1064 Clear 33 1023 25 10000 0.89 261 13:35 12.07.2022
1065 Clear 29 1024 41 10000 0.72 257 11:54 12.07.2022
1066 Clear 23 1022 37 10000 0.4 257 10:26 12.07.2022
1067 Clear 22 1023 44 10000 0.29 15 08:46 12.07.2022
1068 Clear 22 1023 56 10000 1.34 28 07:48 12.07.2022
1069 Clear 18 1024 70 10000 1.86 28 05:45 12.07.2022
1070 Clear 18 1024 69 10000 1.59 22 04:57 12.07.2022
1071 Clouds 21 1024 65 10000 2.09 33 00:54 12.07.2022
1072 Clouds 21 1023 58 10000 2.09 32 22:43 11.07.2022
1073 Clouds 24 1021 60 10000 1.56 8 20:56 11.07.2022
1074 Clouds 24 1021 60 10000 1.56 8 20:32 11.07.2022
1075 Clouds 24 1021 60 10000 1.56 8 20:32 11.07.2022
1076 Clouds 26 1021 71 10000 0.66 24 18:50 11.07.2022
1077 Clouds 26 1021 72 10000 1.62 11 18:28 11.07.2022
1078 Rain 28 1020 46 10000 0.45 109 16:26 11.07.2022
1079 Clouds 33 1017 35 10000 1.14 232 15:23 11.07.2022
1080 Clear 29 1020 35 10000 1.34 217 12:42 11.07.2022
1081 Clear 26 1020 47 10000 1.81 220 11:23 11.07.2022
1082 Clear 24 1019 45 10000 1.5 215 09:55 11.07.2022
1083 Clear 21 1019 48 10000 0.6 225 09:25 11.07.2022
1084 Clear 19 1022 71 10000 0.47 38 08:30 11.07.2022
1085 Clear 19 1022 46 10000 1.99 36 00:56 11.07.2022
1086 Clear 19 1022 48 10000 2.13 32 23:53 10.07.2022
1087 Clear 18 1022 49 10000 2.44 27 22:37 10.07.2022
1088 Clear 27 1020 54 10000 2.63 17 20:55 10.07.2022
1089 Clear 27 1019 41 10000 2.72 9 20:24 10.07.2022
1090 Clear 29 1018 30 10000 3.49 7 19:28 10.07.2022
1091 Clear 29 1017 25 10000 3.21 2 17:59 10.07.2022
1092 Clear 29 1017 22 10000 1.86 355 16:59 10.07.2022
1093 Clear 31 1018 21 10000 0.94 328 16:20 10.07.2022
1094 Clear 32 1020 18 10000 1.34 0 14:44 10.07.2022
1095 Clear 30 1021 24 10000 0.89 263 13:18 10.07.2022
1096 Clear 25 1023 37 10000 0.77 287 11:36 10.07.2022
1097 Clear 18 1021 27 10000 0.75 328 09:44 10.07.2022
1098 Clear 17 1022 33 10000 1.23 3 08:43 10.07.2022
1099 Clear 16 1025 55 10000 2.76 22 06:39 10.07.2022
1100 Clear 18 1027 57 10000 3.17 20 23:47 09.07.2022
1101 Clear 17 1026 61 10000 3.24 19 22:26 09.07.2022
1102 Clear 17 1026 61 10000 3.24 19 21:41 09.07.2022
1103 Clear 25 1023 42 10000 3.1 6 19:44 09.07.2022
1104 Clear 29 1022 29 10000 3.6 358 18:26 09.07.2022
1105 Clear 29 1022 25 10000 3.32 355 17:21 09.07.2022
1106 Clear 30 1022 23 10000 2.6 350 15:58 09.07.2022
1107 Clear 31 1022 23 10000 2.6 350 15:38 09.07.2022
1108 Clear 29 1022 22 10000 1.65 343 14:21 09.07.2022
1109 Clear 28 1023 24 10000 1.14 342 13:28 09.07.2022
1110 Clear 24 1026 33 10000 1.15 351 11:40 09.07.2022
1111 Clear 19 1025 31 10000 1.85 7 10:25 09.07.2022
1112 Clear 19 1025 38 10000 2.21 12 09:23 09.07.2022
1113 Clear 16 1027 52 10000 2.53 20 07:43 09.07.2022
1114 Clear 17 1027 47 10000 2.62 25 04:38 09.07.2022
1115 Clear 17 1029 68 10000 2.81 26 23:33 08.07.2022
1116 Clear 15 1029 74 10000 3.38 20 22:18 08.07.2022
1117 Clear 18 1027 66 10000 3.25 15 21:21 08.07.2022
1118 Clear 26 1027 66 10000 3.23 15 20:35 08.07.2022
1119 Clear 27 1025 39 10000 3.44 9 18:45 08.07.2022
1120 Clear 27 1024 34 10000 3.53 8 17:45 08.07.2022
1121 Clear 31 1024 27 10000 3.38 5 15:53 08.07.2022
1122 Clear 29 1024 25 10000 3.22 8 14:50 08.07.2022
1123 Clear 25 1024 25 10000 2.97 9 12:30 08.07.2022
1124 Clear 25 1026 29 10000 0.45 0 10:46 08.07.2022
1125 Clear 18 1027 47 10000 3.75 13 09:24 08.07.2022
1126 Clear 14 1028 81 10000 4.31 17 06:55 08.07.2022
1127 Clear 14 1028 87 10000 4.3 14 04:32 08.07.2022
1128 Clear 15 1029 88 10000 3.97 8 00:23 08.07.2022
1129 Clear 15 1029 87 10000 3.99 7 22:47 07.07.2022
1130 Clear 17 1028 85 10000 3.89 8 21:39 07.07.2022
1131 Clear 19 1025 54 10000 4.01 5 19:28 07.07.2022
1132 Clear 24 1025 49 10000 3.88 6 17:42 07.07.2022
1133 Clear 26 1025 43 10000 3.89 9 15:57 07.07.2022
1134 Clear 24 1025 37 10000 3.53 6 13:30 07.07.2022
1135 Clear 24 1026 36 10000 0.45 284 12:40 07.07.2022
1136 Clear 23 1025 39 10000 3.66 5 12:21 07.07.2022
1137 Clear 23 1026 37 10000 1.34 0 11:31 07.07.2022
1138 Clear 21 1026 42 10000 0.45 302 10:44 07.07.2022
1139 Clear 20 1026 43 10000 0.45 201 10:26 07.07.2022
1140 Clouds 14 1026 84 10000 3.37 6 07:58 07.07.2022
1141 Clouds 14 1026 87 10000 3.37 11 04:44 07.07.2022
1142 Clouds 16 1026 93 10000 3.09 13 23:37 06.07.2022
1143 Clouds 16 1026 95 10000 2.6 33 23:19 06.07.2022
1144 Clouds 16 1026 95 10000 2.6 33 23:19 06.07.2022
1145 Rain 17 1026 95 10000 2.6 33 22:57 06.07.2022
1146 Clouds 17 1026 95 10000 2.6 33 22:39 06.07.2022
1147 Clouds 18 1026 96 6398 2.05 55 21:46 06.07.2022
1148 Clouds 19 1025 96 2976 3.18 337 19:41 06.07.2022
1149 Clouds 20 1022 96 1524 2.57 327 18:32 06.07.2022
1150 Clouds 22 1025 67 10000 0.45 234 16:27 06.07.2022
1151 Rain 20 1022 62 10000 0.63 120 14:58 06.07.2022
1152 Rain 19 1026 81 10000 0.45 65 12:42 06.07.2022
1153 Rain 19 1026 84 10000 0.88 89 11:49 06.07.2022
1154 Rain 19 1027 83 1127 0.45 43 10:18 06.07.2022
1155 Clouds 18 1026 86 10000 1.22 195 07:47 06.07.2022
1156 Clouds 17 1024 84 10000 1.4 24 07:23 06.07.2022
1157 Clouds 17 1024 88 10000 2.43 19 03:24 06.07.2022
1158 Clouds 17 1026 94 10000 1.41 18 22:45 05.07.2022
1159 Clouds 17 1025 94 10000 2.4 15 21:39 05.07.2022
1160 Clouds 20 1023 78 10000 2.51 3 20:39 05.07.2022
1161 Clouds 23 1021 63 10000 2 350 19:43 05.07.2022
1162 Clouds 26 1020 39 10000 2.1 270 19:22 05.07.2022
1163 Clear 28 1020 29 10000 3.15 263 17:47 05.07.2022
1164 Clear 27 1020 28 10000 4.18 247 16:54 05.07.2022
1165 Clear 32 1021 35 10000 1.79 279 15:25 05.07.2022
1166 Clear 31 1021 33 10000 1.79 211 13:59 05.07.2022
1167 Clear 29 1022 44 10000 4.09 221 12:42 05.07.2022
1168 Clear 27 1023 47 10000 0.89 253 11:32 05.07.2022
1169 Clear 23 1021 41 10000 2.73 220 10:34 05.07.2022
1170 Clear 18 1024 67 10000 1.38 208 08:26 05.07.2022
1171 Clear 18 1024 68 10000 1.38 208 07:45 05.07.2022
1172 Clear 18 1023 60 10000 0.7 18 04:49 05.07.2022
1173 Clear 19 1023 58 10000 0.35 20 04:21 05.07.2022
1174 Clear 19 1022 68 10000 1.94 25 23:45 04.07.2022
1175 Clear 18 1022 69 10000 2.28 17 23:25 04.07.2022
1176 Clear 19 1021 67 10000 1.82 13 22:21 04.07.2022
1177 Clear 22 1020 60 10000 0.56 291 21:20 04.07.2022
1178 Clear 21 1020 60 10000 0.55 290 20:52 04.07.2022
1179 Clear 21 1020 60 10000 0.56 291 20:33 04.07.2022
1180 Clouds 25 1019 43 10000 2.4 235 19:51 04.07.2022
1181 Clouds 29 1019 46 10000 1.82 280 19:33 04.07.2022
1182 Clouds 28 1018 34 10000 4.79 231 17:42 04.07.2022
1183 Clear 31 1020 35 10000 2.24 277 15:44 04.07.2022
1184 Clear 30 1020 38 10000 1.34 71 14:42 04.07.2022
1185 Clear 28 1021 40 10000 1.79 225 13:29 04.07.2022
1186 Clear 25 1021 59 10000 0.45 0 12:20 04.07.2022
1187 Clear 22 1019 39 10000 3.21 217 10:33 04.07.2022
1188 Clear 22 1020 46 10000 2 216 09:40 04.07.2022
1189 Clouds 16 1023 87 10000 0.15 116 06:53 04.07.2022
1190 Clouds 17 1024 87 10000 0.71 94 03:30 04.07.2022
1191 Clouds 20 1025 81 10000 0.45 52 00:27 04.07.2022
1192 Rain 22 1024 80 10000 1.48 122 22:58 03.07.2022
1193 Clouds 29 1023 74 10000 1.84 290 20:47 03.07.2022
1194 Clouds 29 1021 60 10000 2.47 323 20:21 03.07.2022
1195 Clouds 31 1020 50 10000 4.04 240 19:26 03.07.2022
1196 Rain 30 1020 50 10000 4.04 240 18:32 03.07.2022
1197 Clouds 30 1018 37 10000 8.42 220 17:43 03.07.2022
1198 Clear 32 1019 25 10000 5.16 232 15:28 03.07.2022
1199 Clear 34 1021 26 10000 0.45 257 14:57 03.07.2022
1200 Clear 32 1022 27 10000 1.79 271 13:50 03.07.2022
1201 Clear 31 1022 31 10000 1.34 266 12:51 03.07.2022
1202 Clear 29 1022 34 10000 0.89 267 12:22 03.07.2022
1203 Clear 23 1020 34 10000 2.57 213 10:55 03.07.2022
1204 Clear 22 1020 34 10000 2.57 213 10:36 03.07.2022
1205 Clear 19 1021 41 10000 1.9 205 08:48 03.07.2022
1206 Clouds 22 1022 48 10000 0.63 168 07:34 03.07.2022
1207 Clear 19 1024 67 10000 1 71 01:32 03.07.2022
1208 Clear 19 1024 67 10000 1.56 53 23:38 02.07.2022
1209 Clear 18 1024 66 10000 1.38 61 22:31 02.07.2022
1210 Clear 21 1021 60 10000 0.92 196 20:37 02.07.2022
1211 Clouds 28 1020 43 10000 2.1 217 19:50 02.07.2022
1212 Clouds 30 1019 31 10000 3.39 221 18:48 02.07.2022
1213 Clouds 30 1019 28 10000 3.96 217 17:40 02.07.2022
1214 Clouds 31 1019 27 10000 4.04 215 16:32 02.07.2022
1215 Clear 31 1022 26 10000 1.34 272 13:51 02.07.2022
1216 Clear 26 1023 37 10000 0.45 251 11:51 02.07.2022
1217 Clear 20 1020 40 10000 2.44 215 10:52 02.07.2022
1218 Clear 19 1021 43 10000 2.2 213 10:25 02.07.2022
1219 Clear 19 1021 44 10000 1.76 201 08:38 02.07.2022
1220 Clear 19 1022 50 10000 0.27 94 08:19 02.07.2022
1221 Clear 16 1024 58 10000 0.66 23 04:19 02.07.2022
1222 Clear 16 1023 59 10000 0.56 45 00:28 02.07.2022
1223 Clear 16 1023 60 10000 0.93 38 23:26 01.07.2022
1224 Clear 17 1023 60 10000 0.93 38 22:33 01.07.2022
1225 Clouds 15 1021 60 10000 0.31 18 21:38 01.07.2022
1226 Clouds 24 1020 59 10000 1.32 217 20:58 01.07.2022
1227 Clouds 24 1020 59 10000 1.32 217 20:32 01.07.2022
1228 Clear 24 1019 45 10000 2.07 218 19:36 01.07.2022
1229 Clear 25 1018 33 10000 3.38 218 16:42 01.07.2022
1230 Clear 26 1019 19 10000 2.24 300 14:34 01.07.2022
1231 Clouds 24 1018 32 10000 3.84 215 13:51 01.07.2022
1232 Clouds 21 1019 43 10000 2.24 226 11:22 01.07.2022
1233 Clouds 18 1018 71 10000 2.55 214 10:19 01.07.2022
1234 Clouds 15 1019 94 2116 0.63 238 07:32 01.07.2022
1235 Clouds 12 1018 98 259 0.74 255 02:43 01.07.2022
1236 Clouds 13 1018 98 3336 1.35 292 23:52 30.06.2022
1237 Clouds 13 1018 97 10000 1.2 286 22:51 30.06.2022
1238 Clouds 13 1018 97 10000 1.2 286 22:32 30.06.2022
1239 Clouds 13 1018 97 10000 1.2 286 22:32 30.06.2022
1240 Clouds 14 1017 95 8860 1.12 289 21:54 30.06.2022
1241 Clouds 15 1015 86 10000 1.62 219 20:49 30.06.2022
1242 Clouds 16 1013 62 10000 3.1 205 20:21 30.06.2022
1243 Clouds 16 1013 62 10000 3.1 205 19:48 30.06.2022
1244 Clouds 21 1013 53 10000 3.76 213 18:54 30.06.2022
1245 Clouds 22 1013 43 10000 5.38 211 17:56 30.06.2022
1246 Clouds 23 1013 43 10000 5.38 211 17:34 30.06.2022
1247 Clouds 24 1015 36 10000 3.58 277 16:20 30.06.2022
1248 Clouds 24 1014 36 10000 1.79 210 14:20 30.06.2022
1249 Clouds 24 1015 38 10000 1.79 211 13:21 30.06.2022
1250 Clouds 23 1015 37 10000 2.68 215 12:34 30.06.2022
1251 Clouds 20 1015 49 10000 0.89 246 10:57 30.06.2022
1252 Clouds 17 1016 79 10000 3.17 196 09:51 30.06.2022
1253 Clouds 16 1016 84 10000 2.22 181 09:23 30.06.2022
1254 Clouds 15 1016 88 10000 0.45 209 07:41 30.06.2022
1255 Clouds 15 1016 87 10000 1.38 113 05:46 30.06.2022
1256 Rain 15 1016 82 7070 1.58 42 23:56 29.06.2022
1257 Clouds 16 1016 75 10000 1.86 73 22:42 29.06.2022
1258 Clouds 19 1015 60 10000 1.16 85 22:20 29.06.2022
1259 Clouds 20 1014 57 10000 1 202 20:54 29.06.2022
1260 Clouds 20 1014 57 10000 1 202 20:32 29.06.2022
1261 Clear 22 1013 41 10000 2.25 217 19:31 29.06.2022
1262 Clear 23 1013 30 10000 3.55 217 17:39 29.06.2022
1263 Clear 27 1015 30 10000 1.79 294 16:31 29.06.2022
1264 Clear 27 1017 28 10000 1.34 277 13:58 29.06.2022
1265 Clear 26 1018 31 10000 1.79 249 12:38 29.06.2022
1266 Clear 18 1019 62 10000 2.47 207 10:19 29.06.2022
1267 Clear 17 1017 40 10000 2.47 207 09:31 29.06.2022
1268 Clear 14 1020 77 10000 0.94 46 06:57 29.06.2022
1269 Clear 15 1020 74 10000 0.45 213 04:46 29.06.2022
1270 Clouds 15 1021 87 10000 0.99 64 00:54 29.06.2022
1271 Clouds 16 1021 87 10000 1.54 41 00:35 29.06.2022
1272 Clouds 14 1021 89 10000 2.41 30 22:52 28.06.2022
1273 Clouds 18 1020 86 10000 2.61 24 22:21 28.06.2022
1274 Clouds 15 1020 86 10000 2.61 24 21:49 28.06.2022
1275 Clouds 18 1020 86 10000 2.61 24 21:30 28.06.2022
1276 Clouds 18 1017 56 10000 0.75 320 20:18 28.06.2022
1277 Clouds 18 1017 57 10000 0.55 344 19:32 28.06.2022
1278 Clouds 21 1017 53 10000 0.5 316 18:40 28.06.2022
1279 Clouds 20 1016 46 10000 1.38 248 17:36 28.06.2022
1280 Clouds 26 1017 41 10000 1.34 245 15:55 28.06.2022
1281 Clouds 25 1018 44 10000 1.34 219 14:54 28.06.2022
1282 Clouds 19 1016 43 10000 1.77 233 14:19 28.06.2022
1283 Clouds 24 1018 48 10000 2.24 71 13:45 28.06.2022
1284 Clouds 23 1018 54 10000 1.34 248 12:35 28.06.2022
1285 Clouds 18 1018 57 10000 1.37 239 10:40 28.06.2022
1286 Clouds 14 1020 91 10000 0.98 19 08:56 28.06.2022
1287 Clouds 14 1020 91 10000 0.98 19 08:37 28.06.2022
1288 Clouds 13 1021 90 10000 2.07 17 07:20 28.06.2022
1289 Clouds 12 1021 95 10000 2.55 6 04:54 28.06.2022
1290 Rain 15 1023 89 601 0.45 0 23:53 27.06.2022
1291 Rain 12 1023 97 72 2.66 16 23:27 27.06.2022
1292 Rain 13 1022 97 236 3 29 22:25 27.06.2022
1293 Clouds 13 1021 97 54 2.83 20 21:29 27.06.2022
1294 Rain 17 1021 97 54 2.83 20 20:33 27.06.2022
1295 Clouds 19 1019 89 2961 1.73 11 18:51 27.06.2022
1296 Clouds 19 1018 87 10000 1.43 1 17:38 27.06.2022
1297 Clouds 19 1018 84 5832 0.64 302 15:50 27.06.2022
1298 Clouds 22 1018 56 8090 2.68 213 14:25 27.06.2022
1299 Clouds 21 1017 69 9971 1.6 229 12:58 27.06.2022
1300 Clouds 21 1018 62 10000 0.45 279 11:40 27.06.2022
1301 Clouds 19 1017 69 9842 0.15 184 09:49 27.06.2022
1302 Clouds 17 1016 78 10000 0.88 14 08:43 27.06.2022
1303 Clouds 16 1016 79 10000 2.12 26 07:49 27.06.2022
1304 Clouds 14 1016 95 10000 1.95 29 05:50 27.06.2022
1305 Clear 17 1016 95 10000 0.89 90 01:25 27.06.2022
1306 Clear 15 1015 92 10000 1.11 81 23:22 26.06.2022
1307 Clouds 16 1014 89 10000 0.65 104 21:39 26.06.2022
1308 Clouds 25 1012 82 10000 1.96 178 20:33 26.06.2022
1309 Clouds 25 1011 73 10000 2.31 212 18:34 26.06.2022
1310 Clouds 25 1012 71 10000 2.42 206 17:47 26.06.2022
1311 Clouds 24 1013 79 10000 3.19 215 15:37 26.06.2022
1312 Clouds 26 1013 41 10000 4.02 277 14:23 26.06.2022
1313 Clouds 26 1013 38 10000 3.13 267 13:26 26.06.2022
1314 Clouds 24 1013 43 10000 1.79 331 11:49 26.06.2022
1315 Clouds 19 1014 65 10000 0.45 0 10:42 26.06.2022
1316 Clouds 18 1014 68 10000 2.96 182 10:19 26.06.2022
1317 Clouds 16 1015 83 10000 2.3 172 08:36 26.06.2022
1318 Clouds 15 1015 87 10000 1.51 115 06:31 26.06.2022
1319 Clouds 17 1015 85 10000 1.06 126 00:37 26.06.2022
1320 Clouds 17 1015 86 10000 0.93 134 00:19 26.06.2022
1321 Clouds 18 1015 85 10000 0.93 134 23:31 25.06.2022
1322 Clouds 18 1015 84 10000 0.77 63 22:48 25.06.2022
1323 Clouds 17 1015 97 6233 0.55 273 22:25 25.06.2022
1324 Clouds 18 1014 93 9726 1.2 252 21:21 25.06.2022
1325 Rain 18 1014 93 9726 1.2 252 20:48 25.06.2022
1326 Rain 18 1013 86 10000 1.51 260 20:25 25.06.2022
1327 Rain 18 1013 86 10000 1.51 260 20:25 25.06.2022
1328 Clouds 23 1014 47 10000 0.89 260 18:23 25.06.2022
1329 Clouds 24 1013 40 10000 1.79 282 17:27 25.06.2022
1330 Clouds 23 1012 40 10000 5.14 216 16:27 25.06.2022
1331 Clouds 22 1012 36 10000 5.78 218 14:31 25.06.2022
1332 Clouds 23 1015 45 10000 2.68 0 12:46 25.06.2022
1333 Clouds 23 1015 45 10000 3.13 286 12:27 25.06.2022
1334 Clouds 15 1016 74 10000 3.08 196 09:24 25.06.2022
1335 Clouds 15 1016 74 10000 3.08 196 09:24 25.06.2022
1336 Clouds 19 1014 62 10000 3.08 196 08:49 25.06.2022
1337 Clear 14 1016 76 10000 1.6 189 08:20 25.06.2022
1338 Clear 14 1016 74 10000 0.56 115 06:35 25.06.2022
1339 Clear 14 1017 67 10000 0.68 150 00:45 25.06.2022
1340 Clear 14 1017 66 10000 0.75 137 23:54 24.06.2022
1341 Clear 18 1016 65 10000 0.73 222 22:25 24.06.2022
1342 Clear 19 1015 58 10000 1.68 216 21:22 24.06.2022
1343 Clear 23 1013 42 10000 3.2 218 20:23 24.06.2022
1344 Clear 24 1012 36 10000 3.8 222 19:24 24.06.2022
1345 Clear 24 1012 36 10000 3.8 222 18:51 24.06.2022
1346 Clear 24 1012 36 10000 3.8 222 18:31 24.06.2022
1347 Clear 25 1014 33 10000 1.79 278 17:47 24.06.2022
1348 Clear 24 1015 33 10000 2.24 264 16:34 24.06.2022
1349 Clouds 24 1015 37 10000 2.24 205 14:30 24.06.2022
1350 Clear 23 1015 38 10000 2.24 190 13:58 24.06.2022
1351 Clear 21 1015 45 10000 1.79 63 12:28 24.06.2022
1352 Clear 21 1015 43 10000 2.24 236 11:40 24.06.2022
1353 Clear 19 1015 61 10000 0.45 0 10:26 24.06.2022
1354 Clear 16 1016 81 10000 2.88 221 09:41 24.06.2022
1355 Clear 15 1016 87 10000 2.9 214 08:53 24.06.2022
1356 Clouds 15 1016 87 10000 1.97 202 07:33 24.06.2022
1357 Clouds 15 1016 87 10000 1.35 167 06:42 24.06.2022
1358 Clouds 15 1016 87 10000 1.09 162 06:18 24.06.2022
1359 Clear 15 1016 89 10000 1.19 203 02:44 24.06.2022
1360 Clouds 17 1016 69 10000 1.85 212 22:58 23.06.2022
1361 Clouds 18 1016 69 10000 1.85 211 22:40 23.06.2022
1362 Clouds 21 1015 63 10000 1.93 212 20:57 23.06.2022
1363 Clouds 21 1015 59 10000 2.07 230 20:32 23.06.2022
1364 Clouds 24 1013 48 10000 2.46 233 19:25 23.06.2022
1365 Clouds 25 1013 45 10000 5.34 239 17:51 23.06.2022
1366 Clouds 24 1014 45 10000 2.68 265 16:58 23.06.2022
1367 Clouds 24 1014 46 10000 1.79 214 15:50 23.06.2022
1368 Clouds 24 1014 46 10000 2.68 275 15:24 23.06.2022
1369 Rain 22 1015 58 10000 1.34 250 13:33 23.06.2022
1370 Clear 21 1014 53 10000 2.68 270 11:27 23.06.2022
1371 Clear 20 1014 57 10000 2.24 292 10:31 23.06.2022
1372 Clear 17 1014 80 10000 2.05 191 08:49 23.06.2022
1373 Clear 15 1015 86 10000 0.69 121 02:46 23.06.2022
1374 Clear 17 1015 74 10000 0.62 137 00:26 23.06.2022
1375 Clear 18 1015 71 10000 0.76 133 23:27 22.06.2022
1376 Clear 15 1015 72 10000 0.74 134 22:39 22.06.2022
1377 Clear 21 1013 65 10000 1.72 212 21:21 22.06.2022
1378 Clear 22 1012 51 10000 2.83 219 20:25 22.06.2022
1379 Clear 22 1012 51 10000 3.04 227 19:50 22.06.2022
1380 Clear 24 1011 40 10000 4.77 231 18:21 22.06.2022
1381 Clear 23 1011 38 10000 5.3 224 17:26 22.06.2022
1382 Clear 23 1011 37 10000 5.74 216 16:18 22.06.2022
1383 Clear 25 1013 27 10000 2.68 231 15:25 22.06.2022
1384 Clouds 25 1013 40 10000 3.13 248 14:18 22.06.2022
1385 Clouds 25 1013 43 10000 3.58 254 13:37 22.06.2022
1386 Clear 25 1013 40 10000 2.24 274 13:18 22.06.2022
1387 Clear 23 1013 54 10000 1.79 215 11:48 22.06.2022
1388 Clear 20 1013 77 10000 3.45 214 10:54 22.06.2022
1389 Clear 18 1014 90 10000 2.99 208 09:54 22.06.2022
1390 Clouds 17 1014 93 10000 1.2 208 07:56 22.06.2022
1391 Rain 16 1015 92 738 1.81 152 03:40 22.06.2022
1392 Rain 15 1017 95 10000 2.73 152 01:23 22.06.2022
1393 Rain 17 1017 91 2842 0.45 272 23:41 21.06.2022
1394 Rain 18 1018 89 10000 1.06 352 21:32 21.06.2022
1395 Rain 13 1016 95 8102 1.81 185 19:50 21.06.2022
1396 Rain 23 1015 69 10000 0.89 59 18:32 21.06.2022
1397 Rain 28 1014 31 10000 2.24 226 17:25 21.06.2022
1398 Clouds 28 1015 33 10000 1.79 254 13:33 21.06.2022
1399 Clouds 26 1015 44 10000 1.79 267 11:30 21.06.2022
1400 Clear 22 1015 59 10000 0.45 268 09:48 21.06.2022
1401 Clear 20 1015 66 10000 2.46 194 08:37 21.06.2022
1402 Clouds 15 1016 89 10000 1.25 110 05:41 21.06.2022
1403 Clouds 19 1017 86 10000 1.74 126 00:43 21.06.2022
1404 Clouds 19 1016 90 6269 5.23 192 22:25 20.06.2022
1405 Clouds 19 1016 90 6269 5.23 192 21:50 20.06.2022
1406 Clear 26 1014 72 8326 2.89 199 20:32 20.06.2022
1407 Clouds 27 1012 48 10000 5.2 203 19:38 20.06.2022
1408 Clouds 29 1014 27 10000 0.89 223 18:44 20.06.2022
1409 Clouds 28 1014 28 10000 2.24 302 17:52 20.06.2022
1410 Clouds 29 1015 30 10000 1.79 190 17:29 20.06.2022
1411 Clear 29 1015 33 10000 1.79 244 15:53 20.06.2022
1412 Clear 29 1014 32 10000 1.79 318 12:44 20.06.2022
1413 Clear 23 1014 47 10000 0.89 298 10:41 20.06.2022
1414 Clear 19 1014 65 10000 3.69 202 09:30 20.06.2022
1415 Clear 22 1013 55 10000 3.05 191 08:44 20.06.2022
1416 Clear 17 1015 63 10000 1.13 119 05:55 20.06.2022
1417 Clear 17 1016 79 10000 1.57 126 02:27 20.06.2022
1418 Clear 18 1016 82 10000 1.85 142 00:26 20.06.2022
1419 Clear 16 1016 78 10000 2.17 156 22:53 19.06.2022
1420 Clear 24 1015 72 10000 2.7 173 21:58 19.06.2022
1421 Clear 25 1015 72 10000 2.7 173 21:40 19.06.2022
1422 Clear 27 1013 62 10000 3.19 190 20:39 19.06.2022
1423 Clear 27 1012 48 10000 3.85 196 19:47 19.06.2022
1424 Clear 27 1012 40 10000 5.01 196 18:46 19.06.2022
1425 Clear 27 1012 36 10000 5.94 192 18:26 19.06.2022
1426 Clear 28 1012 34 10000 7.09 190 17:22 19.06.2022
1427 Clear 28 1012 34 10000 7.09 190 16:35 19.06.2022
1428 Clear 29 1012 33 10000 7.69 188 15:41 19.06.2022
1429 Clear 30 1014 29 10000 2.24 200 14:57 19.06.2022
1430 Clouds 30 1015 28 10000 4.02 257 14:20 19.06.2022
1431 Clouds 29 1015 24 10000 4.02 261 13:23 19.06.2022
1432 Clouds 27 1016 28 10000 2.68 257 11:21 19.06.2022
1433 Clouds 23 1016 42 10000 1.34 337 09:58 19.06.2022
1434 Clear 22 1015 46 10000 3.76 183 08:47 19.06.2022
1435 Clear 19 1017 61 10000 2.33 165 08:19 19.06.2022
1436 Clear 20 1017 55 10000 1.55 136 05:42 19.06.2022
1437 Clear 19 1019 57 10000 1.34 142 02:26 19.06.2022
1438 Clear 21 1020 58 10000 1.48 134 00:25 19.06.2022
1439 Clear 21 1020 58 10000 1.48 134 23:36 18.06.2022
1440 Clear 19 1019 56 10000 1.52 149 22:44 18.06.2022
1441 Clear 20 1019 54 10000 1.9 173 21:38 18.06.2022
1442 Clear 22 1018 51 10000 2.41 192 20:42 18.06.2022
1443 Clear 27 1017 34 10000 3.5 198 19:40 18.06.2022
1444 Clear 31 1016 26 10000 4.99 187 18:53 18.06.2022
1445 Clear 33 1017 22 10000 5.4 195 17:35 18.06.2022
1446 Clear 34 1017 20 10000 5.23 202 16:56 18.06.2022
1447 Clear 34 1018 21 10000 4.47 208 15:33 18.06.2022
1448 Clear 34 1021 21 10000 1.34 248 14:45 18.06.2022
1449 Clear 33 1022 22 10000 0.89 213 13:23 18.06.2022
1450 Clear 30 1023 24 10000 1.34 265 11:45 18.06.2022
1451 Clear 24 1020 26 10000 2.97 209 10:55 18.06.2022
1452 Clear 23 1022 41 10000 1.59 188 09:27 18.06.2022
1453 Clear 24 1022 41 10000 1.59 188 08:30 18.06.2022
1454 Clear 24 1022 41 10000 1.59 188 08:30 18.06.2022
1455 Clear 20 1025 66 10000 1.02 53 06:49 18.06.2022
1456 Clear 21 1026 63 10000 1.4 54 03:45 18.06.2022
1457 Clouds 23 1026 58 10000 1.47 35 01:26 18.06.2022
1458 Clouds 23 1026 58 10000 1.47 35 01:26 18.06.2022
1459 Clouds 23 1026 58 10000 1.47 35 01:26 18.06.2022
1460 Clouds 21 1026 56 10000 1.47 35 00:48 18.06.2022
1461 Clouds 22 1026 58 10000 1.72 38 23:52 17.06.2022
1462 Clouds 22 1026 59 10000 1.78 41 23:24 17.06.2022
1463 Clouds 23 1026 75 10000 2.58 34 21:18 17.06.2022
1464 Clouds 30 1023 53 10000 1.79 27 20:00 17.06.2022
1465 Clouds 30 1022 45 10000 0.88 36 18:49 17.06.2022
1466 Clouds 31 1022 34 10000 1.22 65 17:44 17.06.2022
1467 Clouds 32 1022 33 10000 1.43 19 16:43 17.06.2022
1468 Clouds 31 1022 29 10000 1.96 27 15:49 17.06.2022
1469 Clouds 34 1024 20 10000 0.89 252 15:22 17.06.2022
1470 Clouds 33 1025 21 10000 0.89 221 14:20 17.06.2022
1471 Clouds 33 1025 20 10000 0.89 222 13:46 17.06.2022
1472 Clouds 32 1025 35 10000 1.56 254 12:57 17.06.2022
1473 Clouds 28 1025 41 10000 1.35 245 11:57 17.06.2022
1474 Clouds 27 1025 43 10000 1.35 245 11:36 17.06.2022
1475 Clouds 27 1025 43 10000 1.35 245 11:36 17.06.2022
1476 Clouds 29 1023 31 10000 0.97 248 10:52 17.06.2022
1477 Clouds 21 1027 60 10000 1.06 29 08:30 17.06.2022
1478 Clouds 20 1027 60 10000 2.11 26 07:47 17.06.2022
1479 Clouds 20 1027 61 10000 2.12 31 05:57 17.06.2022
1480 Clouds 21 1027 56 10000 1.02 13 02:52 17.06.2022
1481 Clouds 21 1026 57 10000 0.76 0 00:42 17.06.2022
1482 Clouds 23 1026 62 10000 1.26 18 22:45 16.06.2022
1483 Clouds 19 1026 70 10000 1.83 34 22:20 16.06.2022
1484 Clouds 20 1026 78 10000 3.34 50 21:19 16.06.2022
1485 Clouds 20 1026 78 10000 3.34 50 20:50 16.06.2022
1486 Clouds 21 1026 74 10000 2.72 47 19:57 16.06.2022
1487 Clouds 28 1023 46 10000 2.39 264 18:34 16.06.2022
1488 Clouds 30 1021 36 10000 1.33 156 17:44 16.06.2022
1489 Clouds 30 1021 36 10000 1.33 156 17:44 16.06.2022
1490 Rain 31 1023 38 10000 1.34 308 16:46 16.06.2022
1491 Clouds 34 1023 23 10000 1.46 83 15:37 16.06.2022
1492 Clouds 34 1022 21 10000 1.89 62 15:18 16.06.2022
1493 Clouds 33 1024 27 10000 0.89 314 13:46 16.06.2022
1494 Clouds 29 1024 44 10000 1.97 27 12:38 16.06.2022
1495 Clouds 27 1024 45 10000 1.68 21 11:55 16.06.2022
1496 Clouds 25 1024 47 10000 0.45 0 11:19 16.06.2022
1497 Clouds 26 1022 20 10000 1.23 5 10:34 16.06.2022
1498 Clouds 23 1022 34 10000 0.89 354 09:26 16.06.2022
1499 Clouds 23 1022 34 10000 0.89 354 08:46 16.06.2022
1500 Clouds 18 1025 69 10000 2.02 27 07:29 16.06.2022
1501 Clouds 19 1026 67 10000 2.12 24 05:42 16.06.2022
1502 Clouds 20 1025 62 10000 1.45 22 02:54 16.06.2022
1503 Clouds 20 1025 58 10000 1.23 37 01:51 16.06.2022
1504 Clouds 21 1026 56 10000 1.47 32 01:21 16.06.2022
1505 Clouds 21 1026 56 10000 1.47 32 01:21 16.06.2022
1506 Clouds 18 1025 78 10000 2.13 33 23:56 15.06.2022
1507 Clouds 18 1025 78 10000 2.13 33 23:56 15.06.2022
1508 Clouds 19 1025 80 10000 2.42 32 22:45 15.06.2022
1509 Clouds 20 1024 83 10000 2.44 44 21:28 15.06.2022
1510 Clouds 21 1024 83 10000 2.44 44 20:57 15.06.2022
1511 Clouds 21 1024 83 10000 2.44 44 20:35 15.06.2022
1512 Clouds 22 1025 82 10000 0.58 87 19:46 15.06.2022
1513 Clouds 27 1024 70 10000 3.12 121 18:29 15.06.2022
1514 Clouds 27 1024 70 10000 3.12 121 17:42 15.06.2022
1515 Clouds 33 1019 31 10000 3.51 7 15:51 15.06.2022
1516 Clouds 34 1021 26 10000 0.45 247 14:33 15.06.2022
1517 Clouds 32 1022 30 10000 1.47 245 13:20 15.06.2022
1518 Clouds 30 1022 41 10000 1.47 245 12:33 15.06.2022
1519 Clouds 28 1020 30 10000 2.04 219 10:53 15.06.2022
1520 Clouds 24 1020 34 10000 2.05 209 10:20 15.06.2022
1521 Rain 26 1020 47 10000 0.64 163 08:57 15.06.2022
1522 Clouds 17 1024 87 10000 1.52 24 07:21 15.06.2022
1523 Clouds 18 1025 85 10000 1.13 15 04:51 15.06.2022
1524 Clouds 18 1025 87 10000 0.61 9 02:31 15.06.2022
1525 Clouds 18 1025 83 10000 1.11 67 01:33 15.06.2022
1526 Rain 18 1029 83 10000 1.79 40 23:55 14.06.2022
1527 Rain 19 1029 80 10000 2.24 49 23:37 14.06.2022
1528 Rain 16 1026 89 10000 0.3 7 22:33 14.06.2022
1529 Rain 16 1026 93 10000 1.83 89 21:42 14.06.2022
1530 Rain 23 1026 96 6271 2.81 113 20:57 14.06.2022
1531 Clouds 23 1026 96 6271 2.81 113 20:34 14.06.2022
1532 Rain 24 1023 91 5900 3.72 93 19:25 14.06.2022
1533 Clouds 28 1022 86 3033 4.05 22 18:25 14.06.2022
1534 Clouds 21 1020 74 10000 3.6 98 16:49 14.06.2022
1535 Rain 25 1021 55 10000 3.34 281 15:50 14.06.2022
1536 Clouds 25 1021 56 10000 0.45 20 15:31 14.06.2022
1537 Rain 25 1016 29 10000 3.66 292 14:46 14.06.2022
1538 Clouds 32 1019 30 10000 1.34 226 13:46 14.06.2022
1539 Clouds 31 1020 32 10000 0.89 288 12:48 14.06.2022
1540 Clouds 28 1017 26 10000 3.39 224 11:46 14.06.2022
1541 Clouds 25 1018 28 10000 2.55 224 10:49 14.06.2022
1542 Clouds 25 1018 28 10000 2.55 224 10:49 14.06.2022
1543 Clouds 24 1018 34 10000 1.25 211 10:24 14.06.2022
1544 Clouds 25 1019 43 10000 0.68 227 08:49 14.06.2022
1545 Clouds 20 1020 54 10000 0.63 34 07:50 14.06.2022
1546 Clouds 17 1022 71 10000 1.2 40 05:46 14.06.2022
1547 Clear 19 1023 69 10000 0.45 0 03:20 14.06.2022
1548 Clear 20 1023 67 10000 0.45 216 01:31 14.06.2022
1549 Clouds 17 1023 76 10000 0.67 41 23:48 13.06.2022
1550 Clouds 18 1022 79 10000 1.58 91 22:26 13.06.2022
1551 Clouds 19 1022 79 10000 1.6 91 21:54 13.06.2022
1552 Clouds 21 1021 71 10000 1.07 97 20:42 13.06.2022
1553 Clouds 22 1020 63 10000 0.44 56 19:35 13.06.2022
1554 Clouds 28 1019 47 10000 1.42 345 18:31 13.06.2022
1555 Clouds 27 1019 45 10000 1.55 25 17:47 13.06.2022
1556 Clouds 28 1020 59 10000 2.41 14 16:53 13.06.2022
1557 Clouds 28 1018 38 10000 3.57 277 15:40 13.06.2022
1558 Clouds 31 1021 31 10000 0.89 302 14:47 13.06.2022
1559 Clouds 31 1022 32 10000 1.79 252 13:55 13.06.2022
1560 Clouds 29 1023 32 10000 1.34 211 12:49 13.06.2022
1561 Clouds 26 1023 48 10000 3.32 219 11:37 13.06.2022
1562 Clouds 20 1021 35 10000 2.24 214 10:27 13.06.2022
1563 Clouds 24 1021 35 10000 2.24 214 09:42 13.06.2022
1564 Clouds 20 1025 61 10000 0.06 16 08:24 13.06.2022
1565 Clouds 17 1024 72 10000 0.88 43 06:33 13.06.2022
1566 Clouds 17 1025 74 10000 1.37 36 03:28 13.06.2022
1567 Clouds 19 1026 72 10000 1.48 31 01:38 13.06.2022
1568 Clouds 20 1026 70 10000 1.59 9 00:22 13.06.2022
1569 Clouds 21 1026 68 10000 1.42 335 23:29 12.06.2022
1570 Clouds 22 1026 69 10000 0.31 207 22:23 12.06.2022
1571 Clouds 19 1025 59 10000 0.31 207 21:39 12.06.2022
1572 Clouds 24 1025 69 10000 1.97 96 20:39 12.06.2022
1573 Clouds 24 1025 67 10000 2.17 63 19:38 12.06.2022
1574 Rain 24 1023 61 10000 2.54 36 18:43 12.06.2022
1575 Clouds 26 1019 26 10000 4.57 229 16:42 12.06.2022
1576 Rain 31 1024 34 10000 0.45 148 15:30 12.06.2022
1577 Clouds 31 1024 33 10000 0.45 0 14:32 12.06.2022
1578 Clouds 30 1025 34 10000 0.89 240 13:55 12.06.2022
1579 Clouds 30 1025 34 10000 1.34 288 12:58 12.06.2022
1580 Clouds 27 1026 44 10000 2.92 216 11:47 12.06.2022
1581 Clouds 23 1023 33 10000 2.33 218 10:45 12.06.2022
1582 Clear 21 1024 41 10000 1.46 212 09:25 12.06.2022
1583 Clear 21 1024 41 10000 1.46 212 08:48 12.06.2022
1584 Clouds 22 1024 53 10000 0.21 122 07:39 12.06.2022
1585 Clouds 17 1026 79 10000 0.38 39 05:38 12.06.2022
1586 Clouds 18 1026 81 10000 0.4 48 03:38 12.06.2022
1587 Clouds 19 1027 82 10000 0.91 80 01:43 12.06.2022
1588 Clouds 19 1027 80 10000 1.34 198 00:58 12.06.2022
1589 Clear 19 1027 84 10000 1.2 60 00:25 12.06.2022
1590 Clear 19 1028 83 10000 1.2 60 23:48 11.06.2022
1591 Clear 19 1028 83 10000 1.2 60 23:48 11.06.2022
1592 Clear 20 1026 83 10000 1.41 64 22:39 11.06.2022
1593 Clouds 20 1026 83 10000 2.04 61 22:18 11.06.2022
1594 Rain 20 1026 82 10000 1.94 47 20:50 11.06.2022
1595 Clouds 22 1026 80 10000 1.34 101 20:21 11.06.2022
1596 Rain 30 1023 51 10000 2.55 57 19:26 11.06.2022
1597 Rain 29 1023 51 10000 2.55 57 18:34 11.06.2022
1598 Rain 29 1023 54 10000 3.29 46 17:51 11.06.2022
1599 Clouds 27 1023 52 10000 1.34 294 17:28 11.06.2022
1600 Clouds 29 1021 43 10000 1.56 347 16:57 11.06.2022
1601 Clouds 32 1021 43 10000 1.56 347 16:30 11.06.2022
1602 Clouds 28 1021 31 10000 1.37 254 15:43 11.06.2022
1603 Clouds 28 1021 31 10000 1.37 254 15:43 11.06.2022
1604 Clouds 30 1023 26 10000 1.34 304 13:53 11.06.2022
1605 Clouds 28 1024 29 10000 1.34 306 12:57 11.06.2022
1606 Clouds 21 1022 25 10000 1.83 217 10:55 11.06.2022
1607 Clouds 19 1023 26 10000 1.21 222 10:19 11.06.2022
1608 Clouds 20 1023 29 10000 0.49 230 09:19 11.06.2022
1609 Clouds 20 1024 35 10000 0.78 57 07:43 11.06.2022
1610 Clouds 16 1025 51 10000 1.84 37 06:30 11.06.2022
1611 Clouds 17 1025 48 10000 1.96 29 04:49 11.06.2022
1612 Clouds 19 1025 45 10000 2.07 29 01:53 11.06.2022
1613 Clouds 17 1024 45 10000 2.2 31 01:33 11.06.2022
1614 Clouds 17 1024 52 10000 2 26 00:20 11.06.2022
1615 Clouds 18 1024 56 10000 1.92 29 22:32 10.06.2022
1616 Clouds 19 1024 62 10000 2.31 30 21:52 10.06.2022
1617 Clouds 27 1023 59 10000 2.48 15 20:42 10.06.2022
1618 Clouds 27 1021 42 10000 2.43 6 20:22 10.06.2022
1619 Clouds 27 1020 32 10000 2.89 6 19:20 10.06.2022
1620 Clouds 27 1020 32 10000 2.89 6 18:56 10.06.2022
1621 Clear 28 1020 27 10000 2.95 2 17:59 10.06.2022
1622 Clear 28 1020 27 10000 2.95 2 17:35 10.06.2022
1623 Clear 28 1019 23 10000 2.92 357 16:50 10.06.2022
1624 Clear 31 1022 13 10000 1.34 281 15:44 10.06.2022
1625 Clear 30 1022 14 10000 0.45 300 14:51 10.06.2022
1626 Clear 29 1023 13 10000 0.45 269 13:36 10.06.2022
1627 Clear 27 1023 15 10000 1.98 1 12:21 10.06.2022
1628 Clear 25 1023 14 10000 0.45 201 11:30 10.06.2022
1629 Clear 20 1023 26 10000 2.09 7 10:36 10.06.2022
1630 Clear 17 1022 25 10000 2.74 14 09:26 10.06.2022
1631 Clear 14 1024 44 10000 3.16 19 07:57 10.06.2022
1632 Clear 14 1024 40 10000 3.69 18 06:49 10.06.2022
1633 Clear 14 1024 38 10000 3.69 18 06:30 10.06.2022
1634 Clear 14 1024 38 10000 3.79 19 05:32 10.06.2022
1635 Clear 12 1024 60 10000 3.79 19 02:46 10.06.2022
1636 Clear 13 1024 81 10000 3.68 17 01:37 10.06.2022
1637 Clear 12 1025 91 10000 3.74 12 23:58 09.06.2022
1638 Clear 14 1025 91 10000 3.77 13 22:43 09.06.2022
1639 Clear 12 1024 89 10000 3.66 12 21:44 09.06.2022
1640 Clear 16 1022 75 10000 3.48 3 21:25 09.06.2022
1641 Clear 17 1022 75 10000 3.48 3 20:38 09.06.2022
1642 Clear 18 1021 60 10000 3.4 352 19:46 09.06.2022
1643 Clear 23 1020 51 10000 3.76 353 18:37 09.06.2022
1644 Clear 23 1019 46 10000 3.92 354 17:33 09.06.2022
1645 Clear 26 1018 42 10000 3.63 352 16:28 09.06.2022
1646 Clear 26 1018 41 10000 3.65 354 14:52 09.06.2022
1647 Clear 26 1018 39 10000 3.27 349 14:28 09.06.2022
1648 Clear 25 1018 37 10000 3.29 349 13:30 09.06.2022
1649 Clear 25 1018 37 10000 3.29 349 13:30 09.06.2022
1650 Clear 24 1018 34 10000 2.8 344 12:55 09.06.2022
1651 Clear 22 1018 33 10000 2.9 352 11:33 09.06.2022
1652 Clear 17 1019 42 10000 3.49 1 09:55 09.06.2022
1653 Clear 17 1019 42 10000 3.49 1 09:55 09.06.2022
1654 Clear 16 1019 45 10000 3.49 1 09:37 09.06.2022
1655 Clear 14 1020 53 10000 0.45 5 08:38 09.06.2022
1656 Clouds 11 1020 89 10000 3.92 9 07:29 09.06.2022
1657 Clouds 13 1019 89 10000 3.47 360 03:31 09.06.2022
1658 Clouds 14 1019 92 10000 3.14 1 00:34 09.06.2022
1659 Clouds 15 1018 89 10000 3.04 359 23:18 08.06.2022
1660 Clouds 15 1018 89 10000 3.03 358 22:42 08.06.2022
1661 Clouds 15 1018 92 10000 3.15 0 22:23 08.06.2022
1662 Clouds 15 1018 92 10000 3.15 0 21:32 08.06.2022
1663 Clouds 17 1016 90 2205 3.53 352 20:25 08.06.2022
1664 Clouds 18 1016 90 2205 3.53 352 19:41 08.06.2022
1665 Clouds 18 1016 84 10000 3.43 348 18:48 08.06.2022
1666 Clouds 18 1016 82 10000 2.94 343 17:41 08.06.2022
1667 Clouds 19 1015 72 10000 1.97 333 15:53 08.06.2022
1668 Rain 18 1014 67 10000 1.94 314 14:38 08.06.2022
1669 Clouds 18 1015 66 10000 1.62 298 12:55 08.06.2022
1670 Clouds 18 1015 66 10000 1.62 298 12:55 08.06.2022
1671 Clouds 18 1015 66 10000 1.62 298 12:55 08.06.2022
1672 Clouds 21 1015 57 10000 1.79 286 11:36 08.06.2022
1673 Clouds 20 1015 63 10000 1.83 243 10:51 08.06.2022
1674 Clouds 18 1016 70 10000 1.09 259 09:28 08.06.2022
1675 Clouds 18 1016 72 10000 1.09 259 08:54 08.06.2022
1676 Clouds 17 1017 66 10000 0.42 270 06:56 08.06.2022
1677 Clouds 17 1018 63 10000 0.58 219 04:41 08.06.2022
1678 Clouds 15 1019 95 10000 0.5 78 00:58 08.06.2022
1679 Clouds 16 1019 93 10000 1.08 70 23:32 07.06.2022
1680 Clouds 17 1019 92 10000 1.52 63 22:51 07.06.2022
1681 Clouds 17 1019 92 10000 1.52 63 22:33 07.06.2022
1682 Clouds 17 1019 87 10000 1.75 26 21:39 07.06.2022
1683 Clouds 17 1017 72 10000 1.54 313 21:20 07.06.2022
1684 Clouds 17 1017 72 10000 1.54 313 20:40 07.06.2022
1685 Clouds 18 1016 51 10000 2.27 253 19:51 07.06.2022
1686 Clouds 19 1016 39 10000 3.24 245 18:25 07.06.2022
1687 Clouds 20 1016 39 10000 3.24 245 17:31 07.06.2022
1688 Clouds 19 1016 46 10000 2.67 252 16:44 07.06.2022
1689 Clouds 23 1017 39 10000 4.12 241 15:58 07.06.2022
1690 Clouds 23 1017 39 10000 4.12 241 15:30 07.06.2022
1691 Clouds 21 1017 40 10000 4.2 232 14:56 07.06.2022
1692 Clouds 21 1017 40 10000 4.2 232 14:38 07.06.2022
1693 Clouds 21 1017 39 10000 4.43 226 13:33 07.06.2022
1694 Clouds 25 1019 39 10000 0.89 317 12:54 07.06.2022
1695 Clouds 24 1020 41 10000 1.34 18 11:49 07.06.2022
1696 Clouds 23 1020 48 10000 1.34 258 10:48 07.06.2022
1697 Clear 17 1021 70 10000 2.41 224 08:53 07.06.2022
1698 Clouds 16 1021 69 10000 1.06 239 07:47 07.06.2022
1699 Clouds 13 1021 78 10000 0.94 347 06:39 07.06.2022
1700 Clouds 13 1020 74 10000 0.31 278 04:39 07.06.2022
1701 Clouds 16 1022 89 10000 2.39 27 01:27 07.06.2022
1702 Clouds 17 1022 89 10000 2.81 20 23:53 06.06.2022
1703 Clouds 17 1022 80 10000 3.05 13 22:54 06.06.2022
1704 Clouds 17 1021 64 10000 2.25 4 22:29 06.06.2022
1705 Clouds 19 1019 54 10000 0.9 256 20:47 06.06.2022
1706 Clouds 19 1018 37 10000 2.98 245 19:28 06.06.2022
1707 Clouds 24 1018 37 10000 2.98 245 18:49 06.06.2022
1708 Clouds 24 1018 35 10000 3.47 245 18:21 06.06.2022
1709 Clouds 25 1018 31 10000 4.5 243 17:24 06.06.2022
1710 Clouds 26 1020 35 10000 1.34 179 16:18 06.06.2022
1711 Clouds 27 1020 32 10000 1.34 219 15:23 06.06.2022
1712 Clouds 26 1021 41 10000 0.45 246 14:29 06.06.2022
1713 Clouds 25 1021 41 10000 1.34 314 13:21 06.06.2022
1714 Clouds 25 1021 41 10000 0.45 254 12:35 06.06.2022
1715 Clouds 24 1022 41 10000 1.34 273 11:50 06.06.2022
1716 Clouds 18 1022 58 10000 3.03 215 10:21 06.06.2022
1717 Clear 16 1021 50 10000 2.4 215 09:23 06.06.2022
1718 Clear 17 1021 50 10000 2.4 215 08:31 06.06.2022
1719 Clear 14 1023 71 10000 0.01 123 07:24 06.06.2022
1720 Clear 15 1023 66 10000 0.53 190 04:42 06.06.2022
1721 Clouds 14 1024 68 10000 1.41 74 02:19 06.06.2022
1722 Clouds 14 1023 74 10000 1.27 70 00:57 06.06.2022
1723 Clouds 15 1023 74 10000 1.26 70 00:35 06.06.2022
1724 Clouds 15 1023 70 10000 1.78 3 23:25 05.06.2022
1725 Clouds 17 1022 66 10000 0.72 334 22:26 05.06.2022
1726 Clear 22 1019 45 10000 2.23 246 20:29 05.06.2022
1727 Clear 23 1018 36 10000 3.52 233 19:26 05.06.2022
1728 Clear 26 1020 34 10000 1.79 243 18:20 05.06.2022
1729 Clear 26 1020 35 10000 1.79 337 17:39 05.06.2022
1730 Clear 26 1020 36 10000 2.68 298 17:21 05.06.2022
1731 Clear 26 1020 34 10000 1.79 253 16:47 05.06.2022
1732 Clear 27 1020 31 10000 0.89 50 15:41 05.06.2022
1733 Clear 26 1020 27 10000 0.89 257 14:21 05.06.2022
1734 Clear 24 1021 31 10000 0.45 234 12:23 05.06.2022
1735 Clear 20 1020 50 10000 3.24 215 10:51 05.06.2022
1736 Clear 19 1020 61 10000 2.76 216 10:24 05.06.2022
1737 Clear 17 1020 72 10000 2.76 216 09:42 05.06.2022
1738 Clear 15 1020 77 10000 0.88 232 08:25 05.06.2022
1739 Clear 15 1020 75 10000 0.69 94 06:25 05.06.2022
1740 Clear 14 1019 87 10000 0.67 6 05:19 05.06.2022
1741 Clear 15 1019 89 10000 1.03 43 02:48 05.06.2022
1742 Clear 17 1019 88 10000 0.71 118 01:24 05.06.2022
1743 Clear 18 1019 90 10000 0.6 161 23:36 04.06.2022
1744 Clear 21 1017 82 10000 1.43 171 21:30 04.06.2022
1745 Clouds 23 1015 57 10000 3.18 192 19:36 04.06.2022
1746 Clouds 28 1016 27 10000 0.89 274 17:21 04.06.2022
1747 Clouds 28 1017 25 10000 1.79 269 16:20 04.06.2022
1748 Clouds 28 1017 24 10000 2.68 304 15:45 04.06.2022
1749 Clouds 28 1018 28 10000 2.24 242 14:18 04.06.2022
1750 Clouds 24 1018 42 10000 1.34 247 11:43 04.06.2022
1751 Clouds 21 1018 50 10000 4.15 198 10:55 04.06.2022
1752 Clouds 21 1016 44 10000 3.12 184 09:59 04.06.2022
1753 Clouds 20 1016 44 10000 3.12 184 09:38 04.06.2022
1754 Clouds 18 1016 48 10000 1.95 167 08:39 04.06.2022
1755 Clear 16 1018 68 10000 1.2 74 06:59 04.06.2022
1756 Clear 17 1018 65 10000 1.35 91 03:57 04.06.2022
1757 Clear 17 1018 79 10000 1.2 131 00:22 04.06.2022
1758 Clear 18 1018 78 10000 0.64 169 22:57 03.06.2022
1759 Clear 16 1017 76 10000 1.88 195 21:53 03.06.2022
1760 Clear 25 1016 65 10000 3.78 187 20:40 03.06.2022
1761 Clear 26 1015 47 10000 3.49 191 19:49 03.06.2022
1762 Clouds 28 1015 34 10000 4.65 199 16:59 03.06.2022
1763 Clouds 27 1015 36 10000 4.94 200 15:57 03.06.2022
1764 Clouds 26 1014 36 10000 5.33 205 14:42 03.06.2022
1765 Clear 26 1015 37 10000 3.12 204 12:21 03.06.2022
1766 Clear 19 1017 67 10000 1.86 190 09:57 03.06.2022
1767 Clouds 19 1017 70 10000 1.13 147 09:29 03.06.2022
1768 Clouds 18 1018 73 10000 0.96 131 07:47 03.06.2022
1769 Clouds 17 1017 72 10000 1.96 89 07:19 03.06.2022
1770 Clouds 17 1018 70 10000 1.8 164 06:29 03.06.2022
1771 Clouds 18 1017 67 10000 1.12 166 03:52 03.06.2022
1772 Clouds 18 1017 72 10000 0.91 86 23:53 02.06.2022
1773 Clouds 19 1017 72 10000 1.37 107 22:33 02.06.2022
1774 Clouds 19 1015 62 10000 1.81 188 20:57 02.06.2022
1775 Clouds 24 1014 48 10000 2.57 206 19:58 02.06.2022
1776 Clouds 25 1015 47 10000 2.67 200 19:39 02.06.2022
1777 Clouds 26 1014 37 10000 3.79 202 18:51 02.06.2022
1778 Rain 28 1016 29 10000 0.89 250 16:30 02.06.2022
1779 Clouds 28 1016 29 10000 0.89 277 15:47 02.06.2022
1780 Clouds 28 1016 31 10000 1.79 229 13:31 02.06.2022
1781 Clouds 28 1016 29 10000 2.24 290 12:49 02.06.2022
1782 Clear 21 1015 40 10000 3.33 192 10:45 02.06.2022
1783 Clear 19 1016 51 10000 1.36 154 09:30 02.06.2022
1784 Clear 19 1016 51 10000 1.36 154 08:45 02.06.2022
1785 Clouds 18 1016 63 10000 1.2 109 08:23 02.06.2022
1786 Clouds 16 1018 73 10000 1.29 65 06:21 02.06.2022
1787 Clear 17 1018 67 10000 1.23 55 03:50 02.06.2022
1788 Clear 16 1018 71 10000 1 85 00:55 02.06.2022
1789 Clouds 19 1017 65 10000 1.02 118 22:58 01.06.2022
1790 Clear 21 1017 62 10000 1 176 22:18 01.06.2022
1791 Rain 23 1016 60 10000 1.16 218 21:24 01.06.2022
1792 Clear 19 1016 60 10000 1.17 218 20:38 01.06.2022
1793 Clear 26 1015 47 10000 3.38 234 19:52 01.06.2022
1794 Clouds 26 1014 39 10000 5.05 232 18:37 01.06.2022
1795 Clouds 25 1015 33 10000 5.51 221 16:58 01.06.2022
1796 Clouds 24 1015 34 10000 5.21 218 15:43 01.06.2022
1797 Clear 28 1017 31 10000 1.34 308 14:49 01.06.2022
1798 Clouds 27 1018 32 10000 0.89 213 13:23 01.06.2022
1799 Clouds 22 1016 39 10000 3.86 219 10:48 01.06.2022
1800 Clear 18 1017 56 10000 2 216 09:29 01.06.2022
1801 Clear 17 1017 70 10000 0.61 222 08:18 01.06.2022
1802 Clear 14 1019 86 10000 0.35 65 07:20 01.06.2022
1803 Clear 15 1019 81 10000 0.31 62 03:55 01.06.2022
1804 Clear 15 1018 72 10000 0.59 129 23:47 31.05.2022
1805 Clear 16 1018 71 10000 0.16 163 22:39 31.05.2022
1806 Clear 16 1017 71 10000 0.53 194 22:19 31.05.2022
1807 Clear 18 1016 68 10000 1.29 213 21:23 31.05.2022
1808 Clear 18 1016 68 10000 1.29 213 20:43 31.05.2022
1809 Clouds 19 1014 55 10000 2.49 235 19:22 31.05.2022
1810 Clouds 19 1014 49 10000 3.82 230 18:26 31.05.2022
1811 Clouds 21 1014 49 10000 3.82 230 17:37 31.05.2022
1812 Clouds 24 1015 42 10000 1.79 225 15:45 31.05.2022
1813 Clouds 23 1015 44 10000 1.79 241 15:22 31.05.2022
1814 Clouds 22 1016 51 10000 0.89 303 12:41 31.05.2022
1815 Clouds 21 1016 54 10000 1.34 323 12:18 31.05.2022
1816 Clouds 15 1016 93 10000 2.46 211 10:22 31.05.2022
1817 Clouds 13 1016 94 10000 0.95 205 07:43 31.05.2022
1818 Clouds 14 1015 93 10000 0.46 131 05:38 31.05.2022
1819 Clouds 14 1016 93 10000 0.54 152 03:41 31.05.2022
1820 Clouds 14 1015 90 10000 0.91 114 23:45 30.05.2022
1821 Clouds 14 1015 89 10000 0.97 127 23:23 30.05.2022
1822 Clouds 13 1015 90 10000 0.89 58 22:33 30.05.2022
1823 Clouds 13 1014 90 10000 0.45 0 21:40 30.05.2022
1824 Rain 14 1014 90 6761 0.45 0 20:43 30.05.2022
1825 Rain 13 1013 89 10000 0.45 0 19:40 30.05.2022
1826 Rain 17 1012 88 4188 0.45 219 17:48 30.05.2022
1827 Rain 24 1009 69 9304 2.4 189 17:20 30.05.2022
1828 Rain 21 1009 64 10000 2.84 197 15:51 30.05.2022
1829 Clouds 21 1008 49 10000 2.97 233 13:21 30.05.2022
1830 Clouds 18 1009 72 10000 0.45 274 11:30 30.05.2022
1831 Clouds 15 1010 91 10000 1.93 241 09:41 30.05.2022
1832 Clouds 12 1009 91 10000 0.64 17 07:29 30.05.2022
1833 Clouds 12 1009 91 10000 0.35 329 05:52 30.05.2022
1834 Clouds 13 1009 89 10000 0.03 120 03:22 30.05.2022
1835 Clouds 15 1011 87 10000 0.45 0 23:57 29.05.2022
1836 Clouds 15 1011 86 10000 0.45 0 22:40 29.05.2022
1837 Clouds 16 1009 84 10000 0.73 117 21:44 29.05.2022
1838 Rain 17 1009 84 10000 1.34 68 20:18 29.05.2022
1839 Clouds 21 1006 49 10000 1.63 264 19:28 29.05.2022
1840 Rain 20 1007 77 10000 0.45 97 17:56 29.05.2022
1841 Clouds 23 1006 36 10000 3.41 240 15:59 29.05.2022
1842 Clouds 22 1006 36 10000 3.41 240 15:40 29.05.2022
1843 Clouds 26 1008 34 10000 1.34 347 14:44 29.05.2022
1844 Clear 21 1008 29 10000 1.82 242 12:21 29.05.2022
1845 Clear 20 1010 37 10000 0.45 250 10:45 29.05.2022
1846 Clear 17 1009 34 10000 0.89 325 09:52 29.05.2022
1847 Clear 13 1012 59 10000 2.34 17 07:42 29.05.2022
1848 Clear 14 1012 55 10000 2.9 22 04:51 29.05.2022
1849 Clear 15 1012 55 10000 2.9 22 04:31 29.05.2022
1850 Clear 14 1014 83 10000 3.16 14 00:48 29.05.2022
1851 Clear 15 1015 88 10000 3.18 16 23:42 28.05.2022
1852 Clear 13 1015 90 10000 3.47 15 22:56 28.05.2022
1853 Clear 13 1015 89 10000 3.36 16 21:45 28.05.2022
1854 Clear 16 1014 77 10000 3.11 8 20:30 28.05.2022
1855 Clouds 22 1012 41 10000 3.19 359 19:19 28.05.2022
1856 Clouds 25 1012 36 10000 3.2 355 18:19 28.05.2022
1857 Clouds 24 1013 33 10000 3.25 357 16:57 28.05.2022
1858 Clouds 28 1013 31 10000 3.46 0 15:45 28.05.2022
1859 Clouds 27 1013 30 10000 3.22 358 15:19 28.05.2022
1860 Clear 25 1015 31 10000 2.43 358 13:26 28.05.2022
1861 Clear 26 1017 24 10000 1.34 279 12:41 28.05.2022
1862 Clear 21 1017 35 10000 2.08 357 11:27 28.05.2022
1863 Clear 17 1018 41 10000 2.12 0 10:25 28.05.2022
1864 Clear 15 1017 29 10000 2.12 0 09:30 28.05.2022
1865 Clear 13 1020 60 10000 2.6 13 07:53 28.05.2022
1866 Clear 13 1020 60 10000 3.25 19 06:32 28.05.2022
1867 Clear 15 1021 55 10000 3.1 18 04:21 28.05.2022
1868 Clear 13 1023 82 10000 3.18 19 00:50 28.05.2022
1869 Clear 14 1024 87 10000 3.27 17 23:42 27.05.2022
1870 Clear 15 1024 92 10000 3.25 13 22:24 27.05.2022
1871 Clear 22 1023 82 10000 2.96 8 20:58 27.05.2022
1872 Clear 22 1023 82 10000 2.96 8 20:31 27.05.2022
1873 Clear 21 1021 65 10000 2.81 2 19:55 27.05.2022
1874 Clear 23 1021 64 10000 2.78 1 19:33 27.05.2022
1875 Clear 22 1020 49 10000 2.82 3 18:29 27.05.2022
1876 Clear 23 1020 45 10000 3.03 4 16:42 27.05.2022
1877 Clear 24 1020 44 10000 3.31 12 15:44 27.05.2022
1878 Clear 25 1021 43 10000 3.71 16 14:45 27.05.2022
1879 Clear 24 1021 42 10000 4.04 16 13:30 27.05.2022
1880 Clear 21 1022 42 10000 3.68 15 11:41 27.05.2022
1881 Clear 20 1022 44 10000 3.66 14 11:23 27.05.2022
1882 Clear 17 1022 51 10000 0.45 252 10:32 27.05.2022
1883 Clear 15 1023 60 10000 3.66 14 09:37 27.05.2022
1884 Clouds 12 1023 63 10000 3.87 20 08:19 27.05.2022
1885 Clouds 10 1025 90 10000 4.25 16 05:47 27.05.2022
1886 Clouds 10 1026 94 10000 3.99 16 02:53 27.05.2022
1887 Clouds 10 1027 92 10000 3.59 21 00:37 27.05.2022
1888 Clouds 11 1027 92 10000 3.68 14 22:47 26.05.2022
1889 Clouds 13 1027 93 10000 3.73 9 21:42 26.05.2022
1890 Clear 14 1026 85 10000 3.67 9 20:59 26.05.2022
1891 Clear 15 1023 60 10000 3.94 10 19:24 26.05.2022
1892 Clear 19 1023 54 10000 3.83 9 18:18 26.05.2022
1893 Clear 19 1023 51 10000 3.98 13 16:55 26.05.2022
1894 Clear 19 1023 48 10000 3.98 15 15:46 26.05.2022
1895 Clear 20 1024 41 10000 0.89 279 14:46 26.05.2022
1896 Clear 20 1024 45 10000 0.89 279 12:50 26.05.2022
1897 Clear 18 1024 47 10000 0.89 46 11:29 26.05.2022
1898 Clear 14 1024 48 10000 1.79 282 10:19 26.05.2022
1899 Clear 11 1024 51 10000 3.39 12 09:33 26.05.2022
1900 Clear 12 1025 51 10000 0.45 235 08:35 26.05.2022
1901 Clouds 7 1026 92 10000 4.13 14 04:41 26.05.2022
1902 Clouds 7 1027 93 10000 3.8 13 00:48 26.05.2022
1903 Clouds 7 1027 94 10000 3.91 14 23:40 25.05.2022
1904 Clouds 8 1027 93 10000 3.78 15 21:59 25.05.2022
1905 Clouds 7 1027 93 10000 3.78 15 21:32 25.05.2022
1906 Clouds 8 1025 88 10000 3.68 11 20:35 25.05.2022
1907 Clouds 12 1022 78 10000 3.91 9 19:24 25.05.2022
1908 Clouds 13 1021 73 10000 4.11 11 17:43 25.05.2022
1909 Clouds 15 1020 71 10000 4.03 7 16:38 25.05.2022
1910 Clouds 14 1019 71 10000 3.81 8 15:54 25.05.2022
1911 Clouds 14 1019 72 10000 4.1 4 14:51 25.05.2022
1912 Clouds 14 1019 72 10000 4.1 4 14:33 25.05.2022
1913 Clouds 13 1019 76 10000 3.99 5 13:45 25.05.2022
1914 Clouds 13 1019 79 10000 3.86 8 12:38 25.05.2022
1915 Clouds 6 1019 95 348 3.3 7 10:43 25.05.2022
1916 Clouds 5 1019 94 68 3.05 4 09:54 25.05.2022
1917 Clouds 7 1018 94 1447 3.32 6 08:37 25.05.2022
1918 Clouds 6 1017 96 296 3.68 17 07:22 25.05.2022
1919 Rain 6 1015 97 112 3.19 25 03:22 25.05.2022
1920 Rain 7 1016 98 73 3.36 10 23:56 24.05.2022
1921 Rain 7 1016 98 73 3.36 10 23:31 24.05.2022
1922 Rain 7 1015 96 316 3.78 22 22:21 24.05.2022
1923 Rain 9 1015 96 316 3.78 22 21:40 24.05.2022
1924 Rain 8 1013 95 10000 3.08 9 21:20 24.05.2022
1925 Clouds 9 1013 96 154 3.65 8 19:45 24.05.2022
1926 Rain 9 1012 94 10000 3.32 14 18:53 24.05.2022
1927 Clouds 14 1009 85 3137 2.05 331 16:42 24.05.2022
1928 Clouds 14 1010 89 4393 2.64 251 16:22 24.05.2022
1929 Clouds 13 1010 91 1520 3.46 218 14:56 24.05.2022
1930 Clouds 12 1010 89 6695 3.53 217 14:20 24.05.2022
1931 Clouds 10 1010 87 7279 3.6 217 12:49 24.05.2022
1932 Rain 15 1011 89 139 3.16 197 10:46 24.05.2022
1933 Clouds 15 1012 87 160 2.99 214 09:43 24.05.2022
1934 Rain 15 1012 87 2464 2.64 215 08:49 24.05.2022
1935 Rain 13 1011 87 10000 1.53 216 06:57 24.05.2022
1936 Clouds 14 1011 82 10000 0.61 346 03:56 24.05.2022
1937 Clouds 13 1011 80 10000 1.27 353 01:53 24.05.2022
1938 Clouds 13 1011 80 10000 1.27 353 01:32 24.05.2022
1939 Clouds 12 1012 90 10000 1.88 9 22:55 23.05.2022
1940 Clouds 13 1012 86 10000 1.7 340 21:55 23.05.2022
1941 Clouds 15 1010 75 10000 1.4 294 21:29 23.05.2022
1942 Clouds 23 1008 55 10000 2.62 246 20:29 23.05.2022
1943 Clouds 23 1008 57 10000 2.58 250 19:31 23.05.2022
1944 Clouds 23 1007 47 10000 3.18 240 18:57 23.05.2022
1945 Clouds 22 1007 43 10000 4.07 228 18:29 23.05.2022
1946 Clouds 23 1007 46 10000 4.29 222 17:20 23.05.2022
1947 Clouds 26 1009 34 10000 2.68 240 14:52 23.05.2022
1948 Clear 24 1009 28 10000 2.68 280 12:56 23.05.2022
1949 Clear 23 1009 35 10000 1.79 256 11:31 23.05.2022
1950 Clear 19 1010 45 10000 3.11 215 09:50 23.05.2022
1951 Clear 18 1010 46 10000 1.82 222 09:28 23.05.2022
1952 Clouds 16 1011 48 10000 0.87 206 08:20 23.05.2022
1953 Clouds 17 1011 44 10000 0.33 128 06:45 23.05.2022
1954 Clouds 17 1011 56 10000 0.48 97 05:31 23.05.2022
1955 Clouds 20 1012 36 10000 1.22 53 02:32 23.05.2022
1956 Clouds 19 1013 39 10000 1.37 108 01:37 23.05.2022
1957 Clouds 15 1014 38 10000 1.93 97 00:20 23.05.2022
1958 Clouds 20 1014 44 10000 0.93 71 22:36 22.05.2022
1959 Clouds 18 1014 47 10000 1.41 183 21:55 22.05.2022
1960 Clouds 28 1013 48 10000 1.91 185 20:54 22.05.2022
1961 Clouds 26 1012 41 10000 2.37 203 20:31 22.05.2022
1962 Clouds 27 1012 41 10000 2.37 202 19:56 22.05.2022
1963 Clouds 28 1012 31 10000 2.87 247 18:55 22.05.2022
1964 Clouds 29 1012 25 10000 4.33 238 18:25 22.05.2022
1965 Clouds 31 1012 25 10000 4.33 238 17:33 22.05.2022
1966 Clouds 30 1013 24 10000 4.35 255 16:31 22.05.2022
1967 Clouds 32 1014 23 10000 5.45 212 14:49 22.05.2022
1968 Clouds 32 1016 22 10000 0.45 281 13:48 22.05.2022
1969 Clouds 31 1017 21 10000 0.89 278 12:52 22.05.2022
1970 Clouds 27 1017 36 10000 3.75 221 11:44 22.05.2022
1971 Clouds 26 1016 24 10000 2.76 216 09:45 22.05.2022
1972 Clouds 22 1016 34 10000 0.81 160 08:54 22.05.2022
1973 Clouds 17 1020 54 10000 0.66 28 07:22 22.05.2022
1974 Clouds 18 1020 54 10000 0.77 39 06:23 22.05.2022
1975 Clouds 20 1022 47 10000 0.66 37 02:23 22.05.2022
1976 Clouds 19 1022 44 10000 0.57 12 00:44 22.05.2022
1977 Clouds 20 1022 43 10000 0.67 37 23:55 21.05.2022
1978 Clouds 21 1023 45 10000 1.28 45 23:21 21.05.2022
1979 Clouds 21 1023 49 10000 1.69 58 21:45 21.05.2022
1980 Clouds 20 1023 57 10000 2.1 52 21:25 21.05.2022
1981 Clouds 28 1023 55 10000 3.26 49 20:25 21.05.2022
1982 Clouds 22 1023 55 10000 3.05 57 19:35 21.05.2022
1983 Clouds 28 1020 28 10000 1.11 266 17:51 21.05.2022
1984 Clouds 32 1020 25 10000 2.32 243 16:46 21.05.2022
1985 Clouds 32 1024 20 10000 1.79 299 14:38 21.05.2022
1986 Clouds 32 1024 16 10000 2.24 184 13:52 21.05.2022
1987 Clouds 30 1024 17 10000 1.79 313 12:50 21.05.2022
1988 Clouds 28 1025 22 10000 0.45 55 12:26 21.05.2022
1989 Clouds 18 1023 29 10000 2.92 216 10:34 21.05.2022
1990 Clouds 22 1023 32 10000 2.15 203 09:44 21.05.2022
1991 Clouds 22 1024 37 10000 1.1 199 08:57 21.05.2022
1992 Clouds 21 1025 46 10000 0.42 70 07:54 21.05.2022
1993 Clouds 17 1027 55 10000 0.62 32 04:29 21.05.2022
1994 Clouds 18 1028 49 10000 0.68 40 23:54 20.05.2022
1995 Clouds 19 1028 48 10000 0.52 35 22:57 20.05.2022
1996 Clouds 20 1027 49 10000 0.2 102 22:23 20.05.2022
1997 Clouds 18 1027 49 10000 0.2 102 21:43 20.05.2022
1998 Clouds 26 1027 50 10000 1.01 210 20:56 20.05.2022
1999 Clouds 26 1026 43 10000 2.13 218 19:59 20.05.2022
2000 Clouds 26 1025 31 10000 2.61 222 19:26 20.05.2022
2001 Clouds 26 1025 31 10000 2.61 222 18:44 20.05.2022
2002 Clouds 29 1025 25 10000 3.34 224 16:54 20.05.2022
2003 Clouds 30 1027 23 10000 2.24 325 16:19 20.05.2022
2004 Clouds 30 1027 23 10000 1.79 280 15:44 20.05.2022
2005 Clouds 30 1027 22 10000 1.34 285 14:30 20.05.2022
2006 Clouds 29 1028 21 10000 2.68 259 13:55 20.05.2022
2007 Clouds 25 1029 34 10000 0.45 352 11:33 20.05.2022
2008 Clouds 19 1029 52 10000 2.46 211 09:51 20.05.2022
2009 Clouds 21 1028 44 10000 2.24 213 08:43 20.05.2022
2010 Clouds 16 1029 66 10000 0.44 183 06:50 20.05.2022
2011 Clouds 16 1029 66 10000 0.44 183 06:31 20.05.2022
2012 Clouds 17 1029 66 10000 0.5 190 04:31 20.05.2022
2013 Clouds 17 1027 76 10000 0.49 113 00:43 20.05.2022
2014 Clouds 17 1028 80 10000 0.88 184 22:46 19.05.2022
2015 Clouds 17 1027 77 10000 1.28 186 21:59 19.05.2022
2016 Clouds 17 1027 77 10000 1.28 186 21:40 19.05.2022
2017 Clear 18 1025 70 10000 2 197 21:22 19.05.2022
2018 Clouds 23 1024 55 10000 2.62 212 20:25 19.05.2022
2019 Clouds 23 1024 53 10000 2.47 217 19:34 19.05.2022
2020 Clouds 28 1023 40 10000 4.82 210 18:19 19.05.2022
2021 Clouds 28 1023 37 10000 4.65 213 16:32 19.05.2022
2022 Clouds 29 1025 32 10000 1.34 291 14:52 19.05.2022
2023 Clouds 28 1025 30 10000 2.68 253 14:23 19.05.2022
2024 Clouds 25 1026 37 10000 1.79 272 12:35 19.05.2022
2025 Clouds 23 1026 48 10000 1.34 257 11:25 19.05.2022
2026 Clouds 17 1026 70 10000 1.43 175 09:19 19.05.2022
2027 Clouds 16 1026 73 10000 1.19 129 07:48 19.05.2022
2028 Clouds 17 1025 70 10000 0.98 78 04:50 19.05.2022
2029 Clouds 16 1024 87 10000 0.32 78 01:58 19.05.2022
2030 Clouds 18 1024 81 10000 0.89 86 23:53 18.05.2022
2031 Clouds 18 1023 80 10000 1.2 92 22:46 18.05.2022
2032 Clouds 18 1023 80 10000 1.2 92 22:46 18.05.2022
2033 Clouds 17 1023 77 10000 1.38 106 21:47 18.05.2022
2034 Clouds 21 1022 72 10000 1.62 150 21:26 18.05.2022
2035 Clouds 22 1020 57 10000 2.09 172 20:24 18.05.2022
2036 Clouds 22 1020 53 10000 2.35 194 19:39 18.05.2022
2037 Clouds 22 1019 45 10000 2.91 208 18:21 18.05.2022
2038 Clouds 22 1019 45 10000 2.91 208 17:41 18.05.2022
2039 Clouds 28 1019 38 10000 3.77 224 17:23 18.05.2022
2040 Clouds 28 1021 33 10000 1.79 272 16:23 18.05.2022
2041 Clouds 28 1022 31 10000 1.79 258 15:39 18.05.2022
2042 Clouds 28 1020 34 10000 3.87 219 14:34 18.05.2022
2043 Clouds 27 1023 38 10000 1.79 267 13:20 18.05.2022
2044 Clouds 26 1023 38 10000 1.34 316 12:39 18.05.2022
2045 Clouds 25 1024 43 10000 1.79 267 11:34 18.05.2022
2046 Clouds 20 1024 56 10000 0.45 0 10:52 18.05.2022
2047 Clouds 21 1024 56 10000 0.45 0 10:52 18.05.2022
2048 Clouds 16 1024 71 10000 0.9 99 08:29 18.05.2022
2049 Clouds 16 1024 71 10000 1.73 53 07:28 18.05.2022
2050 Clouds 15 1023 87 10000 2.36 40 04:33 18.05.2022
2051 Clouds 18 1024 88 10000 2.8 28 00:52 18.05.2022
2052 Clouds 18 1024 88 10000 2.8 28 00:52 18.05.2022
2053 Clouds 18 1024 87 10000 2.86 27 00:18 18.05.2022
2054 Clouds 16 1023 87 10000 3.03 27 21:36 17.05.2022
2055 Clouds 18 1022 80 10000 2.68 19 21:18 17.05.2022
2056 Clouds 21 1020 66 10000 2.08 1 19:49 17.05.2022
2057 Clouds 23 1019 50 10000 1.25 318 19:26 17.05.2022
2058 Clouds 24 1018 42 10000 2.18 247 17:49 17.05.2022
2059 Clouds 25 1018 34 10000 3.11 223 16:58 17.05.2022
2060 Clouds 24 1019 34 10000 3.52 218 16:29 17.05.2022
2061 Clear 28 1021 27 10000 2.24 267 15:18 17.05.2022
2062 Clear 27 1021 29 10000 0.45 224 14:29 17.05.2022
2063 Clear 28 1020 37 10000 2.79 215 13:31 17.05.2022
2064 Clear 20 1022 44 10000 2.47 215 10:51 17.05.2022
2065 Clear 17 1021 49 10000 1.17 219 08:55 17.05.2022
2066 Clear 17 1022 58 10000 0.33 38 07:57 17.05.2022
2067 Clear 14 1023 64 10000 1.07 32 06:36 17.05.2022
2068 Clouds 15 1024 55 10000 0.75 36 02:27 17.05.2022
2069 Clouds 15 1023 60 10000 0.48 50 00:28 17.05.2022
2070 Clouds 17 1023 58 10000 0.36 68 22:41 16.05.2022
2071 Clouds 16 1023 55 10000 0.41 175 21:33 16.05.2022
2072 Clouds 17 1022 56 10000 1.14 219 20:44 16.05.2022
2073 Clouds 23 1020 35 10000 2.62 223 19:19 16.05.2022
2074 Clouds 26 1019 31 10000 2.94 221 17:34 16.05.2022
2075 Clouds 26 1020 29 10000 3.71 216 15:42 16.05.2022
2076 Clouds 25 1020 27 10000 3.09 210 13:48 16.05.2022
2077 Clouds 24 1020 29 10000 2.95 207 12:46 16.05.2022
2078 Clouds 19 1022 55 10000 3.15 211 10:47 16.05.2022
2079 Clouds 17 1021 54 10000 2.45 204 08:37 16.05.2022
2080 Clouds 15 1021 70 10000 1.01 168 06:32 16.05.2022
2081 Clouds 16 1020 77 10000 0.41 154 01:44 16.05.2022
2082 Clouds 17 1020 72 10000 0.9 168 22:52 15.05.2022
2083 Clouds 16 1020 75 10000 2.66 207 22:25 15.05.2022
2084 Clouds 20 1020 75 10000 2.66 207 21:38 15.05.2022
2085 Clouds 21 1018 65 10000 1.66 208 20:53 15.05.2022
2086 Clouds 23 1016 45 10000 4.61 220 18:52 15.05.2022
2087 Clouds 25 1016 40 10000 5.53 216 17:29 15.05.2022
2088 Clouds 24 1017 40 10000 5.11 211 14:58 15.05.2022
2089 Clouds 24 1019 34 10000 3.58 360 13:46 15.05.2022
2090 Rain 23 1020 40 10000 0.89 51 12:19 15.05.2022
2091 Clouds 22 1020 47 10000 0.45 175 11:27 15.05.2022
2092 Clouds 17 1018 57 10000 2.18 202 09:57 15.05.2022
2093 Clouds 14 1020 72 10000 0.14 225 07:24 15.05.2022
2094 Clouds 14 1020 71 10000 0.14 225 06:56 15.05.2022
2095 Clouds 15 1019 83 10000 0.77 91 03:38 15.05.2022
2096 Clouds 13 1021 87 10000 0.55 243 00:26 15.05.2022
2097 Clouds 14 1021 89 10000 0.5 227 23:37 14.05.2022
2098 Clouds 14 1021 87 10000 1.7 224 21:51 14.05.2022
2099 Clouds 15 1020 84 10000 2.19 211 21:26 14.05.2022
2100 Clouds 18 1019 68 8664 2.65 201 20:28 14.05.2022
2101 Clouds 18 1018 54 10000 2.21 209 19:21 14.05.2022
2102 Clouds 19 1018 54 10000 2.21 209 18:58 14.05.2022
2103 Clouds 23 1018 50 10000 2.24 220 17:47 14.05.2022
2104 Clouds 23 1018 39 10000 2.18 212 15:58 14.05.2022
2105 Clouds 26 1019 38 10000 2.73 216 14:39 14.05.2022
2106 Clouds 26 1019 38 10000 2.95 219 14:18 14.05.2022
2107 Clouds 23 1022 43 10000 1.34 296 11:48 14.05.2022
2108 Clouds 18 1023 58 10000 1.71 215 10:45 14.05.2022
2109 Clouds 17 1023 59 10000 1.24 215 10:19 14.05.2022
2110 Clouds 15 1022 61 10000 0.6 210 09:25 14.05.2022
2111 Clouds 13 1023 76 10000 0.95 50 07:34 14.05.2022
2112 Clouds 14 1023 70 10000 1.72 33 04:43 14.05.2022
2113 Clouds 14 1024 84 10000 1.65 29 00:43 14.05.2022
2114 Clouds 15 1023 78 10000 1.18 6 23:28 13.05.2022
2115 Clouds 16 1023 78 10000 1.17 5 22:55 13.05.2022
2116 Clouds 16 1023 76 10000 1.13 345 22:21 13.05.2022
2117 Clouds 22 1022 76 10000 1.46 0 20:59 13.05.2022
2118 Clouds 22 1022 74 10000 1.4 355 20:38 13.05.2022
2119 Clouds 21 1021 70 10000 1.28 332 20:20 13.05.2022
2120 Clouds 21 1021 63 10000 1.2 307 19:18 13.05.2022
2121 Clouds 24 1020 55 10000 1.24 271 17:42 13.05.2022
2122 Clouds 24 1020 48 10000 1.55 256 17:22 13.05.2022
2123 Clouds 22 1020 47 10000 1.72 238 15:46 13.05.2022
2124 Clouds 24 1021 34 10000 2.24 277 14:38 13.05.2022
2125 Clouds 22 1022 39 10000 1.79 237 12:51 13.05.2022
2126 Clouds 20 1023 44 10000 1.34 169 11:54 13.05.2022
2127 Clouds 16 1022 61 10000 0.55 186 09:55 13.05.2022
2128 Clouds 15 1022 74 10000 0.62 51 09:26 13.05.2022
2129 Clouds 12 1024 72 10000 1.61 31 07:51 13.05.2022
2130 Clouds 12 1023 72 10000 0.45 0 06:50 13.05.2022
2131 Clouds 13 1023 69 10000 2.19 30 04:54 13.05.2022
2132 Clouds 16 1024 58 10000 2.07 16 00:57 13.05.2022
2133 Clouds 16 1024 66 10000 0.71 17 22:49 12.05.2022
2134 Clouds 16 1024 66 10000 0.71 17 22:30 12.05.2022
2135 Clouds 17 1022 66 10000 0.81 216 20:49 12.05.2022
2136 Clouds 21 1021 47 10000 2.6 214 19:26 12.05.2022
2137 Clouds 22 1020 39 10000 3.09 213 18:25 12.05.2022
2138 Clouds 24 1019 35 10000 3.29 209 16:39 12.05.2022
2139 Clouds 25 1022 30 10000 3.13 248 14:52 12.05.2022
2140 Clouds 24 1022 30 10000 2.24 225 13:48 12.05.2022
2141 Clouds 20 1023 45 10000 0.45 201 11:31 12.05.2022
2142 Clouds 14 1022 44 10000 2.87 210 10:32 12.05.2022
2143 Clouds 14 1022 62 10000 1.78 195 08:52 12.05.2022
2144 Clouds 14 1022 62 10000 1.78 195 08:52 12.05.2022
2145 Clouds 14 1022 62 10000 1.78 195 08:52 12.05.2022
2146 Clouds 14 1022 62 10000 1.78 195 08:52 12.05.2022
2147 Clouds 14 1022 62 10000 1.78 195 08:52 12.05.2022
2148 Clouds 13 1024 74 10000 0.84 172 07:58 12.05.2022
2149 Clouds 13 1023 73 10000 0.67 115 06:58 12.05.2022
2150 Clouds 14 1024 69 10000 0.82 75 03:46 12.05.2022
2151 Clouds 15 1024 79 10000 1.01 52 00:50 12.05.2022
2152 Clouds 14 1024 80 10000 0.58 63 22:53 11.05.2022
2153 Clouds 14 1023 79 10000 0.58 112 22:18 11.05.2022
2154 Clouds 16 1021 70 10000 0.96 175 21:24 11.05.2022
2155 Clouds 16 1021 70 10000 0.96 175 21:24 11.05.2022
2156 Clouds 22 1020 60 10000 1.81 209 19:57 11.05.2022
2157 Clouds 25 1018 38 10000 3.05 214 17:27 11.05.2022
2158 Clouds 25 1019 37 10000 2.91 214 16:19 11.05.2022
2159 Clouds 26 1021 35 10000 1.79 263 14:45 11.05.2022
2160 Clouds 24 1020 39 10000 2.67 211 14:24 11.05.2022
2161 Clouds 23 1022 46 10000 1.34 219 12:23 11.05.2022
2162 Clouds 21 1022 48 10000 0.45 236 11:47 11.05.2022
2163 Clear 14 1022 63 10000 0.92 246 09:29 11.05.2022
2164 Clouds 12 1023 75 10000 0.97 25 06:24 11.05.2022
2165 Clouds 12 1024 87 10000 0.66 41 01:29 11.05.2022
2166 Clouds 12 1024 82 10000 0.63 79 22:53 10.05.2022
2167 Clouds 14 1024 79 10000 0.36 127 22:19 10.05.2022
2168 Clouds 14 1023 75 10000 0.53 205 20:59 10.05.2022
2169 Clouds 18 1022 70 10000 0.43 199 20:21 10.05.2022
2170 Clouds 20 1021 63 10000 0.34 140 18:36 10.05.2022
2171 Clouds 24 1021 50 10000 0.19 97 17:37 10.05.2022
2172 Clouds 19 1021 41 10000 0.33 311 15:49 10.05.2022
2173 Clouds 21 1024 37 10000 1.79 296 12:48 10.05.2022
2174 Clouds 20 1024 47 10000 1.01 203 11:53 10.05.2022
2175 Clouds 19 1025 48 10000 0.81 206 11:21 10.05.2022
2176 Clouds 16 1025 55 10000 0.81 206 10:54 10.05.2022
2177 Clouds 11 1025 77 10000 0.16 314 09:27 10.05.2022
2178 Clear 10 1026 80 10000 0.96 34 07:47 10.05.2022
2179 Clear 11 1025 78 10000 1.68 40 04:35 10.05.2022
2180 Clouds 11 1026 90 10000 1.41 35 01:36 10.05.2022
2181 Clouds 12 1027 91 10000 1.39 37 23:37 09.05.2022
2182 Clouds 13 1026 89 10000 1.24 31 22:29 09.05.2022
2183 Clouds 13 1025 89 10000 0.93 27 21:25 09.05.2022
2184 Clouds 14 1024 83 10000 0.61 0 19:52 09.05.2022
2185 Clouds 20 1024 81 10000 0.91 315 17:59 09.05.2022
2186 Clouds 19 1023 68 9848 0.65 337 16:49 09.05.2022
2187 Clouds 20 1023 59 9307 0.9 92 15:53 09.05.2022
2188 Clouds 19 1023 59 9307 0.9 92 15:31 09.05.2022
2189 Clouds 17 1023 53 10000 1.77 125 14:33 09.05.2022
2190 Clouds 17 1022 46 10000 1.23 148 13:51 09.05.2022
2191 Clouds 18 1024 36 10000 1.34 258 12:30 09.05.2022
2192 Clear 17 1024 47 10000 0.77 183 11:43 09.05.2022
2193 Clear 13 1024 62 10000 0.64 170 10:44 09.05.2022
2194 Clear 11 1023 58 10000 0.51 145 09:38 09.05.2022
2195 Clear 9 1025 78 10000 1.65 34 07:55 09.05.2022
2196 Clear 9 1024 73 10000 2.17 29 04:33 09.05.2022
2197 Clear 9 1024 73 10000 2.17 29 04:33 09.05.2022
2198 Clear 9 1024 73 10000 2.17 29 04:33 09.05.2022
2199 Clouds 10 1026 85 10000 2.49 24 00:21 09.05.2022
2200 Clouds 10 1025 91 10000 2.59 25 22:57 08.05.2022
2201 Clouds 11 1025 93 10000 2.7 24 22:22 08.05.2022
2202 Clouds 17 1023 88 10000 2.57 19 20:37 08.05.2022
2203 Clouds 16 1021 74 10000 2.3 11 19:53 08.05.2022
2204 Clouds 17 1020 63 10000 2.4 11 18:57 08.05.2022
2205 Clouds 16 1020 56 10000 2.56 7 18:19 08.05.2022
2206 Clouds 16 1020 52 10000 2.63 10 16:56 08.05.2022
2207 Clouds 18 1020 50 10000 2.74 10 15:41 08.05.2022
2208 Clouds 17 1022 54 10000 0.45 331 15:20 08.05.2022
2209 Clouds 17 1022 54 10000 0.45 331 15:20 08.05.2022
2210 Clouds 16 1022 47 10000 0.89 346 12:39 08.05.2022
2211 Clear 12 1022 70 10000 2.43 12 10:32 08.05.2022
2212 Clear 12 1022 69 10000 1.34 0 09:59 08.05.2022
2213 Clear 11 1022 75 10000 0.45 219 09:31 08.05.2022
2214 Clouds 10 1022 72 10000 2.53 18 07:31 08.05.2022
2215 Clouds 8 1023 92 10000 2.99 19 03:55 08.05.2022
2216 Clouds 9 1024 90 10000 3.07 19 02:51 08.05.2022
2217 Clear 9 1025 90 10000 3.27 19 00:28 08.05.2022
2218 Clear 9 1025 90 10000 3.25 19 23:51 07.05.2022
2219 Clear 9 1025 90 10000 3.23 17 22:48 07.05.2022
2220 Clear 9 1025 91 10000 3.16 15 21:59 07.05.2022
2221 Clear 9 1025 91 10000 3.16 15 21:34 07.05.2022
2222 Clear 9 1023 87 10000 2.91 11 20:34 07.05.2022
2223 Clouds 10 1021 70 10000 2.87 4 19:44 07.05.2022
2224 Clouds 15 1020 56 10000 2.85 10 17:35 07.05.2022
2225 Clouds 15 1021 58 10000 3.01 9 15:47 07.05.2022
2226 Clouds 15 1022 44 10000 1.34 144 13:58 07.05.2022
2227 Clouds 12 1022 69 10000 3.62 4 10:46 07.05.2022
2228 Clouds 7 1023 80 10000 3.52 7 09:19 07.05.2022
2229 Clouds 7 1024 91 10000 3.39 9 07:50 07.05.2022
2230 Clouds 7 1024 95 10000 3.25 4 06:43 07.05.2022
2231 Clouds 8 1023 95 194 2.74 356 04:41 07.05.2022
2232 Clouds 8 1025 95 232 2.77 353 01:19 07.05.2022
2233 Clouds 7 1025 95 10000 3.12 360 23:36 06.05.2022
2234 Clouds 7 1025 96 429 3.35 6 22:27 06.05.2022
2235 Clouds 7 1025 96 429 3.35 6 21:41 06.05.2022
2236 Clouds 11 1022 75 10000 3.44 0 20:24 06.05.2022
2237 Clouds 11 1022 72 10000 3.78 360 19:29 06.05.2022
2238 Clouds 11 1022 72 10000 3.78 360 19:29 06.05.2022
2239 Clouds 12 1022 72 10000 3.78 360 18:56 06.05.2022
2240 Clouds 12 1021 68 10000 3.93 0 17:38 06.05.2022
2241 Clouds 15 1022 45 10000 1.79 253 15:56 06.05.2022
2242 Clouds 15 1021 59 10000 4.2 0 15:38 06.05.2022
2243 Clouds 15 1022 44 10000 1.79 255 14:23 06.05.2022
2244 Clouds 14 1022 42 10000 2.24 337 12:53 06.05.2022
2245 Clouds 14 1022 42 10000 1.79 328 12:31 06.05.2022
2246 Clouds 13 1022 46 10000 2.68 330 11:38 06.05.2022
2247 Clouds 7 1022 74 10000 3.77 357 09:49 06.05.2022
2248 Clouds 6 1023 83 10000 3.38 357 09:19 06.05.2022
2249 Clouds 6 1024 90 10000 3.16 360 07:57 06.05.2022
2250 Clouds 6 1023 94 3673 2.76 351 06:29 06.05.2022
2251 Clouds 6 1024 97 150 2.55 349 04:32 06.05.2022
2252 Clouds 6 1023 97 90 2.49 345 02:40 06.05.2022
2253 Clouds 7 1025 95 144 2.8 355 23:25 05.05.2022
2254 Clouds 7 1025 91 10000 2.65 352 21:52 05.05.2022
2255 Clouds 7 1023 86 10000 2.66 350 20:48 05.05.2022
2256 Clouds 7 1022 81 10000 2.96 353 19:42 05.05.2022
2257 Clouds 14 1022 49 10000 2.24 277 16:51 05.05.2022
2258 Clouds 14 1022 49 10000 0.89 244 15:48 05.05.2022
2259 Clouds 14 1022 45 10000 1.34 19 14:34 05.05.2022
2260 Clouds 13 1021 53 10000 0.89 84 13:18 05.05.2022
2261 Clouds 14 1021 49 10000 0.89 52 11:46 05.05.2022
2262 Clouds 7 1020 73 10000 3.64 4 09:47 05.05.2022
2263 Clouds 7 1021 82 10000 3.61 5 09:26 05.05.2022
2264 Clouds 6 1021 97 4604 3.12 7 06:33 05.05.2022
2265 Clouds 7 1021 93 10000 2.8 10 02:28 05.05.2022
2266 Clouds 8 1021 93 10000 2.8 10 01:45 05.05.2022
2267 Clouds 8 1022 96 4728 2.42 8 00:57 05.05.2022
2268 Clouds 8 1022 95 10000 2.71 18 23:22 04.05.2022
2269 Clouds 9 1020 96 3446 2.57 11 22:18 04.05.2022
2270 Clouds 9 1020 96 3446 2.57 11 21:45 04.05.2022
2271 Clouds 9 1019 95 3540 2.53 360 21:18 04.05.2022
2272 Clouds 9 1018 92 10000 1.97 5 20:20 04.05.2022
2273 Clouds 9 1018 92 10000 1.88 357 19:35 04.05.2022
2274 Clouds 10 1017 91 10000 1.98 5 18:43 04.05.2022
2275 Clouds 10 1017 91 10000 1.98 5 18:43 04.05.2022
2276 Clouds 10 1017 88 10000 2.19 3 18:19 04.05.2022
2277 Clouds 11 1017 78 9788 1.89 7 17:22 04.05.2022
2278 Clouds 11 1017 74 10000 1.82 21 15:34 04.05.2022
2279 Clouds 12 1017 76 5928 1.64 33 14:41 04.05.2022
2280 Clouds 11 1017 80 10000 1.77 19 14:19 04.05.2022
2281 Clouds 13 1018 70 10000 0.89 230 12:50 04.05.2022
2282 Clouds 12 1018 80 10000 0.45 223 11:40 04.05.2022
2283 Clouds 10 1019 88 10000 0.71 33 10:27 04.05.2022
2284 Clouds 9 1018 90 10000 1.07 40 09:21 04.05.2022
2285 Clouds 8 1018 91 10000 1.12 37 07:51 04.05.2022
2286 Clouds 9 1017 90 10000 2.13 17 05:34 04.05.2022
2287 Clouds 8 1019 95 10000 2.25 20 02:37 04.05.2022
2288 Clouds 8 1018 97 3880 0.98 22 23:20 03.05.2022
2289 Clouds 9 1018 97 3615 1.15 43 21:53 03.05.2022
2290 Clouds 9 1018 97 3615 1.15 43 21:31 03.05.2022
2291 Clouds 9 1017 97 3564 1.22 42 20:46 03.05.2022
2292 Clouds 9 1016 99 1137 0.89 44 19:32 03.05.2022
2293 Clouds 11 1016 89 3451 0.82 25 18:43 03.05.2022
2294 Rain 10 1016 89 4761 0.65 319 17:21 03.05.2022
2295 Rain 11 1016 88 2857 0.38 255 15:57 03.05.2022
2296 Rain 13 1016 83 8583 0.3 209 14:23 03.05.2022
2297 Rain 13 1015 68 4270 2.24 0 12:35 03.05.2022
2298 Clouds 13 1015 70 6245 0.89 248 11:35 03.05.2022
2299 Clouds 12 1015 79 10000 1.07 167 10:44 03.05.2022
2300 Clouds 7 1015 91 10000 0.96 41 08:19 03.05.2022
2301 Clouds 7 1014 92 10000 1.14 54 06:45 03.05.2022
2302 Clouds 8 1014 94 10000 0.57 28 02:39 03.05.2022
2303 Clouds 8 1015 97 235 0.75 167 23:19 02.05.2022
2304 Clouds 8 1015 97 181 0.55 120 22:28 02.05.2022
2305 Clouds 8 1015 97 181 0.55 120 21:37 02.05.2022
2306 Clouds 9 1012 96 10000 1.37 168 19:26 02.05.2022
2307 Rain 11 1012 90 5204 1.4 174 18:26 02.05.2022
2308 Rain 11 1012 90 5184 1.39 174 17:39 02.05.2022
2309 Clouds 11 1012 88 8962 1.66 189 16:42 02.05.2022
2310 Clouds 14 1014 69 6386 1.6 188 15:41 02.05.2022
2311 Clouds 13 1014 69 7396 0.89 297 14:27 02.05.2022
2312 Clouds 12 1014 91 714 0.36 157 13:19 02.05.2022
2313 Clouds 12 1015 89 410 0.49 88 11:41 02.05.2022
2314 Clouds 10 1014 96 1409 0.49 213 09:32 02.05.2022
2315 Clouds 9 1014 95 10000 0.34 193 08:20 02.05.2022
2316 Rain 9 1014 94 10000 0.41 99 06:31 02.05.2022
2317 Clouds 10 1017 88 10000 1.28 17 00:44 02.05.2022
2318 Clouds 10 1017 88 10000 1.62 20 00:21 02.05.2022
2319 Clouds 11 1018 89 10000 1.98 21 22:53 01.05.2022
2320 Clouds 10 1018 89 10000 2.21 17 21:41 01.05.2022
2321 Clouds 15 1017 74 10000 1.34 242 20:30 01.05.2022
2322 Clouds 16 1016 73 10000 2.35 347 19:21 01.05.2022
2323 Rain 15 1015 62 10000 2.35 347 18:52 01.05.2022
2324 Clouds 16 1015 52 10000 2.95 355 17:49 01.05.2022
2325 Clouds 19 1015 42 10000 2.75 354 16:29 01.05.2022
2326 Clouds 17 1015 42 10000 2.76 354 15:45 01.05.2022
2327 Clouds 17 1016 40 10000 2.28 358 14:45 01.05.2022
2328 Clouds 13 1018 46 10000 2.04 6 12:23 01.05.2022
2329 Clouds 9 1020 65 10000 2.17 6 09:34 01.05.2022
2330 Clouds 8 1020 70 10000 2.61 14 08:49 01.05.2022
2331 Clouds 7 1022 89 10000 2.89 17 05:42 01.05.2022
2332 Clouds 8 1022 92 10000 2.29 16 01:56 01.05.2022
2333 Clouds 10 1023 93 10000 2.96 11 22:18 30.04.2022
2334 Clouds 9 1022 88 10000 3.03 8 21:32 30.04.2022
2335 Clouds 12 1020 76 10000 2.89 1 19:53 30.04.2022
2336 Clouds 14 1019 65 10000 2.82 358 18:52 30.04.2022
2337 Clouds 14 1019 69 10000 2.6 9 17:26 30.04.2022
2338 Clouds 18 1019 65 10000 2.63 1 15:51 30.04.2022
2339 Clouds 15 1019 62 10000 2.21 353 14:58 30.04.2022
2340 Clouds 15 1020 63 10000 2.45 349 13:41 30.04.2022
2341 Clouds 11 1021 65 10000 1.67 342 11:39 30.04.2022
2342 Clouds 14 1022 60 10000 1.65 353 10:55 30.04.2022
2343 Clouds 13 1022 69 10000 1.83 2 09:54 30.04.2022
2344 Clouds 11 1023 75 10000 2.5 18 07:36 30.04.2022
2345 Clouds 11 1024 92 10000 2.49 16 03:53 30.04.2022
2346 Clouds 11 1026 85 10000 2.82 23 23:54 29.04.2022
2347 Clouds 9 1026 90 10000 2.71 20 22:36 29.04.2022
2348 Clouds 10 1026 92 10000 2.57 17 21:55 29.04.2022
2349 Clouds 11 1026 90 10000 2.41 15 21:21 29.04.2022
2350 Clouds 17 1024 82 10000 1.49 20 19:52 29.04.2022
2351 Clouds 18 1023 72 10000 1.28 20 18:58 29.04.2022
2352 Clouds 21 1022 62 10000 1.74 12 17:33 29.04.2022
2353 Clouds 21 1022 46 10000 2.62 13 15:58 29.04.2022
2354 Clouds 18 1023 46 10000 2.45 24 14:34 29.04.2022
2355 Clouds 17 1024 49 10000 1.69 29 13:27 29.04.2022
2356 Clouds 17 1025 45 10000 0.45 231 12:26 29.04.2022
2357 Clouds 10 1026 82 10000 2 18 09:48 29.04.2022
2358 Clouds 9 1026 82 10000 0.45 0 07:42 29.04.2022
2359 Clouds 9 1026 82 10000 0.45 0 07:42 29.04.2022
2360 Clouds 9 1026 82 10000 3.06 24 07:23 29.04.2022
2361 Clouds 9 1026 83 10000 3.03 24 05:55 29.04.2022
2362 Clouds 11 1027 80 10000 2.83 18 00:47 29.04.2022
2363 Clouds 11 1026 81 10000 2.69 19 23:48 28.04.2022
2364 Clouds 11 1026 94 10000 2.68 24 22:45 28.04.2022
2365 Clouds 10 1026 93 10000 2.42 19 21:47 28.04.2022
2366 Clouds 11 1025 92 10000 2.23 17 21:29 28.04.2022
2367 Clouds 11 1025 92 10000 2.23 17 20:37 28.04.2022
2368 Clouds 12 1023 92 10000 1.54 6 19:46 28.04.2022
2369 Clouds 12 1023 94 10000 0.93 323 19:23 28.04.2022
2370 Clouds 12 1023 94 10000 0.93 323 18:37 28.04.2022
2371 Clouds 14 1023 85 4871 0.3 242 17:32 28.04.2022
2372 Rain 15 1023 86 4848 0.29 243 16:41 28.04.2022
2373 Rain 15 1023 85 7258 0.45 24 16:19 28.04.2022
2374 Rain 16 1022 82 7258 0.45 246 15:40 28.04.2022
2375 Rain 16 1022 76 10000 0.45 0 14:38 28.04.2022
2376 Clouds 18 1021 52 7274 0.45 221 13:19 28.04.2022
2377 Clouds 16 1021 59 8299 0.79 105 11:59 28.04.2022
2378 Clouds 15 1021 61 10000 0.89 305 10:47 28.04.2022
2379 Clouds 14 1021 63 10000 0.74 88 10:26 28.04.2022
2380 Clouds 12 1020 74 10000 1.14 57 08:44 28.04.2022
2381 Clouds 11 1020 74 10000 2.08 29 07:36 28.04.2022
2382 Clouds 10 1020 86 10000 1.56 17 05:56 28.04.2022
2383 Clouds 10 1020 86 10000 1.56 17 05:38 28.04.2022
2384 Clouds 10 1020 83 10000 0.54 353 04:40 28.04.2022
2385 Clouds 11 1020 77 10000 0.88 115 00:30 28.04.2022
2386 Clouds 12 1019 79 10000 0.83 115 22:45 27.04.2022
2387 Clouds 13 1019 75 10000 1.14 149 21:56 27.04.2022
2388 Clouds 13 1018 74 10000 1.35 162 21:26 27.04.2022
2389 Clouds 12 1018 74 10000 1.35 162 20:38 27.04.2022
2390 Clouds 13 1017 80 10000 0.58 129 19:38 27.04.2022
2391 Rain 14 1015 58 10000 3.02 190 19:18 27.04.2022
2392 Clouds 17 1017 48 10000 1.34 305 18:22 27.04.2022
2393 Clouds 18 1016 44 10000 1.79 263 17:24 27.04.2022
2394 Clouds 17 1015 51 10000 2.54 203 15:21 27.04.2022
2395 Clouds 18 1017 40 10000 1.34 257 12:25 27.04.2022
2396 Clouds 15 1018 59 10000 2.65 208 11:20 27.04.2022
2397 Clouds 12 1018 72 10000 1.71 188 09:43 27.04.2022
2398 Clouds 10 1017 78 10000 1.45 44 07:19 27.04.2022
2399 Clouds 10 1017 75 10000 0.45 185 04:45 27.04.2022
2400 Clouds 10 1017 90 10000 0.77 37 01:34 27.04.2022
2401 Clouds 10 1017 91 10000 0.82 48 00:38 27.04.2022
2402 Clouds 10 1017 92 10000 0.75 56 23:39 26.04.2022
2403 Clouds 11 1017 90 10000 0.63 74 23:18 26.04.2022
2404 Clouds 11 1017 90 10000 0.63 74 22:39 26.04.2022
2405 Clouds 12 1017 86 10000 0.72 153 21:35 26.04.2022
2406 Clouds 12 1015 78 10000 0.9 197 20:52 26.04.2022
2407 Clouds 12 1015 78 10000 0.9 197 20:30 26.04.2022
2408 Clouds 13 1013 70 10000 1.49 223 19:32 26.04.2022
2409 Clouds 14 1012 58 10000 2.08 229 18:45 26.04.2022
2410 Clouds 14 1012 51 10000 2.29 229 17:59 26.04.2022
2411 Clouds 15 1012 49 10000 2.4 226 16:49 26.04.2022
2412 Clouds 19 1015 38 10000 1.79 284 13:59 26.04.2022
2413 Clouds 19 1015 35 10000 2.24 305 13:33 26.04.2022
2414 Clouds 16 1016 53 10000 1.97 200 11:55 26.04.2022
2415 Clouds 10 1014 55 10000 1.72 190 10:37 26.04.2022
2416 Clouds 7 1014 67 10000 0.33 137 09:25 26.04.2022
2417 Clouds 6 1015 83 10000 1.47 31 07:22 26.04.2022
2418 Clouds 8 1015 80 10000 1.17 27 04:23 26.04.2022
2419 Clouds 7 1017 86 10000 0.69 54 01:25 26.04.2022
2420 Clouds 8 1017 86 10000 0.57 71 00:26 26.04.2022
2421 Clouds 9 1016 86 10000 0.43 71 22:33 25.04.2022
2422 Clouds 7 1016 85 10000 0.18 324 21:39 25.04.2022
2423 Clouds 14 1014 81 10000 0.67 267 20:39 25.04.2022
2424 Clouds 15 1011 61 10000 1.67 244 18:54 25.04.2022
2425 Clouds 15 1011 55 10000 2.02 236 17:52 25.04.2022
2426 Clouds 16 1010 53 10000 2.32 229 16:52 25.04.2022
2427 Clouds 17 1013 40 10000 2.24 261 15:24 25.04.2022
2428 Clouds 16 1011 52 10000 2.64 222 14:34 25.04.2022
2429 Clouds 14 1011 54 10000 2.52 220 13:30 25.04.2022
2430 Clouds 13 1013 55 10000 1.79 279 11:37 25.04.2022
2431 Clouds 9 1013 77 10000 1.55 223 10:20 25.04.2022
2432 Clouds 7 1013 86 10000 0.62 218 08:33 25.04.2022
2433 Clouds 5 1015 94 10000 2.08 29 06:27 25.04.2022
2434 Clouds 9 1013 76 571 1.7 19 02:20 25.04.2022
2435 Clouds 8 1014 95 10000 1.66 20 23:58 24.04.2022
2436 Clouds 8 1014 95 10000 1.66 20 23:30 24.04.2022
2437 Clouds 8 1014 94 10000 1.86 23 22:40 24.04.2022
2438 Clouds 8 1013 94 10000 2.03 26 21:58 24.04.2022
2439 Clouds 8 1012 94 10000 2.21 17 21:24 24.04.2022
2440 Clouds 10 1012 94 10000 2.22 17 20:47 24.04.2022
2441 Clouds 11 1010 89 10000 1.85 5 20:21 24.04.2022
2442 Clouds 11 1010 82 10000 1.8 360 18:58 24.04.2022
2443 Clouds 12 1009 78 10000 1.68 354 17:55 24.04.2022
2444 Clouds 12 1008 77 10000 1.48 358 17:22 24.04.2022
2445 Clouds 12 1008 77 10000 1.48 358 16:56 24.04.2022
2446 Clouds 12 1008 76 10000 2.1 358 16:29 24.04.2022
2447 Clouds 12 1008 76 10000 2.1 358 16:29 24.04.2022
2448 Clouds 11 1008 76 10000 2.1 358 15:52 24.04.2022
2449 Clouds 11 1009 77 10000 2.18 0 14:40 24.04.2022
2450 Clouds 10 1009 79 10000 1.74 343 13:38 24.04.2022
2451 Clouds 10 1008 82 10000 1.8 346 13:18 24.04.2022
2452 Clouds 7 1008 87 10000 1.98 342 11:50 24.04.2022
2453 Clouds 8 1007 85 10000 0.45 243 10:48 24.04.2022
2454 Clouds 8 1006 88 87 1.98 336 09:47 24.04.2022
2455 Clouds 5 1005 90 792 0.45 317 08:18 24.04.2022
2456 Rain 6 1003 89 215 0.89 209 05:45 24.04.2022
2457 Clouds 5 1002 86 117 0.45 217 02:48 24.04.2022
2458 Clouds 5 1001 87 2916 0.45 301 00:45 24.04.2022
2459 Clouds 4 1003 98 1481 1.61 261 23:52 23.04.2022
2460 Clouds 5 1003 98 1150 1.63 246 23:25 23.04.2022
2461 Clouds 5 1003 98 1259 1.63 245 23:25 23.04.2022
2462 Clouds 6 999 85 540 1.79 228 21:59 23.04.2022
2463 Clouds 6 999 85 540 0.89 5 21:38 23.04.2022
2464 Clouds 6 1001 99 414 2.68 202 20:59 23.04.2022
2465 Clouds 7 997 78 672 1.34 24 19:56 23.04.2022
2466 Clouds 7 997 80 964 2.24 240 19:20 23.04.2022
2467 Rain 7 999 95 964 3.21 218 18:54 23.04.2022
2468 Clouds 7 998 93 480 3.82 217 18:31 23.04.2022
2469 Rain 8 996 74 526 0.89 296 17:44 23.04.2022
2470 Clouds 9 997 91 384 4.05 223 16:45 23.04.2022
2471 Clouds 8 995 73 1638 0.89 217 15:43 23.04.2022
2472 Rain 7 998 95 1888 3.27 233 13:24 23.04.2022
2473 Rain 6 995 84 10000 0.45 0 11:29 23.04.2022
2474 Rain 8 994 91 802 2.86 175 09:39 23.04.2022
2475 Rain 8 995 89 372 0.45 0 07:52 23.04.2022
2476 Clouds 7 999 95 453 2.71 189 03:56 23.04.2022
2477 Clouds 7 1000 96 1142 1.87 184 01:59 23.04.2022
2478 Clouds 7 1002 97 7220 2.1 193 23:34 22.04.2022
2479 Clouds 8 1002 89 10000 2 205 22:32 22.04.2022
2480 Clouds 8 1002 89 10000 2.01 205 21:44 22.04.2022
2481 Clouds 9 1000 81 10000 2.37 204 21:20 22.04.2022
2482 Clouds 11 999 69 10000 3.19 211 20:28 22.04.2022
2483 Clouds 12 999 59 10000 3.6 219 19:23 22.04.2022
2484 Clouds 12 999 59 10000 3.6 219 18:52 22.04.2022
2485 Clouds 13 998 54 10000 3.85 216 17:54 22.04.2022
2486 Clouds 15 998 49 10000 4.21 216 16:52 22.04.2022
2487 Clouds 15 998 48 10000 4.09 215 15:47 22.04.2022
2488 Clouds 16 999 47 10000 3.83 216 15:21 22.04.2022
2489 Clouds 16 1000 46 10000 2.68 290 13:54 22.04.2022
2490 Clouds 15 1000 47 10000 2.24 303 13:27 22.04.2022
2491 Clouds 14 1000 50 10000 2.68 38 12:28 22.04.2022
2492 Clouds 12 1001 63 10000 0.45 272 11:22 22.04.2022
2493 Clouds 10 1001 66 10000 0.45 0 10:51 22.04.2022
2494 Clouds 8 1001 73 10000 0.45 57 10:31 22.04.2022
2495 Clouds 7 1001 80 10000 2.85 219 09:53 22.04.2022
2496 Clouds 6 1002 82 10000 1.47 203 08:51 22.04.2022
2497 Clouds 6 1002 82 10000 0.24 194 07:33 22.04.2022
2498 Clouds 5 1004 91 10000 0.15 56 03:47 22.04.2022
2499 Clouds 6 1006 93 10000 0.9 55 00:52 22.04.2022
2500 Clouds 6 1006 92 10000 1.85 22 23:25 21.04.2022
2501 Clouds 6 1005 92 10000 2.25 28 22:29 21.04.2022
2502 Clouds 6 1004 92 10000 2.45 15 20:43 21.04.2022
2503 Clouds 6 1004 92 142 2.11 17 20:24 21.04.2022
2504 Clouds 10 1004 87 503 2.44 3 18:44 21.04.2022
2505 Clouds 10 1004 87 181 2.79 360 18:18 21.04.2022
2506 Clouds 12 1004 88 70 2.94 355 16:44 21.04.2022
2507 Clouds 11 1003 80 10000 2.79 6 15:22 21.04.2022
2508 Clouds 10 1003 80 10000 2.79 6 14:49 21.04.2022
2509 Clouds 8 1004 81 10000 3.41 5 13:23 21.04.2022
2510 Clouds 7 1004 81 10000 3.41 5 12:57 21.04.2022
2511 Clouds 5 1005 88 480 3.45 12 10:49 21.04.2022
2512 Clouds 4 1006 91 10000 3.68 17 08:56 21.04.2022
2513 Clouds 4 1006 96 49 2.96 21 07:32 21.04.2022
2514 Clouds 4 1006 96 87 3.38 11 05:42 21.04.2022
2515 Clouds 4 1007 96 155 3.19 14 03:30 21.04.2022
2516 Clouds 4 1008 97 136 3.12 10 02:47 21.04.2022
2517 Clouds 4 1009 97 150 2.27 25 00:45 21.04.2022
2518 Clouds 5 1008 96 89 3.19 9 23:50 20.04.2022
2519 Clouds 5 1009 96 94 2.52 21 23:22 20.04.2022
2520 Clouds 5 1009 96 94 2.52 21 22:49 20.04.2022
2521 Clouds 5 1008 94 10000 3.76 28 22:30 20.04.2022
2522 Clouds 5 1008 95 10000 3.33 30 21:27 20.04.2022
2523 Clouds 6 1007 95 3474 3.57 29 20:24 20.04.2022
2524 Clouds 6 1007 95 3259 3.82 28 19:52 20.04.2022
2525 Clouds 7 1005 93 55 3.48 17 19:20 20.04.2022
2526 Clouds 7 1004 90 3238 3.49 29 17:56 20.04.2022
2527 Clouds 8 1003 84 5312 3.2 36 16:48 20.04.2022
2528 Clouds 13 1003 83 5368 3.2 36 16:30 20.04.2022
2529 Clouds 9 1003 84 5340 1.97 81 13:51 20.04.2022
2530 Clouds 6 1005 93 65 1.44 75 11:47 20.04.2022
2531 Clouds 8 1006 95 74 1.69 137 11:21 20.04.2022
2532 Clouds 8 1005 86 53 1.56 115 10:19 20.04.2022
2533 Clouds 7 1005 91 93 2.06 144 09:25 20.04.2022
2534 Clouds 6 1006 90 63 1.26 133 08:22 20.04.2022
2535 Clouds 6 1006 90 68 1.28 121 08:22 20.04.2022
2536 Clouds 6 1006 89 63 1.26 133 07:32 20.04.2022
2537 Rain 8 1008 89 97 1.64 144 03:34 20.04.2022
2538 Clouds 9 1008 88 185 0.43 120 00:22 20.04.2022
2539 Clouds 9 1008 88 185 0.43 120 23:37 19.04.2022
2540 Clouds 8 1010 99 107 0.78 25 22:25 19.04.2022
2541 Clouds 8 1010 99 107 0.78 25 21:55 19.04.2022
2542 Rain 10 1010 90 182 0.88 242 21:22 19.04.2022
2543 Rain 10 1010 89 182 0.88 242 20:41 19.04.2022
2544 Rain 10 1009 88 747 1 104 19:52 19.04.2022
2545 Rain 11 1010 89 158 1.34 275 18:47 19.04.2022
2546 Rain 11 1009 82 181 0.89 338 17:32 19.04.2022
2547 Clouds 8 1009 94 203 1.35 175 16:43 19.04.2022
2548 Rain 8 1010 94 4022 1.01 178 16:22 19.04.2022
2549 Clouds 11 1011 97 220 1.06 232 14:48 19.04.2022
2550 Clouds 13 1009 82 5414 2.5 214 13:35 19.04.2022
2551 Clouds 16 1011 56 2230 2.68 343 12:50 19.04.2022
2552 Clouds 14 1011 70 10000 2.59 212 11:55 19.04.2022
2553 Clouds 13 1013 76 10000 0.45 236 10:23 19.04.2022
2554 Clouds 9 1012 84 10000 0.44 346 08:54 19.04.2022
2555 Clouds 9 1012 92 10000 0.5 280 04:42 19.04.2022
2556 Clouds 9 1013 97 5338 1.08 248 03:25 19.04.2022
2557 Clouds 10 1014 95 10000 0.45 234 00:27 19.04.2022
2558 Clouds 11 1014 92 10000 0.3 289 23:25 18.04.2022
2559 Clouds 11 1014 89 10000 0.69 318 21:29 18.04.2022
2560 Clouds 10 1014 89 10000 0.69 318 20:54 18.04.2022
2561 Clouds 11 1014 89 10000 0.69 318 20:30 18.04.2022
2562 Clouds 11 1013 85 10000 1.03 344 19:42 18.04.2022
2563 Clouds 16 1013 77 10000 0.85 301 18:54 18.04.2022
2564 Clouds 17 1012 59 8206 1.4 254 17:55 18.04.2022
2565 Clouds 17 1012 59 8206 1.4 254 17:33 18.04.2022
2566 Clouds 17 1012 59 8206 1.4 254 17:33 18.04.2022
2567 Clouds 18 1011 40 10000 1.75 236 16:44 18.04.2022
2568 Clear 20 1013 43 10000 2.24 132 16:21 18.04.2022
2569 Clear 21 1013 24 10000 2.24 252 14:43 18.04.2022
2570 Clouds 21 1014 24 10000 2.68 239 13:35 18.04.2022
2571 Clouds 21 1014 24 10000 2.68 239 13:35 18.04.2022
2572 Clouds 18 1015 25 10000 1.34 210 12:29 18.04.2022
2573 Clouds 15 1016 27 10000 0.45 231 11:27 18.04.2022
2574 Clouds 11 1016 33 10000 0.4 347 10:29 18.04.2022
2575 Clouds 10 1017 38 10000 0.4 347 09:30 18.04.2022
2576 Clouds 9 1017 45 10000 2.37 19 07:35 18.04.2022
2577 Clouds 10 1018 50 10000 2.73 21 04:40 18.04.2022
2578 Clouds 10 1019 91 10000 2.78 17 23:51 17.04.2022
2579 Clouds 11 1019 91 10000 2.95 13 22:40 17.04.2022
2580 Clouds 12 1019 90 10000 3.04 12 21:42 17.04.2022
2581 Clouds 12 1018 84 10000 2.85 10 21:21 17.04.2022
2582 Clouds 18 1018 84 10000 2.85 10 20:32 17.04.2022
2583 Clear 18 1016 45 10000 2.89 0 19:21 17.04.2022
2584 Clear 20 1015 38 10000 3.16 359 17:43 17.04.2022
2585 Clear 20 1015 27 10000 3.02 359 15:39 17.04.2022
2586 Clear 19 1015 25 10000 2.47 355 14:54 17.04.2022
2587 Clear 20 1015 23 10000 1.85 340 13:45 17.04.2022
2588 Clear 20 1018 17 10000 0.45 195 12:58 17.04.2022
2589 Clear 17 1018 19 10000 0.45 186 11:53 17.04.2022
2590 Clear 13 1017 25 10000 1.02 325 10:45 17.04.2022
2591 Clear 11 1018 29 10000 1.63 4 10:27 17.04.2022
2592 Clear 10 1019 43 10000 2.51 18 09:28 17.04.2022
2593 Clear 9 1019 43 10000 2.51 18 08:42 17.04.2022
2594 Clear 9 1020 50 10000 3.49 25 07:00 17.04.2022
2595 Clear 8 1021 86 10000 3.68 20 03:53 17.04.2022
2596 Clear 10 1023 73 10000 3.9 18 00:55 17.04.2022
2597 Clear 9 1023 81 10000 3.9 15 23:50 16.04.2022
2598 Clear 10 1022 91 10000 3.84 12 22:27 16.04.2022
2599 Clear 10 1021 88 10000 3.87 12 21:29 16.04.2022
2600 Clear 10 1021 88 10000 3.87 12 21:29 16.04.2022
2601 Clear 12 1020 73 10000 3.63 11 19:57 16.04.2022
2602 Clear 22 1019 58 10000 4.08 10 18:54 16.04.2022
2603 Clear 22 1018 48 10000 4.23 10 17:40 16.04.2022
2604 Clear 20 1018 39 10000 3.59 13 16:32 16.04.2022
2605 Clear 19 1018 40 10000 3.51 14 15:26 16.04.2022
2606 Clear 22 1018 40 10000 3.51 14 14:47 16.04.2022
2607 Clouds 21 1019 41 10000 3.37 12 13:56 16.04.2022
2608 Clouds 20 1019 45 10000 2.85 9 13:25 16.04.2022
2609 Clouds 16 1020 49 10000 2.9 7 11:58 16.04.2022
2610 Clouds 17 1021 40 10000 0.89 61 10:37 16.04.2022
2611 Clouds 12 1021 57 10000 3.49 12 09:41 16.04.2022
2612 Clouds 10 1022 62 10000 3.72 14 08:56 16.04.2022
2613 Clouds 9 1022 63 10000 0.45 66 07:31 16.04.2022
2614 Clouds 10 1022 63 10000 3.6 19 06:22 16.04.2022
2615 Clouds 10 1025 81 10000 3.29 20 01:53 16.04.2022
2616 Clouds 12 1024 71 10000 2.97 17 00:19 16.04.2022
2617 Clouds 11 1024 92 10000 2.9 16 22:52 15.04.2022
2618 Clouds 12 1024 92 10000 2.88 18 22:31 15.04.2022
2619 Clouds 12 1024 92 10000 2.87 18 21:44 15.04.2022
2620 Clouds 12 1023 92 10000 2.92 16 20:55 15.04.2022
2621 Clouds 14 1022 86 10000 2.85 13 19:52 15.04.2022
2622 Clouds 13 1022 86 10000 2.8 11 19:33 15.04.2022
2623 Clouds 17 1021 76 10000 2.7 10 18:45 15.04.2022
2624 Clouds 17 1021 63 10000 2.35 11 18:23 15.04.2022
2625 Clouds 19 1020 44 10000 1.76 29 17:29 15.04.2022
2626 Clouds 21 1022 39 10000 0.89 5 16:25 15.04.2022
2627 Clouds 21 1022 40 10000 0.45 243 15:54 15.04.2022
2628 Clouds 20 1022 43 10000 0.45 18 14:22 15.04.2022
2629 Clouds 18 1023 48 10000 0.45 107 12:53 15.04.2022
2630 Clouds 17 1022 47 10000 1.34 0 12:28 15.04.2022
2631 Clouds 17 1022 52 10000 0.45 123 11:54 15.04.2022
2632 Clouds 15 1023 52 10000 2.28 20 10:48 15.04.2022
2633 Clouds 12 1023 66 10000 2.44 23 10:21 15.04.2022
2634 Clouds 10 1023 64 10000 2.75 23 09:23 15.04.2022
2635 Clouds 10 1023 61 10000 2.75 23 08:57 15.04.2022
2636 Clouds 9 1023 61 10000 2.87 25 06:52 15.04.2022
2637 Clouds 9 1022 61 10000 2.72 25 05:56 15.04.2022
2638 Clouds 9 1023 77 10000 2.63 29 01:27 15.04.2022
2639 Clouds 11 1023 71 10000 2.6 28 23:29 14.04.2022
2640 Clouds 11 1023 70 10000 2.6 28 22:46 14.04.2022
2641 Clouds 11 1022 69 10000 2.55 29 22:27 14.04.2022
2642 Clouds 11 1022 65 10000 2.53 29 21:53 14.04.2022
2643 Clouds 15 1019 77 10000 2.59 18 19:53 14.04.2022
2644 Clouds 16 1018 66 10000 2.55 27 19:22 14.04.2022
2645 Clouds 18 1017 56 10000 2.72 32 17:48 14.04.2022
2646 Clouds 18 1016 49 10000 2.45 35 17:27 14.04.2022
2647 Clouds 17 1016 49 10000 2.45 35 16:32 14.04.2022
2648 Clouds 18 1018 41 10000 0.45 28 13:55 14.04.2022
2649 Clouds 18 1018 38 10000 1.34 184 13:26 14.04.2022
2650 Clouds 17 1018 39 10000 2.24 0 12:33 14.04.2022
2651 Clouds 16 1018 45 10000 1.34 321 11:47 14.04.2022
2652 Clouds 14 1018 58 10000 2.51 42 11:20 14.04.2022
2653 Clouds 12 1018 69 10000 0.89 0 10:33 14.04.2022
2654 Clear 10 1018 73 10000 0.45 212 09:50 14.04.2022
2655 Clear 9 1018 77 10000 2.69 35 08:35 14.04.2022
2656 Clouds 7 1019 82 10000 3.6 22 05:58 14.04.2022
2657 Clouds 8 1019 86 10000 2.61 35 01:23 14.04.2022
2658 Clouds 9 1018 87 10000 2.51 42 22:38 13.04.2022
2659 Clouds 9 1018 87 10000 2.51 42 22:38 13.04.2022
2660 Clouds 9 1018 87 10000 2.72 34 21:43 13.04.2022
2661 Clouds 9 1017 86 10000 2.67 40 20:45 13.04.2022
2662 Clouds 9 1016 87 1862 2.47 34 19:54 13.04.2022
2663 Clouds 10 1015 87 3163 2.14 31 18:39 13.04.2022
2664 Clouds 10 1014 89 942 2.06 38 17:41 13.04.2022
2665 Clouds 10 1013 91 406 2.24 40 17:23 13.04.2022
2666 Clouds 11 1013 92 10000 1.73 36 16:18 13.04.2022
2667 Clouds 14 1013 83 7955 0.45 239 15:29 13.04.2022
2668 Clouds 13 1013 87 7917 0.45 0 14:43 13.04.2022
2669 Clouds 10 1012 95 10000 0.98 67 13:54 13.04.2022
2670 Rain 12 1014 91 1655 1.92 71 12:57 13.04.2022
2671 Rain 11 1013 92 3201 2.22 55 11:58 13.04.2022
2672 Clouds 11 1012 93 2370 2.27 42 10:34 13.04.2022
2673 Clouds 9 1012 95 3150 3.15 29 08:49 13.04.2022
2674 Clouds 10 1012 93 3189 2.82 31 08:23 13.04.2022
2675 Clouds 9 1011 95 3438 1.94 26 06:49 13.04.2022
2676 Clouds 9 1012 95 3450 0.8 87 06:24 13.04.2022
2677 Clouds 11 1012 89 3969 1.68 152 02:24 13.04.2022
2678 Clouds 11 1012 88 3547 1.56 150 00:20 13.04.2022
2679 Clouds 10 1012 86 3964 2.25 168 22:34 12.04.2022
2680 Clouds 11 1012 82 10000 2.39 166 21:56 12.04.2022
2681 Clouds 11 1011 78 10000 2.22 156 20:48 12.04.2022
2682 Clouds 11 1010 79 10000 2.65 153 20:22 12.04.2022
2683 Clouds 12 1010 77 4061 2.24 150 19:40 12.04.2022
2684 Rain 13 1010 73 10000 2.6 185 18:56 12.04.2022
2685 Clouds 13 1010 86 10000 2.81 195 17:39 12.04.2022
2686 Rain 15 1010 81 10000 3.44 196 16:47 12.04.2022
2687 Clouds 16 1010 63 10000 2.61 197 15:35 12.04.2022
2688 Clouds 16 1010 66 10000 3.49 180 14:53 12.04.2022
2689 Clouds 16 1011 59 10000 1.79 218 13:50 12.04.2022
2690 Clouds 17 1011 50 10000 2.24 351 13:25 12.04.2022
2691 Clouds 15 1010 51 10000 1.79 215 12:18 12.04.2022
2692 Clouds 14 1012 51 10000 1.34 284 11:36 12.04.2022
2693 Clouds 13 1011 54 10000 0.89 269 09:52 12.04.2022
2694 Clouds 12 1011 57 10000 0.45 0 08:49 12.04.2022
2695 Clouds 9 1012 73 10000 1.53 118 07:20 12.04.2022
2696 Clouds 5 1012 78 10000 1.53 129 05:41 12.04.2022
2697 Clouds 6 1014 82 10000 2.19 142 02:37 12.04.2022
2698 Clouds 10 1015 91 10000 2.3 145 23:24 11.04.2022
2699 Clouds 10 1015 91 10000 2.3 145 22:32 11.04.2022
2700 Clouds 12 1013 85 10000 2.73 140 21:22 11.04.2022
2701 Clouds 12 1013 85 10000 2.73 140 20:35 11.04.2022
2702 Clouds 13 1012 69 10000 3.23 165 19:59 11.04.2022
2703 Clouds 16 1011 46 10000 3.74 180 19:26 11.04.2022
2704 Clouds 17 1011 47 10000 3.74 180 18:53 11.04.2022
2705 Clouds 19 1010 42 10000 3.89 191 17:58 11.04.2022
2706 Clouds 19 1010 40 10000 3.89 191 17:38 11.04.2022
2707 Clouds 19 1013 40 10000 2.68 268 16:26 11.04.2022
2708 Clouds 19 1014 42 10000 3.13 282 14:49 11.04.2022
2709 Clouds 18 1015 47 10000 3.13 265 13:34 11.04.2022
2710 Clouds 17 1015 52 10000 2.24 223 12:38 11.04.2022
2711 Clouds 16 1015 54 10000 2.24 304 12:19 11.04.2022
2712 Clouds 11 1016 71 10000 3.49 202 10:36 11.04.2022
2713 Clouds 9 1016 75 10000 2.78 202 09:41 11.04.2022
2714 Clouds 7 1015 82 10000 0.45 80 07:54 11.04.2022
2715 Clouds 8 1016 79 10000 1.07 207 03:19 11.04.2022
2716 Clouds 8 1018 97 7453 1.1 189 23:22 10.04.2022
2717 Clouds 9 1017 92 10000 1.44 183 22:26 10.04.2022
2718 Clouds 10 1017 92 10000 1.44 183 21:35 10.04.2022
2719 Clouds 12 1016 83 10000 1.78 188 20:50 10.04.2022
2720 Clouds 13 1015 67 10000 2.51 207 19:53 10.04.2022
2721 Clouds 13 1015 67 10000 2.51 207 19:30 10.04.2022
2722 Clouds 14 1014 52 10000 3.25 209 18:46 10.04.2022
2723 Clouds 15 1014 44 10000 3.42 209 17:58 10.04.2022
2724 Clouds 15 1014 44 10000 3.42 209 17:58 10.04.2022
2725 Clouds 15 1014 44 10000 3.42 209 17:58 10.04.2022
2726 Clouds 15 1014 44 10000 3.42 209 17:58 10.04.2022
2727 Clouds 15 1014 44 10000 3.42 209 17:58 10.04.2022
2728 Clouds 15 1014 44 10000 3.42 209 17:39 10.04.2022
2729 Clouds 16 1014 33 10000 3.54 210 16:44 10.04.2022
2730 Clouds 17 1016 35 10000 3.13 208 15:37 10.04.2022
2731 Clouds 16 1016 31 10000 2.68 306 14:34 10.04.2022
2732 Clouds 13 1018 36 10000 0.89 215 12:40 10.04.2022
2733 Clouds 12 1018 39 10000 0.45 244 12:21 10.04.2022
2734 Clouds 9 1019 35 10000 2.55 210 11:29 10.04.2022
2735 Clouds 7 1017 41 10000 2.55 210 10:56 10.04.2022
2736 Clouds 8 1018 45 10000 1.95 204 10:00 10.04.2022
2737 Clouds 8 1018 45 10000 1.95 204 09:38 10.04.2022
2738 Clouds 3 1019 53 10000 0.31 18 08:23 10.04.2022
2739 Clouds 3 1019 54 10000 0.26 41 07:35 10.04.2022
2740 Clouds 3 1019 53 10000 0.6 18 05:50 10.04.2022
2741 Clouds 5 1019 48 10000 0.45 200 02:34 10.04.2022
2742 Clouds 2 1022 61 10000 1.46 30 00:29 10.04.2022
2743 Clouds 3 1022 61 10000 1.46 30 23:49 09.04.2022
2744 Clouds 4 1023 74 10000 2.18 21 22:48 09.04.2022
2745 Clouds 4 1023 82 10000 2.77 18 21:35 09.04.2022
2746 Clouds 4 1021 88 10000 3.03 14 20:49 09.04.2022
2747 Clouds 5 1018 75 10000 2.85 359 20:26 09.04.2022
2748 Clouds 6 1018 75 10000 2.85 359 19:42 09.04.2022
2749 Clouds 11 1016 60 10000 3.06 347 18:59 09.04.2022
2750 Clouds 11 1015 54 10000 3.03 337 18:20 09.04.2022
2751 Clouds 11 1015 54 10000 3.03 337 17:39 09.04.2022
2752 Clouds 12 1014 52 10000 3.01 336 16:52 09.04.2022
2753 Clouds 11 1014 51 10000 3.15 338 15:55 09.04.2022
2754 Clouds 11 1014 51 10000 3.15 338 15:30 09.04.2022
2755 Clouds 10 1014 51 10000 3.12 339 14:44 09.04.2022
2756 Clouds 11 1014 39 10000 3.09 342 14:22 09.04.2022
2757 Clouds 10 1015 43 10000 3.03 346 13:18 09.04.2022
2758 Clouds 9 1015 47 10000 3.03 346 12:41 09.04.2022
2759 Clouds 8 1015 53 10000 3.11 357 11:22 09.04.2022
2760 Clouds 9 1015 66 10000 3.15 358 10:21 09.04.2022
2761 Clouds 6 1015 68 10000 3.15 358 09:37 09.04.2022
2762 Clouds 5 1015 67 10000 3.33 1 08:51 09.04.2022
2763 Clouds 4 1016 90 10000 3.52 8 06:48 09.04.2022
2764 Clouds 6 1015 93 94 3.6 5 01:31 09.04.2022
2765 Clouds 9 1013 71 236 3 358 23:25 08.04.2022
2766 Clouds 8 1011 87 10000 2.37 1 21:58 08.04.2022
2767 Clouds 9 1011 83 10000 1.84 354 20:47 08.04.2022
2768 Clouds 9 1009 74 10000 1.1 325 19:58 08.04.2022
2769 Clouds 15 1009 49 10000 1.44 292 19:18 08.04.2022
2770 Clouds 16 1008 43 10000 1.61 274 18:28 08.04.2022
2771 Clouds 16 1008 43 10000 1.61 274 17:45 08.04.2022
2772 Clouds 18 1008 45 10000 2.37 250 17:22 08.04.2022
2773 Clouds 17 1008 43 10000 2.37 250 16:38 08.04.2022
2774 Clouds 18 1008 40 10000 3.06 241 15:53 08.04.2022
2775 Clouds 18 1009 37 10000 3.04 231 15:23 08.04.2022
2776 Clouds 19 1009 39 10000 3.58 222 14:26 08.04.2022
2777 Clouds 18 1011 40 10000 1.34 252 13:41 08.04.2022
2778 Clouds 18 1012 41 10000 2.24 184 13:22 08.04.2022
2779 Clouds 14 1013 56 10000 4.06 214 11:51 08.04.2022
2780 Clouds 10 1014 69 10000 4.08 215 10:31 08.04.2022
2781 Clouds 8 1015 75 10000 1.95 210 09:25 08.04.2022
2782 Clouds 7 1015 77 10000 1.12 211 08:25 08.04.2022
2783 Clouds 8 1015 75 10000 0.79 206 06:47 08.04.2022
2784 Clouds 8 1016 73 10000 0.25 108 04:32 08.04.2022
2785 Clouds 9 1017 75 10000 1.02 34 00:32 08.04.2022
2786 Clouds 10 1017 75 10000 1.08 43 23:59 07.04.2022
2787 Clouds 10 1017 77 10000 1.26 36 22:58 07.04.2022
2788 Clouds 10 1017 77 10000 1.26 36 22:37 07.04.2022
2789 Clouds 11 1017 78 10000 1.45 31 22:19 07.04.2022
2790 Clouds 9 1017 78 10000 1.45 31 21:47 07.04.2022
2791 Clouds 10 1016 79 10000 1.73 29 20:57 07.04.2022
2792 Clouds 10 1014 72 10000 1.2 5 20:28 07.04.2022
2793 Clouds 17 1012 41 10000 1.54 265 17:51 07.04.2022
2794 Clouds 17 1011 41 10000 1.68 259 17:24 07.04.2022
2795 Clouds 18 1011 39 10000 1.67 259 16:42 07.04.2022
2796 Clouds 17 1012 38 10000 2.2 248 15:58 07.04.2022
2797 Clouds 18 1013 33 10000 2.68 221 14:29 07.04.2022
2798 Clouds 16 1014 35 10000 1.79 290 13:41 07.04.2022
2799 Clouds 13 1014 39 10000 0.45 0 12:28 07.04.2022
2800 Clouds 8 1014 45 10000 1.63 245 10:57 07.04.2022
2801 Clouds 7 1014 50 10000 1.32 228 09:36 07.04.2022
2802 Clouds 5 1015 69 10000 0.39 297 08:35 07.04.2022
2803 Clouds 5 1014 70 10000 2.12 27 06:29 07.04.2022
2804 Clouds 6 1017 87 10000 2.72 17 02:40 07.04.2022
2805 Clouds 5 1018 93 10000 2.79 16 01:27 07.04.2022
2806 Clouds 5 1017 93 10000 2.84 9 23:53 06.04.2022
2807 Clouds 5 1017 92 10000 2.52 7 22:45 06.04.2022
2808 Clouds 5 1016 94 10000 2.36 14 22:24 06.04.2022
2809 Clouds 6 1015 96 2505 2.6 6 21:18 06.04.2022
2810 Clouds 5 1013 94 3256 2.38 359 20:27 06.04.2022
2811 Clouds 5 1013 94 3238 2.37 359 19:52 06.04.2022
2812 Clouds 5 1011 77 10000 2.53 350 18:50 06.04.2022
2813 Clouds 6 1010 72 10000 2.2 346 17:51 06.04.2022
2814 Clouds 6 1010 70 10000 1.82 342 17:21 06.04.2022
2815 Clouds 7 1010 70 10000 1.82 342 16:34 06.04.2022
2816 Clouds 13 1009 47 10000 1.62 334 15:46 06.04.2022
2817 Clouds 8 1009 64 6323 1.91 349 14:20 06.04.2022
2818 Clouds 9 1009 57 4881 2.05 359 12:37 06.04.2022
2819 Clouds 10 1010 54 10000 1.34 231 11:54 06.04.2022
2820 Clouds 8 1010 61 10000 2.02 1 10:43 06.04.2022
2821 Clouds 7 1010 63 10000 1.94 1 10:19 06.04.2022
2822 Clouds 6 1010 70 10000 2.1 9 09:26 06.04.2022
2823 Clouds 5 1010 71 10000 2.42 19 08:26 06.04.2022
2824 Clouds 5 1010 71 10000 2.57 20 07:37 06.04.2022
2825 Clouds 4 1015 76 10000 2.61 30 02:19 06.04.2022
2826 Clouds 3 1016 76 10000 3.03 29 23:50 05.04.2022
2827 Clouds 4 1017 81 10000 3.11 25 22:20 05.04.2022
2828 Clouds 5 1016 82 10000 2.74 22 21:18 05.04.2022
2829 Clouds 5 1016 82 10000 2.74 22 21:18 05.04.2022
2830 Clouds 5 1016 82 10000 2.74 22 21:18 05.04.2022
2831 Clouds 5 1016 82 10000 2.74 22 21:18 05.04.2022
2832 Clouds 5 1014 76 10000 2.46 15 20:25 05.04.2022
2833 Clouds 7 1011 59 10000 2.36 19 18:53 05.04.2022
2834 Clouds 11 1011 50 10000 2.45 20 17:30 05.04.2022
2835 Clear 12 1011 46 10000 2.48 21 16:45 05.04.2022
2836 Clear 13 1011 43 10000 2.27 22 15:52 05.04.2022
2837 Clear 11 1011 43 10000 2.27 22 15:31 05.04.2022
2838 Clear 13 1012 15 10000 1.67 25 13:59 05.04.2022
2839 Clear 11 1013 21 10000 0.45 199 12:55 05.04.2022
2840 Clear 7 1014 30 10000 0.81 31 11:43 05.04.2022
2841 Clear 6 1014 37 10000 0.97 28 11:25 05.04.2022
2842 Clear 2 1015 31 10000 1.49 23 09:41 05.04.2022
2843 Clear 1 1015 61 10000 2.37 25 08:52 05.04.2022
2844 Clear -1 1021 66 10000 2.17 29 05:28 05.04.2022
2845 Clouds 0 1023 76 10000 3.25 28 23:51 04.04.2022
2846 Clouds 0 1023 78 10000 2.86 27 22:41 04.04.2022
2847 Clouds -2 1023 85 10000 2.63 27 21:52 04.04.2022
2848 Clouds -2 1022 89 10000 2.66 23 21:21 04.04.2022
2849 Clouds -2 1022 89 10000 2.66 23 20:48 04.04.2022
2850 Clouds 3 1019 79 10000 2.57 18 19:39 04.04.2022
2851 Clouds 7 1016 63 10000 2.59 21 18:59 04.04.2022
2852 Clouds 8 1014 55 10000 2.68 23 17:39 04.04.2022
2853 Clouds 8 1014 50 10000 2.89 26 16:36 04.04.2022
2854 Clouds 9 1014 47 10000 2.75 30 15:34 04.04.2022
2855 Clouds 9 1014 29 10000 2.31 31 14:49 04.04.2022
2856 Clouds 10 1014 26 10000 2.31 31 14:31 04.04.2022
2857 Clouds 8 1014 31 10000 1.12 50 13:18 04.04.2022
2858 Clouds 2 1015 53 10000 1.43 35 11:29 04.04.2022
2859 Clouds 1 1018 60 10000 1.43 35 10:49 04.04.2022
2860 Clouds -4 1015 73 10000 2.96 25 07:36 04.04.2022
2861 Clouds -4 1025 79 10000 2.41 18 03:18 04.04.2022
2862 Clouds -3 1025 85 10000 2.5 15 23:48 03.04.2022
2863 Clouds -2 1024 66 10000 2.3 12 22:31 03.04.2022
2864 Snow -2 1023 63 4784 2.15 6 21:37 03.04.2022
2865 Clouds 0 1021 57 3546 2.27 356 20:40 03.04.2022
2866 Snow 1 1019 85 3551 2.33 355 19:45 03.04.2022
2867 Clouds 3 1016 42 2493 2.2 355 18:29 03.04.2022
2868 Clouds 3 1016 70 2493 2.2 355 17:44 03.04.2022
2869 Clouds 4 1015 42 2205 2.5 353 16:50 03.04.2022
2870 Clouds 4 1015 39 5053 3.11 350 16:21 03.04.2022
2871 Clouds 4 1012 39 10000 1.79 295 14:28 03.04.2022
2872 Clouds 4 1012 37 10000 3.13 294 13:45 03.04.2022
2873 Clouds 3 1013 40 10000 0.45 349 12:19 03.04.2022
2874 Clouds 1 1013 45 10000 0.89 105 10:54 03.04.2022
2875 Clouds -4 1021 65 10000 3.17 10 09:23 03.04.2022
2876 Clouds -5 1024 91 10000 3.34 16 07:24 03.04.2022
2877 Clouds -4 1024 91 10000 3.28 16 03:46 03.04.2022
2878 Clouds -5 1024 90 10000 3.34 12 00:36 03.04.2022
2879 Clouds -6 1024 90 10000 3.72 10 22:54 02.04.2022
2880 Clouds -6 1024 91 10000 3.65 12 21:57 02.04.2022
2881 Clouds -5 1024 91 10000 3.65 12 21:33 02.04.2022
2882 Clouds -5 1023 91 10000 3.73 13 20:51 02.04.2022
2883 Snow -1 1018 54 10000 3.62 2 19:28 02.04.2022
2884 Clouds 2 1016 53 10000 3.96 358 18:20 02.04.2022
2885 Clouds 2 1016 53 10000 3.96 358 18:20 02.04.2022
2886 Clouds 1 1016 53 10000 3.96 358 17:47 02.04.2022
2887 Clouds 2 1016 51 10000 4.57 354 16:22 02.04.2022
2888 Clouds 3 1015 50 10000 4.9 354 15:21 02.04.2022
2889 Clouds 2 1015 53 10000 4.9 354 14:43 02.04.2022
2890 Snow 1 1015 58 10000 5.13 353 13:34 02.04.2022
2891 Clouds 0 1011 63 10000 1.79 259 12:37 02.04.2022
2892 Clouds -1 1009 69 10000 0.89 227 10:56 02.04.2022
2893 Snow -4 1014 84 1531 4.73 345 08:44 02.04.2022
2894 Snow -5 1013 87 907 4.51 340 06:49 02.04.2022
2895 Snow -3 1006 90 403 3.77 320 03:39 02.04.2022
2896 Snow -2 1008 88 259 2.89 318 23:55 01.04.2022
2897 Snow -2 1008 88 574 2.75 305 23:18 01.04.2022
2898 Snow -1 1008 84 466 0.45 5 21:32 01.04.2022
2899 Snow -1 1007 83 442 0.89 245 20:50 01.04.2022
2900 Snow -1 1007 79 777 0.89 38 19:51 01.04.2022
2901 Snow 0 1007 58 7247 2.24 210 19:30 01.04.2022
2902 Snow 0 1011 48 7328 4.95 327 18:44 01.04.2022
2903 Snow 0 1010 44 3784 4.75 334 17:46 01.04.2022
2904 Snow 0 1011 46 10000 5.05 333 16:42 01.04.2022
2905 Snow 1 1010 51 10000 5.07 340 15:23 01.04.2022
2906 Clouds 1 1010 45 10000 5.41 344 14:18 01.04.2022
2907 Clouds 1 1006 40 10000 3.58 276 13:32 01.04.2022
2908 Clouds 1 1006 47 10000 2.24 256 12:32 01.04.2022
2909 Clouds 0 1006 50 10000 1.79 187 11:33 01.04.2022
2910 Snow -2 1010 55 10000 6.15 354 10:18 01.04.2022
2911 Snow -6 1011 79 10000 5.13 358 07:59 01.04.2022
2912 Clouds -5 1010 81 10000 4.57 2 06:30 01.04.2022
2913 Clouds -3 1008 82 10000 4.41 2 04:45 01.04.2022
2914 Snow -1 1005 83 10000 4.44 348 03:41 01.04.2022
2915 Clouds 3 1003 69 5904 2.06 334 01:53 01.04.2022
2916 Clouds 2 1005 91 10000 2.61 359 22:56 31.03.2022
2917 Clouds 1 1004 91 10000 2.79 7 21:49 31.03.2022
2918 Clouds 3 1004 90 10000 2.99 7 21:22 31.03.2022
2919 Clouds 5 1002 61 10000 2.92 353 20:28 31.03.2022
2920 Clouds 2 1001 80 10000 2.77 354 19:46 31.03.2022
2921 Clouds 8 1000 68 10000 3.08 358 18:38 31.03.2022
2922 Clouds 8 999 63 10000 3.37 353 17:32 31.03.2022
2923 Clouds 11 998 46 10000 3.39 347 16:18 31.03.2022
2924 Clouds 8 998 57 10000 3.39 347 15:33 31.03.2022
2925 Clouds 10 999 55 10000 3.21 347 14:52 31.03.2022
2926 Clouds 9 999 55 10000 3.24 346 14:19 31.03.2022
2927 Clouds 7 1000 56 10000 2.98 342 11:31 31.03.2022
2928 Clouds 5 1001 63 10000 2.6 356 10:27 31.03.2022
2929 Clouds 6 999 72 10000 2.6 356 09:43 31.03.2022
2930 Clouds 4 1003 82 10000 2.87 9 07:49 31.03.2022
2931 Clouds 5 1001 78 633 2.56 358 03:48 31.03.2022
2932 Clouds 6 1003 72 81 1.98 12 23:25 30.03.2022
2933 Clouds 6 1003 73 97 2.56 9 22:19 30.03.2022
2934 Clouds 6 1003 71 97 2.56 9 21:32 30.03.2022
2935 Clouds 5 1003 93 3208 2.62 11 20:44 30.03.2022
2936 Clouds 7 1002 64 10000 2.71 10 19:54 30.03.2022
2937 Clouds 5 1001 88 10000 2.59 11 18:50 30.03.2022
2938 Clouds 6 1001 87 1961 2.71 11 17:52 30.03.2022
2939 Clouds 6 1001 87 299 2.67 8 17:23 30.03.2022
2940 Clouds 6 1001 87 299 2.67 8 16:41 30.03.2022
2941 Clouds 7 1001 87 101 2.54 3 15:59 30.03.2022
2942 Clouds 7 1001 86 51 2.41 3 14:42 30.03.2022
2943 Clouds 7 1003 88 79 2.58 8 13:23 30.03.2022
2944 Clouds 9 1003 70 79 2.58 8 12:32 30.03.2022
2945 Clouds 8 1002 86 152 2.86 14 10:48 30.03.2022
2946 Clouds 7 1002 89 128 2.95 15 09:55 30.03.2022
2947 Clouds 7 1002 93 3203 0.89 264 08:21 30.03.2022
2948 Clouds 6 1003 93 496 2.39 9 06:50 30.03.2022
2949 Clouds 6 1003 92 10000 2.19 9 05:40 30.03.2022
2950 Clouds 7 1005 92 58 1.28 356 02:32 30.03.2022
2951 Rain 7 1008 91 158 0.29 57 22:42 29.03.2022
2952 Rain 8 1008 90 155 0.45 55 21:49 29.03.2022
2953 Rain 8 1008 90 228 0.45 252 21:28 29.03.2022
2954 Rain 8 1008 85 10000 1.09 147 20:25 29.03.2022
2955 Rain 9 1009 81 10000 1.09 147 19:31 29.03.2022
2956 Rain 9 1009 79 10000 0.89 180 18:53 29.03.2022
2957 Rain 11 1009 69 10000 0.45 311 17:48 29.03.2022
2958 Rain 14 1008 41 10000 3.13 207 16:59 29.03.2022
2959 Clouds 15 1008 40 10000 3.13 301 16:25 29.03.2022
2960 Clouds 16 1009 36 10000 4.02 252 14:58 29.03.2022
2961 Clouds 16 1009 37 10000 3.13 238 14:39 29.03.2022
2962 Clouds 14 1008 42 10000 2.05 196 13:30 29.03.2022
2963 Clouds 13 1012 50 10000 2.31 195 11:58 29.03.2022
2964 Clouds 11 1014 53 10000 1.7 175 10:59 29.03.2022
2965 Clouds 9 1013 63 10000 0.49 200 09:50 29.03.2022
2966 Clouds 7 1014 66 10000 1.02 33 08:20 29.03.2022
2967 Clouds 7 1015 65 10000 0.58 108 05:38 29.03.2022
2968 Clouds 7 1019 72 10000 0.44 77 01:31 29.03.2022
2969 Clouds 9 1021 73 10000 0.64 182 23:25 28.03.2022
2970 Clouds 9 1021 73 10000 0.64 182 22:54 28.03.2022
2971 Clouds 9 1021 71 10000 0.53 199 22:28 28.03.2022
2972 Clouds 9 1021 67 10000 2.09 206 21:18 28.03.2022
2973 Clouds 9 1021 67 10000 2.09 206 20:31 28.03.2022
2974 Clouds 10 1020 63 10000 2.12 201 19:46 28.03.2022
2975 Clouds 13 1019 36 10000 3.17 209 19:28 28.03.2022
2976 Clouds 14 1019 54 10000 3.17 209 18:40 28.03.2022
2977 Clouds 13 1019 50 10000 3.39 211 17:39 28.03.2022
2978 Clouds 14 1019 35 10000 3.39 211 16:33 28.03.2022
2979 Clouds 15 1022 35 10000 2.24 211 14:49 28.03.2022
2980 Clouds 15 1023 37 10000 2.24 211 14:22 28.03.2022
2981 Clouds 14 1024 40 10000 0.89 328 12:41 28.03.2022
2982 Clouds 10 1025 47 10000 3.03 203 11:32 28.03.2022
2983 Clouds 7 1025 53 10000 2.06 180 09:43 28.03.2022
2984 Clouds 5 1025 70 10000 1.03 150 09:19 28.03.2022
2985 Clouds 5 1026 69 10000 0.93 96 08:22 28.03.2022
2986 Clouds 5 1026 68 10000 0.93 96 07:34 28.03.2022
2987 Clear 6 1027 64 10000 0.8 87 03:52 28.03.2022
2988 Clouds 7 1030 76 10000 1.33 98 23:30 27.03.2022
2989 Clouds 8 1029 69 10000 1.02 123 22:24 27.03.2022
2990 Clouds 8 1029 68 10000 1.02 123 21:42 27.03.2022
2991 Clouds 9 1027 65 10000 0.94 148 20:57 27.03.2022
2992 Clouds 11 1026 58 10000 1.25 186 19:48 27.03.2022
2993 Clouds 11 1024 54 10000 1.31 209 19:24 27.03.2022
2994 Clouds 13 1024 46 10000 1.42 220 18:27 27.03.2022
2995 Clouds 13 1024 48 10000 1.42 220 17:39 27.03.2022
2996 Clouds 13 1023 49 10000 1.77 199 16:28 27.03.2022
2997 Clouds 14 1024 49 10000 1.79 222 15:21 27.03.2022
2998 Clouds 12 1024 61 10000 0.45 229 13:55 27.03.2022
2999 Clouds 10 1025 63 10000 0.89 265 12:31 27.03.2022
3000 Clouds 9 1024 64 10000 0.45 0 10:57 27.03.2022
3001 Clouds 7 1023 71 10000 0.45 35 08:51 27.03.2022
3002 Clouds 5 1024 73 10000 0.85 97 05:54 27.03.2022
3003 Clouds 6 1025 70 10000 0.96 108 00:48 27.03.2022
3004 Clouds 7 1025 68 10000 1.44 115 23:40 26.03.2022
3005 Clouds 7 1025 64 10000 1.07 104 22:36 26.03.2022
3006 Clouds 8 1024 81 10000 0.72 84 21:34 26.03.2022
3007 Clouds 8 1024 62 10000 0.6 168 20:52 26.03.2022
3008 Clouds 9 1021 58 10000 1.57 176 19:21 26.03.2022
3009 Clouds 11 1019 46 10000 0.89 200 17:53 26.03.2022
3010 Clouds 11 1019 50 10000 0.95 194 17:32 26.03.2022
3011 Clouds 13 1018 43 10000 1.34 296 16:27 26.03.2022
3012 Clouds 13 1018 41 10000 2.68 196 14:57 26.03.2022
3013 Clouds 13 1019 44 10000 1.79 267 13:52 26.03.2022
3014 Clouds 12 1019 52 10000 0.45 279 12:47 26.03.2022
3015 Clouds 10 1019 60 10000 1.87 173 11:33 26.03.2022
3016 Clouds 10 1020 63 10000 1.55 160 10:18 26.03.2022
3017 Clouds 7 1019 52 10000 0.9 100 08:33 26.03.2022
3018 Clouds 5 1020 80 10000 1.61 56 05:54 26.03.2022
3019 Clouds 6 1020 80 10000 1.27 57 03:59 26.03.2022
3020 Clouds 6 1023 77 10000 0.82 98 23:39 25.03.2022
3021 Clouds 8 1023 72 10000 0.66 103 21:35 25.03.2022
3022 Clouds 8 1023 72 10000 0.66 103 21:35 25.03.2022
3023 Clouds 8 1022 73 10000 0.97 102 20:46 25.03.2022
3024 Clouds 9 1020 68 10000 0.63 76 19:28 25.03.2022
3025 Clouds 12 1020 60 10000 0.85 71 18:46 25.03.2022
3026 Clouds 13 1019 54 10000 0.31 156 17:35 25.03.2022
3027 Clouds 13 1019 60 10000 0.93 178 16:41 25.03.2022
3028 Clouds 13 1019 60 10000 0.93 178 16:41 25.03.2022
3029 Clouds 13 1019 78 10000 1.27 169 15:52 25.03.2022
3030 Clouds 14 1020 58 10000 1.76 165 13:58 25.03.2022
3031 Clouds 14 1020 58 10000 2.24 274 12:32 25.03.2022
3032 Clouds 9 1022 69 10000 1.13 154 09:52 25.03.2022
3033 Clouds 9 1022 73 10000 0.82 137 09:23 25.03.2022
3034 Clouds 8 1022 77 10000 0.79 90 07:48 25.03.2022
3035 Clouds 8 1022 77 10000 0.68 112 07:21 25.03.2022
3036 Clouds 7 1022 76 6531 0.61 136 04:47 25.03.2022
3037 Clouds 5 1027 81 4843 1.17 102 00:29 25.03.2022
3038 Clouds 6 1027 74 1671 1 89 22:29 24.03.2022
3039 Clouds 7 1027 72 1671 1 89 21:33 24.03.2022
3040 Clouds 8 1025 65 5265 1.21 164 19:50 24.03.2022
3041 Clouds 8 1024 93 10000 1.82 170 18:49 24.03.2022
3042 Clouds 9 1022 84 10000 2.14 171 17:38 24.03.2022
3043 Clouds 10 1021 75 10000 2.18 176 16:44 24.03.2022
3044 Clouds 12 1022 42 10000 1.79 195 14:59 24.03.2022
3045 Clouds 12 1023 41 10000 2.24 311 14:40 24.03.2022
3046 Clouds 12 1023 41 10000 1.34 237 13:41 24.03.2022
3047 Clouds 10 1023 37 10000 2.24 205 12:39 24.03.2022
3048 Clouds 9 1024 36 10000 2.32 181 11:31 24.03.2022
3049 Clouds 1 1025 38 10000 2.1 171 09:34 24.03.2022
3050 Clouds 4 1026 39 10000 1.61 164 08:39 24.03.2022
3051 Clouds 3 1023 68 10000 1.35 93 05:45 24.03.2022
3052 Clouds 2 1030 76 10000 1.74 81 01:20 24.03.2022
3053 Clouds 4 1030 75 10000 1.47 75 22:23 23.03.2022
3054 Clouds 4 1030 82 10000 1.58 74 21:24 23.03.2022
3055 Clouds 6 1030 82 10000 1.58 74 20:45 23.03.2022
3056 Clouds 5 1028 80 10000 1.4 98 19:33 23.03.2022
3057 Clouds 10 1022 43 10000 1.97 165 18:19 23.03.2022
3058 Clouds 12 1022 39 10000 2.03 176 17:26 23.03.2022
3059 Clouds 13 1022 37 10000 1.79 235 15:56 23.03.2022
3060 Clouds 12 1023 39 10000 1.79 212 14:48 23.03.2022
3061 Clear 11 1024 42 10000 3.13 244 13:34 23.03.2022
3062 Clear 8 1025 52 10000 2.68 186 11:33 23.03.2022
3063 Clear 1 1026 81 10000 1.81 161 08:41 23.03.2022
3064 Clouds -1 1032 80 10000 1.3 88 06:25 23.03.2022
3065 Clouds 0 1032 86 10000 0.96 106 02:50 23.03.2022
3066 Clouds 2 1032 83 10000 0.89 127 00:27 23.03.2022
3067 Clouds 4 1031 75 9638 1.38 156 21:52 22.03.2022
3068 Clouds 3 1031 75 1260 1.59 161 21:23 22.03.2022
3069 Clouds 4 1030 73 829 2.21 176 20:23 22.03.2022
3070 Clouds 5 1028 66 975 2.43 180 19:27 22.03.2022
3071 Clouds 7 1028 65 773 2.46 172 18:49 22.03.2022
3072 Clouds 6 1027 63 845 2.47 177 17:44 22.03.2022
3073 Clouds 7 1026 63 1933 2.58 185 16:58 22.03.2022
3074 Clouds 8 1026 63 9735 2.77 190 15:42 22.03.2022
3075 Clouds 9 1026 61 10000 2.93 196 15:20 22.03.2022
3076 Clouds 8 1026 64 10000 2.93 196 14:44 22.03.2022
3077 Clouds 9 1026 55 10000 0.89 36 13:42 22.03.2022
3078 Clouds 9 1026 54 10000 2.24 316 12:18 22.03.2022
3079 Clouds 8 1026 63 10000 0.89 22 11:20 22.03.2022
3080 Clouds 4 1027 79 10000 0.45 27 09:28 22.03.2022
3081 Clouds 3 1026 84 4163 0.45 234 07:35 22.03.2022
3082 Clouds 3 1031 76 609 1.38 144 03:58 22.03.2022
3083 Clouds 3 1030 85 2064 1.25 155 01:27 22.03.2022
3084 Clouds 4 1030 83 4861 1.68 161 22:57 21.03.2022
3085 Clouds 5 1029 79 1249 2.01 162 21:37 21.03.2022
3086 Clouds 5 1029 80 1272 2.06 156 20:44 21.03.2022
3087 Clouds 5 1029 81 851 2.02 153 20:23 21.03.2022
3088 Clouds 6 1029 79 851 2.02 153 19:45 21.03.2022
3089 Clouds 6 1028 80 681 2.31 161 18:48 21.03.2022
3090 Clouds 7 1027 80 347 2.36 156 17:36 21.03.2022
3091 Clouds 7 1026 81 330 2.31 149 16:59 21.03.2022
3092 Clouds 7 1026 82 340 2.42 163 16:27 21.03.2022
3093 Clouds 8 1026 81 340 2.42 163 15:43 21.03.2022
3094 Clouds 7 1026 85 644 2.49 167 14:36 21.03.2022
3095 Clouds 6 1027 86 723 2.58 164 13:20 21.03.2022
3096 Clouds 6 1027 87 774 2.66 169 11:58 21.03.2022
3097 Clouds 6 1028 89 500 2.58 165 11:25 21.03.2022
3098 Clouds 7 1026 90 439 0.89 229 09:49 21.03.2022
3099 Clouds 7 1026 91 682 0.89 247 07:33 21.03.2022
3100 Clouds 7 1025 91 683 2.02 165 05:56 21.03.2022
3101 Clouds 7 1026 90 699 2.37 176 01:42 21.03.2022
3102 Clouds 7 1026 92 695 0.45 276 22:57 20.03.2022
3103 Clouds 7 1026 91 795 0.45 339 22:25 20.03.2022
3104 Clouds 8 1025 90 795 0.45 301 21:37 20.03.2022
3105 Clouds 8 1025 89 402 0.45 12 20:55 20.03.2022
3106 Clouds 8 1025 89 826 0.89 275 20:29 20.03.2022
3107 Clouds 8 1025 92 879 0.89 275 19:49 20.03.2022
3108 Clouds 8 1024 86 470 0.45 229 19:19 20.03.2022
3109 Clouds 9 1024 74 772 1.34 209 17:44 20.03.2022
3110 Clouds 10 1024 71 5243 1.79 225 17:24 20.03.2022
3111 Clouds 10 1024 72 4043 2.68 248 15:58 20.03.2022
3112 Clouds 10 1024 73 2735 3.13 265 14:38 20.03.2022
3113 Clouds 10 1024 64 10000 0.45 50 13:38 20.03.2022
3114 Clouds 10 1025 72 7740 0.89 202 11:58 20.03.2022
3115 Clouds 7 1025 81 10000 0.45 0 09:59 20.03.2022
3116 Clouds 5 1027 94 3039 1.75 180 08:20 20.03.2022
3117 Clouds 5 1026 97 2831 1.76 177 05:49 20.03.2022
3118 Clouds 5 1026 97 1958 1.96 195 03:18 20.03.2022
3119 Clouds 7 1025 85 2564 1.67 198 00:53 20.03.2022
3120 Clouds 8 1025 82 1306 0.45 27 00:28 20.03.2022
3121 Clouds 7 1027 98 1041 1.54 196 22:25 19.03.2022
3122 Clouds 7 1026 97 3936 1.51 193 21:26 19.03.2022
3123 Clouds 8 1026 94 1024 1.27 206 19:22 19.03.2022
3124 Clouds 8 1025 88 10000 1.47 214 18:38 19.03.2022
3125 Clouds 9 1024 80 10000 1.71 210 17:48 19.03.2022
3126 Clouds 9 1024 77 10000 1.92 201 16:46 19.03.2022
3127 Clouds 11 1024 74 3249 2.33 187 15:26 19.03.2022
3128 Clouds 11 1024 52 4670 2.37 184 13:45 19.03.2022
3129 Clouds 10 1025 50 5718 1.79 213 12:43 19.03.2022
3130 Clouds 10 1025 53 10000 0.45 11 12:20 19.03.2022
3131 Clouds 9 1025 54 10000 0.89 284 11:45 19.03.2022
3132 Clouds 5 1026 73 10000 1.73 154 09:22 19.03.2022
3133 Clouds 3 1029 86 10000 1.61 77 04:53 19.03.2022
3134 Clouds 4 1030 77 10000 1.71 78 02:33 19.03.2022
3135 Clouds 4 1030 75 10000 1.62 49 23:51 18.03.2022
3136 Clouds 5 1030 80 10000 1.66 45 22:48 18.03.2022
3137 Clouds 5 1030 87 10000 1.62 49 22:21 18.03.2022
3138 Clouds 6 1029 95 10000 1.77 80 20:25 18.03.2022
3139 Clouds 6 1029 95 10000 1.77 80 20:25 18.03.2022
3140 Clouds 6 1029 95 10000 1.77 80 20:25 18.03.2022
3141 Clouds 7 1027 92 10000 1.39 106 19:24 18.03.2022
3142 Clouds 7 1027 91 10000 1.28 96 18:43 18.03.2022
3143 Clouds 9 1025 82 10000 1.85 97 16:54 18.03.2022
3144 Clouds 9 1024 81 10000 1.74 76 16:23 18.03.2022
3145 Clouds 11 1023 62 2379 0.45 5 14:26 18.03.2022
3146 Clouds 11 1024 62 2379 2.2 38 13:39 18.03.2022
3147 Clouds 9 1025 67 10000 1.79 328 11:35 18.03.2022
3148 Clouds 9 1024 72 10000 0.45 266 10:21 18.03.2022
3149 Rain 5 1026 94 91 2.36 26 08:46 18.03.2022
3150 Rain 5 1025 95 225 2.3 6 06:45 18.03.2022
3151 Rain 5 1025 95 225 2.3 6 06:45 18.03.2022
3152 Rain 5 1025 95 10000 2.62 15 04:39 18.03.2022
3153 Clouds 6 1025 92 10000 2.68 19 00:55 18.03.2022
3154 Clouds 6 1025 91 10000 2.94 28 23:52 17.03.2022
3155 Clouds 6 1025 91 10000 2.94 28 23:52 17.03.2022
3156 Clouds 6 1025 93 10000 2.98 21 22:44 17.03.2022
3157 Clouds 9 1023 76 10000 0.45 56 22:18 17.03.2022
3158 Clouds 6 1025 93 10000 3.16 27 21:27 17.03.2022
3159 Clouds 7 1025 93 10000 3.16 27 20:53 17.03.2022
3160 Clouds 6 1025 95 75 2.96 22 20:19 17.03.2022
3161 Clouds 6 1025 95 75 2.96 22 19:37 17.03.2022
3162 Clouds 6 1024 95 70 2.98 23 18:51 17.03.2022
3163 Clouds 9 1022 95 47 2.67 17 17:28 17.03.2022
3164 Clouds 9 1022 97 49 2.69 14 16:19 17.03.2022
3165 Clouds 9 1022 97 50 2.69 14 16:19 17.03.2022
3166 Clouds 10 1022 97 50 2.69 14 15:42 17.03.2022
3167 Clouds 9 1022 95 48 2.64 26 14:58 17.03.2022
3168 Rain 9 1023 94 44 2.9 20 13:28 17.03.2022
3169 Rain 9 1023 94 44 2.9 20 12:38 17.03.2022
3170 Rain 8 1023 96 47 2.61 17 11:31 17.03.2022
3171 Clouds 8 1023 96 42 2.34 16 10:38 17.03.2022
3172 Clouds 7 1022 95 51 2.61 23 08:42 17.03.2022
3173 Clouds 7 1022 96 60 2.74 19 07:57 17.03.2022
3174 Clouds 7 1021 94 3133 3.85 16 05:48 17.03.2022
3175 Clouds 7 1021 94 191 3.01 15 03:41 17.03.2022
3176 Clouds 8 1021 90 10000 3.38 30 23:57 16.03.2022
3177 Clouds 8 1021 95 3488 3.06 34 22:51 16.03.2022
3178 Clouds 8 1021 95 3473 3.06 34 22:33 16.03.2022
3179 Clouds 9 1020 94 3191 3.09 34 21:46 16.03.2022
3180 Clouds 9 1019 92 10000 3.69 29 20:28 16.03.2022
3181 Clouds 10 1018 84 10000 3.18 30 19:22 16.03.2022
3182 Clouds 10 1018 81 10000 2.88 36 18:40 16.03.2022
3183 Clouds 12 1016 71 10000 1.9 55 17:43 16.03.2022
3184 Clouds 15 1017 53 10000 1.25 82 17:25 16.03.2022
3185 Clouds 16 1018 46 10000 1.21 121 15:56 16.03.2022
3186 Clouds 15 1018 47 10000 1.84 129 14:28 16.03.2022
3187 Clouds 15 1019 48 10000 1.84 129 13:32 16.03.2022
3188 Clouds 12 1020 59 10000 1.96 151 11:57 16.03.2022
3189 Clouds 12 1020 60 10000 1.98 148 11:21 16.03.2022
3190 Clouds 11 1020 64 10000 1.68 148 10:27 16.03.2022
3191 Clouds 10 1020 69 10000 1.68 148 09:42 16.03.2022
3192 Clouds 9 1020 69 10000 2.06 74 06:27 16.03.2022
3193 Clouds 9 1022 67 10000 1.78 51 01:56 16.03.2022
3194 Clouds 8 1025 61 10000 1.52 85 22:41 15.03.2022
3195 Clouds 8 1025 64 10000 1.46 93 22:18 15.03.2022
3196 Clouds 10 1025 67 10000 1.37 103 20:33 15.03.2022
3197 Clouds 10 1024 78 10000 2.36 76 18:58 15.03.2022
3198 Clouds 13 1021 62 10000 2.55 133 16:59 15.03.2022
3199 Clouds 14 1021 62 10000 2.55 133 16:32 15.03.2022
3200 Clouds 13 1021 54 10000 3.15 155 15:21 15.03.2022
3201 Clouds 12 1021 54 10000 3.15 155 14:40 15.03.2022
3202 Clouds 12 1021 55 10000 3.57 164 13:46 15.03.2022
3203 Clouds 15 1023 62 10000 1.34 263 12:24 15.03.2022
3204 Clouds 13 1023 70 10000 0.45 0 11:31 15.03.2022
3205 Clouds 10 1023 75 10000 2.76 163 09:45 15.03.2022
3206 Clouds 7 1024 91 10000 2.17 156 08:42 15.03.2022
3207 Clouds 7 1024 91 10000 1.9 141 07:51 15.03.2022
3208 Clouds 6 1023 91 10000 0.89 0 07:28 15.03.2022
3209 Clouds 7 1025 91 10000 1.95 130 03:30 15.03.2022
3210 Rain 7 1025 96 10000 2.13 146 23:40 14.03.2022
3211 Rain 9 1024 89 10000 1.91 152 23:21 14.03.2022
3212 Rain 9 1023 86 4412 0.45 51 22:26 14.03.2022
3213 Rain 9 1022 87 4412 0.45 140 21:30 14.03.2022
3214 Rain 9 1022 82 3348 2.01 141 20:41 14.03.2022
3215 Rain 7 1023 98 8851 2.25 131 20:19 14.03.2022
3216 Rain 7 1023 98 2987 1.96 135 18:42 14.03.2022
3217 Rain 7 1022 97 4126 2.25 148 17:54 14.03.2022
3218 Rain 7 1022 97 1074 2.58 137 16:58 14.03.2022
3219 Rain 5 1022 98 487 2.45 135 15:37 14.03.2022
3220 Rain 5 1021 98 176 2.6 143 14:38 14.03.2022
3221 Rain 6 1020 68 408 0.89 208 12:22 14.03.2022
3222 Rain 5 1020 71 8111 0.45 360 10:51 14.03.2022
3223 Clouds 4 1021 76 10000 3.09 135 09:41 14.03.2022
3224 Clouds 4 1021 78 10000 2.51 129 09:20 14.03.2022
3225 Clouds 4 1021 81 10000 2.51 129 08:55 14.03.2022
3226 Clouds 3 1020 84 10000 2.19 115 07:28 14.03.2022
3227 Clouds 3 1020 82 10000 2.05 87 05:44 14.03.2022
3228 Clouds -2 1024 92 10000 1.74 74 01:52 14.03.2022
3229 Clouds -2 1024 93 10000 1.48 93 01:20 14.03.2022
3230 Clouds -1 1025 92 10000 1.63 78 22:42 13.03.2022
3231 Clouds 0 1023 92 10000 1.97 68 21:28 13.03.2022
3232 Clouds 1 1023 92 10000 1.97 68 20:55 13.03.2022
3233 Clouds 2 1022 94 10000 2.17 53 20:29 13.03.2022
3234 Clouds 1 1022 94 10000 2.17 53 19:48 13.03.2022
3235 Clouds 3 1020 94 10000 1.52 65 19:25 13.03.2022
3236 Clouds 8 1018 92 10000 0.73 113 18:50 13.03.2022
3237 Clouds 7 1018 92 10000 0.73 113 18:30 13.03.2022
3238 Clouds 7 1016 86 10000 0.32 68 17:40 13.03.2022
3239 Clouds 6 1015 89 10000 0.81 357 16:49 13.03.2022
3240 Clouds 7 1015 96 172 0.81 270 16:27 13.03.2022
3241 Clouds 7 1015 96 172 0.81 270 15:44 13.03.2022
3242 Clouds 7 1013 90 39 0.89 0 14:50 13.03.2022
3243 Clouds 7 1013 90 39 0.89 0 14:50 13.03.2022
3244 Clouds 5 1013 90 31 0.45 348 13:30 13.03.2022
3245 Rain 5 1012 88 31 1.34 329 12:37 13.03.2022
3246 Rain 6 1012 91 47 1.34 286 11:51 13.03.2022
3247 Rain 6 1011 91 183 1.79 255 11:25 13.03.2022
3248 Rain 6 1011 89 183 0.89 261 10:44 13.03.2022
3249 Clouds 6 1011 90 534 0.45 0 09:43 13.03.2022
3250 Clouds 6 1011 90 714 0.45 253 08:51 13.03.2022
3251 Clouds 6 1011 90 714 0.45 273 08:31 13.03.2022
3252 Clouds 4 1014 96 1039 1.98 163 07:34 13.03.2022
3253 Clouds 4 1016 98 742 1.01 149 04:59 13.03.2022
3254 Clouds 5 1014 99 1003 1.57 177 01:48 13.03.2022
3255 Clouds 4 1016 96 10000 2.06 193 23:28 12.03.2022
3256 Clouds 4 1016 97 10000 1.42 174 21:43 12.03.2022
3257 Clouds 7 1013 87 9737 0.67 109 20:20 12.03.2022
3258 Clouds 6 1014 95 9737 0.67 109 19:46 12.03.2022
3259 Clouds 7 1014 98 498 0.53 131 18:41 12.03.2022
3260 Clouds 8 1013 98 438 0.67 212 17:53 12.03.2022
3261 Clouds 8 1011 81 370 0.45 238 16:28 12.03.2022
3262 Clouds 8 1011 83 346 0.45 274 15:50 12.03.2022
3263 Clouds 8 1011 83 55 0.45 317 15:21 12.03.2022
3264 Clouds 6 1012 90 48 0.8 188 13:53 12.03.2022
3265 Clouds 6 1012 90 48 0.8 188 13:53 12.03.2022
3266 Rain 5 1012 90 66 1.04 154 12:28 12.03.2022
3267 Rain 5 1012 91 66 1.04 154 11:53 12.03.2022
3268 Rain 5 1012 91 66 0.45 244 11:33 12.03.2022
3269 Rain 4 1014 98 73 0.66 20 10:24 12.03.2022
3270 Rain 5 1012 91 73 0.66 20 09:43 12.03.2022
3271 Rain 5 1012 91 53 0.52 66 07:52 12.03.2022
3272 Rain 6 1011 93 47 0.45 240 06:30 12.03.2022
3273 Clouds 6 1013 93 329 1.21 175 00:31 12.03.2022
3274 Clouds 7 1014 93 326 0.45 302 23:41 11.03.2022
3275 Clouds 7 1014 92 237 1.54 150 22:29 11.03.2022
3276 Clouds 7 1014 92 328 1.42 150 21:23 11.03.2022
3277 Clouds 7 1014 92 328 1.42 150 20:42 11.03.2022
3278 Clouds 7 1014 91 331 1.45 158 20:22 11.03.2022
3279 Rain 7 1014 91 345 0.45 0 19:29 11.03.2022
3280 Clouds 7 1014 91 330 0.89 360 17:50 11.03.2022
3281 Clouds 7 1014 91 332 0.89 352 17:21 11.03.2022
3282 Clouds 7 1013 89 280 0.89 256 15:58 11.03.2022
3283 Clouds 7 1013 89 333 1.79 330 15:29 11.03.2022
3284 Clouds 7 1014 88 341 1.34 246 13:28 11.03.2022
3285 Clouds 7 1015 86 286 1.79 327 12:30 11.03.2022
3286 Clouds 8 1015 85 294 2.24 300 11:57 11.03.2022
3287 Clouds 7 1016 86 376 0.89 309 10:24 11.03.2022
3288 Clouds 7 1015 85 376 3.12 182 09:32 11.03.2022
3289 Clouds 7 1015 86 335 0.45 0 08:25 11.03.2022
3290 Clouds 6 1015 87 335 0.89 31 07:46 11.03.2022
3291 Clouds 7 1015 88 388 3.33 202 06:22 11.03.2022
3292 Clouds 7 1015 89 391 0.89 27 04:24 11.03.2022
3293 Clouds 6 1017 89 379 2.68 189 00:21 11.03.2022
3294 Rain 7 1018 85 389 1.79 15 22:31 10.03.2022
3295 Rain 6 1020 99 491 2.2 191 21:50 10.03.2022
3296 Clouds 6 1020 98 648 2.23 190 21:23 10.03.2022
3297 Clouds 7 1020 97 591 2.48 196 19:51 10.03.2022
3298 Clouds 7 1019 93 10000 2.63 196 18:56 10.03.2022
3299 Clouds 8 1018 86 10000 2.71 202 17:36 10.03.2022
3300 Clouds 10 1018 72 6991 1.34 233 16:31 10.03.2022
3301 Clouds 10 1018 67 472 1.34 250 15:20 10.03.2022
3302 Clouds 9 1019 65 10000 0.89 249 13:24 10.03.2022
3303 Clouds 10 1020 63 8884 1.79 229 12:34 10.03.2022
3304 Clouds 8 1021 71 10000 0.45 220 11:20 10.03.2022
3305 Clouds 5 1021 81 10000 2.47 211 09:22 10.03.2022
3306 Clouds 4 1021 81 5856 1.54 207 07:41 10.03.2022
3307 Clouds 5 1021 79 10000 0.68 210 04:44 10.03.2022
3308 Clouds 5 1022 77 4455 0.95 221 01:49 10.03.2022
3309 Clouds 5 1022 75 10000 0.45 277 23:26 09.03.2022
3310 Clouds 5 1025 87 10000 1.43 200 21:51 09.03.2022
3311 Clouds 5 1025 87 10000 1.43 200 21:31 09.03.2022
3312 Clouds 7 1024 86 10000 1.53 201 19:44 09.03.2022
3313 Clouds 8 1023 79 10000 2 205 18:33 09.03.2022
3314 Clouds 10 1020 62 10000 2.76 208 17:27 09.03.2022
3315 Clouds 10 1020 62 10000 3.17 208 16:31 09.03.2022
3316 Clouds 11 1019 57 10000 1.34 217 14:59 09.03.2022
3317 Clouds 10 1020 58 10000 2.24 272 13:53 09.03.2022
3318 Clouds 10 1020 57 10000 1.34 315 12:45 09.03.2022
3319 Clouds 8 1020 66 10000 0.89 219 11:53 09.03.2022
3320 Clouds 8 1020 66 10000 2.74 199 11:35 09.03.2022
3321 Clouds 4 1021 80 6579 2.63 204 09:50 09.03.2022
3322 Clouds 3 1021 83 7445 2.01 189 08:49 09.03.2022
3323 Clouds 1 1024 93 10000 0.96 90 07:27 09.03.2022
3324 Clouds 3 1022 95 10000 1.69 26 01:54 09.03.2022
3325 Clouds 5 1018 86 10000 0.74 337 00:27 09.03.2022
3326 Clouds 4 1021 89 10000 0.47 266 22:47 08.03.2022
3327 Clouds 5 1017 79 10000 0.45 82 21:52 08.03.2022
3328 Clouds 6 1017 80 10000 0.44 276 21:22 08.03.2022
3329 Clouds 5 1019 87 10000 1.06 245 20:24 08.03.2022
3330 Clouds 5 1018 90 10000 1.78 223 19:25 08.03.2022
3331 Clouds 6 1017 88 7464 1.98 217 18:23 08.03.2022
3332 Clouds 8 1015 74 5603 1.34 266 16:56 08.03.2022
3333 Clouds 8 1015 68 2738 0.89 306 14:58 08.03.2022
3334 Clouds 8 1015 61 3861 1.34 32 13:48 08.03.2022
3335 Clouds 8 1015 64 9812 2.68 263 12:23 08.03.2022
3336 Clouds 7 1015 66 9812 0.89 219 11:42 08.03.2022
3337 Clouds 6 1015 72 10000 0.45 181 10:29 08.03.2022
3338 Clouds 4 1015 78 10000 1.54 209 08:57 08.03.2022
3339 Clouds 4 1015 78 10000 1.54 209 08:57 08.03.2022
3340 Clouds 2 1019 97 2107 0.75 232 06:30 08.03.2022
3341 Clouds 2 1018 97 4182 2.12 225 02:50 08.03.2022
3342 Clouds 3 1018 97 869 2.89 209 22:48 07.03.2022
3343 Clouds 3 1018 99 660 2.63 205 21:45 07.03.2022
3344 Clouds 3 1018 99 638 2.42 203 21:22 07.03.2022
3345 Clouds 4 1018 99 638 2.42 203 20:33 07.03.2022
3346 Clouds 4 1017 98 1109 2.56 205 19:49 07.03.2022
3347 Clouds 5 1017 98 1723 2.32 207 19:20 07.03.2022
3348 Clouds 5 1015 84 10000 2.38 212 18:29 07.03.2022
3349 Clouds 6 1015 84 10000 2.38 212 17:31 07.03.2022
3350 Clouds 7 1014 76 10000 2.48 215 16:43 07.03.2022
3351 Clouds 7 1015 77 10000 2.53 212 14:51 07.03.2022
3352 Clouds 6 1014 60 10000 3.13 217 12:34 07.03.2022
3353 Clouds 5 1014 75 10000 0.89 256 11:26 07.03.2022
3354 Clouds 4 1014 75 10000 2.09 201 10:30 07.03.2022
3355 Clouds 2 1014 73 10000 0.45 76 08:19 07.03.2022
3356 Clouds 2 1019 94 7595 0.43 346 01:23 07.03.2022
3357 Clouds 2 1020 96 9769 0.43 30 00:20 07.03.2022
3358 Clouds 2 1020 96 7018 0.87 41 23:22 06.03.2022
3359 Clouds 3 1019 97 1419 1.41 31 22:26 06.03.2022
3360 Clouds 3 1019 97 827 1.55 17 21:22 06.03.2022
3361 Rain 3 1017 98 343 1.49 4 20:29 06.03.2022
3362 Clouds 4 1017 98 343 1.49 4 19:35 06.03.2022
3363 Clouds 5 1016 96 143 1.22 356 18:49 06.03.2022
3364 Clouds 5 1015 96 171 1.95 2 17:36 06.03.2022
3365 Clouds 6 1014 92 190 1.31 344 17:18 06.03.2022
3366 Clouds 6 1014 87 233 0.76 301 16:26 06.03.2022
3367 Clouds 6 1013 80 545 0.69 265 15:23 06.03.2022
3368 Clouds 6 1013 80 545 0.69 265 14:41 06.03.2022
3369 Clouds 7 1013 80 4352 0.89 257 13:48 06.03.2022
3370 Clouds 6 1013 85 8560 1.07 227 12:36 06.03.2022
3371 Clouds 4 1014 90 8293 0.89 222 11:30 06.03.2022
3372 Clouds 4 1014 91 10000 1.06 224 10:33 06.03.2022
3373 Clouds 2 1017 77 10000 1.16 17 08:51 06.03.2022
3374 Clouds 1 1019 88 10000 2.26 20 08:27 06.03.2022
3375 Clouds 1 1019 92 10000 2.44 20 07:18 06.03.2022
3376 Clouds 3 1018 91 743 1.6 20 01:37 06.03.2022
3377 Clouds 3 1019 90 819 1.72 18 00:34 06.03.2022
3378 Clouds 3 1019 90 1144 1.83 21 23:46 05.03.2022
3379 Clouds 3 1019 89 3786 1.94 22 23:18 05.03.2022
3380 Clouds 3 1019 89 3786 1.94 22 22:31 05.03.2022
3381 Clouds 3 1018 89 10000 2.33 20 21:24 05.03.2022
3382 Rain 5 1018 91 5985 2.4 19 19:56 05.03.2022
3383 Rain 4 1016 90 3274 2.35 14 18:56 05.03.2022
3384 Rain 3 1016 90 3301 2.17 11 18:34 05.03.2022
3385 Clouds 6 1014 87 742 1.74 355 16:57 05.03.2022
3386 Clouds 7 1014 82 860 1.38 345 15:43 05.03.2022
3387 Clouds 8 1013 69 8556 0.91 328 14:52 05.03.2022
3388 Clouds 8 1013 69 8556 0.91 328 14:34 05.03.2022
3389 Clouds 8 1013 60 10000 0.79 322 13:34 05.03.2022
3390 Clouds 9 1014 50 10000 0.73 335 11:49 05.03.2022
3391 Clouds 8 1014 53 10000 1.28 8 11:20 05.03.2022
3392 Clouds 5 1017 66 10000 1.98 12 10:20 05.03.2022
3393 Clouds 2 1018 73 10000 2.58 18 09:28 05.03.2022
3394 Clouds 2 1020 85 10000 3.01 20 07:58 05.03.2022
3395 Clouds 1 1019 90 10000 3.14 18 05:43 05.03.2022
3396 Clouds 2 1019 90 10000 3.2 15 04:33 05.03.2022
3397 Clouds 3 1020 89 10000 3.27 9 23:38 04.03.2022
3398 Clouds 3 1020 89 10000 3.37 7 22:44 04.03.2022
3399 Clouds 3 1020 90 10000 3.5 10 22:23 04.03.2022
3400 Clouds 3 1019 88 10000 3.59 10 20:57 04.03.2022
3401 Clouds 4 1019 91 10000 3.7 10 20:27 04.03.2022
3402 Clouds 4 1019 91 10000 3.7 10 19:36 04.03.2022
3403 Clouds 7 1018 94 1077 3.37 6 18:45 04.03.2022
3404 Clouds 8 1016 83 10000 3.31 1 17:48 04.03.2022
3405 Clouds 8 1015 74 10000 3.39 360 17:28 04.03.2022
3406 Clouds 9 1014 70 10000 3.37 358 15:30 04.03.2022
3407 Clouds 9 1014 69 10000 3.21 355 14:33 04.03.2022
3408 Clouds 9 1015 69 10000 2.85 350 13:26 04.03.2022
3409 Clouds 8 1015 69 10000 2.82 352 11:54 04.03.2022
3410 Clouds 5 1016 74 10000 2.82 350 10:54 04.03.2022
3411 Clouds 5 1016 82 4244 2.6 358 09:58 04.03.2022
3412 Clouds 4 1016 86 1137 2.88 7 08:40 04.03.2022
3413 Clouds 4 1017 91 2618 3.3 10 07:38 04.03.2022
3414 Clouds 4 1015 93 10000 2.72 9 04:31 04.03.2022
3415 Clouds 6 1013 78 10000 2.72 12 00:38 04.03.2022
3416 Clouds 6 1014 95 838 2.08 24 22:28 03.03.2022
3417 Clouds 7 1014 95 838 2.08 24 21:44 03.03.2022
3418 Clouds 7 1014 94 636 1.42 27 21:26 03.03.2022
3419 Clouds 7 1013 89 1361 0.74 38 19:55 03.03.2022
3420 Clouds 8 1012 78 10000 0.72 62 18:54 03.03.2022
3421 Clouds 9 1010 68 10000 0.53 50 18:24 03.03.2022
3422 Clouds 11 1010 68 10000 0.53 50 17:30 03.03.2022
3423 Clouds 13 1011 50 10000 1.79 229 16:24 03.03.2022
3424 Clouds 13 1011 50 10000 3.58 221 15:23 03.03.2022
3425 Clouds 12 1012 50 10000 2.24 196 14:43 03.03.2022
3426 Clouds 12 1012 50 10000 2.24 281 14:20 03.03.2022
3427 Clear 9 1015 63 10000 2.17 212 12:21 03.03.2022
3428 Clear 7 1015 83 10000 2.39 218 10:47 03.03.2022
3429 Clear 4 1016 90 10000 2.11 207 09:38 03.03.2022
3430 Clouds 3 1017 90 10000 0.99 73 07:48 03.03.2022
3431 Clouds 2 1020 92 10000 1.72 34 06:36 03.03.2022
3432 Clouds 3 1020 95 10000 2.71 15 02:42 03.03.2022
3433 Clouds 4 1021 95 7591 2.75 15 23:34 02.03.2022
3434 Clouds 4 1021 93 4021 2.39 10 22:52 02.03.2022
3435 Clouds 6 1018 88 146 2.29 12 21:34 02.03.2022
3436 Clouds 6 1018 88 37 2.28 359 20:53 02.03.2022
3437 Clouds 6 1018 87 33 2.11 353 20:24 02.03.2022
3438 Rain 6 1018 85 33 2.11 353 19:36 02.03.2022
3439 Rain 7 1018 80 43 1.34 225 18:48 02.03.2022
3440 Clouds 8 1017 81 194 1.34 270 18:18 02.03.2022
3441 Clouds 8 1017 79 194 1.34 198 17:32 02.03.2022
3442 Clouds 9 1017 78 702 0.89 0 16:51 02.03.2022
3443 Clouds 10 1018 75 10000 0.45 200 14:48 02.03.2022
3444 Rain 10 1020 65 10000 3.13 259 13:25 02.03.2022
3445 Clouds 11 1018 60 10000 2.03 215 12:44 02.03.2022
3446 Rain 8 1019 61 10000 1.74 230 11:51 02.03.2022
3447 Clouds 4 1020 47 10000 2.87 221 11:24 02.03.2022
3448 Clouds 4 1020 47 10000 2.87 221 11:24 02.03.2022
3449 Clouds 1 1021 56 10000 2.06 221 09:46 02.03.2022
3450 Clouds -1 1021 57 10000 1.24 221 08:59 02.03.2022
3451 Clouds 0 1021 59 10000 0.49 55 07:51 02.03.2022
3452 Clouds 2 1023 62 10000 0.67 45 06:54 02.03.2022
3453 Clouds -1 1023 63 10000 0.45 209 02:54 02.03.2022
3454 Clouds 4 1027 87 10000 0.74 8 00:29 02.03.2022
3455 Clouds 4 1027 87 10000 0.49 356 22:48 01.03.2022
3456 Clouds 4 1027 84 10000 0.32 277 22:20 01.03.2022
3457 Clouds 6 1026 76 10000 0.56 237 21:25 01.03.2022
3458 Clouds 6 1026 76 10000 0.56 237 20:30 01.03.2022
3459 Clouds 6 1026 76 10000 0.56 237 20:30 01.03.2022
3460 Clouds 6 1026 76 10000 0.56 237 20:30 01.03.2022
3461 Clouds 7 1026 69 10000 1.14 216 19:38 01.03.2022
3462 Clouds 5 1024 58 10000 1.98 208 18:50 01.03.2022
3463 Clouds 10 1023 47 10000 2.37 210 18:21 01.03.2022
3464 Clouds 13 1023 47 10000 2.37 210 17:30 01.03.2022
3465 Clouds 13 1022 36 10000 2.6 211 16:34 01.03.2022
3466 Clouds 13 1022 31 10000 2.79 211 15:41 01.03.2022
3467 Clouds 13 1022 28 10000 2.9 214 14:35 01.03.2022
3468 Clouds 10 1023 21 10000 0.89 202 13:53 01.03.2022
3469 Clouds 9 1024 22 10000 0.45 0 13:24 01.03.2022
3470 Clouds 12 1022 25 10000 2.89 213 12:32 01.03.2022
3471 Clouds 9 1023 24 10000 0.75 202 10:36 01.03.2022
3472 Clear 7 1026 31 10000 2.47 28 08:42 01.03.2022
3473 Clear -5 1024 44 10000 3.46 27 07:52 01.03.2022
3474 Clear -3 1024 36 10000 3.91 24 06:20 01.03.2022
3475 Clear -4 1024 51 10000 3.85 16 02:44 01.03.2022
3476 Clear -1 1024 51 10000 3.6 16 00:34 01.03.2022
3477 Clear 2 1029 34 10000 3.58 19 23:30 28.02.2022
3478 Clear 4 1030 55 10000 3.34 17 22:18 28.02.2022
3479 Clear 4 1030 55 10000 3.34 17 21:37 28.02.2022
3480 Clear 5 1029 81 10000 2.98 13 19:56 28.02.2022
3481 Clear 5 1029 81 10000 2.98 13 19:36 28.02.2022
3482 Clear 6 1028 79 10000 2.76 10 18:43 28.02.2022
3483 Clear 10 1024 63 10000 2.28 1 17:33 28.02.2022
3484 Clear 10 1023 49 10000 2.75 360 16:33 28.02.2022
3485 Clear 10 1023 39 10000 2.46 352 15:24 28.02.2022
3486 Clear 11 1023 39 10000 2.46 352 14:32 28.02.2022
3487 Clear 7 1024 44 10000 1.34 240 13:47 28.02.2022
3488 Clouds 10 1024 45 10000 1.58 330 12:47 28.02.2022
3489 Clouds 8 1025 50 10000 1.11 324 11:57 28.02.2022
3490 Clouds 5 1026 58 10000 1.01 333 10:48 28.02.2022
3491 Clouds 4 1027 69 10000 1.46 358 10:20 28.02.2022
3492 Clouds 2 1027 69 10000 1.46 358 09:33 28.02.2022
3493 Clouds 3 1028 78 10000 2.02 12 08:32 28.02.2022
3494 Clouds 3 1029 92 10000 2.87 22 07:28 28.02.2022
3495 Clouds 3 1027 89 10000 2.62 16 04:55 28.02.2022
3496 Clouds 3 1027 89 10000 2.25 9 04:26 28.02.2022
3497 Clouds 4 1029 89 10000 2.45 25 23:42 27.02.2022
3498 Clouds 5 1029 89 10000 2.39 26 22:34 27.02.2022
3499 Clouds 5 1028 89 10000 2.23 22 21:51 27.02.2022
3500 Clouds 5 1026 87 10000 2.09 18 20:59 27.02.2022
3501 Clouds 5 1024 87 10000 1.96 12 20:27 27.02.2022
3502 Clouds 6 1024 87 10000 1.96 12 19:57 27.02.2022
3503 Clouds 7 1024 85 10000 1.81 10 19:26 27.02.2022
3504 Clouds 8 1024 85 10000 1.81 10 18:47 27.02.2022
3505 Clouds 9 1022 79 10000 1.47 15 17:56 27.02.2022
3506 Clouds 10 1021 74 10000 2.03 18 16:54 27.02.2022
3507 Clouds 10 1021 72 10000 2.35 14 16:21 27.02.2022
3508 Clouds 7 1020 48 10000 0.45 243 13:25 27.02.2022
3509 Clouds 9 1021 61 10000 1.17 2 12:32 27.02.2022
3510 Clouds 6 1021 64 10000 1.29 6 10:56 27.02.2022
3511 Clouds 6 1022 69 10000 1.61 15 10:19 27.02.2022
3512 Clouds 5 1022 69 10000 1.61 15 09:49 27.02.2022
3513 Clouds 4 1023 73 10000 1.68 26 09:19 27.02.2022
3514 Clear 3 1025 78 10000 2.31 26 07:37 27.02.2022
3515 Clouds 3 1025 91 10000 0.96 323 05:38 27.02.2022
3516 Clouds 4 1024 88 10000 1.55 234 01:53 27.02.2022
3517 Clouds 0 1022 69 5229 0.45 211 23:22 26.02.2022
3518 Clouds 0 1021 71 5253 2.26 212 21:49 26.02.2022
3519 Clouds 4 1024 96 2797 2.07 210 20:58 26.02.2022
3520 Clouds 4 1024 97 4050 1.93 206 20:20 26.02.2022
3521 Clouds 5 1024 97 4050 1.93 206 19:49 26.02.2022
3522 Clear 7 1024 92 10000 1.93 201 19:22 26.02.2022
3523 Clear 10 1020 63 10000 2.29 207 17:52 26.02.2022
3524 Clear 11 1019 48 10000 2.53 212 16:52 26.02.2022
3525 Clear 11 1019 38 10000 2.57 211 15:57 26.02.2022
3526 Clear 12 1019 33 10000 2.65 214 15:23 26.02.2022
3527 Clear 8 1020 33 10000 1.34 256 14:54 26.02.2022
3528 Clear 9 1020 33 10000 0.45 304 14:36 26.02.2022
3529 Clear 10 1021 26 10000 2.81 211 13:19 26.02.2022
3530 Clear 8 1021 24 10000 2.6 211 12:29 26.02.2022
3531 Clear 6 1022 24 10000 2.16 210 11:28 26.02.2022
3532 Clear 5 1022 24 10000 2.16 210 10:49 26.02.2022
3533 Clear 3 1024 28 10000 0.43 135 08:55 26.02.2022
3534 Clear -1 1027 32 10000 2.12 36 06:51 26.02.2022
3535 Clouds 1 1029 45 10000 3.12 23 00:56 26.02.2022
3536 Clouds 1 1029 48 10000 3.18 21 22:49 25.02.2022
3537 Clouds 2 1030 57 10000 3.2 22 21:43 25.02.2022
3538 Clouds 2 1030 63 10000 3.34 20 21:23 25.02.2022
3539 Clouds 2 1030 63 10000 3.34 20 20:32 25.02.2022
3540 Clouds 5 1029 78 10000 3.23 17 18:59 25.02.2022
3541 Clouds 7 1024 57 10000 3.37 7 17:27 25.02.2022
3542 Clouds 8 1023 50 10000 2.86 360 16:24 25.02.2022
3543 Clouds 8 1023 50 10000 2.86 360 15:43 25.02.2022
3544 Clouds 8 1022 47 10000 2.32 359 15:20 25.02.2022
3545 Clouds 8 1022 47 10000 2.32 359 14:42 25.02.2022
3546 Clouds 6 1022 46 10000 0.45 242 13:36 25.02.2022
3547 Clouds 4 1023 51 10000 1.93 355 12:56 25.02.2022
3548 Clouds 3 1024 57 10000 2.69 5 11:28 25.02.2022
3549 Clouds 1 1024 68 10000 0.45 0 10:29 25.02.2022
3550 Clouds 1 1024 71 10000 2.74 359 09:57 25.02.2022
3551 Clouds 0 1024 72 10000 3.6 9 09:18 25.02.2022
3552 Clouds 3 1028 87 10000 3.47 10 07:41 25.02.2022
3553 Clouds 3 1026 87 10000 3.02 2 05:48 25.02.2022
3554 Clouds 4 1026 85 10000 2.8 356 03:34 25.02.2022
3555 Clouds 6 1026 88 10000 2.49 3 23:42 24.02.2022
3556 Clouds 6 1025 89 10000 2.41 6 21:56 24.02.2022
3557 Clouds 6 1025 89 10000 2.41 6 21:37 24.02.2022
3558 Clouds 7 1025 89 10000 2.56 6 21:18 24.02.2022
3559 Clouds 7 1024 85 10000 2.09 12 19:38 24.02.2022
3560 Clouds 9 1023 85 10000 2.46 11 18:38 24.02.2022
3561 Clouds 10 1021 73 10000 1.98 1 18:18 24.02.2022
3562 Clouds 10 1021 73 10000 1.98 1 17:33 24.02.2022
3563 Clouds 10 1021 73 10000 1.98 1 17:33 24.02.2022
3564 Clouds 11 1020 62 10000 1.98 9 16:45 24.02.2022
3565 Clouds 12 1019 53 10000 2.06 5 16:21 24.02.2022
3566 Clouds 12 1019 46 10000 1.63 356 14:53 24.02.2022
3567 Clear 10 1019 35 10000 0.89 222 14:26 24.02.2022
3568 Clear 9 1019 39 10000 1.29 347 13:39 24.02.2022
3569 Clear 9 1019 39 10000 1.29 347 13:39 24.02.2022
3570 Clouds 10 1019 37 10000 0.48 324 12:49 24.02.2022
3571 Clouds 9 1019 38 10000 0.76 343 10:40 24.02.2022
3572 Clouds 0 1021 67 10000 1.34 358 08:59 24.02.2022
3573 Clouds 1 1021 67 10000 1.34 359 08:40 24.02.2022
3574 Clouds -1 1020 63 10000 0.92 8 05:52 24.02.2022
3575 Clouds 0 1021 60 10000 0.39 338 01:56 24.02.2022
3576 Clouds 0 1021 60 10000 0.39 338 01:56 24.02.2022
3577 Clouds 4 1026 74 10000 0.39 14 22:56 23.02.2022
3578 Clouds 5 1026 78 10000 0.73 29 21:40 23.02.2022
3579 Clouds 7 1025 71 10000 0.66 183 20:31 23.02.2022
3580 Clouds 8 1025 71 10000 0.65 182 19:46 23.02.2022
3581 Clouds 9 1023 64 10000 1.27 199 18:32 23.02.2022
3582 Clouds 12 1021 53 10000 1.98 208 17:36 23.02.2022
3583 Clouds 10 1022 29 10000 1.93 202 14:42 23.02.2022
3584 Clear 13 1022 31 10000 1.99 203 12:42 23.02.2022
3585 Clear 11 1023 33 10000 1.97 204 11:34 23.02.2022
3586 Clear 8 1024 35 10000 1.58 192 10:31 23.02.2022
3587 Clear 3 1026 37 10000 1.14 44 08:59 23.02.2022
3588 Clear -4 1025 47 10000 2.09 33 07:58 23.02.2022
3589 Clear -2 1025 43 10000 2.79 23 03:49 23.02.2022
3590 Clear 3 1031 66 10000 3.66 18 00:28 23.02.2022
3591 Clear 2 1031 66 10000 3.68 19 23:36 22.02.2022
3592 Clear 3 1032 70 10000 3.95 17 22:31 22.02.2022
3593 Clear 4 1032 70 10000 4.09 16 21:49 22.02.2022
3594 Clear 5 1032 70 10000 4.09 16 21:30 22.02.2022
3595 Clear 5 1032 70 10000 4.09 16 21:30 22.02.2022
3596 Clear 5 1032 72 10000 4.15 15 20:52 22.02.2022
3597 Clear 5 1031 76 10000 4.31 16 20:29 22.02.2022
3598 Clear 2 1031 76 10000 4.32 16 19:36 22.02.2022
3599 Clouds 8 1031 79 10000 4.31 15 19:18 22.02.2022
3600 Clouds 7 1028 70 10000 4.1 11 17:46 22.02.2022
3601 Clouds 13 1026 58 10000 3.58 6 17:20 22.02.2022
3602 Clouds 14 1026 58 10000 3.58 6 16:36 22.02.2022
3603 Clouds 15 1026 56 10000 3.48 6 15:39 22.02.2022
3604 Clouds 14 1026 54 10000 3.65 5 14:44 22.02.2022
3605 Clouds 14 1026 54 10000 3.65 5 14:44 22.02.2022
3606 Clear 13 1027 48 10000 3.17 1 12:23 22.02.2022
3607 Clear 9 1027 45 10000 3.31 1 10:39 22.02.2022
3608 Clear 0 1032 44 10000 4.11 12 07:52 22.02.2022
3609 Clear 0 1032 42 10000 4.03 13 07:26 22.02.2022
3610 Clear 1 1032 36 10000 4.33 9 04:31 22.02.2022
3611 Clear 1 1033 37 10000 4.23 5 01:44 22.02.2022
3612 Clear 1 1033 37 10000 4.23 5 01:44 22.02.2022
3613 Clear 2 1032 51 10000 4.15 0 22:44 21.02.2022
3614 Clear 3 1031 51 10000 4.37 3 21:31 21.02.2022
3615 Clear 4 1029 49 10000 4.85 2 20:34 21.02.2022
3616 Clear 5 1026 57 10000 5.41 360 18:46 21.02.2022
3617 Clear 11 1022 33 10000 6.19 353 16:56 21.02.2022
3618 Clear 11 1022 34 10000 5.67 347 14:52 21.02.2022
3619 Clear 11 1022 34 10000 5.67 347 14:52 21.02.2022
3620 Clear 13 1022 36 10000 4.94 345 14:21 21.02.2022
3621 Clouds 12 1022 47 10000 3.92 337 12:59 21.02.2022
3622 Clouds 9 1024 58 10000 4.04 336 12:23 21.02.2022
3623 Clouds 4 1023 67 10000 3.44 346 10:51 21.02.2022
3624 Clouds 3 1024 71 10000 3.23 354 09:30 21.02.2022
3625 Clouds 3 1024 71 10000 3.23 354 09:30 21.02.2022
3626 Clouds 1 1027 57 10000 4.02 11 04:52 21.02.2022
3627 Clouds -1 1025 68 10000 2.71 14 23:32 20.02.2022
3628 Clouds 4 1029 75 10000 2.69 14 22:20 20.02.2022
3629 Clouds 4 1029 75 10000 2.69 14 21:42 20.02.2022
3630 Clouds 4 1029 81 10000 2.62 13 20:53 20.02.2022
3631 Clouds 4 1028 87 10000 2.27 12 20:23 20.02.2022
3632 Clouds 5 1028 87 10000 2.27 12 19:30 20.02.2022
3633 Clouds 7 1027 84 10000 2 4 18:49 20.02.2022
3634 Clouds 7 1025 79 10000 2.52 359 18:31 20.02.2022
3635 Clouds 9 1025 78 10000 2.53 359 17:34 20.02.2022
3636 Clouds 9 1023 61 10000 2.11 353 15:31 20.02.2022
3637 Clouds 6 1024 40 10000 0.89 276 14:41 20.02.2022
3638 Clear 9 1025 54 10000 1.74 345 13:23 20.02.2022
3639 Clear 6 1026 54 10000 2.02 356 12:20 20.02.2022
3640 Clear 3 1027 50 10000 2.47 4 10:21 20.02.2022
3641 Clear 4 1027 50 10000 2.47 4 09:53 20.02.2022
3642 Clear -5 1024 68 10000 3.74 20 06:46 20.02.2022
3643 Clouds 0 1031 85 10000 4.01 17 00:34 20.02.2022
3644 Clouds 0 1031 88 10000 4.02 15 23:42 19.02.2022
3645 Clouds 1 1030 92 10000 3.96 14 22:25 19.02.2022
3646 Clouds 1 1030 92 10000 3.96 14 21:54 19.02.2022
3647 Clouds 1 1029 93 10000 3.82 14 20:48 19.02.2022
3648 Clouds 2 1027 90 10000 3.54 9 19:41 19.02.2022
3649 Clouds 3 1026 96 10000 3.65 9 18:41 19.02.2022
3650 Clouds 3 1024 92 10000 3.18 4 18:19 19.02.2022
3651 Clouds 4 1024 92 10000 3.18 4 17:33 19.02.2022
3652 Clouds 4 1022 79 10000 3.12 11 15:59 19.02.2022
3653 Rain 3 1023 88 2094 3.23 13 14:56 19.02.2022
3654 Rain 3 1024 92 325 3.03 9 13:58 19.02.2022
3655 Rain 3 1024 87 1452 3.47 7 11:58 19.02.2022
3656 Rain 3 1023 87 1716 3.21 8 11:29 19.02.2022
3657 Clouds 3 1023 93 250 3 8 09:21 19.02.2022
3658 Clouds 4 1022 94 106 2.81 8 06:49 19.02.2022
3659 Clouds 6 1020 96 72 2.38 6 00:55 19.02.2022
3660 Clouds 8 1019 92 10000 2.59 18 22:41 18.02.2022
3661 Clouds 8 1019 91 10000 3.47 16 21:27 18.02.2022
3662 Clouds 10 1019 90 10000 3.39 15 20:25 18.02.2022
3663 Clouds 9 1019 90 10000 3.39 15 19:50 18.02.2022
3664 Clouds 13 1017 87 10000 3.19 7 18:38 18.02.2022
3665 Clouds 13 1014 72 10000 1.63 329 18:18 18.02.2022
3666 Clouds 16 1013 56 10000 1.48 248 17:18 18.02.2022
3667 Clouds 16 1013 43 10000 2.77 216 14:30 18.02.2022
3668 Clouds 13 1016 45 10000 3.11 216 13:46 18.02.2022
3669 Clouds 15 1015 41 10000 3.08 218 12:50 18.02.2022
3670 Clouds 13 1016 43 10000 2.92 220 11:57 18.02.2022
3671 Clouds 14 1016 48 10000 2.39 221 10:45 18.02.2022
3672 Clouds 0 1018 68 10000 0.63 232 08:47 18.02.2022
3673 Clear -1 1020 75 10000 0.13 273 06:35 18.02.2022
3674 Clear -1 1020 75 10000 0.42 23 05:34 18.02.2022
3675 Clouds 7 1024 81 10000 0.68 41 22:20 17.02.2022
3676 Clouds 7 1024 81 10000 0.68 41 21:38 17.02.2022
3677 Clouds 8 1024 78 10000 0.69 53 20:43 17.02.2022
3678 Clouds 8 1024 78 10000 1.74 37 19:55 17.02.2022
3679 Clouds 9 1024 82 10000 2.3 25 19:22 17.02.2022
3680 Clouds 11 1022 77 10000 1.86 14 18:29 17.02.2022
3681 Clouds 14 1022 77 10000 1.86 14 17:30 17.02.2022
3682 Clouds 14 1022 62 10000 1.88 358 15:57 17.02.2022
3683 Clouds 14 1023 66 10000 2.53 4 14:29 17.02.2022
3684 Clouds 13 1023 66 10000 2.53 4 13:31 17.02.2022
3685 Clouds 9 1024 71 10000 3.15 359 11:48 17.02.2022
3686 Clouds 5 1024 56 10000 1.34 78 09:58 17.02.2022
3687 Clouds 5 1027 79 10000 4.39 14 06:44 17.02.2022
3688 Clouds 6 1027 92 10000 4.33 5 23:23 16.02.2022
3689 Clouds 7 1026 92 10000 4.2 2 22:27 16.02.2022
3690 Clouds 7 1025 92 10000 4.12 1 20:21 16.02.2022
3691 Clouds 7 1024 90 10000 3.81 2 18:50 16.02.2022
3692 Clouds 8 1023 89 10000 3.76 1 17:54 16.02.2022
3693 Clouds 9 1021 79 10000 3.78 360 15:58 16.02.2022
3694 Clouds 9 1020 81 10000 3.29 353 15:20 16.02.2022
3695 Clouds 6 1020 65 10000 0.45 221 13:31 16.02.2022
3696 Clouds 6 1021 80 10000 2.18 342 12:20 16.02.2022
3697 Clouds 6 1021 80 10000 2.18 342 11:31 16.02.2022
3698 Clouds 5 1022 90 10000 2.59 348 10:34 16.02.2022
3699 Clouds 0 1021 82 5267 2.38 8 08:24 16.02.2022
3700 Clouds 0 1021 73 7095 2.34 4 06:43 16.02.2022
3701 Clouds 2 1027 87 10000 2.24 13 23:45 15.02.2022
3702 Clouds 2 1027 88 10000 2.33 3 22:33 15.02.2022
3703 Clouds 2 1028 90 10000 2.85 4 21:49 15.02.2022
3704 Clouds 3 1028 89 10000 2.88 8 21:29 15.02.2022
3705 Clouds 3 1028 89 10000 2.88 8 20:56 15.02.2022
3706 Clouds 3 1027 90 10000 2.81 16 19:59 15.02.2022
3707 Clouds 3 1026 90 10000 2.91 16 19:26 15.02.2022
3708 Clouds 4 1023 80 10000 2.47 358 18:24 15.02.2022
3709 Clouds 4 1023 80 10000 2.47 358 17:52 15.02.2022
3710 Clouds 6 1022 66 10000 2.8 353 17:21 15.02.2022
3711 Clouds 6 1022 60 10000 2.84 344 15:32 15.02.2022
3712 Clouds 8 1022 55 10000 3.02 342 13:28 15.02.2022
3713 Clouds 7 1022 55 10000 3.02 342 12:53 15.02.2022
3714 Clouds 4 1023 58 10000 3.7 349 11:40 15.02.2022
3715 Clouds 1 1025 67 10000 3.98 354 09:52 15.02.2022
3716 Snow 0 1025 89 10000 3.66 353 06:59 15.02.2022
3717 Snow 0 1024 91 10000 3.23 348 05:32 15.02.2022
3718 Snow 1 1020 88 10000 2.85 352 23:34 14.02.2022
3719 Clouds 2 1020 89 10000 2.48 10 21:54 14.02.2022
3720 Clouds 2 1020 91 10000 2.45 14 20:40 14.02.2022
3721 Clouds 2 1019 92 10000 2.62 7 19:44 14.02.2022
3722 Clouds 2 1018 92 10000 2.8 5 19:25 14.02.2022
3723 Clouds 3 1015 86 10000 2.52 351 18:23 14.02.2022
3724 Clouds 6 1013 72 10000 2.8 344 17:26 14.02.2022
3725 Clouds 7 1013 66 10000 2.51 6 16:25 14.02.2022
3726 Clouds 6 1013 64 10000 2.35 351 14:39 14.02.2022
3727 Clouds 6 1013 67 10000 3.13 2 13:33 14.02.2022
3728 Clouds 6 1013 72 10000 3.26 7 12:55 14.02.2022
3729 Clouds 5 1014 83 1305 3.07 359 11:55 14.02.2022
3730 Clouds 4 1013 85 933 2.31 4 10:58 14.02.2022
3731 Clouds 1 1010 90 341 0.81 244 08:45 14.02.2022
3732 Clouds 2 1010 91 134 1.34 44 07:32 14.02.2022
3733 Clouds 5 1012 99 374 1.76 211 05:56 14.02.2022
3734 Clouds 6 1016 99 351 3.37 197 22:43 13.02.2022
3735 Clouds 6 1017 99 363 3.16 201 22:25 13.02.2022
3736 Clouds 6 1017 99 363 3.16 201 21:32 13.02.2022
3737 Clouds 6 1017 99 340 3.46 203 20:40 13.02.2022
3738 Clouds 6 1017 98 368 3.46 202 19:45 13.02.2022
3739 Clouds 6 1016 98 412 3.33 201 18:54 13.02.2022
3740 Clouds 6 1016 98 412 3.33 201 18:35 13.02.2022
3741 Clouds 7 1016 97 615 3.39 208 16:34 13.02.2022
3742 Clouds 8 1017 97 379 3.63 200 15:24 13.02.2022
3743 Clouds 7 1017 97 379 3.63 200 14:31 13.02.2022
3744 Clouds 6 1019 89 1078 4.06 211 12:51 13.02.2022
3745 Clouds 5 1020 90 1021 3.53 204 11:44 13.02.2022
3746 Clouds 5 1020 95 413 3.3 201 10:34 13.02.2022
3747 Clouds 4 1021 96 688 2.87 199 09:46 13.02.2022
3748 Clouds 1 1020 77 725 2.27 193 07:49 13.02.2022
3749 Clouds 1 1023 75 1333 1.53 212 00:35 13.02.2022
3750 Clouds 4 1025 98 810 1.55 200 23:42 12.02.2022
3751 Clouds 4 1026 97 886 1.1 195 22:33 12.02.2022
3752 Clouds 5 1026 95 1904 1.22 187 21:30 12.02.2022
3753 Clouds 5 1026 96 7299 0.75 174 20:45 12.02.2022
3754 Clouds 6 1026 96 5466 0.28 172 19:30 12.02.2022
3755 Clouds 6 1025 94 10000 0.15 170 18:53 12.02.2022
3756 Clouds 6 1025 94 10000 0.15 170 18:35 12.02.2022
3757 Clouds 8 1024 83 1778 1.35 226 17:19 12.02.2022
3758 Clouds 8 1023 74 10000 1.81 221 16:26 12.02.2022
3759 Clouds 9 1023 74 10000 1.81 221 15:51 12.02.2022
3760 Clouds 9 1023 74 10000 1.81 221 15:51 12.02.2022
3761 Clouds 9 1023 69 10000 2.03 211 14:31 12.02.2022
3762 Clouds 8 1024 68 10000 2.3 211 13:19 12.02.2022
3763 Clouds 3 1025 74 10000 1.83 211 10:41 12.02.2022
3764 Clouds -2 1024 78 10000 1.39 218 09:49 12.02.2022
3765 Clouds -3 1024 78 10000 0.26 213 09:26 12.02.2022
3766 Clouds -3 1024 79 10000 0.26 17 08:18 12.02.2022
3767 Clouds 2 1026 95 10000 0.13 350 05:33 12.02.2022
3768 Clouds 3 1026 94 10000 0.39 3 04:27 12.02.2022
3769 Clear 2 1027 94 10000 0.35 25 02:18 12.02.2022
3770 Clouds 3 1028 91 10000 1.24 31 22:33 11.02.2022
3771 Clouds 3 1028 92 10000 1.53 18 21:55 11.02.2022
3772 Clouds 4 1027 87 10000 1.57 6 20:41 11.02.2022
3773 Clouds 5 1027 85 10000 1.73 12 19:46 11.02.2022
3774 Clouds 5 1027 84 10000 1.83 18 19:27 11.02.2022
3775 Clouds 7 1025 77 10000 1.87 8 17:55 11.02.2022
3776 Clouds 8 1025 73 10000 2.05 7 17:25 11.02.2022
3777 Clouds 8 1025 71 10000 2.25 5 16:22 11.02.2022
3778 Clouds 7 1025 72 10000 2.53 1 14:43 11.02.2022
3779 Clouds 7 1025 67 10000 2.22 349 14:21 11.02.2022
3780 Clouds 6 1024 47 10000 0.45 239 13:57 11.02.2022
3781 Clouds 5 1025 49 10000 2.22 349 13:39 11.02.2022
3782 Clouds 2 1026 55 10000 1.27 340 11:42 11.02.2022
3783 Clouds 3 1027 74 10000 2.22 4 09:58 11.02.2022
3784 Clouds 3 1028 84 10000 2.5 6 08:49 11.02.2022
3785 Clouds 3 1029 89 10000 2.59 15 08:26 11.02.2022
3786 Clouds -1 1026 66 10000 2.6 17 07:18 11.02.2022
3787 Clouds 0 1025 57 10000 2.46 17 02:26 11.02.2022
3788 Clouds -1 1026 54 10000 2.36 20 00:51 11.02.2022
3789 Clear 3 1029 62 10000 2.55 22 22:49 10.02.2022
3790 Clear 4 1029 65 10000 2.6 19 21:45 10.02.2022
3791 Clear 5 1029 72 10000 2.64 13 20:57 10.02.2022
3792 Clear 5 1029 72 10000 2.64 13 20:30 10.02.2022
3793 Clear 7 1028 74 10000 2.46 15 19:25 10.02.2022
3794 Clear 7 1028 76 10000 2.47 16 18:44 10.02.2022
3795 Clear 11 1024 47 10000 2.13 9 17:26 10.02.2022
3796 Clear 12 1024 47 10000 2.13 9 16:50 10.02.2022
3797 Clear 13 1023 37 10000 1.79 3 15:47 10.02.2022
3798 Clear 10 1024 27 10000 0.45 22 15:28 10.02.2022
3799 Clear 12 1023 31 10000 1.22 355 14:46 10.02.2022
3800 Clear 11 1024 29 10000 0.43 322 14:23 10.02.2022
3801 Clear 10 1025 29 10000 0.18 223 13:22 10.02.2022
3802 Clear 9 1026 32 10000 0.23 111 12:23 10.02.2022
3803 Clear 7 1026 32 10000 0.23 111 11:33 10.02.2022
3804 Clear 8 1026 36 10000 0.88 39 10:35 10.02.2022
3805 Clear 7 1027 41 10000 1.68 29 09:49 10.02.2022
3806 Clear -3 1027 54 10000 2.25 30 08:53 10.02.2022
3807 Clear -4 1027 55 10000 1.94 30 06:42 10.02.2022
3808 Clear -3 1028 57 10000 1.37 34 03:39 10.02.2022
3809 Clouds -2 1029 56 10000 0.87 30 01:19 10.02.2022
3810 Clouds -2 1029 55 10000 0.86 30 00:42 10.02.2022
3811 Clouds -1 1029 55 10000 0.84 38 00:23 10.02.2022
3812 Clouds 0 1030 51 10000 1.01 44 22:57 09.02.2022
3813 Clouds 0 1030 49 10000 0.45 179 22:33 09.02.2022
3814 Clouds 5 1032 69 10000 0.89 41 21:48 09.02.2022
3815 Clouds 5 1031 69 10000 0.59 55 21:28 09.02.2022
3816 Clouds 5 1031 69 10000 0.59 55 20:45 09.02.2022
3817 Clouds 5 1031 66 10000 0.32 80 20:23 09.02.2022
3818 Clouds 6 1031 66 10000 0.32 80 19:42 09.02.2022
3819 Clouds 6 1030 61 10000 0.58 182 18:50 09.02.2022
3820 Clear 12 1027 37 10000 2.04 211 17:24 09.02.2022
3821 Clear 14 1027 31 10000 2.29 212 16:20 09.02.2022
3822 Clear 11 1028 23 10000 2.24 308 15:24 09.02.2022
3823 Clouds 12 1028 24 10000 2.36 211 12:53 09.02.2022
3824 Clouds 12 1028 25 10000 1.97 207 11:36 09.02.2022
3825 Clouds 10 1029 26 10000 1.63 216 10:34 09.02.2022
3826 Clouds 11 1029 26 10000 0.79 216 09:50 09.02.2022
3827 Clouds 4 1030 27 10000 0.69 35 09:22 09.02.2022
3828 Clouds 8 1030 27 10000 0.69 35 08:45 09.02.2022
3829 Clouds -5 1031 58 10000 0.45 0 05:57 09.02.2022
3830 Clouds -4 1031 59 10000 0.97 360 03:51 09.02.2022
3831 Clouds -3 1031 58 10000 0.79 355 03:25 09.02.2022
3832 Clouds -1 1031 56 10000 0.68 6 23:45 08.02.2022
3833 Clouds -1 1031 57 10000 0.62 9 23:19 08.02.2022
3834 Clouds -1 1031 57 10000 0.62 9 23:19 08.02.2022
3835 Clouds 0 1031 57 10000 0.62 9 22:38 08.02.2022
3836 Clouds 0 1031 55 10000 0.7 23 22:19 08.02.2022
3837 Clouds 1 1031 51 10000 0.72 28 21:22 08.02.2022
3838 Clouds 1 1031 51 10000 0.72 28 21:22 08.02.2022
3839 Clouds 5 1032 55 10000 0.72 28 20:57 08.02.2022
3840 Clouds 5 1032 55 10000 0.72 28 20:34 08.02.2022
3841 Clouds 7 1031 54 10000 0.24 10 19:18 08.02.2022
3842 Clear 10 1029 49 10000 0.99 225 18:19 08.02.2022
3843 Clear 13 1027 36 10000 1.81 214 16:56 08.02.2022
3844 Clear 10 1028 28 10000 0.45 288 15:46 08.02.2022
3845 Clear 10 1029 30 10000 0.45 182 14:58 08.02.2022
3846 Clear 9 1029 32 10000 0.45 328 13:39 08.02.2022
3847 Clear 12 1028 23 10000 0.65 19 12:21 08.02.2022
3848 Clear 10 1028 24 10000 1.15 19 10:47 08.02.2022
3849 Clear 8 1029 28 10000 1.85 25 09:47 08.02.2022
3850 Clear 0 1031 52 10000 2.82 27 08:34 08.02.2022
3851 Clouds -2 1030 54 10000 3.3 26 05:46 08.02.2022
3852 Clouds -2 1030 57 10000 3.34 24 04:40 08.02.2022
3853 Clouds -2 1030 58 10000 3.43 22 04:21 08.02.2022
3854 Clouds -1 1030 58 10000 3.43 22 03:36 08.02.2022
3855 Clouds -1 1030 57 10000 3.41 24 03:18 08.02.2022
3856 Clouds -1 1030 57 10000 3.41 24 02:59 08.02.2022
3857 Clouds 0 1030 56 10000 3.41 24 02:36 08.02.2022
3858 Clouds 0 1030 54 10000 3.48 23 02:18 08.02.2022
3859 Clouds 0 1030 55 10000 3.48 23 02:18 08.02.2022
3860 Clouds 0 1030 54 10000 3.48 23 01:44 08.02.2022
3861 Clouds 0 1030 53 10000 0.45 200 01:24 08.02.2022
3862 Clouds 3 1032 50 10000 3.48 24 00:55 08.02.2022
3863 Clouds 4 1033 65 10000 3.67 21 23:58 07.02.2022
3864 Clouds 4 1033 65 10000 3.67 21 23:40 07.02.2022
3865 Clouds 4 1034 81 10000 4.13 17 23:18 07.02.2022
3866 Clouds 5 1034 81 10000 4.11 17 22:54 07.02.2022
3867 Clouds 4 1034 86 10000 4.64 15 22:18 07.02.2022
3868 Clouds 5 1034 86 10000 4.64 15 21:44 07.02.2022
3869 Clouds 5 1032 86 10000 4.76 14 21:25 07.02.2022
3870 Clouds 5 1032 86 10000 4.76 14 20:41 07.02.2022
3871 Clouds 4 1032 85 10000 4.77 12 19:56 07.02.2022
3872 Clouds 5 1032 85 10000 4.77 12 19:38 07.02.2022
3873 Clouds 5 1030 82 10000 4.82 12 18:21 07.02.2022
3874 Clouds 11 1027 66 10000 4.48 8 16:53 07.02.2022
3875 Clouds 12 1026 60 10000 4.36 6 16:20 07.02.2022
3876 Clouds 12 1026 60 10000 4.36 6 15:48 07.02.2022
3877 Clouds 11 1026 55 10000 3.93 359 13:36 07.02.2022
3878 Clouds 10 1027 58 10000 3.43 358 13:18 07.02.2022
3879 Clouds 9 1028 62 10000 3.84 357 11:58 07.02.2022
3880 Clouds 9 1028 62 10000 3.84 357 11:36 07.02.2022
3881 Clouds 8 1029 68 10000 4.32 359 10:51 07.02.2022
3882 Clouds 7 1029 68 10000 4.32 359 10:31 07.02.2022
3883 Clouds 2 1029 74 10000 4.32 2 09:53 07.02.2022
3884 Clouds 0 1030 86 10000 4.33 8 09:18 07.02.2022
3885 Clouds 3 1030 86 10000 4.33 8 08:39 07.02.2022
3886 Clouds 2 1029 83 10000 4.06 9 07:19 07.02.2022
3887 Clouds 4 1029 85 10000 4.24 10 06:34 07.02.2022
3888 Clouds -4 1024 60 10000 3.65 9 03:27 07.02.2022
3889 Clouds -2 1026 51 10000 3.57 11 00:45 07.02.2022
3890 Clouds -2 1026 46 10000 3.4 13 23:48 06.02.2022
3891 Clouds -2 1026 46 10000 3.33 13 22:48 06.02.2022
3892 Clouds 1 1029 39 10000 3.14 14 21:55 06.02.2022
3893 Clouds 1 1029 39 10000 3.14 14 21:35 06.02.2022
3894 Clouds 2 1029 40 10000 3.36 13 20:55 06.02.2022
3895 Clouds 2 1029 40 10000 3.36 13 20:31 06.02.2022
3896 Clouds 3 1029 41 10000 3.18 12 19:38 06.02.2022
3897 Clouds 6 1028 47 10000 2.89 18 18:40 06.02.2022
3898 Clouds 7 1027 53 10000 2.86 10 17:56 06.02.2022
3899 Clouds 7 1025 43 10000 2.17 3 17:19 06.02.2022
3900 Clouds 8 1025 44 10000 2.17 3 16:38 06.02.2022
3901 Clouds 6 1023 27 10000 0.45 211 15:49 06.02.2022
3902 Clouds 7 1023 27 10000 1.33 276 15:26 06.02.2022
3903 Clouds 6 1024 25 10000 1.33 276 14:36 06.02.2022
3904 Clear 8 1025 20 10000 1.06 302 13:26 06.02.2022
3905 Clear 7 1025 21 10000 1.06 308 12:52 06.02.2022
3906 Clear 3 1025 19 10000 1.61 325 11:32 06.02.2022
3907 Clear 2 1024 16 10000 0.76 300 10:30 06.02.2022
3908 Clear -6 1026 51 10000 1.54 13 08:53 06.02.2022
3909 Clear -2 1029 25 10000 1.89 14 07:51 06.02.2022
3910 Clear -5 1025 50 10000 1.9 12 05:30 06.02.2022
3911 Clear -5 1025 50 10000 1.9 12 05:30 06.02.2022
3912 Clear -5 1025 50 10000 1.9 12 05:30 06.02.2022
3913 Clear -4 1026 53 10000 2.05 22 02:26 06.02.2022
3914 Clear -3 1026 54 10000 2.05 22 01:47 06.02.2022
3915 Clouds 0 1032 76 10000 2.92 16 00:26 06.02.2022
3916 Clouds 1 1031 84 10000 3.27 14 22:20 05.02.2022
3917 Clouds 2 1030 89 10000 3.25 15 20:59 05.02.2022
3918 Clouds 3 1030 89 10000 3.32 14 20:24 05.02.2022
3919 Clouds 3 1030 89 10000 3.31 14 19:45 05.02.2022
3920 Clouds 4 1028 89 10000 3.06 9 18:52 05.02.2022
3921 Clouds 7 1027 82 10000 3.08 6 17:38 05.02.2022
3922 Clouds 8 1025 76 10000 3.02 4 16:48 05.02.2022
3923 Clouds 9 1024 73 10000 2.75 360 15:33 05.02.2022
3924 Clouds 10 1024 68 10000 2.62 0 14:53 05.02.2022
3925 Clouds 7 1024 63 10000 2.4 2 12:47 05.02.2022
3926 Clouds 6 1025 64 10000 2.53 359 11:49 05.02.2022
3927 Clouds 5 1025 73 10000 2.73 0 10:47 05.02.2022
3928 Clouds 4 1025 80 10000 2.85 2 09:53 05.02.2022
3929 Clouds 0 1022 64 10000 2.79 2 09:29 05.02.2022
3930 Clouds 4 1025 87 10000 2.81 4 07:38 05.02.2022
3931 Clouds 4 1025 89 10000 2.97 7 06:56 05.02.2022
3932 Clouds 4 1024 88 10000 2.74 360 03:55 05.02.2022
3933 Clouds 4 1024 90 10000 2.68 7 01:19 05.02.2022
3934 Clouds 5 1024 88 10000 2.59 5 00:42 05.02.2022
3935 Clouds 5 1024 89 10000 2.61 2 23:38 04.02.2022
3936 Clouds 4 1023 87 10000 2.61 6 23:20 04.02.2022
3937 Clouds 5 1023 87 10000 2.8 7 21:36 04.02.2022
3938 Clouds 2 1021 55 10000 2.73 9 21:18 04.02.2022
3939 Clouds 5 1023 88 10000 2.73 9 20:46 04.02.2022
3940 Clouds 6 1023 90 10000 2.92 9 19:30 04.02.2022
3941 Clouds 8 1019 68 10000 2.86 359 16:56 04.02.2022
3942 Clouds 9 1018 56 10000 2.06 342 15:34 04.02.2022
3943 Clouds 7 1017 35 10000 0.45 233 14:51 04.02.2022
3944 Clouds 7 1018 37 10000 0.45 231 12:43 04.02.2022
3945 Clouds 6 1019 37 10000 0.93 291 11:46 04.02.2022
3946 Clouds 4 1019 45 10000 1.12 298 10:59 04.02.2022
3947 Clouds 3 1019 48 10000 0.89 326 10:22 04.02.2022
3948 Clouds 0 1019 49 10000 1.23 357 08:31 04.02.2022
3949 Clouds 0 1019 45 10000 1.04 5 04:45 04.02.2022
3950 Clouds 1 1019 45 10000 0.93 20 02:38 04.02.2022
3951 Clouds 2 1020 41 10000 0.53 65 00:18 04.02.2022
3952 Clouds 4 1019 40 10000 0.5 92 22:52 03.02.2022
3953 Clouds 4 1019 36 10000 1.34 41 21:58 03.02.2022
3954 Clouds 5 1019 36 10000 1.34 41 21:37 03.02.2022
3955 Clouds 6 1019 33 10000 0.45 0 20:22 03.02.2022
3956 Clouds 9 1020 35 10000 1.12 40 19:49 03.02.2022
3957 Clouds 9 1020 36 10000 1.18 24 19:20 03.02.2022
3958 Clouds 13 1019 35 10000 0.9 335 17:59 03.02.2022
3959 Clouds 11 1019 26 10000 0.45 64 17:19 03.02.2022
3960 Clouds 11 1019 22 10000 2.2 213 15:34 03.02.2022
3961 Clouds 12 1019 19 10000 2.56 214 14:18 03.02.2022
3962 Clouds 15 1019 17 10000 2.38 216 12:32 03.02.2022
3963 Clouds 8 1022 21 10000 1.28 40 08:56 03.02.2022
3964 Clear -2 1023 34 10000 1.43 34 07:43 03.02.2022
3965 Clear 3 1027 31 10000 2.52 28 00:49 03.02.2022
3966 Clear 1 1027 28 10000 2.81 29 00:22 03.02.2022
3967 Clear 3 1026 24 10000 3.01 23 22:39 02.02.2022
3968 Clear 8 1028 22 10000 3.13 23 21:46 02.02.2022
3969 Clear 5 1028 23 10000 3.19 22 21:28 02.02.2022
3970 Clear 4 1028 25 10000 3.33 18 20:24 02.02.2022
3971 Clear 5 1028 25 10000 3.33 18 19:46 02.02.2022
3972 Clear 6 1027 28 10000 3.48 16 18:56 02.02.2022
3973 Clear 8 1026 36 10000 3.66 17 18:24 02.02.2022
3974 Clear 12 1025 35 10000 3.19 10 17:20 02.02.2022
3975 Clear 12 1025 35 10000 3.19 10 16:54 02.02.2022
3976 Clear 14 1025 26 10000 3.48 358 15:23 02.02.2022
3977 Clear 12 1025 23 10000 3.48 354 12:30 02.02.2022
3978 Clear 9 1026 14 10000 0.45 42 11:44 02.02.2022
3979 Clear 9 1026 34 10000 3.38 4 11:24 02.02.2022
3980 Clear 2 1029 77 10000 4 12 08:27 02.02.2022
3981 Clouds 2 1029 93 10000 4.55 11 01:37 02.02.2022
3982 Clouds 5 1029 94 10000 5.33 11 22:29 01.02.2022
3983 Clouds 6 1029 93 10000 5.36 8 20:49 01.02.2022
3984 Clouds 5 1029 92 10000 5.56 6 18:55 01.02.2022
3985 Clouds 6 1026 82 10000 5.23 1 16:44 01.02.2022
3986 Clouds 8 1025 76 10000 5.62 2 15:30 01.02.2022
3987 Clear 9 1024 60 10000 5.95 5 12:49 01.02.2022
3988 Clear 7 1025 53 10000 5.92 4 11:48 01.02.2022
3989 Clear 0 1029 54 10000 5.88 7 08:34 01.02.2022
3990 Clouds 0 1027 83 10000 5.54 4 23:54 31.01.2022
3991 Clouds 0 1027 83 10000 5.54 4 23:54 31.01.2022
3992 Clouds 0 1027 83 10000 5.54 4 23:36 31.01.2022
3993 Clouds 0 1027 83 10000 5.54 4 23:36 31.01.2022
3994 Clouds 2 1027 82 10000 5.7 360 22:27 31.01.2022
3995 Clouds 3 1027 82 10000 5.7 360 21:34 31.01.2022
3996 Clouds 3 1026 82 10000 5.66 358 20:34 31.01.2022
3997 Clouds 3 1026 83 10000 5.12 353 19:46 31.01.2022
3998 Clouds 2 1026 84 10000 4.72 356 18:31 31.01.2022
3999 Clouds 2 1026 84 10000 4.72 356 18:31 31.01.2022
4000 Clouds 7 1026 84 10000 5.19 2 17:53 31.01.2022
4001 Clouds 8 1024 72 10000 4.95 357 16:58 31.01.2022
4002 Clouds 9 1023 63 10000 4.79 358 15:44 31.01.2022
4003 Clouds 9 1022 57 10000 4.45 356 14:25 31.01.2022
4004 Clouds 9 1024 67 10000 3.83 355 12:51 31.01.2022
4005 Clouds 7 1025 60 10000 4.27 359 11:59 31.01.2022
4006 Clouds 4 1025 51 10000 4.66 3 10:52 31.01.2022
4007 Clouds 2 1025 51 10000 4.66 3 10:34 31.01.2022
4008 Clouds 0 1027 83 10000 4.52 10 09:27 31.01.2022
4009 Clouds 0 1027 83 10000 4.52 10 08:52 31.01.2022
4010 Clouds 0 1027 83 10000 4.52 10 08:52 31.01.2022
4011 Clear -3 1028 84 10000 4.46 12 08:20 31.01.2022
4012 Clear -2 1023 31 10000 0.45 15 06:21 31.01.2022
4013 Clear -2 1023 31 10000 3.62 15 03:33 31.01.2022
4014 Clear -1 1024 30 10000 3.12 21 23:20 30.01.2022
4015 Clear 0 1025 28 10000 3.12 21 22:30 30.01.2022
4016 Clear 0 1025 28 10000 3.12 21 22:30 30.01.2022
4017 Clear 0 1025 28 10000 3.04 22 21:43 30.01.2022
4018 Clear 1 1025 26 10000 3.01 22 21:20 30.01.2022
4019 Clear 2 1026 32 10000 2.92 21 20:49 30.01.2022
4020 Clear 3 1026 37 10000 2.95 22 20:29 30.01.2022
4021 Clear 3 1027 37 10000 2.93 22 19:52 30.01.2022
4022 Clear 8 1027 45 10000 2.85 23 18:44 30.01.2022
4023 Clear 8 1026 51 10000 2.58 19 18:20 30.01.2022
4024 Clear 11 1024 42 10000 1.68 0 17:27 30.01.2022
4025 Clear 12 1024 42 10000 1.68 0 16:40 30.01.2022
4026 Clear 12 1024 42 10000 1.68 0 16:40 30.01.2022
4027 Clear 13 1024 31 10000 1.24 343 16:22 30.01.2022
4028 Clear 10 1024 18 10000 0.45 53 15:51 30.01.2022
4029 Clear 10 1024 19 10000 0.45 113 15:32 30.01.2022
4030 Clear 9 1025 21 10000 1.08 323 14:46 30.01.2022
4031 Clear 11 1026 24 10000 1.11 343 12:47 30.01.2022
4032 Clear 11 1027 24 10000 1.46 357 12:25 30.01.2022
4033 Clear 5 1027 26 10000 1.65 4 10:36 30.01.2022
4034 Clear 9 1028 31 10000 2.03 18 09:56 30.01.2022
4035 Clear -3 1029 38 10000 2.73 22 08:56 30.01.2022
4036 Clear -3 1029 34 10000 3.1 24 07:29 30.01.2022
4037 Clear -1 1030 30 10000 3.49 22 01:56 30.01.2022
4038 Clear 0 1031 32 10000 3.46 20 00:41 30.01.2022
4039 Clear 0 1031 30 10000 3.47 19 23:20 29.01.2022
4040 Clear 0 1035 27 10000 3.42 18 21:58 29.01.2022
4041 Clear 1 1035 28 10000 3.4 18 21:25 29.01.2022
4042 Clear 1 1035 28 10000 3.4 18 20:35 29.01.2022
4043 Clear 6 1035 30 10000 3.37 18 19:35 29.01.2022
4044 Clear 5 1034 35 10000 3.46 17 18:53 29.01.2022
4045 Clear 8 1034 44 10000 3.21 16 18:24 29.01.2022
4046 Clear 15 1034 44 10000 3.21 16 17:31 29.01.2022
4047 Clear 13 1031 27 10000 2.97 7 16:25 29.01.2022
4048 Clear 11 1031 23 10000 2.72 2 14:23 29.01.2022
4049 Clear 10 1031 23 10000 2.72 2 13:44 29.01.2022
4050 Clouds 9 1032 22 10000 2.5 1 13:24 29.01.2022
4051 Clouds 3 1033 34 10000 2.37 5 11:49 29.01.2022
4052 Clouds 5 1033 24 10000 2.58 8 11:24 29.01.2022
4053 Clouds -2 1033 38 10000 3.26 19 08:43 29.01.2022
4054 Clouds -3 1032 40 10000 3.54 20 06:55 29.01.2022
4055 Clear 5 1036 38 10000 3.77 22 00:35 29.01.2022
4056 Clear 5 1036 36 10000 4 21 23:52 28.01.2022
4057 Clear 5 1037 35 10000 3.9 21 22:50 28.01.2022
4058 Clear 3 1037 36 10000 3.95 19 22:21 28.01.2022
4059 Clear -1 1037 36 10000 3.95 19 21:36 28.01.2022
4060 Clear -1 1036 52 10000 4.06 18 20:29 28.01.2022
4061 Clear 1 1035 55 10000 4.03 17 19:29 28.01.2022
4062 Clear 9 1035 55 10000 4.03 17 18:42 28.01.2022
4063 Clear 11 1032 51 10000 3.73 13 16:46 28.01.2022
4064 Clear 11 1029 29 10000 3.05 6 15:18 28.01.2022
4065 Clear 9 1030 27 10000 2.73 5 13:37 28.01.2022
4066 Clouds 6 1031 23 10000 3.36 13 12:27 28.01.2022
4067 Clouds 1 1031 19 10000 3.36 13 10:41 28.01.2022
4068 Clouds -1 1031 23 10000 0.45 87 09:48 28.01.2022
4069 Clouds -5 1030 35 10000 4.06 18 07:43 28.01.2022
4070 Clear -5 1030 34 10000 3.94 17 06:32 28.01.2022
4071 Clear -4 1030 32 10000 3.65 19 03:52 28.01.2022
4072 Clear -2 1034 31 10000 3.74 19 02:30 28.01.2022
4073 Clear -2 1034 32 10000 3.73 19 01:57 28.01.2022
4074 Clear -1 1034 32 10000 3.73 19 01:30 28.01.2022
4075 Clear -1 1034 32 10000 3.56 19 22:40 27.01.2022
4076 Clear 1 1034 33 10000 3.53 20 21:41 27.01.2022
4077 Clear 1 1034 35 10000 3.45 19 21:21 27.01.2022
4078 Clear 2 1034 38 10000 3.46 19 19:47 27.01.2022
4079 Clear 5 1032 53 10000 3.26 18 18:22 27.01.2022
4080 Clear 10 1029 44 10000 2.77 12 16:59 27.01.2022
4081 Clear 9 1027 25 10000 2.14 8 14:24 27.01.2022
4082 Clear 3 1028 32 10000 2.1 11 12:53 27.01.2022
4083 Clear 2 1028 32 10000 0.45 219 12:18 27.01.2022
4084 Clear 6 1029 28 10000 2.03 15 09:49 27.01.2022
4085 Clear -5 1029 45 10000 2.78 21 08:40 27.01.2022
4086 Clear -5 1029 45 10000 2.93 21 07:53 27.01.2022
4087 Clear -5 1029 45 10000 2.83 25 03:34 27.01.2022
4088 Clear -5 1030 47 10000 1.59 19 00:24 27.01.2022
4089 Clear -3 1030 43 10000 1.73 31 22:28 26.01.2022
4090 Clear -2 1029 40 10000 1.73 32 21:44 26.01.2022
4091 Clear -2 1030 39 10000 1.87 34 20:52 26.01.2022
4092 Clear -2 1030 38 10000 1.87 34 20:32 26.01.2022
4093 Clear 2 1032 49 10000 1.9 35 19:49 26.01.2022
4094 Clear 4 1031 51 10000 1.81 37 18:48 26.01.2022
4095 Clear 5 1030 51 10000 1.17 28 18:24 26.01.2022
4096 Clear 7 1030 51 10000 1.17 28 17:33 26.01.2022
4097 Clear 9 1027 43 10000 0.38 294 16:49 26.01.2022
4098 Clear 7 1027 23 10000 0.45 0 16:22 26.01.2022
4099 Clear 10 1027 25 10000 0.95 220 14:40 26.01.2022
4100 Clear 9 1029 24 10000 1.05 216 12:20 26.01.2022
4101 Clear 7 1029 25 10000 0.68 218 10:52 26.01.2022
4102 Clear 6 1030 30 10000 0.43 31 09:52 26.01.2022
4103 Clear -6 1031 56 10000 1.54 32 08:49 26.01.2022
4104 Clear -6 1030 56 10000 1.5 30 06:36 26.01.2022
4105 Clear -4 1031 54 10000 1.07 34 00:21 26.01.2022
4106 Clear -5 1031 53 10000 1.07 34 23:37 25.01.2022
4107 Clear -5 1031 52 10000 1.08 29 22:48 25.01.2022
4108 Clear -4 1031 51 10000 1.09 30 22:18 25.01.2022
4109 Clear -3 1031 48 10000 1.15 28 21:23 25.01.2022
4110 Clear -3 1031 46 10000 1.15 28 20:45 25.01.2022
4111 Clear -2 1031 42 10000 1.2 28 19:54 25.01.2022
4112 Clear 2 1033 47 10000 1.22 25 18:50 25.01.2022
4113 Clear 5 1032 47 10000 0.36 346 17:47 25.01.2022
4114 Clear 7 1030 40 10000 1.39 228 17:18 25.01.2022
4115 Clear 8 1030 40 10000 1.39 228 16:34 25.01.2022
4116 Clear 6 1029 26 10000 1.75 217 15:39 25.01.2022
4117 Clear 9 1028 27 10000 1.81 209 14:58 25.01.2022
4118 Clear 9 1028 27 10000 1.81 209 14:38 25.01.2022
4119 Clear 7 1030 26 10000 1.55 200 11:30 25.01.2022
4120 Clear -6 1031 55 10000 0.95 57 09:21 25.01.2022
4121 Clear -7 1031 54 10000 1.02 48 07:46 25.01.2022
4122 Clear -7 1030 54 10000 0.93 57 06:54 25.01.2022
4123 Clear -6 1031 52 10000 1.1 69 05:23 25.01.2022
4124 Clear -5 1030 53 10000 1.23 67 00:20 25.01.2022
4125 Clear -4 1030 51 10000 1.23 67 23:36 24.01.2022
4126 Clear -4 1030 54 10000 1.21 67 23:18 24.01.2022
4127 Clear -5 1030 54 10000 1.21 67 22:42 24.01.2022
4128 Clear -4 1029 53 10000 1.33 60 21:57 24.01.2022
4129 Clear -4 1029 53 10000 1.33 60 21:57 24.01.2022
4130 Clear -4 1029 52 10000 1.5 55 21:32 24.01.2022
4131 Clear -3 1029 50 10000 1.52 55 20:33 24.01.2022
4132 Clear -2 1028 49 10000 1.57 47 19:57 24.01.2022
4133 Clear -2 1028 46 10000 1.57 47 19:35 24.01.2022
4134 Clear 3 1031 53 10000 1.72 39 18:35 24.01.2022
4135 Clear 8 1027 46 10000 0.92 229 17:24 24.01.2022
4136 Clear 8 1027 46 10000 0.92 229 16:55 24.01.2022
4137 Clear 8 1026 35 10000 1.52 216 16:21 24.01.2022
4138 Clear 8 1025 31 10000 1.86 204 14:45 24.01.2022
4139 Clear 6 1026 28 10000 2.15 194 13:26 24.01.2022
4140 Clear 5 1026 29 10000 2.18 192 12:30 24.01.2022
4141 Clear 4 1027 29 10000 1.74 177 11:20 24.01.2022
4142 Clear 5 1028 33 10000 1.05 139 09:49 24.01.2022
4143 Clear -7 1027 62 10000 1.35 72 08:54 24.01.2022
4144 Clear -7 1026 60 10000 1.31 71 06:41 24.01.2022
4145 Clear -1 1029 49 10000 0.78 64 01:31 24.01.2022
4146 Clear -6 1026 62 10000 0.93 73 00:38 24.01.2022
4147 Clear -6 1026 63 10000 0.87 79 00:20 24.01.2022
4148 Clear -5 1026 62 10000 0.93 75 22:37 23.01.2022
4149 Clear -5 1026 59 10000 0.96 71 21:50 23.01.2022
4150 Clear -4 1026 59 10000 0.98 70 21:26 23.01.2022
4151 Clear -3 1026 58 10000 0.98 70 20:45 23.01.2022
4152 Clear 0 1030 73 10000 0.81 84 19:52 23.01.2022
4153 Clear 3 1028 73 10000 0.88 92 18:52 23.01.2022
4154 Clear 3 1027 70 10000 0.68 154 17:49 23.01.2022
4155 Clear 7 1025 57 10000 1.61 199 16:47 23.01.2022
4156 Clear 8 1023 40 10000 1.89 193 15:00 23.01.2022
4157 Clear 7 1024 40 10000 1.92 192 14:25 23.01.2022
4158 Clear 5 1024 41 10000 2.11 197 12:59 23.01.2022
4159 Clear 5 1026 43 10000 1.79 195 12:22 23.01.2022
4160 Clear 4 1026 43 10000 1.79 195 11:59 23.01.2022
4161 Clear 3 1026 46 10000 1.47 195 11:19 23.01.2022
4162 Clear 1 1027 52 10000 0.92 177 10:27 23.01.2022
4163 Clear -1 1027 52 10000 0.92 177 09:51 23.01.2022
4164 Clear -8 1026 70 10000 0.74 69 08:54 23.01.2022
4165 Clear -7 1026 69 10000 0.78 66 05:57 23.01.2022
4166 Clear -7 1027 71 10000 1.09 42 01:53 23.01.2022
4167 Clear -7 1027 71 10000 1.09 42 01:52 23.01.2022
4168 Clear -6 1027 71 10000 1.49 36 01:27 23.01.2022
4169 Clear -6 1026 67 10000 2.23 24 00:23 23.01.2022
4170 Clear -5 1026 65 10000 2.23 24 23:57 22.01.2022
4171 Clear -5 1026 62 10000 2.75 21 22:46 22.01.2022
4172 Clear -4 1026 61 10000 3.1 16 21:36 22.01.2022
4173 Clear 0 1030 69 10000 3.46 18 20:21 22.01.2022
4174 Clear 1 1030 71 10000 3.44 19 18:57 22.01.2022
4175 Clear 2 1028 73 10000 3.3 16 18:24 22.01.2022
4176 Clear 3 1028 73 10000 3.3 16 17:40 22.01.2022
4177 Clear 5 1026 64 10000 2.79 8 16:56 22.01.2022
4178 Clear 5 1025 52 10000 3.01 7 15:53 22.01.2022
4179 Clear 6 1025 52 10000 3.01 7 15:32 22.01.2022
4180 Clear 2 1025 43 10000 3.08 5 13:51 22.01.2022
4181 Clear 3 1025 43 10000 2.99 5 12:53 22.01.2022
4182 Clear 2 1026 44 10000 3.32 11 12:29 22.01.2022
4183 Clear 3 1026 44 10000 3.32 11 11:44 22.01.2022
4184 Clear -1 1029 48 10000 3.28 13 10:29 22.01.2022
4185 Clear -1 1029 48 10000 3.28 13 09:59 22.01.2022
4186 Clear 0 1031 55 10000 3.68 19 08:53 22.01.2022
4187 Clear -2 1031 56 10000 3.77 20 07:39 22.01.2022
4188 Clear -8 1025 62 10000 3.85 20 04:53 22.01.2022
4189 Clear -6 1026 58 10000 3.56 20 01:35 22.01.2022
4190 Clear -3 1032 48 10000 3.46 16 23:45 21.01.2022
4191 Clear -2 1032 48 10000 3.55 15 22:36 21.01.2022
4192 Clear -2 1031 58 10000 3.55 18 20:28 21.01.2022
4193 Clear -1 1031 72 10000 3.83 15 18:40 21.01.2022
4194 Clear 0 1030 74 10000 4.06 15 17:41 21.01.2022
4195 Clear 4 1025 47 10000 3.38 7 15:44 21.01.2022
4196 Clear 7 1024 40 10000 3.1 4 13:51 21.01.2022
4197 Clear 7 1024 40 10000 3.1 4 13:51 21.01.2022
4198 Clear 4 1025 39 10000 3.55 7 12:39 21.01.2022
4199 Clear 1 1026 45 10000 3.78 8 11:28 21.01.2022
4200 Clear -3 1027 50 10000 3.9 9 10:20 21.01.2022
4201 Clear -3 1029 70 10000 4.34 12 08:25 21.01.2022
4202 Clouds -3 1029 74 10000 4.7 11 06:57 21.01.2022
4203 Clouds 1 1029 89 10000 4.07 6 23:40 20.01.2022
4204 Clouds 1 1029 90 10000 3.74 5 22:41 20.01.2022
4205 Clouds 1 1028 90 10000 3.64 1 21:43 20.01.2022
4206 Clouds 1 1028 91 10000 3.47 2 20:53 20.01.2022
4207 Clouds 2 1029 93 10000 3.87 11 19:20 20.01.2022
4208 Clouds 2 1028 92 10000 3.8 7 18:50 20.01.2022
4209 Clouds 6 1026 76 10000 3.17 359 17:29 20.01.2022
4210 Clouds 7 1026 68 10000 3.41 357 15:44 20.01.2022
4211 Clouds 6 1026 65 10000 3.48 358 15:22 20.01.2022
4212 Clouds 5 1026 63 10000 3.33 0 13:41 20.01.2022
4213 Clouds 3 1026 60 10000 2.74 357 12:35 20.01.2022
4214 Clouds 2 1027 64 10000 2.68 1 11:50 20.01.2022
4215 Clouds 0 1028 68 10000 2.92 3 10:40 20.01.2022
4216 Clouds -1 1029 75 10000 3.12 4 09:40 20.01.2022
4217 Clouds 1 1030 88 10000 3.36 5 08:32 20.01.2022
4218 Clouds 0 1030 86 10000 3.85 13 05:32 20.01.2022
4219 Clouds -3 1026 66 10000 0.45 0 23:28 19.01.2022
4220 Clouds -4 1027 65 10000 2.85 11 22:24 19.01.2022
4221 Clouds -4 1027 63 10000 2.66 12 21:23 19.01.2022
4222 Clouds 0 1032 80 10000 2.66 12 20:49 19.01.2022
4223 Clouds 0 1032 84 10000 2.6 17 19:45 19.01.2022
4224 Clear 2 1030 82 10000 1.87 5 18:29 19.01.2022
4225 Clear 3 1030 82 10000 1.87 5 17:45 19.01.2022
4226 Clear 4 1027 67 10000 1.05 319 16:47 19.01.2022
4227 Clear 3 1025 40 10000 1.09 301 14:42 19.01.2022
4228 Clear 6 1026 39 10000 1.2 248 12:43 19.01.2022
4229 Clear 5 1027 37 10000 0.96 242 11:41 19.01.2022
4230 Clear 6 1029 40 10000 0.5 331 10:23 19.01.2022
4231 Clear 5 1029 40 10000 0.5 331 09:34 19.01.2022
4232 Clear -5 1028 60 10000 0.95 33 06:45 19.01.2022
4233 Clear -4 1029 59 10000 0.6 42 02:38 19.01.2022
4234 Clear -3 1030 56 10000 0.72 68 23:19 18.01.2022
4235 Clear -4 1030 54 10000 0.71 66 22:19 18.01.2022
4236 Clear -2 1029 50 10000 0.74 61 20:55 18.01.2022
4237 Clear -1 1029 47 10000 0.79 51 19:54 18.01.2022
4238 Clear -1 1029 47 10000 0.79 51 19:36 18.01.2022
4239 Clear 0 1029 44 10000 0.92 25 18:51 18.01.2022
4240 Clear 3 1029 56 10000 0.37 351 17:58 18.01.2022
4241 Clear 7 1027 51 10000 1.34 221 16:40 18.01.2022
4242 Clear 6 1027 27 10000 0.45 0 15:40 18.01.2022
4243 Clear 6 1027 26 10000 0.45 117 15:20 18.01.2022
4244 Clear 9 1026 33 10000 1.03 208 12:30 18.01.2022
4245 Clear 8 1027 36 10000 0.55 31 10:46 18.01.2022
4246 Clear -5 1029 49 10000 2.26 28 08:49 18.01.2022
4247 Clear -5 1028 49 10000 2.27 26 07:49 18.01.2022
4248 Clear -4 1029 48 10000 2.37 24 02:33 18.01.2022
4249 Clear -3 1030 48 10000 2.64 26 23:22 17.01.2022
4250 Clear -4 1030 46 10000 2.7 26 22:23 17.01.2022
4251 Clear -4 1030 44 10000 2.7 26 21:33 17.01.2022
4252 Clear -2 1030 43 10000 2.39 21 19:56 17.01.2022
4253 Clear 2 1032 60 10000 1.86 24 18:29 17.01.2022
4254 Clear 3 1029 31 10000 1.05 351 17:24 17.01.2022
4255 Clear 5 1029 26 10000 0.82 293 16:27 17.01.2022
4256 Clear 5 1028 28 10000 0.69 267 14:59 17.01.2022
4257 Clear 4 1029 27 10000 0.69 267 14:33 17.01.2022
4258 Clouds 5 1030 29 10000 1.04 3 13:20 17.01.2022
4259 Clouds 4 1030 29 10000 1.04 3 12:54 17.01.2022
4260 Clouds 5 1030 28 10000 1.28 6 11:48 17.01.2022
4261 Clouds 0 1032 36 10000 2.12 20 10:21 17.01.2022
4262 Clouds -6 1030 45 10000 2.79 24 08:51 17.01.2022
4263 Clouds -6 1030 45 10000 3.02 26 07:22 17.01.2022
4264 Clear -7 1030 44 10000 2.85 25 02:23 17.01.2022
4265 Clear -7 1030 43 10000 2.85 26 00:53 17.01.2022
4266 Clear -5 1029 44 10000 3.02 25 21:26 16.01.2022
4267 Clear -4 1029 43 10000 3.02 25 20:30 16.01.2022
4268 Clear 1 1033 45 10000 2.82 23 18:48 16.01.2022
4269 Clear 4 1032 58 10000 2.6 26 17:51 16.01.2022
4270 Clear 5 1029 55 10000 1.61 19 16:55 16.01.2022
4271 Clear 4 1026 23 10000 0.97 353 15:43 16.01.2022
4272 Clear 3 1026 25 10000 0.57 320 14:29 16.01.2022
4273 Clear 5 1026 28 10000 0.57 320 13:33 16.01.2022
4274 Clear 6 1027 25 10000 0.16 259 12:22 16.01.2022
4275 Clear 5 1027 26 10000 0.42 54 11:29 16.01.2022
4276 Clear 4 1028 31 10000 1.47 34 10:28 16.01.2022
4277 Clear 2 1028 31 10000 1.47 34 09:58 16.01.2022
4278 Clear -2 1028 31 10000 1.47 34 09:37 16.01.2022
4279 Clear -8 1027 44 10000 2.22 33 09:19 16.01.2022
4280 Clear -8 1026 47 10000 2.08 32 06:35 16.01.2022
4281 Clear -7 1026 49 10000 1.58 42 00:19 16.01.2022
4282 Clear -6 1025 49 10000 1.61 41 22:50 15.01.2022
4283 Clear -5 1026 46 10000 1.91 39 21:21 15.01.2022
4284 Clear -5 1025 46 10000 1.91 39 20:44 15.01.2022
4285 Clear -4 1025 44 10000 1.86 36 20:21 15.01.2022
4286 Clear -3 1024 43 10000 1.78 30 19:26 15.01.2022
4287 Clear 3 1027 50 10000 1.22 22 17:58 15.01.2022
4288 Clear 6 1024 47 10000 0.65 233 16:43 15.01.2022
4289 Clear 6 1022 31 10000 1.76 210 14:32 15.01.2022
4290 Clear 7 1023 25 10000 1.68 196 12:38 15.01.2022
4291 Clear 5 1025 26 10000 0.95 165 11:20 15.01.2022
4292 Clear -2 1026 29 10000 0.74 76 09:35 15.01.2022
4293 Clear -6 1028 60 10000 1.48 40 01:25 15.01.2022
4294 Clear -6 1029 54 10000 1.41 45 21:57 14.01.2022
4295 Clear -5 1029 53 10000 1.76 44 20:54 14.01.2022
4296 Clear -5 1029 52 10000 1.92 38 20:23 14.01.2022
4297 Clear -5 1029 52 10000 1.91 38 19:49 14.01.2022
4298 Clear 2 1033 47 10000 1.78 32 18:33 14.01.2022
4299 Clear 5 1030 47 10000 0.87 204 16:51 14.01.2022
4300 Clear 6 1030 47 10000 0.87 204 16:33 14.01.2022
4301 Clear 6 1029 32 10000 1.51 192 14:47 14.01.2022
4302 Clear 6 1029 31 10000 1.74 191 13:47 14.01.2022
4303 Clear 4 1030 30 10000 1.84 187 12:32 14.01.2022
4304 Clear 7 1032 34 10000 1.15 161 11:29 14.01.2022
4305 Clear -4 1033 39 10000 0.97 121 09:51 14.01.2022
4306 Clear -8 1032 57 10000 1.57 59 08:52 14.01.2022
4307 Clear -2 1039 57 10000 2.58 45 07:21 14.01.2022
4308 Clear -4 1040 58 10000 2.44 47 01:37 14.01.2022
4309 Clear -3 1040 59 10000 2.29 49 23:32 13.01.2022
4310 Clear -2 1040 59 10000 2.45 43 21:40 13.01.2022
4311 Clear -2 1040 60 10000 2.38 48 21:22 13.01.2022
4312 Clear -1 1040 60 10000 2.58 44 19:40 13.01.2022
4313 Clear -1 1039 63 10000 2.49 40 19:22 13.01.2022
4314 Clear 4 1038 69 10000 1.94 43 17:54 13.01.2022
4315 Clear 6 1032 82 10000 0.6 169 16:21 13.01.2022
4316 Clear 6 1032 82 10000 0.6 169 16:21 13.01.2022
4317 Clear 7 1032 82 10000 0.6 169 15:37 13.01.2022
4318 Clear 3 1031 25 10000 0.7 166 14:47 13.01.2022
4319 Clear 4 1032 79 10000 1.01 163 12:45 13.01.2022
4320 Clear -4 1033 49 10000 1.42 62 10:25 13.01.2022
4321 Clear -8 1033 54 10000 2.25 52 09:20 13.01.2022
4322 Clear -8 1033 54 10000 2.25 52 09:20 13.01.2022
4323 Clear -8 1032 53 10000 2.32 47 08:27 13.01.2022
4324 Clear -8 1032 55 10000 2.36 47 07:24 13.01.2022
4325 Clear -8 1032 53 10000 2.42 48 05:59 13.01.2022
4326 Clear -8 1032 53 10000 2.42 48 05:59 13.01.2022
4327 Clear -2 1039 54 10000 2.46 48 05:19 13.01.2022
4328 Clear -5 1039 52 10000 2.48 40 01:58 13.01.2022
4329 Clouds -4 1039 54 10000 2.26 40 00:55 13.01.2022
4330 Clouds -4 1039 53 10000 2.31 44 23:49 12.01.2022
4331 Clouds -4 1039 53 10000 2.31 44 23:49 12.01.2022
4332 Clouds -4 1039 53 10000 2.35 35 23:19 12.01.2022
4333 Clouds -3 1039 54 10000 2.65 33 21:57 12.01.2022
4334 Clouds -3 1039 57 10000 3.09 32 21:22 12.01.2022
4335 Clouds -3 1039 57 10000 3.09 32 21:22 12.01.2022
4336 Clouds -3 1039 57 10000 3.09 32 20:56 12.01.2022
4337 Clouds -2 1039 59 10000 3.41 31 19:43 12.01.2022
4338 Clear -1 1037 62 10000 3.74 26 18:30 12.01.2022
4339 Clear 2 1034 72 10000 3.77 17 17:21 12.01.2022
4340 Clear 2 1034 72 10000 3.77 17 16:32 12.01.2022
4341 Clear 3 1030 70 10000 3.6 9 14:48 12.01.2022
4342 Clear 3 1031 68 10000 3.79 7 13:19 12.01.2022
4343 Clear 2 1033 68 10000 4.1 14 10:48 12.01.2022
4344 Clear -2 1035 66 10000 4.79 18 08:43 12.01.2022
4345 Clear -2 1035 65 10000 4.82 17 07:50 12.01.2022
4346 Clear -2 1035 65 10000 4.82 17 07:31 12.01.2022
4347 Clear -4 1035 68 10000 4.87 17 23:53 11.01.2022
4348 Clear -3 1035 67 10000 4.85 15 22:54 11.01.2022
4349 Clear -1 1035 67 10000 4.86 15 22:22 11.01.2022
4350 Clear 1 1034 67 10000 4.7 14 20:54 11.01.2022
4351 Clear -1 1034 69 10000 4.63 13 19:50 11.01.2022
4352 Clear -1 1033 74 10000 4.69 14 18:31 11.01.2022
4353 Clear 1 1030 81 10000 4.02 11 17:24 11.01.2022
4354 Clear 1 1030 81 10000 4.02 11 16:37 11.01.2022
4355 Clear 3 1027 82 10000 3.58 9 15:35 11.01.2022
4356 Clear 4 1026 79 10000 3.39 7 14:41 11.01.2022
4357 Clear 9 1026 76 10000 3.28 4 13:55 11.01.2022
4358 Clear 8 1026 76 10000 3.28 4 13:34 11.01.2022
4359 Clear 8 1026 75 10000 3.32 6 12:42 11.01.2022
4360 Clear 2 1027 75 10000 3.42 6 11:40 11.01.2022
4361 Clear 0 1032 69 10000 4.62 21 09:28 11.01.2022
4362 Clouds -1 1029 92 10000 4.13 12 06:36 11.01.2022
4363 Clouds 2 1024 97 246 2.98 5 00:30 11.01.2022
4364 Clouds -1 1019 81 361 3.03 4 23:41 10.01.2022
4365 Clouds 2 1023 97 274 3.14 4 22:51 10.01.2022
4366 Clouds 2 1023 97 275 3.21 3 22:19 10.01.2022
4367 Clouds 2 1023 97 276 3.22 3 21:52 10.01.2022
4368 Clouds 2 1022 97 181 3.28 1 21:19 10.01.2022
4369 Clouds 2 1022 97 181 3.28 1 20:56 10.01.2022
4370 Clouds 2 1021 97 166 3.37 5 20:27 10.01.2022
4371 Clouds 3 1021 97 166 3.37 5 19:41 10.01.2022
4372 Clouds 3 1020 97 124 3.41 6 19:20 10.01.2022
4373 Clouds 4 1020 97 159 3.37 7 18:48 10.01.2022
4374 Clouds 5 1019 97 149 3.47 10 17:40 10.01.2022
4375 Clouds 5 1018 97 185 3.61 8 16:41 10.01.2022
4376 Clouds 6 1014 99 123 3.01 351 15:20 10.01.2022
4377 Rain 6 1014 99 135 3.43 350 13:41 10.01.2022
4378 Clouds 7 1013 99 126 3.73 356 11:58 10.01.2022
4379 Rain 7 1013 99 121 3.97 353 11:24 10.01.2022
4380 Clouds 7 1012 99 131 4.45 354 09:46 10.01.2022
4381 Clouds 6 1009 98 672 6.75 342 06:22 10.01.2022
4382 Clouds 7 1009 98 672 6.75 342 05:49 10.01.2022
4383 Rain 2 1009 88 4206 1.34 32 01:26 10.01.2022
4384 Snow 1 1010 89 3225 0.89 180 00:24 10.01.2022
4385 Snow 0 1011 93 1418 3.75 355 23:29 09.01.2022
4386 Rain 5 1012 96 1418 3.75 355 22:37 09.01.2022
4387 Clouds 4 1013 96 581 3.42 0 21:44 09.01.2022
4388 Rain 4 1014 96 530 3.48 0 21:23 09.01.2022
4389 Clouds 4 1014 96 530 3.48 0 20:50 09.01.2022
4390 Rain 4 1014 95 611 3.35 359 20:29 09.01.2022
4391 Rain 4 1014 95 611 3.35 359 19:44 09.01.2022
4392 Clouds 4 1014 96 831 3.03 359 19:23 09.01.2022
4393 Rain 4 1014 96 831 3.03 359 18:49 09.01.2022
4394 Rain 4 1014 95 1036 3.58 6 18:30 09.01.2022
4395 Rain 4 1014 96 724 2.96 358 17:30 09.01.2022
4396 Rain 5 1013 94 1006 2.35 350 16:51 09.01.2022
4397 Rain 5 1013 91 966 2.32 346 15:56 09.01.2022
4398 Rain 5 1013 91 966 2.32 346 15:34 09.01.2022
4399 Rain 5 1012 89 2282 2.45 338 14:40 09.01.2022
4400 Clouds 5 1013 89 1826 2.33 334 13:50 09.01.2022
4401 Clouds 4 1013 88 1514 2.58 335 12:48 09.01.2022
4402 Clouds 3 1014 89 1991 3.01 336 11:48 09.01.2022
4403 Clouds 2 1015 89 1761 2.47 332 10:49 09.01.2022
4404 Clouds 2 1015 93 5087 2.21 328 09:42 09.01.2022
4405 Clouds 2 1016 97 704 1.77 322 08:31 09.01.2022
4406 Clouds 0 1013 77 1932 2.51 330 02:48 09.01.2022
4407 Clouds -1 1014 71 417 2.42 350 01:21 09.01.2022
4408 Clouds 1 1018 94 10000 2.31 11 23:38 08.01.2022
4409 Clouds -2 1015 66 10000 2.38 7 22:59 08.01.2022
4410 Clouds -2 1015 67 10000 2.39 17 21:33 08.01.2022
4411 Clouds 1 1021 75 10000 3.17 16 20:45 08.01.2022
4412 Clouds 1 1023 79 10000 3.01 18 20:24 08.01.2022
4413 Clouds 1 1023 80 10000 3 18 19:58 08.01.2022
4414 Clouds 5 1023 89 10000 2.53 6 17:51 08.01.2022
4415 Clouds 5 1021 89 10000 1.21 345 17:21 08.01.2022
4416 Clouds 6 1021 79 10000 1.59 343 15:47 08.01.2022
4417 Clouds 6 1021 76 10000 2.01 343 14:41 08.01.2022
4418 Clouds 4 1023 77 10000 1.86 335 12:44 08.01.2022
4419 Clouds 2 1025 85 10000 2.33 346 10:59 08.01.2022
4420 Clouds 1 1025 89 10000 2.53 353 10:24 08.01.2022
4421 Clouds 0 1025 89 10000 2.53 353 09:43 08.01.2022
4422 Clouds 0 1026 93 10000 3.34 1 07:18 08.01.2022
4423 Clouds 0 1028 91 10000 4.15 359 02:33 08.01.2022
4424 Clouds 0 1029 92 10000 3.73 360 00:40 08.01.2022
4425 Clouds 0 1030 92 10000 3.28 2 22:40 07.01.2022
4426 Clouds 0 1031 92 10000 3.44 11 20:56 07.01.2022
4427 Clouds -1 1031 92 10000 3.4 10 19:56 07.01.2022
4428 Snow 2 1027 91 10000 3.13 358 18:54 07.01.2022
4429 Snow 2 1027 91 10000 3.13 358 18:34 07.01.2022
4430 Clouds 0 1023 74 10000 0.89 282 17:25 07.01.2022
4431 Clouds 2 1022 59 9728 2.24 252 16:23 07.01.2022
4432 Clouds 3 1023 77 10000 3.14 1 13:53 07.01.2022
4433 Clear 2 1023 74 10000 3.06 1 13:19 07.01.2022
4434 Clear 1 1023 76 10000 2.91 348 12:35 07.01.2022
4435 Clear -6 1028 55 10000 4.2 17 07:31 07.01.2022
4436 Clouds -2 1026 56 10000 3.85 20 02:54 07.01.2022
4437 Clouds -2 1026 56 10000 3.84 20 01:52 07.01.2022
4438 Clouds -3 1026 56 10000 3.92 21 01:27 07.01.2022
4439 Clouds -2 1027 56 10000 4.01 20 00:55 07.01.2022
4440 Clouds -4 1027 56 10000 3.92 21 22:42 06.01.2022
4441 Clear -3 1027 57 10000 3.89 22 21:22 06.01.2022
4442 Clear -3 1026 60 10000 3.98 20 20:19 06.01.2022
4443 Clear -4 1026 60 10000 3.98 20 19:40 06.01.2022
4444 Clear -2 1026 80 10000 4.33 20 17:52 06.01.2022
4445 Clear -2 1026 80 10000 4.33 20 17:31 06.01.2022
4446 Clear 2 1023 80 10000 4.05 17 16:39 06.01.2022
4447 Clear 3 1020 73 10000 3.54 14 15:45 06.01.2022
4448 Clear 3 1019 64 10000 3.44 6 15:23 06.01.2022
4449 Clear 4 1018 59 10000 3.36 6 14:20 06.01.2022
4450 Clear 4 1018 59 10000 3.36 6 13:44 06.01.2022
4451 Clear 3 1019 59 10000 3.56 9 12:32 06.01.2022
4452 Clear 1 1020 60 10000 3.56 11 11:41 06.01.2022
4453 Clear -1 1021 66 10000 3.68 17 11:19 06.01.2022
4454 Clouds -6 1025 78 10000 4.35 16 08:31 06.01.2022
4455 Clouds -4 1023 91 10000 4.53 13 00:39 06.01.2022
4456 Clouds -4 1022 91 10000 4.43 10 23:35 05.01.2022
4457 Clouds -4 1022 91 10000 4.44 11 23:35 05.01.2022
4458 Clouds -3 1022 91 10000 4.45 9 22:50 05.01.2022
4459 Clouds -3 1022 91 10000 4.29 9 22:29 05.01.2022
4460 Clouds -3 1022 91 10000 4.29 9 21:44 05.01.2022
4461 Clouds -3 1022 90 10000 4.25 10 20:44 05.01.2022
4462 Clouds -3 1021 91 10000 3.83 10 19:46 05.01.2022
4463 Clouds -1 1017 91 10000 3.42 10 18:27 05.01.2022
4464 Clouds 0 1016 86 10000 3.32 6 16:59 05.01.2022
4465 Clouds 1 1015 81 10000 3.37 0 16:22 05.01.2022
4466 Clouds 1 1015 76 10000 3.38 357 15:20 05.01.2022
4467 Clouds 3 1015 74 10000 3.55 358 13:37 05.01.2022
4468 Clouds 3 1016 73 10000 3.94 358 12:46 05.01.2022
4469 Snow 0 1015 90 10000 4.82 3 08:47 05.01.2022
4470 Rain 1 1013 90 9662 4.63 1 07:20 05.01.2022
4471 Clouds 4 1011 93 1091 3.17 11 01:58 05.01.2022
4472 Clouds 4 1009 96 87 3.09 5 23:44 04.01.2022
4473 Clouds 4 1009 97 10000 2.33 8 23:26 04.01.2022
4474 Clouds 6 1009 97 10000 0.67 354 22:19 04.01.2022
4475 Clouds 8 1010 98 10000 0.71 348 20:46 04.01.2022
4476 Clouds 8 1010 93 10000 0.61 31 18:44 04.01.2022
4477 Clouds 7 1009 91 10000 0.35 122 17:34 04.01.2022
4478 Clouds 9 1008 86 10000 1.19 206 16:39 04.01.2022
4479 Clouds 12 1008 77 10000 2.13 217 16:20 04.01.2022
4480 Clouds 9 1010 53 10000 2.6 220 14:42 04.01.2022
4481 Clouds 13 1009 73 10000 2.84 224 14:23 04.01.2022
4482 Clouds 12 1011 77 10000 2.75 223 12:37 04.01.2022
4483 Clouds 1 1014 80 10000 1.05 205 10:28 04.01.2022
4484 Clouds -2 1014 80 10000 0.44 60 08:59 04.01.2022
4485 Clouds -2 1015 80 10000 0.36 203 06:46 04.01.2022
4486 Clouds -1 1019 78 10000 0.25 207 00:44 04.01.2022
4487 Clouds 0 1020 79 10000 0.16 71 23:56 03.01.2022
4488 Clouds 0 1020 77 10000 0.45 34 22:30 03.01.2022
4489 Clouds 1 1021 76 10000 0.41 23 21:41 03.01.2022
4490 Clouds 1 1021 76 10000 0.7 28 20:42 03.01.2022
4491 Clouds 3 1021 73 10000 0.72 33 19:43 03.01.2022
4492 Clouds 8 1022 85 10000 0.55 51 18:32 03.01.2022
4493 Clouds 10 1022 85 10000 0.32 55 17:34 03.01.2022
4494 Clouds 11 1021 78 10000 0.88 223 16:56 03.01.2022
4495 Clouds 9 1022 56 10000 0.45 203 14:33 03.01.2022
4496 Clouds 11 1023 68 10000 1.77 218 13:25 03.01.2022
4497 Clouds 6 1025 64 10000 1.54 216 12:22 03.01.2022
4498 Clouds 4 1025 68 10000 1.54 216 11:30 03.01.2022
4499 Clouds 1 1026 76 10000 0.05 329 09:41 03.01.2022
4500 Clouds 1 1026 75 10000 0.26 86 07:55 03.01.2022
4501 Clouds -1 1027 70 10000 0.45 69 04:23 03.01.2022
4502 Clouds 0 1029 65 10000 1.25 15 23:32 02.01.2022
4503 Clouds 1 1029 63 10000 1.07 43 22:56 02.01.2022
4504 Clouds 1 1028 61 10000 1.04 44 22:20 02.01.2022
4505 Clouds 5 1030 55 10000 1.42 44 20:52 02.01.2022
4506 Clouds 2 1028 60 10000 1.59 21 20:30 02.01.2022
4507 Clouds 3 1028 58 10000 1.6 22 19:32 02.01.2022
4508 Clouds 5 1028 59 10000 1.25 41 18:56 02.01.2022
4509 Clouds 8 1028 55 10000 0.75 53 18:23 02.01.2022
4510 Clouds 8 1028 55 10000 0.75 53 17:42 02.01.2022
4511 Clouds 10 1027 54 10000 0.49 187 17:21 02.01.2022
4512 Clouds 12 1027 51 10000 1.16 222 16:28 02.01.2022
4513 Clouds 12 1026 48 10000 1.41 226 15:18 02.01.2022
4514 Clouds 8 1028 48 10000 1.87 212 13:38 02.01.2022
4515 Clouds 6 1029 50 10000 0.35 164 12:32 02.01.2022
4516 Clouds 13 1028 47 10000 0.38 163 11:49 02.01.2022
4517 Clouds 9 1029 47 10000 0.53 24 10:54 02.01.2022
4518 Clouds 0 1030 58 10000 1.15 36 09:58 02.01.2022
4519 Clouds 0 1030 57 10000 1.45 37 07:35 02.01.2022
4520 Clouds 5 1030 40 10000 1.31 37 02:56 02.01.2022
4521 Clouds 5 1030 40 10000 1.42 36 23:45 01.01.2022
4522 Clouds 5 1030 40 10000 1.44 39 23:24 01.01.2022
4523 Clouds 6 1030 41 10000 1.3 35 22:25 01.01.2022
4524 Clouds 6 1030 41 10000 1.3 35 21:46 01.01.2022
4525 Clouds 6 1030 41 10000 1.47 40 21:28 01.01.2022
4526 Clouds 5 1030 43 10000 1.54 35 20:25 01.01.2022
4527 Clouds 5 1030 43 10000 1.54 35 19:36 01.01.2022
4528 Clouds 7 1029 45 10000 1.5 37 18:51 01.01.2022
4529 Clouds 10 1029 48 10000 1.28 44 17:38 01.01.2022
4530 Clouds 12 1028 50 10000 0.14 141 16:34 01.01.2022
4531 Clouds 14 1027 48 10000 1.05 213 15:37 01.01.2022
4532 Clouds 14 1027 44 10000 1.54 221 14:25 01.01.2022
4533 Clouds 13 1027 44 10000 1.54 221 13:41 01.01.2022
4534 Clouds 16 1028 41 10000 0.65 239 12:25 01.01.2022
4535 Clouds 14 1028 40 10000 0.34 356 11:25 01.01.2022
4536 Clouds 13 1028 40 10000 0.34 356 10:56 01.01.2022
4537 Clouds 8 1029 38 10000 1.51 20 09:48 01.01.2022
4538 Clouds -1 1030 59 10000 1.92 22 08:35 01.01.2022
4539 Clouds -1 1030 61 10000 0.45 48 07:56 01.01.2022
4540 Clouds -1 1030 60 10000 1.83 21 07:37 01.01.2022
4541 Clouds -1 1030 60 10000 1.83 21 07:37 01.01.2022
4542 Clear -1 1030 62 10000 0.45 0 06:43 01.01.2022
4543 Clear 0 1031 61 10000 1.34 25 04:39 01.01.2022
4544 Clear 0 1031 60 10000 1.12 29 03:50 01.01.2022
4545 Clear 0 1031 60 10000 0.79 49 23:53 31.12.2021
4546 Clear 1 1031 59 10000 1.02 54 21:56 31.12.2021
4547 Clear 1 1031 59 10000 1.02 54 21:32 31.12.2021
4548 Clear 6 1031 48 10000 1.05 53 19:43 31.12.2021
4549 Clear 10 1030 48 10000 1.26 52 18:47 31.12.2021
4550 Clear 11 1029 49 10000 1.49 50 17:49 31.12.2021
4551 Clear 11 1028 51 10000 0.56 94 17:22 31.12.2021
4552 Clear 12 1028 51 10000 0.56 94 16:51 31.12.2021
4553 Clear 14 1027 50 10000 0.8 176 16:18 31.12.2021
4554 Clear 15 1027 50 10000 0.8 177 15:42 31.12.2021
4555 Clear 15 1026 44 10000 1.18 205 15:20 31.12.2021
4556 Clear 14 1026 44 10000 1.18 205 14:37 31.12.2021
4557 Clear 8 1028 41 10000 0.45 147 13:45 31.12.2021
4558 Clouds 17 1027 42 10000 1.35 184 12:50 31.12.2021
4559 Clouds 16 1027 41 10000 0.97 161 12:19 31.12.2021
4560 Clouds 15 1027 41 10000 0.97 161 11:41 31.12.2021
4561 Clouds 16 1027 45 10000 0.91 80 10:48 31.12.2021
4562 Clouds 10 1028 42 10000 2.04 43 10:25 31.12.2021
4563 Clouds 1 1028 42 10000 2.04 43 09:34 31.12.2021
4564 Clouds 0 1029 57 10000 0.45 54 08:50 31.12.2021
4565 Clouds 1 1028 54 10000 2.69 34 07:49 31.12.2021
4566 Clear 0 1027 58 10000 2.78 24 01:38 31.12.2021
4567 Clouds 0 1027 59 10000 2.26 29 22:54 30.12.2021
4568 Clouds 1 1027 61 10000 2.36 32 22:27 30.12.2021
4569 Clouds 7 1026 30 10000 2.36 32 21:37 30.12.2021
4570 Clouds 6 1026 31 10000 2.37 34 20:58 30.12.2021
4571 Clouds 7 1026 31 10000 2.37 34 20:35 30.12.2021
4572 Clouds 7 1026 35 10000 2.4 32 19:50 30.12.2021
4573 Clouds 7 1026 42 10000 2.05 33 19:24 30.12.2021
4574 Clouds 6 1025 58 10000 1.7 42 18:26 30.12.2021
4575 Clouds 12 1024 52 10000 0.67 71 16:39 30.12.2021
4576 Clouds 13 1023 52 10000 0.6 172 15:53 30.12.2021
4577 Clouds 13 1023 48 10000 0.94 194 14:51 30.12.2021
4578 Clouds 12 1023 48 10000 0.94 194 14:31 30.12.2021
4579 Clouds 11 1023 45 10000 1.09 174 13:24 30.12.2021
4580 Clouds 7 1023 42 10000 0.69 49 11:35 30.12.2021
4581 Clouds 6 1024 37 10000 1.51 39 10:27 30.12.2021
4582 Clouds 0 1025 69 10000 2.04 37 09:27 30.12.2021
4583 Clouds 0 1025 71 10000 2.61 33 06:55 30.12.2021
4584 Clouds 6 1025 59 10000 2.78 28 04:42 30.12.2021
4585 Clouds 8 1026 77 10000 2.79 28 03:40 30.12.2021
4586 Clouds 8 1026 83 10000 3.22 22 01:56 30.12.2021
4587 Clouds 9 1026 84 10000 3.49 18 23:36 29.12.2021
4588 Clouds 7 1025 78 10000 3.3 14 22:32 29.12.2021
4589 Clouds 7 1025 77 10000 3.23 8 21:54 29.12.2021
4590 Clouds 10 1025 81 220 3.43 7 20:56 29.12.2021
4591 Clouds 10 1025 79 296 3.32 11 20:25 29.12.2021
4592 Clouds 11 1025 79 296 3.32 11 19:31 29.12.2021
4593 Clouds 10 1025 97 449 3.29 13 18:30 29.12.2021
4594 Clouds 11 1024 96 540 3.25 13 17:30 29.12.2021
4595 Clouds 10 1023 95 477 3.12 13 16:58 29.12.2021
4596 Clouds 10 1022 87 10000 2.7 9 16:19 29.12.2021
4597 Clouds 11 1022 80 10000 2.95 7 14:47 29.12.2021
4598 Clouds 4 1022 70 10000 3.07 11 12:50 29.12.2021
4599 Clouds 5 1022 73 10000 2.83 7 12:30 29.12.2021
4600 Clouds 10 1023 88 10000 3.44 10 10:53 29.12.2021
4601 Clouds 6 1023 95 10000 3.62 14 08:56 29.12.2021
4602 Clouds 6 1023 91 10000 3.71 15 06:49 29.12.2021
4603 Clouds 6 1023 88 10000 3.86 15 06:28 29.12.2021
4604 Clouds 5 1023 88 10000 3.86 15 05:50 29.12.2021
4605 Clouds 5 1023 93 10000 3.58 13 03:47 29.12.2021
4606 Clouds 2 1020 91 4265 0.45 63 00:28 29.12.2021
4607 Clouds 3 1019 91 4265 3.53 13 23:57 28.12.2021
4608 Clouds 3 1018 89 1988 3.34 13 22:56 28.12.2021
4609 Clouds 5 1019 90 1772 0.45 211 22:24 28.12.2021
4610 Clouds 4 1019 89 1772 0.45 94 21:54 28.12.2021
4611 Clouds 5 1019 94 1785 2.72 4 21:28 28.12.2021
4612 Clouds 9 1018 94 10000 2.41 353 19:52 28.12.2021
4613 Clouds 9 1017 94 10000 2.37 3 18:53 28.12.2021
4614 Clouds 10 1017 94 10000 2.06 2 18:24 28.12.2021
4615 Clouds 10 1016 93 10000 1.09 343 17:25 28.12.2021
4616 Clouds 11 1016 94 10000 1.18 337 15:53 28.12.2021
4617 Clouds 11 1015 92 10000 0.76 351 15:29 28.12.2021
4618 Clouds 10 1015 93 10000 0.76 351 14:54 28.12.2021
4619 Rain 10 1016 93 10000 1.37 334 14:22 28.12.2021
4620 Clouds 10 1016 91 10000 1.36 333 13:54 28.12.2021
4621 Rain 10 1016 92 10000 1.37 334 13:33 28.12.2021
4622 Clouds 10 1016 91 10000 1.22 318 12:55 28.12.2021
4623 Rain 10 1016 91 10000 1.49 334 12:18 28.12.2021
4624 Clouds 8 1015 95 10000 1.93 9 09:30 28.12.2021
4625 Clouds 1 1014 89 10000 2.76 14 07:33 28.12.2021
4626 Clouds 5 1013 90 10000 1.95 28 03:31 28.12.2021
4627 Clouds 1 1013 81 10000 1.81 358 23:37 27.12.2021
4628 Clouds 5 1014 86 10000 0.99 341 22:20 27.12.2021
4629 Clouds 0 1013 76 10000 0.99 341 21:30 27.12.2021
4630 Clouds 6 1013 85 10000 0.59 353 20:27 27.12.2021
4631 Clouds 6 1013 84 10000 0.59 353 19:47 27.12.2021
4632 Clouds 6 1014 93 10000 0.97 342 18:56 27.12.2021
4633 Clouds 8 1013 93 10000 0.48 348 17:50 27.12.2021
4634 Clouds 8 1011 69 10000 0.89 316 17:27 27.12.2021
4635 Clouds 8 1010 84 10000 1.06 322 15:53 27.12.2021
4636 Clouds 8 1009 83 10000 1.49 8 14:35 27.12.2021
4637 Clouds 7 1009 83 2138 1.9 326 13:59 27.12.2021
4638 Clouds 7 1009 80 1846 2.1 344 12:49 27.12.2021
4639 Clouds 5 1007 90 10000 1.15 344 10:37 27.12.2021
4640 Clouds 5 1007 90 968 1.15 350 10:18 27.12.2021
4641 Clouds 4 1007 88 2309 2.5 298 08:41 27.12.2021
4642 Clouds 0 1006 85 2481 0.68 266 07:33 27.12.2021
4643 Clouds 4 1010 89 5401 0.99 290 02:29 27.12.2021
4644 Clouds 5 1011 86 10000 1.02 221 00:29 27.12.2021
4645 Clouds 4 1011 86 10000 1.02 221 23:42 26.12.2021
4646 Clouds 5 1011 87 10000 0.76 182 22:49 26.12.2021
4647 Clouds 5 1011 84 10000 1.44 197 21:33 26.12.2021
4648 Clouds 5 1012 81 10000 1.12 168 19:54 26.12.2021
4649 Clouds 6 1011 78 10000 0.95 170 18:29 26.12.2021
4650 Clouds 6 1011 76 10000 0.95 170 17:51 26.12.2021
4651 Clouds 8 1009 79 10000 0.57 251 15:31 26.12.2021
4652 Clouds 8 1009 72 10000 0.55 259 13:43 26.12.2021
4653 Clouds 8 1009 64 10000 1.98 230 13:21 26.12.2021
4654 Clouds 7 1009 65 10000 1.79 221 12:34 26.12.2021
4655 Clouds 7 1010 75 10000 0.53 339 11:18 26.12.2021
4656 Clouds 1 1010 85 10000 1.13 34 09:30 26.12.2021
4657 Clouds 2 1012 85 10000 1.98 28 08:44 26.12.2021
4658 Clouds 2 1012 86 10000 2.01 28 08:23 26.12.2021
4659 Clouds 2 1010 88 10000 2.28 31 01:36 26.12.2021
4660 Clouds 2 1010 91 10000 1.63 27 00:20 26.12.2021
4661 Clouds 3 1010 92 10000 1.19 22 23:28 25.12.2021
4662 Clouds 5 1009 89 10000 0.62 23 22:29 25.12.2021
4663 Clouds 6 1009 92 10000 0.78 329 21:25 25.12.2021
4664 Clouds 6 1008 90 10000 0.54 251 19:28 25.12.2021
4665 Clouds 6 1008 89 10000 0.21 286 18:57 25.12.2021
4666 Clouds 6 1008 90 10000 0.4 295 18:26 25.12.2021
4667 Clouds 7 1007 86 10000 1.16 243 16:49 25.12.2021
4668 Clouds 8 1006 84 10000 1.14 254 15:30 25.12.2021
4669 Clouds 5 1005 76 10000 2.29 222 13:47 25.12.2021
4670 Clouds 4 1006 79 10000 1.81 227 12:19 25.12.2021
4671 Clouds 4 1008 90 10000 1.41 234 10:36 25.12.2021
4672 Clouds 1 1007 87 10000 0.94 257 09:48 25.12.2021
4673 Clouds 0 1007 88 10000 1.33 256 07:21 25.12.2021
4674 Clouds 6 1008 89 545 1.2 215 01:33 25.12.2021
4675 Clouds 6 1009 86 586 1.18 220 00:18 25.12.2021
4676 Rain 6 1010 85 10000 1.29 218 21:46 24.12.2021
4677 Clouds 3 1009 81 3291 1.14 210 19:26 24.12.2021
4678 Clouds 4 1009 79 2682 1.05 213 18:34 24.12.2021
4679 Clouds 9 1011 76 10000 1.9 221 16:40 24.12.2021
4680 Clouds 8 1010 94 986 2.3 215 15:49 24.12.2021
4681 Clouds 9 1011 72 824 2.5 211 15:20 24.12.2021
4682 Clouds 9 1011 73 803 2.5 211 14:31 24.12.2021
4683 Clouds 8 1011 71 1266 2.66 218 13:45 24.12.2021
4684 Clouds 8 1012 77 804 2.95 219 12:55 24.12.2021
4685 Clouds 7 1012 78 762 3.12 216 12:35 24.12.2021
4686 Clouds 6 1013 83 406 2.45 217 11:42 24.12.2021
4687 Clouds 3 1014 80 424 2.33 212 11:19 24.12.2021
4688 Clouds 2 1015 83 424 2.33 212 10:33 24.12.2021
4689 Clouds 1 1015 85 780 0.97 206 08:40 24.12.2021
4690 Clouds 0 1014 86 1066 0.59 194 07:58 24.12.2021
4691 Clouds 0 1015 85 4150 0.41 260 06:44 24.12.2021
4692 Clouds 1 1017 86 3197 0.9 207 00:21 24.12.2021
4693 Clouds 1 1017 86 3197 0.45 0 23:39 23.12.2021
4694 Clouds 4 1019 88 3225 0.79 201 22:50 23.12.2021
4695 Clouds 1 1018 84 2462 1.22 225 22:22 23.12.2021
4696 Clouds 5 1019 87 2462 1.22 225 21:39 23.12.2021
4697 Clouds 5 1019 86 8261 0.89 222 20:27 23.12.2021
4698 Clouds 3 1018 82 9654 1.18 227 19:28 23.12.2021
4699 Clouds 7 1019 83 10000 0.49 231 18:18 23.12.2021
4700 Clouds 8 1018 80 2851 0.49 226 17:29 23.12.2021
4701 Clouds 10 1018 71 2222 0.58 214 16:26 23.12.2021
4702 Clouds 10 1018 67 2222 0.58 214 15:33 23.12.2021
4703 Clouds 10 1018 67 308 0.84 224 14:59 23.12.2021
4704 Clouds 10 1018 67 308 0.84 224 14:39 23.12.2021
4705 Clouds 6 1018 68 238 1.96 220 13:25 23.12.2021
4706 Clouds 3 1020 79 463 1.63 215 11:27 23.12.2021
4707 Clouds -1 1020 86 1704 1.26 219 09:53 23.12.2021
4708 Clouds -1 1020 85 1704 1.26 219 09:33 23.12.2021
4709 Clouds -1 1020 88 1872 0.86 211 08:28 23.12.2021
4710 Clouds -1 1020 85 3849 0.34 200 05:30 23.12.2021
4711 Clear 0 1021 81 10000 0.45 71 00:40 23.12.2021
4712 Clear -2 1021 79 10000 1.16 38 22:50 22.12.2021
4713 Clear -2 1021 79 10000 1.28 35 21:59 22.12.2021
4714 Clear -2 1021 79 10000 1.28 35 21:30 22.12.2021
4715 Clear -1 1021 77 10000 1.25 36 20:59 22.12.2021
4716 Clear 3 1024 82 10000 1.33 37 20:40 22.12.2021
4717 Clear 3 1024 82 10000 1.3 36 19:50 22.12.2021
4718 Clouds 5 1022 92 10000 1.15 24 18:25 22.12.2021
4719 Clouds 6 1022 92 10000 1.13 23 17:38 22.12.2021
4720 Clouds 9 1019 92 139 0.61 7 15:56 22.12.2021
4721 Clouds 11 1018 51 59 0.49 280 14:23 22.12.2021
4722 Clear 10 1018 53 220 0.66 242 12:53 22.12.2021
4723 Clear 9 1019 57 3600 0.46 320 11:39 22.12.2021
4724 Clear -3 1020 78 10000 1.31 24 09:52 22.12.2021
4725 Clear -2 1019 74 10000 2.11 30 07:56 22.12.2021
4726 Clouds -1 1019 71 10000 2.32 32 05:51 22.12.2021
4727 Clouds -1 1019 70 10000 2.32 32 05:33 22.12.2021
4728 Clouds -1 1019 71 10000 2.2 33 04:55 22.12.2021
4729 Clouds -1 1019 72 10000 2.2 33 04:35 22.12.2021
4730 Clouds -1 1019 71 10000 2.01 30 03:34 22.12.2021
4731 Clouds 0 1019 68 10000 0.45 69 02:25 22.12.2021
4732 Clouds 0 1019 66 10000 2.05 37 23:47 21.12.2021
4733 Clouds 2 1023 84 10000 2.1 33 22:29 21.12.2021
4734 Clouds 4 1023 56 10000 2.1 33 21:53 21.12.2021
4735 Clouds 2 1023 84 10000 2.1 33 21:31 21.12.2021
4736 Clouds 0 1019 61 10000 2.02 29 20:24 21.12.2021
4737 Clouds 0 1019 61 10000 2.02 29 19:52 21.12.2021
4738 Clouds 5 1023 50 10000 2.02 29 19:31 21.12.2021
4739 Clouds 2 1018 56 10000 1.87 26 18:23 21.12.2021
4740 Clouds 6 1021 47 10000 1.87 26 17:52 21.12.2021
4741 Clouds 8 1020 46 8741 1.76 23 16:47 21.12.2021
4742 Clouds 9 1019 95 147 1.48 17 15:33 21.12.2021
4743 Clouds 10 1017 35 172 1 8 13:51 21.12.2021
4744 Clouds 10 1017 33 172 1 8 13:32 21.12.2021
4745 Clouds 9 1018 38 3435 1.19 18 12:20 21.12.2021
4746 Clouds 7 1019 87 10000 1.81 24 10:37 21.12.2021
4747 Clouds 4 1020 43 10000 2.34 27 09:35 21.12.2021
4748 Clouds -3 1019 59 10000 0.45 63 08:30 21.12.2021
4749 Clouds -3 1019 56 10000 3.2 27 07:32 21.12.2021
4750 Clouds -3 1019 55 10000 0.45 92 06:54 21.12.2021
4751 Clouds -2 1019 55 10000 2.74 26 03:22 21.12.2021
4752 Clouds -5 1019 63 10000 2.96 27 01:18 21.12.2021
4753 Clouds -4 1019 61 10000 2.91 26 23:34 20.12.2021
4754 Clouds -4 1019 64 10000 0.45 0 22:34 20.12.2021
4755 Clouds -4 1019 65 10000 2.98 20 21:48 20.12.2021
4756 Clouds -3 1019 65 10000 2.82 29 21:24 20.12.2021
4757 Clouds -3 1019 65 10000 2.82 29 20:48 20.12.2021
4758 Clouds 0 1023 69 10000 3.23 28 19:55 20.12.2021
4759 Clouds 1 1023 69 10000 3.23 28 19:32 20.12.2021
4760 Clouds 1 1023 69 10000 3.2 23 18:55 20.12.2021
4761 Clear 4 1023 72 10000 3.37 24 17:56 20.12.2021
4762 Clear 4 1023 72 10000 3.37 24 17:37 20.12.2021
4763 Clear 6 1021 76 10000 2.93 21 16:43 20.12.2021
4764 Clear 7 1019 82 10000 2.16 9 15:52 20.12.2021
4765 Clear 10 1018 37 10000 1.65 355 14:56 20.12.2021
4766 Clear 8 1018 42 10000 1.69 13 13:18 20.12.2021
4767 Clear 8 1020 47 10000 2.05 14 11:23 20.12.2021
4768 Clear -3 1020 65 10000 0.45 0 09:51 20.12.2021
4769 Clear -4 1020 65 10000 2.52 20 09:31 20.12.2021
4770 Clear -4 1020 65 10000 3.05 23 08:42 20.12.2021
4771 Clear -3 1020 65 10000 3.06 24 07:55 20.12.2021
4772 Clear -3 1020 65 10000 3.06 24 07:30 20.12.2021
4773 Clear -3 1020 62 10000 2.9 22 04:36 20.12.2021
4774 Clear -4 1022 65 10000 2.15 23 23:59 19.12.2021
4775 Clear -4 1022 64 10000 2.19 26 22:52 19.12.2021
4776 Clear -4 1022 65 10000 0.45 62 21:50 19.12.2021
4777 Clear -1 1027 65 10000 2.21 27 21:30 19.12.2021
4778 Clear 0 1027 64 10000 2.28 29 20:32 19.12.2021
4779 Clear 0 1028 64 10000 2.3 30 19:51 19.12.2021
4780 Clouds 1 1028 63 10000 2.48 29 19:27 19.12.2021
4781 Clouds 2 1028 66 10000 2.55 29 18:29 19.12.2021
4782 Clouds 4 1028 66 10000 2.55 29 17:53 19.12.2021
4783 Clouds 5 1026 74 10000 1.8 25 17:19 19.12.2021
4784 Clouds 8 1024 34 10000 0.71 18 16:26 19.12.2021
4785 Clouds 8 1024 34 10000 0.71 18 16:26 19.12.2021
4786 Clouds 8 1024 81 10000 0.8 18 15:42 19.12.2021
4787 Clouds 9 1023 34 3687 0.68 5 15:20 19.12.2021
4788 Clouds 9 1023 36 3687 0.68 5 14:41 19.12.2021
4789 Clear 8 1025 37 2065 0.48 343 13:22 19.12.2021
4790 Clear 7 1025 39 2065 0.48 343 12:36 19.12.2021
4791 Clear 6 1026 42 6846 0.51 355 12:18 19.12.2021
4792 Clear 3 1027 46 10000 0.67 18 11:18 19.12.2021
4793 Clear -3 1027 62 10000 0.45 94 10:25 19.12.2021
4794 Clear -4 1026 61 10000 1.4 26 09:37 19.12.2021
4795 Clear -4 1027 64 10000 2.38 30 07:50 19.12.2021
4796 Clear 1 1033 69 10000 2.13 29 04:45 19.12.2021
4797 Clear 1 1035 70 10000 1.83 37 01:19 19.12.2021
4798 Clear -5 1030 72 10000 1.83 37 00:52 19.12.2021
4799 Clear 0 1035 73 10000 1.83 42 22:36 18.12.2021
4800 Clear 0 1035 75 10000 1.84 44 21:54 18.12.2021
4801 Clear 0 1035 75 10000 1.84 44 21:35 18.12.2021
4802 Clear 1 1034 79 10000 2 42 20:44 18.12.2021
4803 Clear 2 1034 83 10000 1.93 40 19:54 18.12.2021
4804 Clouds 2 1034 83 10000 1.83 43 19:20 18.12.2021
4805 Clouds 4 1033 81 10000 1.56 55 18:20 18.12.2021
4806 Clouds 5 1033 81 10000 1.56 55 17:47 18.12.2021
4807 Clouds 9 1029 84 10000 0.84 104 16:25 18.12.2021
4808 Clouds 9 1029 85 7663 0.95 96 15:26 18.12.2021
4809 Clouds 8 1029 85 7663 0.95 96 14:32 18.12.2021
4810 Clouds 8 1029 49 702 1 85 13:18 18.12.2021
4811 Clear 6 1029 55 10000 0.85 82 11:21 18.12.2021
4812 Clear -2 1030 78 10000 1.73 54 09:37 18.12.2021
4813 Clear -3 1028 71 10000 2.47 39 08:43 18.12.2021
4814 Clear -3 1028 73 10000 2.85 38 08:19 18.12.2021
4815 Clear -4 1028 75 10000 1.94 33 01:48 18.12.2021
4816 Clear -1 1029 69 10000 1.82 37 00:27 18.12.2021
4817 Clear -3 1029 74 10000 1.82 37 23:37 17.12.2021
4818 Clear 2 1033 80 10000 1.88 41 21:55 17.12.2021
4819 Clear 1 1033 81 10000 1.79 43 20:51 17.12.2021
4820 Clear 2 1033 82 10000 1.9 42 20:28 17.12.2021
4821 Clouds 3 1032 81 10000 1.93 45 18:58 17.12.2021
4822 Clouds 4 1032 80 10000 1.99 45 18:38 17.12.2021
4823 Clouds 7 1030 81 10000 1.17 78 17:26 17.12.2021
4824 Clouds 9 1029 85 10000 0.72 102 16:29 17.12.2021
4825 Clouds 9 1029 85 10000 0.72 102 15:51 17.12.2021
4826 Clouds 10 1028 87 3430 0.54 115 15:19 17.12.2021
4827 Clouds 8 1028 87 3430 0.54 115 14:34 17.12.2021
4828 Clouds 8 1029 46 769 0.77 129 12:45 17.12.2021
4829 Clear 3 1030 58 10000 1 121 11:18 17.12.2021
4830 Clear -2 1030 66 10000 1.18 80 09:52 17.12.2021
4831 Clear -4 1029 74 10000 1.74 50 08:58 17.12.2021
4832 Clear 0 1034 71 10000 1.91 45 08:19 17.12.2021
4833 Clear 0 1033 65 10000 1.94 36 05:21 17.12.2021
4834 Clear -2 1029 70 10000 2.53 37 02:51 17.12.2021
4835 Clear -2 1029 70 10000 2.92 32 22:50 16.12.2021
4836 Clear -2 1029 69 10000 2.97 32 22:22 16.12.2021
4837 Clear 1 1032 68 10000 2.97 32 21:44 16.12.2021
4838 Clear 2 1032 68 10000 3.07 31 20:48 16.12.2021
4839 Clear 2 1032 68 10000 2.98 30 20:21 16.12.2021
4840 Clear 3 1032 68 10000 2.98 30 19:30 16.12.2021
4841 Clouds 4 1031 67 10000 2.91 28 18:33 16.12.2021
4842 Clouds 7 1031 68 10000 2.95 27 17:46 16.12.2021
4843 Clouds 10 1028 81 10000 1.74 31 16:24 16.12.2021
4844 Clouds 11 1028 81 10000 1.74 31 15:50 16.12.2021
4845 Clouds 9 1029 85 784 1.57 31 13:46 16.12.2021
4846 Clouds 4 1029 48 2643 1.42 45 12:26 16.12.2021
4847 Clouds 1 1029 54 10000 1.82 41 11:19 16.12.2021
4848 Clouds 3 1030 52 10000 1.82 41 10:39 16.12.2021
4849 Clouds -1 1030 64 10000 2.16 37 09:43 16.12.2021
4850 Clouds 2 1032 68 10000 2.37 26 06:23 16.12.2021
4851 Clouds -4 1028 70 10000 2.25 27 04:33 16.12.2021
4852 Clear -2 1029 67 10000 2.39 32 23:47 15.12.2021
4853 Clear 2 1032 69 10000 2.54 31 22:49 15.12.2021
4854 Clear 2 1032 72 10000 2.74 32 22:21 15.12.2021
4855 Clear 2 1032 72 10000 2.74 32 21:31 15.12.2021
4856 Clear 3 1032 74 10000 2.89 31 20:41 15.12.2021
4857 Clear 4 1032 76 10000 3.07 32 19:53 15.12.2021
4858 Clouds 5 1031 74 10000 3.18 28 18:50 15.12.2021
4859 Clouds 5 1030 75 10000 3.37 27 18:18 15.12.2021
4860 Clouds 7 1030 75 10000 3.37 27 17:43 15.12.2021
4861 Clouds 10 1029 77 10000 3.27 25 16:59 15.12.2021
4862 Clouds 11 1027 81 10000 3.07 23 15:47 15.12.2021
4863 Clouds 14 1027 86 8310 3.09 19 15:29 15.12.2021
4864 Clouds 13 1027 86 7929 2.92 22 14:44 15.12.2021
4865 Clouds 10 1028 86 7431 3.02 21 13:27 15.12.2021
4866 Clouds 1 1027 56 10000 3.07 21 11:40 15.12.2021
4867 Clouds 1 1027 58 10000 3.32 23 09:38 15.12.2021
4868 Clouds -1 1027 64 10000 3.73 23 07:52 15.12.2021
4869 Clear -2 1027 60 10000 3.73 25 03:58 15.12.2021
4870 Clear -1 1028 57 10000 3.8 26 23:47 14.12.2021
4871 Clear -1 1028 59 10000 3.79 24 22:52 14.12.2021
4872 Clear -1 1028 59 10000 3.79 24 22:34 14.12.2021
4873 Clouds -1 1028 60 10000 0.89 71 21:25 14.12.2021
4874 Clouds 3 1031 70 10000 3.93 24 20:18 14.12.2021
4875 Clear 4 1031 69 10000 3.93 25 19:21 14.12.2021
4876 Clear 5 1030 69 10000 3.88 26 18:38 14.12.2021
4877 Clear 6 1030 68 10000 3.86 25 17:50 14.12.2021
4878 Clear 9 1028 70 10000 3.65 24 16:43 14.12.2021
4879 Clear 11 1027 77 10000 3.34 25 15:52 14.12.2021
4880 Clear 8 1027 83 9057 3.02 24 13:33 14.12.2021
4881 Clear 4 1027 43 9059 2.87 25 12:41 14.12.2021
4882 Clear 1 1028 48 10000 2.98 28 11:24 14.12.2021
4883 Clear 9 1029 37 10000 3.37 28 10:27 14.12.2021
4884 Clear 1 1028 49 10000 3.37 28 09:53 14.12.2021
4885 Clear -2 1028 61 10000 3.91 28 08:29 14.12.2021
4886 Clear -2 1027 63 10000 3.91 28 07:59 14.12.2021
4887 Clear -2 1027 66 10000 3.73 28 05:52 14.12.2021
4888 Clear 4 1029 58 10000 3.08 30 23:39 13.12.2021
4889 Clear 5 1029 58 10000 3.01 31 21:54 13.12.2021
4890 Clear 5 1029 58 10000 3.01 31 21:34 13.12.2021
4891 Clear 5 1029 58 10000 3.03 33 20:50 13.12.2021
4892 Clear 3 1029 58 10000 3.05 33 19:59 13.12.2021
4893 Clear 3 1028 59 10000 3.14 33 19:20 13.12.2021
4894 Clouds 7 1026 65 10000 2.9 29 17:26 13.12.2021
4895 Clouds 9 1025 75 10000 2.46 29 16:20 13.12.2021
4896 Clouds 10 1025 75 10000 2.49 29 15:38 13.12.2021
4897 Clouds 8 1025 86 7444 1.65 29 13:49 13.12.2021
4898 Clouds 3 1025 52 2851 1.51 29 13:18 13.12.2021
4899 Clouds 1 1026 58 7911 1.39 30 12:22 13.12.2021
4900 Clouds 0 1026 65 7911 1.39 30 11:36 13.12.2021
4901 Clouds 1 1027 63 10000 1.41 34 10:53 13.12.2021
4902 Clouds -1 1027 66 10000 1.64 36 10:21 13.12.2021
4903 Clouds -4 1026 74 10000 2.5 36 08:28 13.12.2021
4904 Clouds -4 1026 78 10000 2.87 34 05:37 13.12.2021
4905 Clouds 2 1028 61 10000 2.82 31 03:31 13.12.2021
4906 Clouds 3 1029 78 10000 2.15 26 23:27 12.12.2021
4907 Clouds 4 1029 80 10000 2.08 27 21:52 12.12.2021
4908 Clouds 4 1029 81 10000 2.04 29 20:45 12.12.2021
4909 Clouds 0 1027 84 10000 2.04 36 19:30 12.12.2021
4910 Clouds 7 1027 84 10000 2.36 37 17:46 12.12.2021
4911 Clouds 10 1026 94 814 2.3 35 16:28 12.12.2021
4912 Clouds 11 1026 94 814 2.3 35 15:51 12.12.2021
4913 Clouds 12 1025 93 65 2.54 32 15:26 12.12.2021
4914 Clouds 11 1025 93 65 2.54 32 14:37 12.12.2021
4915 Clouds 10 1025 92 41 2.59 28 13:34 12.12.2021
4916 Clouds 9 1025 94 43 2.6 28 12:32 12.12.2021
4917 Clouds 7 1026 94 149 2.73 24 11:44 12.12.2021
4918 Clouds 6 1026 95 7158 3.11 26 11:25 12.12.2021
4919 Clouds 2 1026 74 7158 3.11 26 10:32 12.12.2021
4920 Clouds 2 1025 75 10000 3.48 22 09:39 12.12.2021
4921 Clouds 1 1025 79 10000 4.06 21 08:34 12.12.2021
4922 Clouds 2 1028 95 10000 4.03 15 06:34 12.12.2021
4923 Clouds 3 1027 95 10000 4.08 10 05:22 12.12.2021
4924 Clouds 3 1027 95 10000 4.44 12 03:57 12.12.2021
4925 Clouds 2 1025 98 85 3.83 3 23:48 11.12.2021
4926 Rain 1 1025 96 1437 4.08 3 22:24 11.12.2021
4927 Clouds 2 1025 96 1437 4.08 3 21:52 11.12.2021
4928 Clouds 2 1025 95 2444 4.15 4 21:18 11.12.2021
4929 Clouds 2 1025 95 3098 4.34 6 19:37 11.12.2021
4930 Clouds 2 1024 94 7449 4.57 5 18:53 11.12.2021
4931 Clouds 2 1023 95 1484 4.23 6 18:26 11.12.2021
4932 Clouds 6 1022 95 2178 4.32 3 17:24 11.12.2021
4933 Clouds 7 1021 94 8155 4.46 2 15:55 11.12.2021
4934 Clouds 7 1021 94 8155 4.46 2 15:30 11.12.2021
4935 Clouds 7 1020 71 10000 5.28 360 12:59 11.12.2021
4936 Clouds 4 1020 77 4360 5.04 353 11:26 11.12.2021
4937 Clouds 3 1019 93 5429 5.41 354 09:47 11.12.2021
4938 Snow 1 1018 92 7995 6.06 358 08:28 11.12.2021
4939 Snow 0 1014 96 264 4.46 345 02:29 11.12.2021
4940 Snow -4 1012 90 295 3.63 347 00:40 11.12.2021
4941 Rain 1 1013 97 186 3.27 346 23:23 10.12.2021
4942 Clouds 2 1012 98 139 2.69 342 21:57 10.12.2021
4943 Rain 2 1012 98 139 2.69 342 21:31 10.12.2021
4944 Snow 2 1010 97 144 3.11 331 19:22 10.12.2021
4945 Clouds 2 1010 97 185 3.3 330 18:21 10.12.2021
4946 Rain 4 1009 97 201 2.93 326 16:56 10.12.2021
4947 Rain 5 1009 97 256 2.68 332 16:29 10.12.2021
4948 Clouds 5 1009 97 256 2.68 332 15:41 10.12.2021
4949 Clouds 6 1008 94 733 3.46 315 15:21 10.12.2021
4950 Rain 7 1007 92 6889 3.92 308 13:52 10.12.2021
4951 Clouds 6 1008 92 4930 4.12 305 13:26 10.12.2021
4952 Clouds 6 1008 95 831 3.46 306 12:45 10.12.2021
4953 Rain 3 1009 93 3315 4.32 308 11:29 10.12.2021
4954 Rain 2 1009 93 3315 4.32 308 10:37 10.12.2021
4955 Clouds 3 1008 92 4485 4.93 306 08:58 10.12.2021
4956 Clouds 2 1005 100 98 1.74 202 06:56 10.12.2021
4957 Clouds 3 1008 99 2035 1.69 340 02:48 10.12.2021
4958 Snow -5 1009 95 371 1.75 277 00:38 10.12.2021
4959 Snow 0 1012 99 234 0.93 335 23:23 09.12.2021
4960 Snow 0 1012 98 199 1.23 337 22:28 09.12.2021
4961 Clouds 0 1012 98 199 1.23 337 21:59 09.12.2021
4962 Snow 0 1013 98 242 1.5 346 21:18 09.12.2021
4963 Snow 0 1013 98 147 1.52 321 20:22 09.12.2021
4964 Snow 0 1014 97 213 1.57 4 19:21 09.12.2021
4965 Snow 0 1014 97 197 1.65 351 18:48 09.12.2021
4966 Snow -1 1014 97 285 1.62 350 17:56 09.12.2021
4967 Snow 0 1014 96 477 1.29 323 17:26 09.12.2021
4968 Snow 0 1014 96 477 1.29 323 16:55 09.12.2021
4969 Snow 1 1014 94 440 1.26 321 15:46 09.12.2021
4970 Rain 2 1014 90 811 1.01 311 14:48 09.12.2021
4971 Clouds 3 1015 88 1929 2.39 305 13:23 09.12.2021
4972 Clouds 2 1015 88 1929 2.39 305 12:40 09.12.2021
4973 Rain 2 1015 88 3491 1.88 323 11:24 09.12.2021
4974 Snow -2 1016 92 1174 1.86 309 09:44 09.12.2021
4975 Snow -2 1015 97 197 1.76 320 06:50 09.12.2021
4976 Snow -2 1014 97 328 1.92 322 03:41 09.12.2021
4977 Snow -2 1014 96 359 2.02 344 23:44 08.12.2021
4978 Snow -2 1014 96 221 2.42 343 23:21 08.12.2021
4979 Snow -2 1014 96 220 2.41 343 22:48 08.12.2021
4980 Snow -1 1015 94 4471 2.76 17 21:42 08.12.2021
4981 Snow -1 1013 94 10000 2.97 10 21:24 08.12.2021
4982 Snow 0 1012 94 3706 2.75 6 19:58 08.12.2021
4983 Snow 0 1012 94 3706 2.75 6 19:34 08.12.2021
4984 Clouds 0 1012 94 10000 3.14 9 18:45 08.12.2021
4985 Clouds 0 1010 95 10000 2.64 10 17:36 08.12.2021
4986 Clouds 0 1010 95 10000 2.64 10 17:36 08.12.2021
4987 Clouds 4 1006 89 10000 1.66 332 15:51 08.12.2021
4988 Clouds 5 1005 83 10000 1.97 328 15:28 08.12.2021
4989 Clouds 4 1005 83 10000 1.97 328 14:30 08.12.2021
4990 Clouds 3 1005 96 114 0.93 101 10:55 08.12.2021
4991 Rain 2 1005 96 114 0.93 101 10:31 08.12.2021
4992 Rain 2 1005 96 114 0.93 101 10:31 08.12.2021
4993 Rain 1 1006 98 196 0.71 90 08:55 08.12.2021
4994 Rain 2 1005 98 2629 1.15 312 07:25 08.12.2021
4995 Rain 0 1004 93 44 2.96 191 02:30 08.12.2021
4996 Snow 0 1007 87 55 1.81 199 23:33 07.12.2021
4997 Clouds 0 1008 81 395 2.46 209 21:40 07.12.2021
4998 Clouds 0 1009 79 421 0.45 0 21:18 07.12.2021
4999 Clouds 0 1009 79 411 0.45 40 20:19 07.12.2021
5000 Clouds 1 1010 74 797 1.45 224 18:42 07.12.2021
5001 Clouds 6 1013 98 1882 1.88 237 17:29 07.12.2021
5002 Clouds 6 1013 98 1882 1.88 237 16:58 07.12.2021
5003 Clouds 5 1014 94 10000 1.08 238 16:28 07.12.2021
5004 Clouds 6 1014 92 6760 2.66 230 14:57 07.12.2021
5005 Clouds 6 1015 90 7681 2.2 226 13:49 07.12.2021
5006 Clouds 1 1015 68 10000 2.7 214 12:47 07.12.2021
5007 Clouds 0 1017 67 10000 1.02 162 11:25 07.12.2021
5008 Clear -3 1018 74 10000 0.45 0 09:55 07.12.2021
5009 Clouds -4 1018 73 10000 2.6 30 07:55 07.12.2021
5010 Clouds 0 1024 76 10000 3.37 18 05:55 07.12.2021
5011 Clouds 0 1024 76 10000 3.37 18 05:30 07.12.2021
5012 Clouds 0 1022 93 10000 4.36 2 23:45 06.12.2021
5013 Clouds -1 1017 80 10000 4.16 358 22:44 06.12.2021
5014 Clouds 1 1017 78 10000 0.45 143 22:18 06.12.2021
5015 Clouds 1 1016 80 10000 0.45 32 21:37 06.12.2021
5016 Rain 1 1016 79 10000 0.45 102 20:33 06.12.2021
5017 Rain 1 1016 74 10000 3.86 347 19:27 06.12.2021
5018 Rain 2 1016 72 10000 0.45 0 18:57 06.12.2021
5019 Clouds 3 1020 95 10000 4.36 3 17:55 06.12.2021
5020 Clouds 6 1020 95 10000 4.36 3 17:34 06.12.2021
5021 Clouds 7 1020 79 10000 4.42 4 16:21 06.12.2021
5022 Clouds 8 1020 79 10000 4.52 0 14:51 06.12.2021
5023 Clouds 7 1020 40 10000 4.6 357 13:36 06.12.2021
5024 Clouds 5 1020 57 10000 4.47 359 12:39 06.12.2021
5025 Clouds 2 1021 64 10000 4.35 347 10:31 06.12.2021
5026 Snow 0 1020 89 10000 5.99 349 07:59 06.12.2021
5027 Snow 1 1017 96 203 3.47 319 03:52 06.12.2021
5028 Snow -1 1017 92 387 3.07 327 22:28 05.12.2021
5029 Snow -1 1017 92 195 2.5 332 21:26 05.12.2021
5030 Snow -1 1017 92 195 2.5 332 20:58 05.12.2021
5031 Snow -1 1017 92 226 1.98 317 20:18 05.12.2021
5032 Snow -1 1016 91 198 1.78 328 19:26 05.12.2021
5033 Snow -1 1016 82 318 1.91 339 18:37 05.12.2021
5034 Snow 0 1015 87 313 2.49 333 17:53 05.12.2021
5035 Snow 0 1015 87 313 2.49 333 17:34 05.12.2021
5036 Snow 0 1014 87 471 2.72 341 16:38 05.12.2021
5037 Snow 1 1013 87 651 3.47 336 16:19 05.12.2021
5038 Snow 2 1012 91 1635 3.56 339 14:48 05.12.2021
5039 Rain 2 1012 90 1635 3.56 339 14:30 05.12.2021
5040 Rain 2 1010 93 163 3.15 320 13:36 05.12.2021
5041 Rain 1 1010 85 1308 3.25 325 12:47 05.12.2021
5042 Snow 1 1011 93 1631 2.38 283 12:27 05.12.2021
5043 Snow 1 1011 93 1631 2.38 283 11:46 05.12.2021
5044 Snow 0 1011 90 214 2.21 346 10:43 05.12.2021
5045 Snow 0 1011 93 800 1.34 283 09:47 05.12.2021
5046 Snow -1 1013 96 800 1.46 6 06:31 05.12.2021
5047 Clouds 0 1018 89 10000 2.18 341 01:38 05.12.2021
5048 Clouds 1 1020 92 10000 3.25 10 23:22 04.12.2021
5049 Clouds 2 1019 94 10000 3.76 8 21:51 04.12.2021
5050 Clouds 3 1017 81 10000 3.98 3 20:47 04.12.2021
5051 Clouds 3 1017 95 3406 3.62 360 19:54 04.12.2021
5052 Clouds 4 1017 95 3406 3.62 360 19:30 04.12.2021
5053 Clouds 6 1015 97 10000 2.43 1 17:53 04.12.2021
5054 Clouds 6 1015 97 10000 2.43 1 17:35 04.12.2021
5055 Clouds 7 1015 97 444 3.16 356 16:47 04.12.2021
5056 Clouds 7 1014 96 10000 2.79 357 16:28 04.12.2021
5057 Clouds 7 1013 76 118 2.13 353 13:30 04.12.2021
5058 Clouds 5 1014 85 44 1.88 334 11:41 04.12.2021
5059 Clouds 4 1014 86 849 1.39 308 11:19 04.12.2021
5060 Clouds 2 1015 94 7158 1.36 352 09:57 04.12.2021
5061 Clouds 0 1017 96 10000 1.6 1 08:38 04.12.2021
5062 Clouds -2 1016 88 10000 2.21 31 05:18 04.12.2021
5063 Clouds 1 1019 95 10000 2.21 31 04:39 04.12.2021
5064 Clouds -1 1018 80 10000 2.51 22 23:48 03.12.2021
5065 Clouds 4 1022 94 10000 2.66 20 22:54 03.12.2021
5066 Clouds 3 1022 94 10000 2.93 21 21:58 03.12.2021
5067 Clouds 2 1022 95 10000 3.03 15 21:24 03.12.2021
5068 Clouds 2 1022 95 10000 3.03 15 20:42 03.12.2021
5069 Clouds 2 1022 96 9680 2.81 1 19:28 03.12.2021
5070 Clouds 2 1021 95 10000 3.25 6 18:24 03.12.2021
5071 Clouds 2 1021 95 10000 3.25 6 17:31 03.12.2021
5072 Clear 7 1018 74 10000 3.93 7 13:40 03.12.2021
5073 Clouds 6 1018 71 10000 4.58 3 12:44 03.12.2021
5074 Clouds 4 1020 68 10000 5.03 6 11:23 03.12.2021
5075 Clear -2 1023 70 10000 5.5 10 09:25 03.12.2021
5076 Clear -2 1023 78 10000 5.91 11 08:20 03.12.2021
5077 Clouds -2 1022 85 10000 5.85 7 06:44 03.12.2021
5078 Snow -1 1014 91 6719 6.94 348 00:50 03.12.2021
5079 Snow -2 1014 91 1117 6.01 344 00:21 03.12.2021
5080 Snow -2 1014 90 1122 6.02 344 23:38 02.12.2021
5081 Snow -2 1016 87 1724 3.61 344 21:41 02.12.2021
5082 Snow -1 1017 75 264 3.14 330 20:46 02.12.2021
5083 Snow -1 1017 70 210 2.46 348 20:26 02.12.2021
5084 Snow 0 1017 95 245 3.24 1 19:23 02.12.2021
5085 Rain 2 1011 77 581 3.87 343 17:21 02.12.2021
5086 Rain 4 1010 61 10000 3.51 338 15:41 02.12.2021
5087 Clouds 4 1010 61 10000 3.51 338 15:41 02.12.2021
5088 Clouds 4 1009 57 8538 3.52 336 14:57 02.12.2021
5089 Clouds 5 1009 81 10000 3.23 337 13:44 02.12.2021
5090 Clouds 4 1010 79 10000 2.78 338 12:50 02.12.2021
5091 Clouds 4 1010 57 10000 3.26 344 11:52 02.12.2021
5092 Snow -1 1010 88 10000 2.87 2 09:27 02.12.2021
5093 Snow 0 1010 95 1625 3.19 0 08:19 02.12.2021
5094 Clouds 1 1011 91 10000 2.69 20 01:38 02.12.2021
5095 Clouds 1 1012 92 10000 2.54 20 00:50 02.12.2021
5096 Clouds 2 1013 95 10000 2.57 18 22:33 01.12.2021
5097 Clouds 2 1012 95 10000 2.24 15 21:54 01.12.2021
5098 Clouds 4 1013 74 2653 2.05 21 20:24 01.12.2021
5099 Rain 4 1013 73 2653 2.05 21 19:47 01.12.2021
5100 Rain 4 1012 68 523 2.07 354 18:55 01.12.2021
5101 Snow 2 1010 66 62 0.45 0 17:32 01.12.2021
5102 Rain 5 1011 65 46 0.76 324 16:36 01.12.2021
5103 Clouds 6 1011 86 10000 0.69 324 14:39 01.12.2021
5104 Clouds 6 1012 83 10000 1.19 296 13:37 01.12.2021
5105 Clouds 4 1015 67 10000 0.2 29 11:26 01.12.2021
5106 Clouds 4 1015 68 10000 0.2 29 10:40 01.12.2021
5107 Clouds -6 1017 76 10000 2.46 25 08:53 01.12.2021
5108 Clouds -1 1021 84 10000 2.78 19 08:26 01.12.2021
5109 Clouds -1 1021 84 10000 2.78 19 07:31 01.12.2021
5110 Clouds -5 1020 76 10000 2.5 20 03:59 01.12.2021
5111 Clouds -6 1020 75 10000 2.51 21 03:28 01.12.2021
5112 Clouds -5 1022 76 10000 2.44 22 00:44 01.12.2021
5113 Clouds -4 1022 76 10000 2.54 22 23:33 30.11.2021
5114 Clouds -4 1023 76 10000 2.52 23 22:32 30.11.2021
5115 Clear 0 1028 76 10000 2.7 21 20:47 30.11.2021
5116 Clear 0 1028 80 10000 2.63 21 20:25 30.11.2021
5117 Clear 0 1028 80 10000 2.63 21 19:39 30.11.2021
5118 Clear 1 1028 86 10000 2.5 22 18:54 30.11.2021
5119 Clear 1 1027 89 10000 2.51 20 17:46 30.11.2021
5120 Clear 2 1022 56 10000 1.15 330 16:19 30.11.2021
5121 Clear 2 1022 53 10000 1.19 327 14:35 30.11.2021
5122 Clear 8 1022 73 10000 1.28 343 13:41 30.11.2021
5123 Clear 7 1023 72 10000 1.73 350 12:54 30.11.2021
5124 Clear 6 1023 71 10000 2.04 0 11:59 30.11.2021
5125 Clear 5 1024 72 10000 2.49 8 11:25 30.11.2021
5126 Clear 6 1024 52 10000 2.49 8 10:36 30.11.2021
5127 Clear -1 1028 81 10000 3.31 18 08:57 30.11.2021
5128 Clear -1 1028 81 10000 3.31 18 08:32 30.11.2021
5129 Clear -1 1028 83 10000 3.31 16 07:56 30.11.2021
5130 Clouds -1 1028 77 10000 3.6 17 06:37 30.11.2021
5131 Clouds -1 1026 93 10000 3.2 16 01:50 30.11.2021
5132 Clouds 0 1025 94 10000 3.09 10 01:27 30.11.2021
5133 Clouds 0 1025 95 10000 3.34 10 23:40 29.11.2021
5134 Clouds -1 1024 93 10000 3.6 3 23:18 29.11.2021
5135 Clouds -1 1024 93 10000 3.6 3 23:18 29.11.2021
5136 Clouds 0 1024 93 10000 3.6 3 22:38 29.11.2021
5137 Clouds 0 1023 94 10000 3.74 3 21:54 29.11.2021
5138 Clouds 0 1022 94 10000 3.91 4 21:20 29.11.2021
5139 Clouds 1 1022 94 10000 3.91 4 20:46 29.11.2021
5140 Clouds 1 1022 94 10000 3.81 5 19:59 29.11.2021
5141 Clouds 1 1022 94 10000 3.81 5 19:40 29.11.2021
5142 Clouds 1 1020 94 10000 3.96 4 18:59 29.11.2021
5143 Clouds 0 1020 93 10000 3.97 4 18:40 29.11.2021
5144 Clouds 1 1017 92 10000 3.92 356 17:21 29.11.2021
5145 Clouds 1 1017 92 10000 3.91 356 16:44 29.11.2021
5146 Clouds 3 1014 85 10000 4.26 354 16:22 29.11.2021
5147 Clear 4 1013 76 10000 4.36 346 14:45 29.11.2021
5148 Clear 3 1012 72 10000 4.74 348 13:52 29.11.2021
5149 Clouds 2 1013 75 10000 5.72 352 12:58 29.11.2021
5150 Clouds 2 1013 75 10000 5.82 347 12:19 29.11.2021
5151 Snow 1 1014 79 10000 5.53 346 11:22 29.11.2021
5152 Snow -3 1016 84 5490 4.4 351 09:58 29.11.2021
5153 Clouds -8 1017 79 10000 4.32 358 07:21 29.11.2021
5154 Clouds -7 1015 87 10000 4.83 357 05:48 29.11.2021
5155 Snow -3 1009 94 236 2.19 313 00:46 29.11.2021
5156 Snow -3 1009 94 166 1.94 301 23:47 28.11.2021
5157 Snow -3 1010 94 143 1.91 293 23:29 28.11.2021
5158 Snow -3 1010 93 160 1.86 301 21:53 28.11.2021
5159 Snow -3 1010 93 160 1.86 301 21:53 28.11.2021
5160 Snow -3 1010 93 160 1.86 301 21:34 28.11.2021
5161 Snow -3 1010 90 470 1.83 317 20:36 28.11.2021
5162 Snow -3 1009 89 434 2.02 311 19:29 28.11.2021
5163 Snow -2 1008 93 203 1.64 308 18:40 28.11.2021
5164 Rain 1 1008 91 288 1.81 322 17:57 28.11.2021
5165 Rain 1 1008 79 1121 2.04 333 17:32 28.11.2021
5166 Clouds 2 1008 79 1130 2.03 333 16:44 28.11.2021
5167 Clouds 2 1007 63 10000 2.83 341 16:26 28.11.2021
5168 Clouds 3 1007 63 10000 2.83 341 15:43 28.11.2021
5169 Clouds 4 1007 56 10000 3.52 336 14:50 28.11.2021
5170 Clouds 3 1007 52 10000 3.71 333 13:49 28.11.2021
5171 Clouds 4 1007 54 10000 3.75 328 12:54 28.11.2021
5172 Clouds 2 1007 63 8716 3.72 329 11:19 28.11.2021
5173 Snow -1 1008 65 10000 3.67 346 10:22 28.11.2021
5174 Snow -3 1008 65 10000 3.67 346 09:40 28.11.2021
5175 Snow -2 1008 84 10000 2.83 338 08:19 28.11.2021
5176 Clouds -2 1007 89 10000 2.53 336 00:39 28.11.2021
5177 Snow -1 1005 83 7293 2.27 329 21:40 27.11.2021
5178 Snow -2 1005 87 10000 2.4 336 19:49 27.11.2021
5179 Clouds 4 1004 89 5312 2.84 357 17:57 27.11.2021
5180 Clouds 5 1001 61 10000 2.85 344 15:59 27.11.2021
5181 Clouds 3 1000 64 10000 3.04 352 14:26 27.11.2021
5182 Clouds 0 1000 63 10000 2.91 347 12:58 27.11.2021
5183 Clouds -1 998 80 431 3.3 335 10:52 27.11.2021
5184 Clouds -4 997 81 2827 1.06 7 09:53 27.11.2021
5185 Clouds 3 998 78 10000 0.89 18 08:44 27.11.2021
5186 Rain 1 998 81 10000 0.32 325 06:34 27.11.2021
5187 Clouds 1 1003 69 10000 1.05 292 01:59 27.11.2021
5188 Clouds 0 1005 68 10000 1.5 13 23:39 26.11.2021
5189 Clouds -1 1008 75 10000 2.62 11 22:25 26.11.2021
5190 Clouds -1 1008 75 10000 2.62 11 21:38 26.11.2021
5191 Clouds -1 1008 87 10000 2.83 5 21:18 26.11.2021
5192 Clouds -1 1008 87 10000 2.83 5 20:30 26.11.2021
5193 Clouds -1 1008 87 10000 3.06 7 19:54 26.11.2021
5194 Clouds 0 1008 87 10000 3.22 6 18:43 26.11.2021
5195 Clouds 6 1007 80 10000 3.31 5 17:24 26.11.2021
5196 Clouds 6 1007 80 10000 3.31 5 17:24 26.11.2021
5197 Clouds 7 1007 73 10000 3.58 2 16:29 26.11.2021
5198 Clouds 5 1006 67 10000 3.18 351 13:37 26.11.2021
5199 Clouds 4 1006 70 10000 2.87 355 12:55 26.11.2021
5200 Clouds 1 1004 76 10000 3.09 357 10:42 26.11.2021
5201 Clouds 2 1009 80 10000 3.02 8 09:29 26.11.2021
5202 Clouds 2 1009 89 10000 3.03 8 08:47 26.11.2021
5203 Clouds 2 1010 94 10000 3.23 8 08:19 26.11.2021
5204 Clouds 2 1009 94 10000 3.39 5 06:29 26.11.2021
5205 Clouds 2 1009 94 10000 3.39 5 04:52 26.11.2021
5206 Clouds 2 1010 95 10000 3.34 9 03:28 26.11.2021
5207 Clouds 2 1009 91 10000 3.07 1 23:29 25.11.2021
5208 Clouds 2 1009 92 10000 2.97 4 21:58 25.11.2021
5209 Clouds 2 1009 91 10000 2.94 8 20:41 25.11.2021
5210 Clouds 3 1009 93 10000 3.04 13 18:50 25.11.2021
5211 Clouds 4 1009 93 10000 3.07 19 18:00 25.11.2021
5212 Clouds 5 1006 88 10000 2.63 11 17:26 25.11.2021
5213 Clouds 5 1006 88 10000 2.63 11 16:41 25.11.2021
5214 Clouds 5 1005 76 10000 2.51 9 15:58 25.11.2021
5215 Clouds 6 1004 69 4748 1.57 348 14:21 25.11.2021
5216 Clouds 4 1004 63 10000 0.66 321 12:48 25.11.2021
5217 Clouds 3 1005 65 10000 0.42 296 11:55 25.11.2021
5218 Clouds 2 1005 74 10000 0.86 39 10:25 25.11.2021
5219 Snow 1 1005 99 56 1.3 144 06:24 25.11.2021
5220 Clouds 2 1006 98 71 1.72 39 02:53 25.11.2021
5221 Clouds 3 1007 97 4844 1.41 66 23:39 24.11.2021
5222 Clouds 3 1008 97 4850 1.22 62 22:28 24.11.2021
5223 Clouds 4 1008 97 4850 1.22 62 21:45 24.11.2021
5224 Clouds 1 1005 90 10000 1.54 61 20:58 24.11.2021
5225 Clouds 1 1005 89 1035 1.41 57 20:26 24.11.2021
5226 Rain 4 1009 99 95 1.28 64 18:37 24.11.2021
5227 Clouds 4 1009 100 105 1.13 75 18:18 24.11.2021
5228 Clouds 5 1010 100 76 1.17 113 16:19 24.11.2021
5229 Clouds 6 1010 98 965 1.55 101 14:54 24.11.2021
5230 Clouds 6 1010 98 290 1.17 79 14:20 24.11.2021
5231 Clouds 5 1012 97 3617 1.26 72 12:50 24.11.2021
5232 Clouds 4 1015 97 495 0.49 0 11:22 24.11.2021
5233 Clouds 3 1015 97 495 0.49 0 10:50 24.11.2021
5234 Clouds 3 1015 97 1091 0.87 146 10:27 24.11.2021
5235 Clouds 2 1016 95 10000 2.05 71 07:56 24.11.2021
5236 Clouds 2 1017 96 9229 1.99 64 06:56 24.11.2021
5237 Clouds 2 1015 99 1136 1.5 109 03:57 24.11.2021
5238 Rain 4 1015 99 238 1.18 135 00:58 24.11.2021
5239 Rain 5 1016 100 357 2.02 170 22:59 23.11.2021
5240 Rain 5 1016 100 357 2.02 170 22:34 23.11.2021
5241 Clouds 5 1016 100 357 2.02 170 22:34 23.11.2021
5242 Clouds 5 1015 99 328 1.6 111 21:45 23.11.2021
5243 Rain 5 1015 99 413 1.62 114 20:21 23.11.2021
5244 Clouds 6 1014 98 406 1.89 96 18:44 23.11.2021
5245 Clouds 6 1014 99 549 2.27 123 18:24 23.11.2021
5246 Clouds 6 1014 98 716 2.27 110 17:23 23.11.2021
5247 Clouds 7 1014 98 716 2.27 110 16:34 23.11.2021
5248 Clouds 8 1013 86 4546 2.55 137 15:23 23.11.2021
5249 Clouds 8 1013 80 10000 2.59 131 14:32 23.11.2021
5250 Clouds 3 1013 63 10000 2.48 127 11:57 23.11.2021
5251 Clouds 2 1013 68 10000 1.92 132 10:24 23.11.2021
5252 Clouds 0 1013 76 8491 1.95 116 09:23 23.11.2021
5253 Clouds 0 1013 79 10000 0.45 35 07:28 23.11.2021
5254 Clouds 4 1016 95 10000 1.33 67 03:56 23.11.2021
5255 Clouds 4 1017 95 10000 1.33 75 02:58 23.11.2021
5256 Clouds 4 1018 96 10000 1.1 72 23:21 22.11.2021
5257 Clouds 4 1018 96 10000 1.12 72 22:53 22.11.2021
5258 Clouds 4 1017 95 10000 0.97 67 22:29 22.11.2021
5259 Clouds 4 1017 95 10000 0.97 67 21:43 22.11.2021
5260 Clouds 5 1017 96 8216 1.37 57 20:52 22.11.2021
5261 Clouds 5 1016 95 10000 0.76 72 19:58 22.11.2021
5262 Clouds 5 1015 93 10000 1.21 52 19:19 22.11.2021
5263 Clouds 6 1014 88 10000 0.35 76 18:40 22.11.2021
5264 Clouds 7 1013 89 10000 0.27 42 17:45 22.11.2021
5265 Clouds 7 1011 83 8368 0.97 222 16:22 22.11.2021
5266 Clouds 5 1009 68 4528 1.22 175 14:20 22.11.2021
5267 Clouds 3 1009 71 654 0.45 0 12:26 22.11.2021
5268 Clouds 5 1012 86 5176 0.44 142 10:43 22.11.2021
5269 Clouds 4 1011 85 10000 0.29 93 09:43 22.11.2021
5270 Clouds 1 1009 85 10000 0.83 66 08:40 22.11.2021
5271 Clouds 4 1010 97 150 0.67 73 06:22 22.11.2021
5272 Clouds 6 1011 97 38 0.57 27 23:30 21.11.2021
5273 Clouds 6 1011 97 49 0.92 10 22:50 21.11.2021
5274 Clouds 6 1012 95 3126 1.05 0 21:57 21.11.2021
5275 Clouds 6 1012 91 10000 1.06 0 20:42 21.11.2021
5276 Clouds 7 1012 90 10000 1.11 15 19:58 21.11.2021
5277 Clouds 7 1012 93 3672 1.45 24 18:25 21.11.2021
5278 Clouds 9 1012 93 3672 1.45 24 17:39 21.11.2021
5279 Clouds 10 1010 69 10000 0.83 351 15:53 21.11.2021
5280 Clouds 10 1010 61 9347 0.49 320 14:45 21.11.2021
5281 Clouds 10 1011 59 10000 0.51 324 13:47 21.11.2021
5282 Clouds 9 1012 57 10000 0.73 340 12:37 21.11.2021
5283 Clouds 8 1013 57 10000 0.97 12 11:43 21.11.2021
5284 Clouds 7 1014 60 10000 1.4 24 11:24 21.11.2021
5285 Clouds 5 1015 63 10000 1.88 31 10:18 21.11.2021
5286 Clouds 5 1016 72 10000 2.06 25 08:42 21.11.2021
5287 Clouds -1 1015 81 10000 2.42 22 08:23 21.11.2021
5288 Clouds -1 1015 81 10000 2.42 22 07:47 21.11.2021
5289 Clouds 0 1015 79 10000 2.26 24 05:53 21.11.2021
5290 Clouds 0 1015 77 10000 2.11 24 05:25 21.11.2021
5291 Clouds 1 1017 77 10000 1.67 20 03:19 21.11.2021
5292 Clouds 2 1017 76 10000 1.67 20 02:51 21.11.2021
5293 Clouds 6 1020 86 10000 1.04 20 00:59 21.11.2021
5294 Clouds 7 1021 83 10000 0.86 17 23:47 20.11.2021
5295 Clouds 7 1022 80 10000 0.69 23 21:41 20.11.2021
5296 Clouds 7 1022 79 10000 0.7 36 21:23 20.11.2021
5297 Clouds 7 1022 77 10000 0.57 34 18:46 20.11.2021
5298 Clouds 7 1022 78 10000 0.49 31 18:26 20.11.2021
5299 Clouds 8 1021 74 10000 0.42 250 17:26 20.11.2021
5300 Clouds 9 1021 74 10000 0.42 250 16:46 20.11.2021
5301 Clouds 10 1021 54 10000 1.53 205 14:46 20.11.2021
5302 Clouds 7 1022 50 10000 0.45 217 14:23 20.11.2021
5303 Clouds 8 1023 52 10000 2.06 200 11:57 20.11.2021
5304 Clouds 5 1024 53 10000 2.06 196 10:35 20.11.2021
5305 Clouds 0 1026 75 10000 0.9 102 09:29 20.11.2021
5306 Clouds -5 1026 76 10000 1.35 55 07:22 20.11.2021
5307 Clear -1 1026 75 10000 0.92 53 05:27 20.11.2021
5308 Clear -1 1026 74 10000 0.92 53 04:50 20.11.2021
5309 Clear 3 1029 79 10000 1.1 76 01:48 20.11.2021
5310 Clear 4 1029 84 10000 0.95 86 00:40 20.11.2021
5311 Clear -1 1028 73 10000 0.76 101 22:55 19.11.2021
5312 Clear 0 1028 71 10000 0.45 213 21:58 19.11.2021
5313 Clear 5 1030 84 10000 1.64 66 20:58 19.11.2021
5314 Clear 1 1028 70 10000 1.64 66 20:36 19.11.2021
5315 Clear 3 1028 71 10000 1.45 63 19:50 19.11.2021
5316 Clear 6 1030 85 10000 1.08 69 18:54 19.11.2021
5317 Clear 8 1029 84 10000 0.34 75 18:22 19.11.2021
5318 Clear 6 1027 60 10000 1.28 211 17:26 19.11.2021
5319 Clear 12 1026 61 10000 1.8 205 15:32 19.11.2021
5320 Clear 11 1026 51 10000 2.32 198 13:25 19.11.2021
5321 Clear 5 1028 57 10000 1 152 10:27 19.11.2021
5322 Clear 5 1028 57 10000 1 152 10:27 19.11.2021
5323 Clear 5 1028 57 10000 1 152 09:37 19.11.2021
5324 Clear -4 1028 75 10000 1.25 50 07:41 19.11.2021
5325 Clear 1 1031 78 10000 0.94 55 04:29 19.11.2021
5326 Clear -3 1029 72 10000 0.92 60 02:26 19.11.2021
5327 Clear 1 1029 70 10000 1.13 66 23:51 18.11.2021
5328 Clear 1 1028 68 10000 1.25 55 21:50 18.11.2021
5329 Clear 0 1027 68 10000 1.38 51 20:48 18.11.2021
5330 Clear 0 1027 67 10000 1.38 51 20:30 18.11.2021
5331 Clear 5 1030 81 10000 1.12 49 19:44 18.11.2021
5332 Clear 5 1029 80 10000 1.31 46 18:55 18.11.2021
5333 Clear 5 1029 80 10000 1.47 40 18:27 18.11.2021
5334 Clear 8 1029 80 10000 1.47 40 17:49 18.11.2021
5335 Clear 9 1026 71 10000 0.86 17 16:44 18.11.2021
5336 Clear 8 1024 45 10000 0.67 340 15:25 18.11.2021
5337 Clear 8 1024 47 10000 0.62 344 13:31 18.11.2021
5338 Clear 9 1024 46 10000 0.83 5 12:33 18.11.2021
5339 Clear 7 1025 48 10000 1.5 11 11:42 18.11.2021
5340 Clear 7 1025 52 10000 1.92 17 11:24 18.11.2021
5341 Clear 0 1026 69 10000 2.8 19 09:34 18.11.2021
5342 Clouds 1 1030 85 10000 3.9 20 07:34 18.11.2021
5343 Clouds 2 1029 89 10000 4.03 21 05:48 18.11.2021
5344 Clouds 2 1029 88 10000 4.26 19 04:54 18.11.2021
5345 Clouds 2 1029 89 10000 4.45 15 01:23 18.11.2021
5346 Clouds 2 1029 89 10000 4.48 15 22:49 17.11.2021
5347 Clouds 2 1029 89 10000 4.56 14 22:20 17.11.2021
5348 Clouds 2 1029 89 10000 4.56 14 21:38 17.11.2021
5349 Clouds 3 1028 88 10000 4.53 13 20:56 17.11.2021
5350 Clouds 4 1026 87 10000 4.17 13 18:27 17.11.2021
5351 Clouds 5 1023 77 10000 3.78 10 17:27 17.11.2021
5352 Clouds 8 1020 53 10000 3.46 5 14:51 17.11.2021
5353 Clouds 8 1020 58 10000 3.38 2 12:41 17.11.2021
5354 Clouds 5 1021 61 10000 3.42 0 11:44 17.11.2021
5355 Clouds 2 1019 70 10000 3.29 7 10:29 17.11.2021
5356 Clouds 1 1019 80 10000 0.45 0 09:24 17.11.2021
5357 Clouds 0 1018 82 10000 3.45 14 07:44 17.11.2021
5358 Clouds 4 1023 90 10000 3.01 13 03:51 17.11.2021
5359 Clouds 4 1023 90 10000 3.01 13 03:51 17.11.2021
5360 Clouds 4 1021 88 10000 2.13 10 01:21 17.11.2021
5361 Clouds 4 1022 91 10000 1.63 15 23:18 16.11.2021
5362 Clouds 5 1021 91 10000 1.56 29 21:27 16.11.2021
5363 Clouds 5 1020 91 10000 1.7 37 20:18 16.11.2021
5364 Clouds 6 1020 90 10000 1.12 46 18:54 16.11.2021
5365 Clouds 6 1020 90 10000 1.12 46 18:35 16.11.2021
5366 Clouds 7 1019 88 10000 0.44 69 17:40 16.11.2021
5367 Clouds 7 1017 78 10000 0.63 186 16:39 16.11.2021
5368 Clouds 6 1017 55 10000 0.56 205 15:53 16.11.2021
5369 Clouds 6 1016 56 10000 0.55 200 15:27 16.11.2021
5370 Clouds 3 1018 62 10000 1.45 15 11:50 16.11.2021
5371 Clouds 4 1020 86 10000 2.05 2 09:49 16.11.2021
5372 Clouds 3 1020 85 5822 2.01 31 08:45 16.11.2021
5373 Clouds 3 1021 93 10000 3.17 27 07:32 16.11.2021
5374 Clouds 4 1022 93 10000 3.51 24 02:20 16.11.2021
5375 Clouds 4 1022 95 10000 3.52 12 23:23 15.11.2021
5376 Clouds 4 1022 95 10000 3.52 12 22:37 15.11.2021
5377 Clouds 4 1022 93 3691 3.34 9 21:53 15.11.2021
5378 Clouds 4 1021 94 3073 3.41 10 21:29 15.11.2021
5379 Clouds 4 1021 95 377 3.79 10 19:49 15.11.2021
5380 Clouds 3 1021 94 10000 4.38 11 18:47 15.11.2021
5381 Clouds 7 1019 86 10000 4.03 10 16:54 15.11.2021
5382 Clouds 8 1017 77 10000 3.51 1 15:42 15.11.2021
5383 Clouds 8 1017 76 10000 3.57 2 15:24 15.11.2021
5384 Clouds 8 1017 77 10000 3.8 7 13:32 15.11.2021
5385 Clouds 6 1018 78 10000 3.79 6 11:21 15.11.2021
5386 Clouds 3 1019 91 819 3.9 11 09:28 15.11.2021
5387 Clouds 2 1018 96 237 3.8 5 07:52 15.11.2021
5388 Clouds 3 1019 95 502 3.24 6 05:21 15.11.2021
5389 Clouds 3 1019 88 10000 3.26 6 23:54 14.11.2021
5390 Clouds 4 1020 86 10000 3.4 10 22:35 14.11.2021
5391 Clouds 5 1019 93 6098 3.32 8 19:53 14.11.2021
5392 Clouds 5 1018 94 6054 3.2 3 19:18 14.11.2021
5393 Clouds 5 1018 94 6054 3.2 3 18:54 14.11.2021
5394 Clouds 5 1018 94 6054 3.2 3 18:36 14.11.2021
5395 Clouds 5 1018 93 3718 3.05 2 18:18 14.11.2021
5396 Clouds 5 1018 93 3721 3.05 2 17:55 14.11.2021
5397 Clouds 5 1018 93 3718 3.05 2 17:37 14.11.2021
5398 Clouds 8 1017 86 6142 2.4 350 17:19 14.11.2021
5399 Clouds 8 1017 86 6142 2.4 350 16:46 14.11.2021
5400 Clouds 9 1016 77 5807 2.5 348 16:20 14.11.2021
5401 Clouds 10 1015 77 7098 2.5 341 15:23 14.11.2021
5402 Clouds 10 1015 77 7098 2.5 341 14:49 14.11.2021
5403 Clouds 10 1015 75 8566 2.52 343 14:28 14.11.2021
5404 Clouds 10 1015 75 8566 2.52 343 13:54 14.11.2021
5405 Clouds 10 1015 75 8566 2.52 343 13:35 14.11.2021
5406 Clouds 9 1016 75 10000 2.44 332 12:27 14.11.2021
5407 Clouds 8 1016 75 10000 2.44 332 11:41 14.11.2021
5408 Clouds 4 1015 73 10000 2.63 334 10:41 14.11.2021
5409 Clouds 3 1015 75 10000 2.46 340 09:48 14.11.2021
5410 Clouds 6 1017 81 10000 2.8 348 08:54 14.11.2021
5411 Clouds 2 1014 72 369 0.45 0 07:19 14.11.2021
5412 Clouds 7 1020 89 10000 3.03 11 23:47 13.11.2021
5413 Clouds 7 1020 91 10000 2.93 7 22:25 13.11.2021
5414 Clouds 7 1020 91 10000 2.92 7 21:50 13.11.2021
5415 Clouds 7 1019 87 10000 2.86 13 21:20 13.11.2021
5416 Clouds 8 1020 90 10000 3.2 9 19:38 13.11.2021
5417 Clouds 8 1020 90 10000 2.77 11 18:33 13.11.2021
5418 Clouds 8 1018 86 10000 2.31 5 18:33 13.11.2021
5419 Clouds 9 1018 86 10000 2.3 5 17:50 13.11.2021
5420 Clouds 10 1017 79 10000 1.8 353 16:37 13.11.2021
5421 Clouds 10 1016 50 10000 0.45 244 15:20 13.11.2021
5422 Clouds 12 1016 57 10000 1.14 303 14:20 13.11.2021
5423 Clouds 9 1018 55 10000 0.45 0 12:56 13.11.2021
5424 Clouds 8 1018 59 10000 0.45 0 12:20 13.11.2021
5425 Clouds 6 1019 64 10000 0.87 360 11:28 13.11.2021
5426 Clouds 5 1019 69 10000 0.87 360 10:44 13.11.2021
5427 Clouds 6 1019 66 10000 1.82 14 09:53 13.11.2021
5428 Clouds 6 1019 66 10000 1.82 14 09:33 13.11.2021
5429 Clouds 6 1020 79 10000 2.3 22 08:56 13.11.2021
5430 Clouds 5 1021 90 10000 2.79 27 08:20 13.11.2021
5431 Clouds 6 1020 90 10000 3.33 21 04:43 13.11.2021
5432 Clouds 3 1018 71 10000 3.45 18 04:23 13.11.2021
5433 Clouds 7 1020 93 10000 3.26 14 00:38 13.11.2021
5434 Clouds 8 1020 94 10000 3.31 12 22:44 12.11.2021
5435 Clouds 8 1021 95 10000 3.34 16 21:32 12.11.2021
5436 Clouds 8 1019 92 10000 3.04 24 19:45 12.11.2021
5437 Clouds 9 1020 94 10000 3.06 22 19:27 12.11.2021
5438 Clouds 9 1019 94 10000 3.11 19 18:21 12.11.2021
5439 Clouds 11 1017 80 10000 3.02 23 16:20 12.11.2021
5440 Clouds 11 1017 80 10000 3.02 23 15:31 12.11.2021
5441 Clouds 8 1017 73 10000 3.25 10 11:32 12.11.2021
5442 Clouds 6 1018 69 10000 1.34 182 10:49 12.11.2021
5443 Clouds 5 1018 83 3681 3.39 29 09:29 12.11.2021
5444 Clouds 4 1018 89 3681 3.39 29 08:38 12.11.2021
5445 Clouds 6 1020 84 10000 2.65 31 02:22 12.11.2021
5446 Clouds 6 1021 88 10000 2.71 39 23:33 11.11.2021
5447 Clouds 6 1021 89 10000 2.85 34 22:28 11.11.2021
5448 Clouds 7 1021 90 10000 2.79 29 21:26 11.11.2021
5449 Clouds 7 1021 91 10000 2.85 35 20:26 11.11.2021
5450 Clouds 4 1020 90 10000 2.42 35 18:55 11.11.2021
5451 Clouds 8 1020 95 10000 2.11 39 17:42 11.11.2021
5452 Clouds 9 1019 93 10000 1.52 52 16:38 11.11.2021
5453 Clouds 10 1018 94 4725 1.48 46 14:44 11.11.2021
5454 Clouds 10 1019 92 4691 1.49 45 14:26 11.11.2021
5455 Clouds 9 1019 92 4691 1.49 45 13:36 11.11.2021
5456 Clouds 6 1019 83 10000 0.45 315 12:48 11.11.2021
5457 Clouds 6 1019 74 10000 0.45 213 10:34 11.11.2021
5458 Clouds 4 1019 81 10000 2.11 49 09:33 11.11.2021
5459 Clouds 3 1018 83 10000 3.7 28 07:35 11.11.2021
5460 Clouds 3 1018 81 10000 3.1 36 00:43 11.11.2021
5461 Clouds 7 1021 94 10000 2.67 42 22:46 10.11.2021
5462 Clouds 6 1020 94 10000 2.4 39 21:56 10.11.2021
5463 Clouds 4 1018 78 10000 2.82 31 21:18 10.11.2021
5464 Clouds 4 1018 76 363 2.24 26 20:33 10.11.2021
5465 Clouds 7 1020 96 370 2.23 26 19:45 10.11.2021
5466 Rain 7 1019 95 3305 3.19 35 17:39 10.11.2021
5467 Clouds 7 1019 96 100 2.78 16 16:21 10.11.2021
5468 Clouds 7 1018 86 3154 3.01 22 14:25 10.11.2021
5469 Clouds 7 1018 86 3154 3.01 22 13:40 10.11.2021
5470 Rain 5 1017 67 10000 2.46 15 12:39 10.11.2021
5471 Clouds 3 1019 71 10000 1.59 33 09:41 10.11.2021
5472 Clouds 2 1019 76 10000 1.91 33 08:44 10.11.2021
5473 Clouds 2 1019 75 10000 2.17 35 07:00 10.11.2021
5474 Clouds 1 1019 76 10000 1.27 70 05:58 10.11.2021
5475 Clouds 6 1021 81 10000 1.32 66 04:58 10.11.2021
5476 Clouds 7 1023 86 10000 1.78 58 22:42 09.11.2021
5477 Clouds 6 1023 81 10000 1.73 66 20:51 09.11.2021
5478 Clouds 7 1023 68 10000 2.19 58 19:51 09.11.2021
5479 Clouds 6 1023 65 10000 2 46 18:58 09.11.2021
5480 Clouds 8 1018 49 10000 0.61 105 17:22 09.11.2021
5481 Clear 10 1017 31 10000 0.24 170 15:38 09.11.2021
5482 Clouds 8 1017 29 10000 0.54 151 13:55 09.11.2021
5483 Clear 9 1017 21 10000 0.25 255 12:49 09.11.2021
5484 Clear 8 1017 20 10000 0.33 48 11:34 09.11.2021
5485 Clear 6 1018 21 10000 1.34 21 10:41 09.11.2021
5486 Clear 5 1020 33 10000 2.96 22 09:22 09.11.2021
5487 Clear 3 1022 39 10000 3.67 20 07:55 09.11.2021
5488 Clear 2 1022 45 10000 3.73 20 03:45 09.11.2021
5489 Clear 2 1023 69 10000 4.01 19 01:58 09.11.2021
5490 Clear 2 1023 69 10000 4.01 19 01:36 09.11.2021
5491 Clouds 4 1023 85 10000 4.6 13 23:32 08.11.2021
5492 Clouds 3 1023 88 10000 4.64 12 22:47 08.11.2021
5493 Clouds 3 1023 88 10000 4.8 11 21:45 08.11.2021
5494 Clouds 3 1023 84 10000 5.22 13 20:36 08.11.2021
5495 Clouds 3 1023 84 10000 5.21 13 19:43 08.11.2021
5496 Clear 9 1021 78 10000 4.92 9 17:48 08.11.2021
5497 Clear 11 1017 54 10000 4.79 2 15:56 08.11.2021
5498 Clear 14 1016 47 10000 4.9 5 14:57 08.11.2021
5499 Clear 16 1016 47 10000 4.9 5 14:33 08.11.2021
5500 Clouds 15 1016 44 10000 4.74 2 13:18 08.11.2021
5501 Clouds 14 1017 49 10000 4.91 2 11:55 08.11.2021
5502 Clouds 12 1017 58 10000 5.03 6 10:50 08.11.2021
5503 Clouds 5 1020 83 10000 4.76 6 09:26 08.11.2021
5504 Clouds 4 1020 83 10000 4.76 6 08:42 08.11.2021
5505 Clouds 5 1021 94 10000 4.72 9 06:56 08.11.2021
5506 Clouds 5 1020 88 10000 4.77 6 03:35 08.11.2021
5507 Clouds 4 1021 88 10000 4.52 5 01:24 08.11.2021
5508 Clouds 5 1022 93 504 4.41 8 23:25 07.11.2021
5509 Clouds 4 1022 93 1607 4.47 9 21:26 07.11.2021
5510 Clouds 5 1022 91 10000 4.3 9 20:28 07.11.2021
5511 Clouds 4 1023 87 10000 4.65 14 18:47 07.11.2021
5512 Clouds 9 1023 81 10000 5.08 14 17:43 07.11.2021
5513 Clear 10 1020 61 10000 5.59 10 16:26 07.11.2021
5514 Clear 13 1020 55 10000 5.7 8 15:25 07.11.2021
5515 Clear 13 1020 51 10000 5.61 8 14:27 07.11.2021
5516 Clear 12 1021 47 10000 5.52 10 12:50 07.11.2021
5517 Clear 11 1022 45 10000 5.21 12 11:41 07.11.2021
5518 Clear 3 1025 47 10000 5.24 11 08:59 07.11.2021
5519 Clouds 0 1030 77 10000 5.12 9 02:56 07.11.2021
5520 Clouds 0 1029 78 10000 4.98 15 02:18 07.11.2021
5521 Clouds 1 1029 87 10000 5.3 14 22:56 06.11.2021
5522 Clouds 1 1030 87 10000 5.34 14 21:53 06.11.2021
5523 Clouds 1 1029 88 10000 5.18 8 20:56 06.11.2021
5524 Clouds 2 1030 87 10000 4.69 11 19:42 06.11.2021
5525 Clear 6 1029 89 10000 4.56 11 17:31 06.11.2021
5526 Clear 7 1026 74 10000 3.99 8 16:32 06.11.2021
5527 Clear 10 1024 45 10000 4.21 9 13:39 06.11.2021
5528 Clouds 10 1025 43 10000 3.86 9 12:55 06.11.2021
5529 Clouds 3 1024 39 10000 0.45 268 10:35 06.11.2021
5530 Clouds -2 1024 56 10000 4.18 15 08:47 06.11.2021
5531 Clouds -1 1030 84 10000 4.23 17 04:50 06.11.2021
5532 Clouds 0 1029 89 10000 4.02 16 23:49 05.11.2021
5533 Clouds 0 1029 89 10000 4.04 16 23:28 05.11.2021
5534 Clouds 1 1029 89 10000 4.04 16 22:33 05.11.2021
5535 Clouds 1 1028 90 10000 3.8 15 20:26 05.11.2021
5536 Clouds 1 1028 88 10000 3.91 15 19:51 05.11.2021
5537 Clouds 1 1027 90 10000 3.97 14 18:43 05.11.2021
5538 Clouds 1 1026 89 10000 3.73 12 17:52 05.11.2021
5539 Clouds 5 1024 74 10000 3.42 11 16:37 05.11.2021
5540 Clouds 6 1020 63 7228 3.68 11 14:21 05.11.2021
5541 Clouds 4 1019 48 10000 0.89 0 12:26 05.11.2021
5542 Clouds 1 1022 75 10000 3.22 11 09:27 05.11.2021
5543 Clouds 1 1023 87 10000 3.42 14 07:48 05.11.2021
5544 Clouds 1 1022 88 10000 3.36 12 05:36 05.11.2021
5545 Rain 2 1020 92 2952 3.35 14 02:28 05.11.2021
5546 Clouds 2 1020 92 2952 3.35 14 01:59 05.11.2021
5547 Clouds 2 1021 88 10000 3.15 18 23:45 04.11.2021
5548 Clouds 3 1020 89 10000 2.66 20 22:21 04.11.2021
5549 Clouds 2 1020 89 10000 2.66 20 21:54 04.11.2021
5550 Clouds 3 1019 86 10000 2.39 12 21:22 04.11.2021
5551 Clouds 3 1018 86 10000 2.17 15 20:25 04.11.2021
5552 Clouds 4 1018 86 10000 2.17 15 19:49 04.11.2021
5553 Clouds 4 1017 90 3181 2.32 19 19:22 04.11.2021
5554 Clouds 5 1015 84 3750 2.23 11 18:22 04.11.2021
5555 Clouds 6 1013 69 6225 1.82 2 17:26 04.11.2021
5556 Clouds 6 1013 69 6225 1.82 2 17:26 04.11.2021
5557 Clouds 8 1011 54 10000 1.51 2 15:36 04.11.2021
5558 Clouds 6 1009 45 10000 0.45 298 13:45 04.11.2021
5559 Clouds 4 1012 47 10000 1.65 16 10:22 04.11.2021
5560 Clouds 1 1013 58 10000 2.2 19 08:31 04.11.2021
5561 Clouds 0 1015 74 10000 2.86 21 07:36 04.11.2021
5562 Clouds 1 1014 85 10000 2.9 22 06:38 04.11.2021
5563 Clouds 3 1011 93 10000 2.81 11 22:54 03.11.2021
5564 Clouds 3 1011 93 10000 2.88 8 21:57 03.11.2021
5565 Clouds 3 1011 93 10000 2.88 8 21:33 03.11.2021
5566 Clouds 4 1009 94 10000 2.75 2 20:38 03.11.2021
5567 Clouds 4 1009 95 2176 2.71 0 20:19 03.11.2021
5568 Clouds 5 1007 93 10000 2.81 6 19:19 03.11.2021
5569 Clouds 5 1006 90 10000 2.31 359 18:26 03.11.2021
5570 Clouds 5 1006 90 10000 2.3 359 17:41 03.11.2021
5571 Clouds 6 1004 78 10000 1.9 344 16:31 03.11.2021
5572 Clouds 6 1002 68 10000 2.17 350 15:47 03.11.2021
5573 Clouds 6 1002 65 10000 2.17 347 15:28 03.11.2021
5574 Clouds 6 1002 65 10000 2.17 347 15:28 03.11.2021
5575 Clouds 7 1003 70 6403 2.04 3 12:33 03.11.2021
5576 Clouds 2 1002 73 6809 1.77 10 11:27 03.11.2021
5577 Clouds 5 1004 73 6809 1.77 10 10:49 03.11.2021
5578 Clouds 5 1004 73 6809 1.77 10 10:49 03.11.2021
5579 Clouds 5 1005 83 5230 2.02 359 09:31 03.11.2021
5580 Clouds 5 1005 83 5230 2.02 359 09:31 03.11.2021
5581 Clouds 4 1005 93 1465 2.24 14 08:24 03.11.2021
5582 Clouds 5 1004 94 368 2.21 13 07:39 03.11.2021
5583 Clouds 2 1001 91 1498 1.87 21 05:35 03.11.2021
5584 Clouds 2 1002 89 65 0.69 244 03:19 03.11.2021
5585 Clouds 6 1005 98 174 1.96 218 23:57 02.11.2021
5586 Clouds 2 1005 81 802 1.95 216 22:47 02.11.2021
5587 Clouds 5 1007 97 907 1.76 231 21:39 02.11.2021
5588 Clouds 6 1007 97 1087 2.43 216 20:34 02.11.2021
5589 Clouds 6 1008 96 4404 2.48 217 19:54 02.11.2021
5590 Clouds 7 1008 92 10000 2.01 213 19:18 02.11.2021
5591 Clouds 8 1008 89 10000 2.15 214 18:26 02.11.2021
5592 Clouds 8 1008 89 10000 2.15 214 18:26 02.11.2021
5593 Clouds 9 1008 89 10000 2.15 214 17:42 02.11.2021
5594 Clouds 11 1006 62 10000 2.9 207 16:31 02.11.2021
5595 Clouds 12 1006 62 10000 3.36 212 15:48 02.11.2021
5596 Clouds 12 1006 58 10000 3.44 214 14:30 02.11.2021
5597 Clouds 11 1007 64 10000 3.49 212 13:28 02.11.2021
5598 Clouds 11 1008 67 10000 3.59 212 12:41 02.11.2021
5599 Clear 10 1009 75 10000 2.54 200 11:34 02.11.2021
5600 Clear 9 1010 78 10000 2.54 200 10:53 02.11.2021
5601 Clear 8 1010 81 10000 2.16 194 10:27 02.11.2021
5602 Clear 5 1011 91 10000 0.79 172 08:43 02.11.2021
5603 Clouds 4 1012 91 10000 2.07 22 06:57 02.11.2021
5604 Clouds 3 1009 89 10000 1.77 6 03:49 02.11.2021
5605 Clouds 3 1009 88 10000 1.17 323 02:21 02.11.2021
5606 Clouds 7 1011 84 10000 0.89 11 22:47 01.11.2021
5607 Clouds 8 1011 81 10000 1.64 349 21:23 01.11.2021
5608 Clouds 8 1011 81 10000 1.64 349 20:38 01.11.2021
5609 Clouds 8 1011 83 10000 1.78 359 19:55 01.11.2021
5610 Clouds 9 1010 85 10000 2.05 8 19:29 01.11.2021
5611 Clouds 9 1010 84 10000 2.02 359 18:21 01.11.2021
5612 Clouds 12 1009 81 10000 2.14 348 17:21 01.11.2021
5613 Clouds 13 1009 81 10000 2.14 348 16:45 01.11.2021
5614 Clouds 13 1008 79 10000 2.16 343 15:47 01.11.2021
5615 Clouds 12 1008 81 10000 2.08 350 15:21 01.11.2021
5616 Clouds 13 1008 81 10000 2.08 350 14:42 01.11.2021
5617 Clouds 13 1008 85 10000 2.57 353 14:20 01.11.2021
5618 Clouds 12 1009 88 10000 2.91 352 13:19 01.11.2021
5619 Clouds 12 1009 88 10000 2.98 357 12:24 01.11.2021
5620 Clouds 10 1008 93 10000 2.83 359 10:23 01.11.2021
5621 Clouds 10 1008 90 10000 2.75 357 08:53 01.11.2021
5622 Clouds 7 1006 92 8326 2.38 351 07:47 01.11.2021
5623 Clouds 9 1006 90 252 0.45 327 05:56 01.11.2021
5624 Rain 9 1007 95 56 0.76 172 03:42 01.11.2021
5625 Rain 10 1009 93 1081 1.28 215 00:23 01.11.2021
5626 Clouds 11 1010 87 10000 0.46 308 21:37 31.10.2021
5627 Clouds 14 1010 92 1373 0.03 47 20:25 31.10.2021
5628 Clouds 15 1010 89 7565 0.26 108 18:51 31.10.2021
5629 Clouds 15 1009 88 10000 0.96 213 18:25 31.10.2021
5630 Clouds 17 1008 80 10000 1.31 225 16:48 31.10.2021
5631 Clouds 17 1007 76 10000 1.93 244 15:18 31.10.2021
5632 Clouds 17 1008 71 10000 2.18 248 13:27 31.10.2021
5633 Clouds 16 1009 73 10000 2.02 231 12:25 31.10.2021
5634 Clouds 13 1010 80 10000 1.94 229 10:51 31.10.2021
5635 Clouds 8 1012 87 10000 0.92 240 09:43 31.10.2021
5636 Clouds 10 1011 90 10000 1.37 226 08:47 31.10.2021
5637 Clouds 9 1011 96 7509 0.8 224 04:54 31.10.2021
5638 Clouds 12 1012 94 10000 0.61 177 00:36 31.10.2021
5639 Clouds 12 1012 94 10000 1.01 131 22:27 30.10.2021
5640 Clouds 13 1011 93 10000 0.59 143 21:29 30.10.2021
5641 Clouds 13 1010 94 10000 0.72 120 19:49 30.10.2021
5642 Clouds 14 1009 88 10000 0.72 179 17:49 30.10.2021
5643 Clouds 14 1008 91 10000 0.63 189 15:42 30.10.2021
5644 Clouds 13 1008 97 824 0.82 202 13:59 30.10.2021
5645 Clouds 13 1008 94 747 0.84 183 13:38 30.10.2021
5646 Clouds 12 1009 94 538 1.47 186 13:20 30.10.2021
5647 Clouds 11 1008 95 381 1.64 194 11:49 30.10.2021
5648 Clouds 11 1008 95 343 1.53 194 10:56 30.10.2021
5649 Clouds 10 1007 99 406 2.61 193 08:57 30.10.2021
5650 Clouds 11 1007 99 444 2.86 192 07:56 30.10.2021
5651 Clouds 11 1007 99 360 3.52 201 05:47 30.10.2021
5652 Clouds 7 1009 90 394 2.68 294 02:59 30.10.2021
5653 Clouds 10 1012 91 886 2.23 172 23:21 29.10.2021
5654 Clouds 11 1012 91 886 2.23 172 22:35 29.10.2021
5655 Clouds 10 1013 92 1208 1.58 183 21:18 29.10.2021
5656 Clouds 10 1013 93 1208 1.58 183 20:32 29.10.2021
5657 Clouds 10 1013 92 946 1.68 201 19:26 29.10.2021
5658 Clouds 12 1012 75 3998 2.06 199 17:43 29.10.2021
5659 Clouds 12 1012 73 2444 2.35 212 15:42 29.10.2021
5660 Clouds 11 1012 64 10000 3.62 208 12:50 29.10.2021
5661 Clouds 9 1013 81 10000 3.04 214 10:46 29.10.2021
5662 Clouds 4 1015 80 10000 2.26 213 09:45 29.10.2021
5663 Clear 6 1018 96 10000 0.89 167 02:22 29.10.2021
5664 Clear 6 1018 94 10000 1.19 177 00:30 29.10.2021
5665 Clear 7 1019 90 10000 1.12 160 22:27 28.10.2021
5666 Clear 8 1018 87 10000 1.17 149 20:59 28.10.2021
5667 Clear 9 1018 86 10000 1.14 179 19:52 28.10.2021
5668 Clear 13 1017 80 10000 1.62 208 18:46 28.10.2021
5669 Clear 13 1015 61 10000 2.49 213 17:38 28.10.2021
5670 Clear 15 1015 53 10000 2.98 216 16:38 28.10.2021
5671 Clear 15 1016 56 10000 2.95 212 14:40 28.10.2021
5672 Clear 13 1017 64 10000 2.68 208 13:33 28.10.2021
5673 Clear 12 1017 61 10000 2.59 204 12:49 28.10.2021
5674 Clear 12 1018 69 10000 2.36 196 11:37 28.10.2021
5675 Clear 7 1020 85 10000 0.92 174 10:23 28.10.2021
5676 Clear 8 1020 73 10000 0.93 174 09:36 28.10.2021
5677 Clear 0 1020 81 10000 0.49 93 08:36 28.10.2021
5678 Clear 6 1022 88 10000 0.76 89 07:41 28.10.2021
5679 Clear 8 1023 88 10000 0.99 67 01:37 28.10.2021
5680 Clear 7 1024 87 10000 0.89 101 22:47 27.10.2021
5681 Clear 8 1024 86 10000 0.93 119 21:52 27.10.2021
5682 Clear 5 1023 71 10000 0.86 127 21:18 27.10.2021
5683 Clear 9 1023 84 10000 0.86 127 20:40 27.10.2021
5684 Clouds 10 1023 80 10000 0.82 138 19:45 27.10.2021
5685 Clouds 12 1021 70 10000 1.47 175 18:55 27.10.2021
5686 Clouds 16 1020 36 10000 2.43 212 16:55 27.10.2021
5687 Clouds 16 1019 31 10000 2.5 206 16:24 27.10.2021
5688 Clouds 17 1020 36 10000 2.39 210 15:24 27.10.2021
5689 Clouds 17 1021 38 10000 2.22 199 14:19 27.10.2021
5690 Clouds 11 1022 24 10000 1.47 183 11:18 27.10.2021
5691 Clouds 9 1022 24 10000 1.47 183 10:36 27.10.2021
5692 Clouds 0 1024 64 10000 1.68 53 08:58 27.10.2021
5693 Clear 1 1023 62 10000 1.68 40 07:39 27.10.2021
5694 Clear 1 1023 56 10000 2.18 33 05:37 27.10.2021
5695 Clouds 3 1025 63 10000 2.55 23 01:21 27.10.2021
5696 Clouds 4 1025 67 10000 2.55 23 00:39 27.10.2021
5697 Clouds 8 1026 72 10000 2.47 29 23:52 26.10.2021
5698 Clouds 8 1026 63 10000 2.5 28 22:44 26.10.2021
5699 Clouds 8 1026 81 10000 2.58 28 22:21 26.10.2021
5700 Clouds 9 1026 81 10000 2.58 28 21:32 26.10.2021
5701 Clear 9 1025 90 10000 2.62 18 19:34 26.10.2021
5702 Clear 9 1024 81 10000 2.43 13 18:54 26.10.2021
5703 Clear 13 1022 60 10000 2.29 358 17:36 26.10.2021
5704 Clear 14 1022 44 10000 1.61 333 15:46 26.10.2021
5705 Clear 14 1022 55 10000 0.95 267 12:33 26.10.2021
5706 Clear 11 1023 50 10000 0.75 9 10:48 26.10.2021
5707 Clouds 1 1024 76 10000 2.9 23 08:24 26.10.2021
5708 Clouds 6 1025 74 10000 2.78 23 07:21 26.10.2021
5709 Clouds 8 1025 71 10000 2.67 23 00:19 26.10.2021
5710 Clouds 8 1025 69 10000 2.49 24 23:20 25.10.2021
5711 Clouds 8 1024 67 10000 2.35 24 22:28 25.10.2021
5712 Clouds 8 1024 79 10000 2.35 24 21:42 25.10.2021
5713 Clouds 9 1023 74 10000 2.48 23 20:26 25.10.2021
5714 Clouds 10 1023 74 10000 2.48 23 19:43 25.10.2021
5715 Clouds 12 1022 66 10000 1.56 12 19:21 25.10.2021
5716 Clouds 14 1022 66 10000 1.57 13 18:33 25.10.2021
5717 Clouds 16 1020 45 10000 1.74 231 16:38 25.10.2021
5718 Clear 16 1020 47 10000 2.22 214 14:45 25.10.2021
5719 Clear 12 1021 59 10000 2.08 201 12:31 25.10.2021
5720 Clear 7 1022 41 10000 0.72 169 10:30 25.10.2021
5721 Clear 1 1023 76 10000 1.57 39 08:54 25.10.2021
5722 Clear 7 1023 64 10000 1.98 38 06:26 25.10.2021
5723 Clear 2 1024 78 10000 1.55 27 02:42 25.10.2021
5724 Clear 7 1025 77 10000 1.08 27 00:47 25.10.2021
5725 Clear 4 1024 75 10000 1.14 39 23:47 24.10.2021
5726 Clear 5 1024 71 10000 1.13 41 22:56 24.10.2021
5727 Clear 5 1024 71 10000 1.13 41 22:37 24.10.2021
5728 Clear 3 1024 71 10000 0.99 43 22:18 24.10.2021
5729 Clear 9 1025 72 10000 1.13 45 20:46 24.10.2021
5730 Clear 9 1024 69 10000 0.86 35 20:27 24.10.2021
5731 Clear 14 1022 65 10000 0.49 244 18:53 24.10.2021
5732 Clear 15 1021 49 10000 1.8 222 17:58 24.10.2021
5733 Clear 13 1021 45 10000 0.45 0 17:29 24.10.2021
5734 Clear 17 1020 40 10000 2.33 212 15:47 24.10.2021
5735 Clear 14 1021 48 10000 2.38 205 13:52 24.10.2021
5736 Clear 12 1022 53 10000 2.16 196 12:41 24.10.2021
5737 Clear 9 1022 24 10000 1.66 184 11:41 24.10.2021
5738 Clear 3 1022 25 10000 0.89 165 10:45 24.10.2021
5739 Clear 10 1023 28 10000 0.28 78 09:54 24.10.2021
5740 Clear -2 1023 73 10000 1.33 45 05:35 24.10.2021
5741 Clear 3 1024 66 10000 0.73 47 00:44 24.10.2021
5742 Clear 3 1024 63 10000 0.88 35 23:32 23.10.2021
5743 Clear 5 1023 57 10000 0.99 49 21:50 23.10.2021
5744 Clear 9 1023 59 10000 1.59 41 19:47 23.10.2021
5745 Clear 13 1022 55 10000 1.33 14 18:48 23.10.2021
5746 Clear 14 1020 39 10000 0.71 322 18:21 23.10.2021
5747 Clear 14 1020 39 10000 0.71 322 17:42 23.10.2021
5748 Clear 15 1019 30 10000 0.89 278 16:20 23.10.2021
5749 Clear 16 1019 32 10000 1.23 227 13:57 23.10.2021
5750 Clear 6 1026 86 10000 3.56 17 03:32 23.10.2021
5751 Clouds 8 1025 89 10000 3.17 11 23:42 22.10.2021
5752 Clouds 8 1025 88 10000 3.36 14 22:44 22.10.2021
5753 Clouds 10 1023 91 10000 2.99 11 19:51 22.10.2021
5754 Clouds 13 1021 80 10000 2.94 1 18:40 22.10.2021
5755 Clouds 14 1019 56 10000 3.1 359 17:25 22.10.2021
5756 Clouds 15 1018 47 10000 2.14 346 14:58 22.10.2021
5757 Clouds 14 1019 51 10000 2.06 0 12:54 22.10.2021
5758 Clouds 9 1020 61 10000 2.12 9 10:58 22.10.2021
5759 Clouds 9 1020 61 10000 2.12 9 10:37 22.10.2021
5760 Clouds 8 1021 74 10000 2.41 13 09:36 22.10.2021
5761 Clouds 7 1019 83 10000 2.12 7 07:53 22.10.2021
5762 Clouds 7 1019 82 10000 1.83 6 07:21 22.10.2021
5763 Clouds 9 1019 88 10000 1.6 357 02:37 22.10.2021
5764 Clouds 9 1019 88 10000 1.6 357 02:37 22.10.2021
5765 Clouds 9 1019 88 10000 1.6 357 02:37 22.10.2021
5766 Clouds 10 1019 93 3759 1.89 360 23:51 21.10.2021
5767 Clouds 10 1019 93 10000 1.84 4 22:44 21.10.2021
5768 Clouds 10 1019 92 10000 2.06 357 21:39 21.10.2021
5769 Clouds 11 1019 94 10000 2.13 0 20:26 21.10.2021
5770 Clouds 11 1018 93 10000 2.05 357 19:56 21.10.2021
5771 Clouds 11 1018 93 10000 1.82 338 19:25 21.10.2021
5772 Clouds 12 1018 93 10000 1.82 338 18:34 21.10.2021
5773 Clouds 13 1017 88 10000 1.47 307 17:51 21.10.2021
5774 Clouds 13 1016 80 10000 1.55 274 16:50 21.10.2021
5775 Clouds 14 1016 74 10000 1.82 244 15:33 21.10.2021
5776 Clouds 12 1017 73 10000 0.89 322 14:56 21.10.2021
5777 Clouds 12 1017 73 10000 0.89 240 14:37 21.10.2021
5778 Clouds 12 1017 73 10000 0.89 240 14:37 21.10.2021
5779 Clouds 10 1019 81 10000 2.31 228 11:56 21.10.2021
5780 Clouds 8 1018 84 10000 1.18 12 09:39 21.10.2021
5781 Clouds 11 1018 94 10000 2.24 19 07:48 21.10.2021
5782 Clouds 8 1018 86 10000 2.53 20 06:45 21.10.2021
5783 Clouds 9 1020 81 4444 0.45 71 00:39 21.10.2021
5784 Clouds 10 1020 80 2189 1.6 231 22:29 20.10.2021
5785 Clouds 10 1020 79 2247 1.61 231 21:47 20.10.2021
5786 Clouds 15 1020 97 4869 2.04 217 20:58 20.10.2021
5787 Clouds 15 1020 97 4869 2.04 217 20:39 20.10.2021
5788 Clouds 15 1020 96 10000 2.3 213 20:18 20.10.2021
5789 Clouds 17 1019 92 10000 2.67 215 19:23 20.10.2021
5790 Clouds 18 1019 80 10000 3.13 212 18:29 20.10.2021
5791 Clouds 16 1021 64 10000 1.79 266 16:37 20.10.2021
5792 Clouds 18 1021 58 10000 3.22 206 13:54 20.10.2021
5793 Clouds 16 1024 63 10000 1.17 217 09:53 20.10.2021
5794 Clouds 10 1025 85 10000 0.38 297 05:30 20.10.2021
5795 Clouds 11 1027 88 10000 0.06 338 01:48 20.10.2021
5796 Clouds 11 1027 89 10000 0.17 261 00:33 20.10.2021
5797 Clouds 12 1028 91 10000 0.05 274 22:30 19.10.2021
5798 Clouds 12 1027 89 10000 0.14 159 21:35 19.10.2021
5799 Clouds 14 1027 85 10000 0.66 197 20:26 19.10.2021
5800 Clouds 14 1027 84 10000 0.54 191 19:56 19.10.2021
5801 Clouds 17 1026 79 10000 1.55 210 19:29 19.10.2021
5802 Clouds 18 1026 79 10000 1.55 210 18:31 19.10.2021
5803 Clouds 21 1024 50 10000 2.56 212 17:24 19.10.2021
5804 Clouds 20 1025 44 10000 2.67 211 15:28 19.10.2021
5805 Clouds 20 1025 44 10000 2.67 211 14:33 19.10.2021
5806 Clouds 20 1026 46 10000 2.65 212 13:49 19.10.2021
5807 Clouds 17 1026 51 10000 2.31 216 11:59 19.10.2021
5808 Clouds 15 1027 58 10000 1.76 217 11:23 19.10.2021
5809 Clouds 15 1027 69 10000 0.76 219 09:42 19.10.2021
5810 Clouds 4 1029 77 10000 0.17 353 08:56 19.10.2021
5811 Clouds 6 1029 77 10000 0.45 22 00:36 19.10.2021
5812 Clouds 7 1029 75 10000 0.43 22 23:56 18.10.2021
5813 Clouds 6 1028 74 10000 0.79 29 23:22 18.10.2021
5814 Clouds 6 1028 74 10000 0.79 29 22:55 18.10.2021
5815 Clouds 7 1027 70 10000 0.62 33 21:58 18.10.2021
5816 Clouds 7 1027 70 10000 0.62 33 21:58 18.10.2021
5817 Clouds 12 1027 85 10000 0.52 31 20:46 18.10.2021
5818 Clouds 12 1026 80 10000 0.21 213 20:21 18.10.2021
5819 Clouds 15 1026 80 10000 0.21 213 19:31 18.10.2021
5820 Clouds 17 1024 67 10000 1.07 226 18:58 18.10.2021
5821 Clouds 16 1024 39 10000 1.79 232 16:32 18.10.2021
5822 Clouds 18 1022 35 10000 1.51 231 14:41 18.10.2021
5823 Clouds 13 1023 39 10000 0.72 218 11:47 18.10.2021
5824 Clouds 4 1024 51 10000 0.76 29 09:47 18.10.2021
5825 Clear 9 1024 74 10000 1.8 35 06:39 18.10.2021
5826 Clouds 7 1023 78 10000 1.59 19 23:54 17.10.2021
5827 Clouds 10 1023 83 10000 1.32 35 22:27 17.10.2021
5828 Clouds 11 1023 83 10000 1.32 35 21:44 17.10.2021
5829 Clouds 12 1022 84 10000 0.97 24 20:49 17.10.2021
5830 Clouds 13 1021 81 10000 0.4 359 19:56 17.10.2021
5831 Clouds 13 1021 81 10000 0.4 359 19:37 17.10.2021
5832 Clouds 13 1019 57 10000 1.79 201 18:28 17.10.2021
5833 Clouds 15 1019 47 10000 1.79 244 15:57 17.10.2021
5834 Clouds 14 1019 51 10000 2.77 217 14:38 17.10.2021
5835 Clouds 17 1017 38 10000 2.5 212 13:56 17.10.2021
5836 Clouds 15 1017 38 10000 2.5 212 13:30 17.10.2021
5837 Clouds 11 1018 37 10000 0.58 219 11:27 17.10.2021
5838 Clouds 12 1018 44 10000 0.58 26 09:56 17.10.2021
5839 Clouds 8 1019 59 10000 1.7 31 07:42 17.10.2021
5840 Clear 8 1020 87 10000 0.64 26 02:35 17.10.2021
5841 Clear 10 1021 89 10000 0.63 45 00:29 17.10.2021
5842 Clear 10 1020 88 10000 0.46 28 22:40 16.10.2021
5843 Clear 11 1020 81 10000 0.77 47 20:36 16.10.2021
5844 Clear 11 1019 77 10000 0.3 59 19:58 16.10.2021
5845 Clear 12 1019 77 10000 0.3 59 19:39 16.10.2021
5846 Clear 13 1018 67 10000 1.22 217 19:18 16.10.2021
5847 Clear 17 1018 67 10000 1.22 217 18:43 16.10.2021
5848 Clear 16 1017 45 10000 1.88 221 18:22 16.10.2021
5849 Clear 14 1017 51 10000 2.24 207 17:30 16.10.2021
5850 Clear 16 1017 33 10000 1.79 234 15:40 16.10.2021
5851 Clear 14 1017 35 10000 2.13 212 12:45 16.10.2021
5852 Clear 9 1018 27 10000 1.08 198 10:57 16.10.2021
5853 Clear 8 1019 39 10000 1.97 33 08:56 16.10.2021
5854 Clouds 8 1020 43 10000 2.69 24 01:37 16.10.2021
5855 Clouds 9 1021 53 10000 2.62 25 00:29 16.10.2021
5856 Clouds 9 1021 63 10000 2.74 22 23:25 15.10.2021
5857 Clouds 10 1021 72 10000 2.9 17 22:20 15.10.2021
5858 Clouds 10 1021 72 10000 2.9 17 21:37 15.10.2021
5859 Clouds 11 1020 75 10000 2.91 18 20:52 15.10.2021
5860 Clouds 12 1020 72 10000 2.9 16 20:22 15.10.2021
5861 Clouds 14 1018 61 10000 2.37 5 19:19 15.10.2021
5862 Clouds 16 1017 43 10000 1.83 348 17:59 15.10.2021
5863 Clouds 17 1016 47 10000 1.17 326 15:45 15.10.2021
5864 Clouds 15 1017 29 10000 0.87 330 13:39 15.10.2021
5865 Clouds 12 1018 31 10000 1.29 356 11:52 15.10.2021
5866 Clouds 10 1019 35 10000 1.79 12 10:58 15.10.2021
5867 Clouds 9 1020 47 10000 1.89 15 10:19 15.10.2021
5868 Clouds -1 1021 74 10000 2.48 18 06:57 15.10.2021
5869 Clear 2 1022 74 10000 1.45 9 02:31 15.10.2021
5870 Clear 5 1023 74 10000 0.83 2 00:22 15.10.2021
5871 Clear 6 1023 69 10000 0.77 2 22:52 14.10.2021
5872 Clear 5 1024 69 10000 0.62 14 21:46 14.10.2021
5873 Clear 9 1024 66 10000 0.53 26 20:55 14.10.2021
5874 Clear 10 1023 63 10000 0.25 24 20:20 14.10.2021
5875 Clear 11 1023 63 10000 0.25 24 19:42 14.10.2021
5876 Clear 17 1021 38 10000 2.11 214 17:39 14.10.2021
5877 Clear 18 1021 29 10000 2.55 219 16:56 14.10.2021
5878 Clear 16 1022 33 10000 1.34 227 16:21 14.10.2021
5879 Clear 18 1021 24 10000 2.79 219 14:44 14.10.2021
5880 Clear 17 1021 24 10000 2.78 220 14:24 14.10.2021
5881 Clear 12 1021 31 10000 1.31 209 11:56 14.10.2021
5882 Clear 2 1022 23 10000 0.51 198 10:46 14.10.2021
5883 Clouds 1 1024 51 10000 2.47 30 07:39 14.10.2021
5884 Clouds 1 1022 39 10000 0.45 69 03:51 14.10.2021
5885 Clouds 4 1023 37 10000 3.48 22 00:31 14.10.2021
5886 Clouds 7 1026 31 10000 3.6 19 22:32 13.10.2021
5887 Clouds 7 1026 42 10000 3.75 19 21:34 13.10.2021
5888 Clouds 8 1025 73 10000 3.77 19 20:23 13.10.2021
5889 Clouds 9 1022 61 10000 3.73 10 19:19 13.10.2021
5890 Clouds 10 1022 61 10000 3.73 10 18:37 13.10.2021
5891 Clouds 17 1019 26 10000 3.59 1 15:53 13.10.2021
5892 Clear 17 1019 27 10000 3.51 358 14:46 13.10.2021
5893 Clear 17 1019 29 10000 3.45 360 14:22 13.10.2021
5894 Clear 12 1020 28 10000 1.34 158 12:23 13.10.2021
5895 Clear 11 1019 35 10000 3.05 358 11:35 13.10.2021
5896 Clear 3 1020 54 10000 3.76 13 08:57 13.10.2021
5897 Clear 3 1020 55 10000 3.85 12 07:43 13.10.2021
5898 Clear 9 1022 52 10000 3.72 12 02:30 13.10.2021
5899 Clouds 9 1022 56 10000 3.97 13 01:47 13.10.2021
5900 Clouds 9 1022 54 10000 3.78 12 23:31 12.10.2021
5901 Clouds 9 1021 57 10000 3.66 12 23:31 12.10.2021
5902 Clouds 9 1021 57 10000 3.64 12 22:47 12.10.2021
5903 Clouds 10 1021 58 10000 3.57 13 22:23 12.10.2021
5904 Clouds 10 1021 60 10000 3.66 14 20:46 12.10.2021
5905 Clouds 11 1021 66 10000 3.59 14 20:18 12.10.2021
5906 Clouds 12 1019 55 10000 3.44 8 18:45 12.10.2021
5907 Clear 16 1018 39 10000 3.27 2 17:57 12.10.2021
5908 Clear 16 1017 31 10000 3.66 3 16:39 12.10.2021
5909 Clear 17 1017 29 10000 3.78 359 15:58 12.10.2021
5910 Clear 17 1018 22 10000 3.13 223 14:46 12.10.2021
5911 Clouds 16 1019 23 10000 1.79 257 13:44 12.10.2021
5912 Clouds 14 1019 36 10000 0.45 0 12:40 12.10.2021
5913 Clouds 12 1020 28 10000 3.09 9 09:59 12.10.2021
5914 Clouds 2 1021 50 10000 3.52 16 08:44 12.10.2021
5915 Clear 3 1021 51 10000 3.71 17 07:54 12.10.2021
5916 Clear 2 1021 46 10000 3.63 18 05:31 12.10.2021
5917 Clear 1 1022 49 10000 3.54 19 04:33 12.10.2021
5918 Clear 4 1023 43 10000 2.98 19 00:28 12.10.2021
5919 Clear 5 1023 36 10000 2.98 19 23:41 11.10.2021
5920 Clear 8 1024 27 10000 2.97 21 22:57 11.10.2021
5921 Clear 10 1024 32 10000 3.1 22 21:46 11.10.2021
5922 Clear 11 1024 40 10000 3.18 20 20:47 11.10.2021
5923 Clear 12 1024 47 10000 3.11 20 19:45 11.10.2021
5924 Clear 17 1023 46 10000 2.73 13 18:43 11.10.2021
5925 Clear 17 1021 32 10000 2.04 360 17:49 11.10.2021
5926 Clear 18 1021 21 10000 2.33 359 16:39 11.10.2021
5927 Clear 20 1021 13 10000 2.37 1 15:51 11.10.2021
5928 Clear 18 1022 12 10000 1.34 248 14:55 11.10.2021
5929 Clear 15 1022 16 10000 1.34 265 14:33 11.10.2021
5930 Clear 18 1021 17 10000 2.47 2 13:36 11.10.2021
5931 Clear 13 1022 15 10000 2.69 10 11:39 11.10.2021
5932 Clear 9 1023 25 10000 3.08 18 10:31 11.10.2021
5933 Clear 5 1024 38 10000 3.72 20 09:22 11.10.2021
5934 Clouds 7 1024 28 10000 3.8 22 06:30 11.10.2021
5935 Clear 7 1026 32 10000 3.43 23 01:38 11.10.2021
5936 Clear 8 1026 38 10000 3.47 23 00:46 11.10.2021
5937 Clear 8 1026 36 10000 3.34 22 23:57 10.10.2021
5938 Clear 10 1025 57 10000 3.09 20 21:52 10.10.2021
5939 Clear 10 1025 57 10000 3.09 20 21:31 10.10.2021
5940 Clear 11 1025 81 10000 3.2 19 20:42 10.10.2021
5941 Clear 13 1024 84 10000 3.15 18 20:21 10.10.2021
5942 Clear 14 1024 84 10000 3.15 18 19:58 10.10.2021
5943 Clear 14 1024 84 10000 3.15 18 19:35 10.10.2021
5944 Clear 16 1022 69 10000 2.59 6 18:33 10.10.2021
5945 Clear 15 1021 57 10000 1.34 204 16:45 10.10.2021
5946 Clear 16 1021 53 10000 1.79 194 15:42 10.10.2021
5947 Clear 17 1020 58 10000 1.29 284 13:43 10.10.2021
5948 Clear 16 1020 62 10000 1.26 275 12:51 10.10.2021
5949 Clear 15 1020 64 10000 1.26 275 12:33 10.10.2021
5950 Clear 12 1021 29 10000 0.96 292 10:42 10.10.2021
5951 Clear 9 1023 88 10000 1.96 16 09:29 10.10.2021
5952 Clear 9 1023 88 10000 1.96 16 08:53 10.10.2021
5953 Clear 9 1023 52 10000 2.16 19 06:54 10.10.2021
5954 Clear 10 1023 72 10000 1.56 14 02:29 10.10.2021
5955 Clear 11 1024 77 10000 1.66 17 00:55 10.10.2021
5956 Clouds 11 1024 81 10000 1.77 21 23:52 09.10.2021
5957 Clouds 11 1024 81 10000 1.77 21 23:52 09.10.2021
5958 Clouds 11 1024 87 10000 1.99 20 22:39 09.10.2021
5959 Clouds 12 1023 93 10000 2.16 22 21:31 09.10.2021
5960 Clouds 12 1023 93 10000 2.2 17 20:59 09.10.2021
5961 Clouds 12 1023 93 10000 2.2 17 20:59 09.10.2021
5962 Clear 14 1022 91 10000 1.97 8 19:42 09.10.2021
5963 Clear 15 1020 79 10000 0.99 329 18:57 09.10.2021
5964 Clear 16 1019 58 10000 1.01 281 18:27 09.10.2021
5965 Clear 16 1020 55 10000 1.34 254 16:28 09.10.2021
5966 Clear 16 1020 55 10000 1.34 321 14:57 09.10.2021
5967 Clear 14 1021 60 10000 0.45 194 13:40 09.10.2021
5968 Clear 16 1020 64 10000 1.81 231 12:37 09.10.2021
5969 Clear 13 1020 76 10000 1.4 241 11:26 09.10.2021
5970 Clear 11 1021 88 10000 0.8 244 10:22 09.10.2021
5971 Clear 10 1021 88 10000 0.73 2 09:29 09.10.2021
5972 Clear 8 1021 89 10000 1.24 13 08:28 09.10.2021
5973 Clear 9 1021 87 10000 1.1 15 06:47 09.10.2021
5974 Clear 9 1021 90 10000 0.89 4 05:20 09.10.2021
5975 Clear 10 1021 86 10000 0.72 2 02:47 09.10.2021
5976 Clear 10 1022 86 10000 0.47 27 00:43 09.10.2021
5977 Clear 11 1022 85 10000 0.55 44 23:35 08.10.2021
5978 Clear 11 1023 83 10000 0.66 50 22:47 08.10.2021
5979 Clear 11 1022 81 10000 0.58 46 21:45 08.10.2021
5980 Clear 12 1022 78 10000 0.22 32 20:31 08.10.2021
5981 Clear 17 1019 43 10000 1.81 225 18:23 08.10.2021
5982 Clear 16 1019 50 10000 1.79 242 17:18 08.10.2021
5983 Clear 16 1019 50 10000 1.79 242 17:18 08.10.2021
5984 Clear 15 1019 51 10000 1.79 275 17:18 08.10.2021
5985 Clear 14 1019 46 10000 1.34 231 16:43 08.10.2021
5986 Clear 16 1019 44 10000 1.79 194 16:21 08.10.2021
5987 Clouds 14 1020 28 10000 2.01 227 13:48 08.10.2021
5988 Clouds 14 1020 33 10000 1.24 246 11:56 08.10.2021
5989 Clouds 10 1020 35 10000 0.72 303 10:47 08.10.2021
5990 Clouds 8 1021 34 10000 1.69 6 09:48 08.10.2021
5991 Clear 2 1021 45 10000 3.11 17 05:56 08.10.2021
5992 Clear 9 1023 53 10000 3.51 13 23:26 07.10.2021
5993 Clear 9 1023 53 10000 3.51 13 22:55 07.10.2021
5994 Clear 11 1023 60 10000 3.68 16 21:29 07.10.2021
5995 Clear 11 1023 61 10000 3.65 16 20:42 07.10.2021
5996 Clouds 11 1022 67 10000 3.81 14 19:38 07.10.2021
5997 Clouds 17 1021 58 10000 3.55 11 18:54 07.10.2021
5998 Clouds 17 1020 43 10000 3.38 4 17:34 07.10.2021
5999 Clouds 18 1020 36 10000 3.71 4 16:42 07.10.2021
6000 Clouds 19 1019 31 10000 3.48 1 14:56 07.10.2021
6001 Clouds 16 1021 27 10000 1.34 257 13:44 07.10.2021
6002 Clouds 15 1021 26 10000 0.45 65 13:19 07.10.2021
6003 Clouds 13 1021 18 10000 3.45 6 11:21 07.10.2021
6004 Clouds 14 1021 18 10000 3.45 6 10:46 07.10.2021
6005 Clouds 12 1022 18 10000 3.69 10 09:47 07.10.2021
6006 Clouds 3 1023 54 10000 0.45 74 08:54 07.10.2021
6007 Clouds 1 1023 53 10000 4.12 17 08:19 07.10.2021
6008 Clouds 2 1023 52 10000 4.13 17 07:38 07.10.2021
6009 Clouds 2 1023 51 10000 4.02 16 06:41 07.10.2021
6010 Clouds 8 1026 49 10000 3.73 15 00:52 07.10.2021
6011 Clouds 4 1024 49 10000 3.8 15 23:20 06.10.2021
6012 Clouds 9 1027 65 10000 3.8 15 22:31 06.10.2021
6013 Clouds 9 1027 78 10000 3.86 14 21:26 06.10.2021
6014 Clouds 10 1026 79 10000 3.59 10 20:28 06.10.2021
6015 Clouds 11 1024 63 10000 3.3 2 18:59 06.10.2021
6016 Clouds 15 1022 35 10000 3.35 352 17:26 06.10.2021
6017 Clouds 18 1022 31 10000 2.8 343 15:37 06.10.2021
6018 Clouds 14 1022 36 10000 2.31 331 14:43 06.10.2021
6019 Clouds 11 1023 41 10000 1.34 223 13:24 06.10.2021
6020 Clouds 11 1024 43 10000 2.3 349 12:47 06.10.2021
6021 Clouds 12 1024 55 10000 2.92 359 12:25 06.10.2021
6022 Clouds 10 1024 65 10000 3.49 7 11:23 06.10.2021
6023 Clouds 9 1025 74 10000 3.51 3 09:40 06.10.2021
6024 Clouds 9 1024 83 10000 3.07 1 08:58 06.10.2021
6025 Clouds 8 1024 83 10000 3.08 1 08:30 06.10.2021
6026 Clouds 10 1022 88 10000 2.76 2 05:38 06.10.2021
6027 Clouds 8 1021 81 2039 1.94 347 01:38 06.10.2021
6028 Clouds 11 1022 79 344 1.97 350 00:20 06.10.2021
6029 Clouds 8 1021 79 344 1.97 350 23:50 05.10.2021
6030 Clouds 9 1021 77 442 2.08 3 23:29 05.10.2021
6031 Clouds 12 1022 79 442 2.08 3 22:30 05.10.2021
6032 Clouds 12 1021 79 10000 2.25 10 21:51 05.10.2021
6033 Clouds 12 1021 78 10000 2.54 14 20:51 05.10.2021
6034 Clouds 13 1020 93 10000 2.78 15 20:25 05.10.2021
6035 Clouds 12 1020 93 10000 2.78 15 19:50 05.10.2021
6036 Clouds 13 1019 82 10000 2.29 11 19:21 05.10.2021
6037 Clouds 15 1017 66 10000 1.53 3 17:23 05.10.2021
6038 Clouds 13 1017 61 10000 1.06 329 15:22 05.10.2021
6039 Clouds 14 1017 56 10000 1.28 307 13:44 05.10.2021
6040 Clouds 14 1017 60 10000 0.98 269 12:57 05.10.2021
6041 Clouds 14 1017 64 10000 0.98 269 12:32 05.10.2021
6042 Clouds 11 1018 79 10000 1.31 298 11:22 05.10.2021
6043 Clouds 11 1018 65 10000 1.1 293 09:50 05.10.2021
6044 Clouds 1 1019 84 10000 1.19 32 05:36 05.10.2021
6045 Clouds 7 1024 86 10000 2.05 30 23:54 04.10.2021
6046 Clouds 8 1024 86 10000 2.49 25 22:39 04.10.2021
6047 Clouds 7 1023 90 10000 3.06 18 20:43 04.10.2021
6048 Clouds 15 1020 93 10000 2.8 10 18:47 04.10.2021
6049 Clouds 16 1019 83 10000 3.05 358 16:39 04.10.2021
6050 Clouds 13 1018 80 10000 3.05 358 15:32 04.10.2021
6051 Clouds 12 1018 78 10000 3.05 359 14:43 04.10.2021
6052 Clouds 11 1018 76 10000 2.97 1 13:57 04.10.2021
6053 Clouds 11 1019 79 10000 2.96 6 13:27 04.10.2021
6054 Clouds 10 1019 75 10000 3.05 11 12:28 04.10.2021
6055 Clouds 9 1019 81 10000 3.05 11 11:31 04.10.2021
6056 Clouds 8 1019 86 10000 3.43 12 10:34 04.10.2021
6057 Clouds 8 1019 95 10000 3.24 12 08:45 04.10.2021
6058 Clouds 7 1019 95 1878 3.12 13 07:43 04.10.2021
6059 Rain 8 1017 94 10000 3.52 23 01:56 04.10.2021
6060 Rain 12 1016 97 2315 2.44 14 22:41 03.10.2021
6061 Rain 13 1016 97 3418 2.55 22 21:42 03.10.2021
6062 Rain 12 1016 98 1617 3.68 351 21:23 03.10.2021
6063 Clouds 12 1012 97 1656 3.23 14 20:21 03.10.2021
6064 Rain 13 1012 97 1656 3.23 14 19:30 03.10.2021
6065 Rain 13 1012 97 1656 3.23 14 19:30 03.10.2021
6066 Rain 12 1011 87 10000 0.45 0 18:27 03.10.2021
6067 Clouds 14 1011 80 10000 0.89 184 17:24 03.10.2021
6068 Clouds 15 1011 74 10000 1.79 205 14:47 03.10.2021
6069 Clouds 16 1011 74 10000 2.24 248 14:18 03.10.2021
6070 Clouds 15 1011 74 10000 1.79 230 13:34 03.10.2021
6071 Clouds 17 1011 69 10000 4.1 194 12:29 03.10.2021
6072 Clouds 16 1011 74 10000 3.61 195 10:37 03.10.2021
6073 Clouds 15 1012 97 894 3.08 196 08:43 03.10.2021
6074 Clouds 16 1014 99 720 2.93 196 01:44 03.10.2021
6075 Clouds 15 1016 83 10000 2.42 196 22:40 02.10.2021
6076 Clouds 16 1016 81 10000 1.71 169 20:57 02.10.2021
6077 Clouds 17 1016 77 10000 2 187 19:42 02.10.2021
6078 Clouds 19 1015 63 10000 2.79 200 18:52 02.10.2021
6079 Clouds 19 1014 58 10000 3.81 213 17:54 02.10.2021
6080 Clouds 20 1014 58 10000 3.96 212 17:21 02.10.2021
6081 Clouds 20 1016 54 10000 4.05 211 14:58 02.10.2021
6082 Clouds 18 1024 47 10000 1.34 225 16:34 30.09.2021
6083 Clouds 16 1025 52 10000 1.95 217 14:57 30.09.2021
6084 Clouds 14 1027 57 10000 1.45 214 12:56 30.09.2021
6085 Clouds 14 1026 68 10000 0.62 227 11:35 30.09.2021
6086 Clouds 12 1026 50 10000 0.61 227 10:41 30.09.2021
6087 Clouds 10 1027 84 10000 1.82 17 08:56 30.09.2021
6088 Clouds 9 1028 84 10000 2.53 22 08:27 30.09.2021
6089 Clouds 9 1028 83 10000 2.72 18 06:59 30.09.2021
6090 Clouds 11 1028 79 10000 2.72 15 04:42 30.09.2021
6091 Clouds 12 1029 74 10000 2.81 17 00:46 30.09.2021
6092 Clouds 12 1030 74 10000 2.8 13 23:30 29.09.2021
6093 Clouds 13 1029 90 10000 2.71 12 21:55 29.09.2021
6094 Clouds 15 1029 91 10000 2.85 15 20:57 29.09.2021
6095 Clouds 16 1028 86 10000 2.78 12 20:23 29.09.2021
6096 Clouds 17 1028 86 10000 2.78 12 19:38 29.09.2021
6097 Clouds 18 1026 69 10000 2.78 3 18:22 29.09.2021
6098 Clouds 19 1025 67 10000 3.23 357 17:26 29.09.2021
6099 Clouds 17 1025 67 10000 3.23 357 16:43 29.09.2021
6100 Clouds 18 1025 61 10000 2.72 350 15:45 29.09.2021
6101 Clouds 18 1025 61 10000 2.72 350 15:45 29.09.2021
6102 Clouds 17 1024 56 10000 1.68 325 14:38 29.09.2021
6103 Clouds 17 1025 57 10000 1.26 281 13:36 29.09.2021
6104 Clouds 15 1026 58 10000 0.45 263 12:46 29.09.2021
6105 Clouds 15 1026 74 10000 1.76 6 11:26 29.09.2021
6106 Clouds 14 1026 82 10000 1.76 6 10:34 29.09.2021
6107 Clouds 13 1026 86 10000 1.96 10 09:44 29.09.2021
6108 Clouds 11 1025 87 10000 2.6 10 08:24 29.09.2021
6109 Clouds 11 1025 87 10000 2.61 16 06:53 29.09.2021
6110 Clouds 13 1024 84 10000 2.4 14 00:43 29.09.2021
6111 Clouds 14 1024 82 10000 1.62 20 22:52 28.09.2021
6112 Clouds 14 1024 80 10000 0.85 355 22:22 28.09.2021
6113 Clouds 15 1022 75 10000 0.51 223 21:23 28.09.2021
6114 Clouds 17 1022 68 10000 0.76 205 19:53 28.09.2021
6115 Clouds 17 1022 65 10000 0.76 205 19:32 28.09.2021
6116 Clouds 18 1021 62 10000 1.61 208 18:42 28.09.2021
6117 Clouds 20 1020 56 10000 2.73 218 16:58 28.09.2021
6118 Clouds 18 1022 56 10000 0.89 152 15:21 28.09.2021
6119 Clouds 19 1022 73 10000 3.18 214 13:27 28.09.2021
6120 Clouds 18 1023 73 10000 2.78 215 12:26 28.09.2021
6121 Clouds 17 1023 74 10000 2.78 215 11:51 28.09.2021
6122 Clouds 17 1023 74 10000 2.78 215 11:32 28.09.2021
6123 Clouds 15 1023 84 10000 2.3 216 10:30 28.09.2021
6124 Clouds 13 1024 87 10000 0.84 208 09:29 28.09.2021
6125 Clouds 12 1024 86 10000 0.84 208 08:44 28.09.2021
6126 Clouds 12 1024 86 10000 0.26 213 08:20 28.09.2021
6127 Clouds 9 1024 84 10000 0.31 220 06:46 28.09.2021
6128 Clouds 14 1025 90 10000 0.2 42 01:38 28.09.2021
6129 Clouds 14 1026 88 10000 0.55 20 00:32 28.09.2021
6130 Clouds 15 1026 89 10000 1.08 27 23:52 27.09.2021
6131 Clouds 15 1026 89 10000 1.41 29 23:25 27.09.2021
6132 Clouds 16 1026 89 10000 1.41 29 22:31 27.09.2021
6133 Clouds 16 1025 88 10000 1.56 34 21:38 27.09.2021
6134 Clouds 18 1024 84 10000 1.75 11 20:27 27.09.2021
6135 Clouds 16 1024 85 10000 2 14 19:37 27.09.2021
6136 Clouds 21 1022 71 10000 1.57 356 18:54 27.09.2021
6137 Clouds 22 1021 51 10000 1.1 329 17:41 27.09.2021
6138 Clouds 22 1021 51 10000 1.1 329 17:41 27.09.2021
6139 Clouds 23 1021 42 10000 1.54 295 17:21 27.09.2021
6140 Clouds 22 1021 42 10000 1.54 295 16:35 27.09.2021
6141 Clouds 21 1022 40 10000 1.11 310 15:39 27.09.2021
6142 Clouds 21 1020 53 10000 1.63 13 13:50 27.09.2021
6143 Clouds 16 1021 38 10000 1.32 354 12:25 27.09.2021
6144 Clouds 13 1021 43 10000 0.79 320 10:50 27.09.2021
6145 Clouds 16 1021 53 10000 0.89 301 09:42 27.09.2021
6146 Clouds 12 1022 85 10000 1.26 20 07:54 27.09.2021
6147 Clouds 9 1023 85 10000 0.5 234 03:34 27.09.2021
6148 Clouds 14 1023 80 10000 0.45 99 23:49 26.09.2021
6149 Clouds 15 1023 76 10000 0.7 71 21:59 26.09.2021
6150 Clouds 16 1022 74 10000 1.33 49 21:27 26.09.2021
6151 Clouds 17 1021 71 10000 0.49 359 20:26 26.09.2021
6152 Clouds 18 1021 81 10000 0.49 359 19:54 26.09.2021
6153 Clouds 19 1020 69 10000 1.22 229 19:25 26.09.2021
6154 Clouds 19 1020 69 10000 1.22 229 18:41 26.09.2021
6155 Clouds 21 1019 52 10000 2.28 225 17:38 26.09.2021
6156 Clouds 21 1019 54 10000 2.45 218 17:20 26.09.2021
6157 Clouds 21 1019 53 10000 2.78 217 16:23 26.09.2021
6158 Clouds 22 1019 52 10000 2.41 207 15:27 26.09.2021
6159 Clouds 23 1020 51 10000 2.62 215 14:22 26.09.2021
6160 Clouds 21 1020 53 10000 2.62 215 13:42 26.09.2021
6161 Clear 19 1019 62 10000 2.1 199 12:31 26.09.2021
6162 Clear 17 1020 63 10000 1.21 217 11:56 26.09.2021
6163 Clear 16 1021 73 10000 0.79 276 11:23 26.09.2021
6164 Clear 15 1021 69 10000 0.63 322 09:50 26.09.2021
6165 Clouds 10 1021 86 10000 0.6 355 08:41 26.09.2021
6166 Clouds 14 1020 93 10000 1.37 197 00:29 26.09.2021
6167 Clouds 14 1020 93 10000 1.37 197 23:43 25.09.2021
6168 Clouds 14 1020 92 10000 1.45 183 22:39 25.09.2021
6169 Clouds 14 1020 90 10000 1.66 186 22:18 25.09.2021
6170 Clouds 14 1020 90 10000 1.66 186 22:18 25.09.2021
6171 Clouds 16 1020 76 10000 1.66 186 21:40 25.09.2021
6172 Clouds 17 1020 83 10000 1.88 197 20:52 25.09.2021
6173 Clouds 17 1019 87 10000 2.12 209 19:33 25.09.2021
6174 Rain 20 1017 73 10000 4.37 220 18:28 25.09.2021
6175 Clear 21 1017 68 10000 5.55 222 17:21 25.09.2021
6176 Clear 21 1017 58 10000 4.83 214 14:30 25.09.2021
6177 Clouds 20 1018 60 10000 4.47 215 13:54 25.09.2021
6178 Clouds 15 1018 52 10000 3.82 208 12:37 25.09.2021
6179 Rain 11 1018 66 10000 3.14 214 10:42 25.09.2021
6180 Rain 12 1021 84 10000 1.79 213 09:59 25.09.2021
6181 Clouds 11 1020 83 10000 1.27 215 08:55 25.09.2021
6182 Clouds 10 1019 87 10000 1.23 133 07:47 25.09.2021
6183 Clouds 13 1021 82 10000 0.5 192 00:52 25.09.2021
6184 Clouds 17 1020 78 10000 0.81 130 21:58 24.09.2021
6185 Clouds 18 1020 75 10000 0.88 152 21:25 24.09.2021
6186 Clouds 18 1020 73 10000 0.88 152 20:31 24.09.2021
6187 Clouds 20 1018 64 10000 2.42 218 18:36 24.09.2021
6188 Clouds 21 1017 58 10000 2.57 211 17:56 24.09.2021
6189 Clouds 20 1017 62 10000 2.57 211 17:38 24.09.2021
6190 Clouds 21 1017 61 10000 2.96 218 17:19 24.09.2021
6191 Clouds 22 1017 58 10000 3.04 213 15:38 24.09.2021
6192 Clouds 18 1019 71 10000 2.44 197 13:20 24.09.2021
6193 Clouds 15 1019 57 10000 2.44 197 12:42 24.09.2021
6194 Clouds 14 1019 58 10000 2.59 196 12:24 24.09.2021
6195 Clouds 9 1019 58 10000 2.46 193 10:38 24.09.2021
6196 Clouds 13 1020 71 10000 0.66 93 08:59 24.09.2021
6197 Clouds 6 1022 88 10000 0.74 79 07:55 24.09.2021
6198 Clouds 7 1022 88 10000 1.11 72 06:57 24.09.2021
6199 Clear 7 1022 88 10000 1.2 70 05:22 24.09.2021
6200 Clear 8 1023 84 10000 0.45 74 01:24 24.09.2021
6201 Clear 9 1023 81 10000 0.94 52 22:37 23.09.2021
6202 Clear 13 1023 80 10000 1.05 62 21:57 23.09.2021
6203 Clouds 15 1023 90 10000 1.19 57 20:37 23.09.2021
6204 Clouds 15 1022 77 10000 0.2 82 20:19 23.09.2021
6205 Clouds 17 1021 71 10000 0.42 167 18:27 23.09.2021
6206 Clouds 18 1022 64 10000 1.28 172 15:37 23.09.2021
6207 Clouds 18 1021 61 10000 2.25 180 15:18 23.09.2021
6208 Clouds 17 1022 64 10000 2.37 188 13:49 23.09.2021
6209 Clouds 17 1021 64 10000 2.93 189 13:23 23.09.2021
6210 Clouds 17 1021 61 10000 2.93 189 12:53 23.09.2021
6211 Clouds 16 1021 60 10000 2.35 188 12:23 23.09.2021
6212 Clouds 16 1021 71 10000 2.35 188 11:55 23.09.2021
6213 Clouds 12 1022 83 10000 1.32 171 10:27 23.09.2021
6214 Clouds 14 1022 65 10000 1.32 171 09:53 23.09.2021
6215 Clouds 5 1023 83 10000 1.46 54 08:38 23.09.2021
6216 Clear 7 1023 81 10000 0.45 46 05:27 23.09.2021
6217 Clouds 9 1023 78 10000 1.67 44 23:45 22.09.2021
6218 Clouds 13 1023 94 10000 1.86 37 22:42 22.09.2021
6219 Clouds 14 1023 72 10000 1.81 41 21:57 22.09.2021
6220 Clouds 14 1023 70 10000 1.81 41 21:34 22.09.2021
6221 Clouds 15 1022 65 10000 1.66 33 20:57 22.09.2021
6222 Clouds 17 1022 87 10000 2.26 22 19:33 22.09.2021
6223 Clouds 19 1020 57 10000 0.73 354 18:40 22.09.2021
6224 Clouds 17 1022 52 10000 0.89 192 17:48 22.09.2021
6225 Clouds 16 1022 50 10000 3.13 225 16:40 22.09.2021
6226 Clouds 17 1022 47 10000 1.79 167 15:38 22.09.2021
6227 Clouds 17 1022 48 10000 0.89 9 14:25 22.09.2021
6228 Clouds 12 1023 57 10000 1.63 179 12:19 22.09.2021
6229 Clouds 15 1022 52 10000 0.8 175 10:53 22.09.2021
6230 Clouds 9 1024 87 10000 1.96 43 09:25 22.09.2021
6231 Clouds 8 1024 89 10000 1.96 43 08:30 22.09.2021
6232 Clouds 8 1024 89 10000 1.96 43 08:30 22.09.2021
6233 Clouds 5 1024 86 10000 0.89 293 07:21 22.09.2021
6234 Clouds 5 1024 85 10000 1.69 60 06:18 22.09.2021
6235 Clouds 5 1024 86 10000 1.69 60 05:36 22.09.2021
6236 Clouds 9 1025 88 10000 1.49 47 03:52 22.09.2021
6237 Clouds 10 1027 91 10000 2.19 51 00:22 22.09.2021
6238 Clouds 10 1027 90 10000 2.28 42 23:24 21.09.2021
6239 Clouds 10 1026 94 10000 2.12 34 21:37 21.09.2021
6240 Clouds 11 1025 90 10000 1.48 27 20:27 21.09.2021
6241 Clouds 12 1024 86 10000 1.75 42 19:22 21.09.2021
6242 Rain 13 1024 81 10000 1.5 22 17:39 21.09.2021
6243 Rain 14 1024 67 10000 1.83 4 16:38 21.09.2021
6244 Clouds 16 1024 71 10000 1.9 8 15:44 21.09.2021
6245 Clouds 16 1023 66 10000 2.9 21 14:58 21.09.2021
6246 Clouds 13 1023 55 10000 2.24 292 13:56 21.09.2021
6247 Clouds 13 1023 55 10000 1.79 229 13:36 21.09.2021
6248 Clouds 15 1023 64 10000 1.98 20 12:36 21.09.2021
6249 Clouds 12 1024 67 10000 2.07 28 10:32 21.09.2021
6250 Clouds 6 1026 92 10000 3.48 21 08:29 21.09.2021
6251 Clouds 6 1026 93 10000 3.61 18 07:18 21.09.2021
6252 Clouds 9 1024 94 10000 2.66 14 00:30 21.09.2021
6253 Clouds 9 1024 95 10000 3.2 13 22:27 20.09.2021
6254 Clouds 9 1024 95 10000 3.2 13 21:40 20.09.2021
6255 Clouds 9 1023 94 10000 3.12 15 20:34 20.09.2021
6256 Clouds 12 1022 69 10000 1.97 33 19:31 20.09.2021
6257 Clouds 14 1020 62 10000 2.57 1 17:47 20.09.2021
6258 Clouds 16 1019 53 10000 2.21 2 16:43 20.09.2021
6259 Clouds 17 1019 49 10000 2.37 356 15:50 20.09.2021
6260 Clouds 17 1019 49 10000 2.37 356 15:32 20.09.2021
6261 Clouds 18 1019 50 10000 2.48 1 14:24 20.09.2021
6262 Clouds 12 1020 60 10000 2.37 10 12:35 20.09.2021
6263 Clouds 14 1020 64 10000 2.64 2 11:26 20.09.2021
6264 Clouds 12 1020 74 10000 2.46 354 10:18 20.09.2021
6265 Clouds 11 1020 78 10000 2.46 354 09:36 20.09.2021
6266 Clouds 10 1020 80 10000 2.57 8 09:18 20.09.2021
6267 Clouds 10 1021 82 10000 2.75 17 07:45 20.09.2021
6268 Clouds 12 1022 76 10000 1.71 12 00:36 20.09.2021
6269 Clouds 14 1022 72 10000 2.32 13 22:26 19.09.2021
6270 Clouds 14 1022 70 10000 2.32 13 21:43 19.09.2021
6271 Clouds 15 1021 86 10000 2.48 9 20:43 19.09.2021
6272 Clear 17 1020 83 10000 2.59 0 19:31 19.09.2021
6273 Clouds 20 1017 50 10000 2.55 331 18:29 19.09.2021
6274 Clouds 20 1017 46 10000 2.59 323 17:23 19.09.2021
6275 Clouds 18 1018 42 10000 1.79 289 15:59 19.09.2021
6276 Clouds 18 1019 45 10000 1.34 265 15:30 19.09.2021
6277 Clouds 18 1019 45 10000 1.34 265 15:30 19.09.2021
6278 Clear 17 1019 45 10000 0.89 234 14:48 19.09.2021
6279 Clear 15 1019 53 10000 0.45 275 13:24 19.09.2021
6280 Clear 17 1018 57 10000 1.58 277 12:50 19.09.2021
6281 Clear 14 1019 67 10000 1.97 342 11:28 19.09.2021
6282 Clear 12 1019 74 10000 1.97 342 10:47 19.09.2021
6283 Clear 10 1020 79 10000 2.53 4 09:40 19.09.2021
6284 Clear 9 1020 81 10000 2.87 14 08:31 19.09.2021
6285 Clouds 5 1019 89 10000 3.16 17 06:41 19.09.2021
6286 Clouds 12 1018 94 2015 2.6 2 23:37 18.09.2021
6287 Clouds 10 1018 93 10000 2.13 11 21:59 18.09.2021
6288 Clouds 10 1016 93 4038 1.94 348 20:51 18.09.2021
6289 Clouds 10 1016 93 4038 1.94 348 20:31 18.09.2021
6290 Clouds 11 1016 90 10000 1.17 333 19:39 18.09.2021
6291 Clouds 11 1016 90 10000 1.16 195 19:20 18.09.2021
6292 Rain 12 1016 89 10000 0.45 291 18:32 18.09.2021
6293 Clouds 17 1015 92 10000 1.87 233 17:29 18.09.2021
6294 Clouds 15 1015 81 10000 2.24 261 15:50 18.09.2021
6295 Clouds 14 1017 78 10000 0.89 0 13:46 18.09.2021
6296 Clouds 13 1017 81 10000 3.48 216 13:27 18.09.2021
6297 Clouds 13 1017 86 10000 0.45 0 12:49 18.09.2021
6298 Clouds 11 1018 85 10000 3.57 213 11:38 18.09.2021
6299 Clouds 12 1017 77 10000 2.88 202 10:31 18.09.2021
6300 Clouds 10 1018 83 10000 0.36 173 09:27 18.09.2021
6301 Clouds 13 1017 86 10000 0.36 173 08:48 18.09.2021
6302 Clouds 10 1018 81 10000 1.16 34 00:59 18.09.2021
6303 Clouds 10 1018 81 10000 1.16 34 00:41 18.09.2021
6304 Clouds 9 1018 80 10000 0.97 36 23:44 17.09.2021
6305 Clouds 15 1018 86 10000 0.9 37 22:33 17.09.2021
6306 Clouds 16 1017 86 10000 1.08 43 21:48 17.09.2021
6307 Clouds 18 1016 67 10000 0.69 193 20:25 17.09.2021
6308 Clouds 21 1015 76 10000 1.74 221 18:51 17.09.2021
6309 Clouds 23 1015 67 10000 2.43 223 16:50 17.09.2021
6310 Clouds 22 1015 66 10000 2.24 228 15:50 17.09.2021
6311 Clouds 16 1017 67 10000 2.66 216 12:32 17.09.2021
6312 Clouds 10 1019 84 10000 2.18 214 10:40 17.09.2021
6313 Clear 8 1019 93 10000 0.84 27 07:50 17.09.2021
6314 Clear 8 1019 92 10000 1.08 23 06:29 17.09.2021
6315 Clouds 13 1021 85 10000 1.31 27 00:34 17.09.2021
6316 Clouds 14 1021 84 10000 1.95 16 22:46 16.09.2021
6317 Clouds 14 1021 83 10000 2.03 21 22:24 16.09.2021
6318 Clouds 15 1021 82 10000 2.03 21 21:36 16.09.2021
6319 Clouds 10 1021 90 10000 1.7 18 20:36 16.09.2021
6320 Clouds 16 1019 86 10000 0.83 251 19:18 16.09.2021
6321 Clouds 13 1020 82 10000 1.74 222 18:19 16.09.2021
6322 Clouds 13 1020 82 10000 1.74 222 18:19 16.09.2021
6323 Clouds 14 1020 74 10000 2.03 217 17:19 16.09.2021
6324 Clouds 16 1019 69 9805 0.45 221 14:51 16.09.2021
6325 Rain 16 1020 77 10000 2.51 225 13:40 16.09.2021
6326 Clouds 15 1020 74 10000 2.51 220 12:46 16.09.2021
6327 Clouds 14 1020 76 10000 1.81 208 11:50 16.09.2021
6328 Clouds 13 1020 77 10000 0.11 252 10:56 16.09.2021
6329 Clouds 15 1019 80 10000 1.41 39 10:23 16.09.2021
6330 Clouds 16 1019 85 10000 1.41 39 09:31 16.09.2021
6331 Clouds 14 1019 87 10000 1.27 66 07:52 16.09.2021
6332 Clouds 15 1019 86 10000 0.29 153 06:57 16.09.2021
6333 Clouds 11 1018 84 10000 0.29 153 06:38 16.09.2021
6334 Clouds 15 1019 80 10000 1.45 40 03:22 16.09.2021
6335 Clouds 12 1020 79 10000 1.42 28 00:53 16.09.2021
6336 Clear 17 1019 88 10000 0.84 4 23:26 15.09.2021
6337 Clear 17 1019 87 10000 0.54 290 22:28 15.09.2021
6338 Clear 16 1019 87 10000 0.54 290 21:31 15.09.2021
6339 Clear 17 1018 86 10000 0.84 233 20:42 15.09.2021
6340 Clouds 22 1016 73 10000 1.82 216 19:33 15.09.2021
6341 Clouds 22 1015 57 10000 3.24 202 18:45 15.09.2021
6342 Clouds 24 1015 49 10000 3.39 208 17:39 15.09.2021
6343 Clear 25 1015 49 10000 3.8 215 16:30 15.09.2021
6344 Clear 25 1015 49 10000 3.97 214 15:22 15.09.2021
6345 Clear 25 1015 54 10000 3.97 214 14:41 15.09.2021
6346 Clouds 24 1015 62 10000 4.23 208 13:45 15.09.2021
6347 Clouds 23 1015 70 10000 3.36 203 13:27 15.09.2021
6348 Clouds 21 1015 80 10000 3.36 203 12:33 15.09.2021
6349 Clear 21 1016 77 10000 2.91 199 11:50 15.09.2021
6350 Clear 18 1016 89 10000 1.65 187 10:57 15.09.2021
6351 Clouds 16 1016 91 10000 1.49 185 09:59 15.09.2021
6352 Clear 14 1016 91 10000 0.28 103 08:47 15.09.2021
6353 Clouds 11 1017 93 10000 0.15 64 07:25 15.09.2021
6354 Rain 17 1016 94 10000 1.65 242 00:41 15.09.2021
6355 Clouds 18 1017 88 10000 1.67 141 22:22 14.09.2021
6356 Clouds 19 1017 84 10000 1.75 143 21:19 14.09.2021
6357 Clouds 18 1017 86 10000 1.95 191 19:58 14.09.2021
6358 Clouds 19 1015 88 10000 2.57 203 18:40 14.09.2021
6359 Rain 20 1015 85 10000 3.74 216 17:29 14.09.2021
6360 Clouds 21 1016 80 10000 2.47 217 15:59 14.09.2021
6361 Clouds 24 1016 59 10000 4.32 211 14:32 14.09.2021
6362 Clouds 18 1018 61 10000 0.45 243 13:33 14.09.2021
6363 Clouds 20 1017 70 10000 2.99 203 10:57 14.09.2021
6364 Clouds 17 1018 82 10000 2.71 206 09:52 14.09.2021
6365 Clouds 16 1018 81 10000 1.43 188 09:18 14.09.2021
6366 Clouds 15 1017 83 10000 0.71 220 07:28 14.09.2021
6367 Clouds 17 1019 77 10000 1.75 194 00:56 14.09.2021
6368 Rain 18 1019 86 10000 1.02 174 22:58 13.09.2021
6369 Clouds 18 1019 80 10000 1.14 119 22:26 13.09.2021
6370 Clouds 19 1019 85 10000 1.14 119 21:54 13.09.2021
6371 Rain 10 1021 88 10000 0.89 59 21:19 13.09.2021
6372 Clouds 22 1017 69 10000 0.68 176 19:34 13.09.2021
6373 Rain 22 1017 70 10000 2.21 226 18:43 13.09.2021
6374 Clouds 24 1016 57 10000 2.9 212 16:58 13.09.2021
6375 Clouds 26 1016 49 10000 4.33 215 15:50 13.09.2021
6376 Clouds 24 1018 42 10000 3.35 223 13:36 13.09.2021
6377 Clouds 19 1019 76 10000 1.86 207 11:20 13.09.2021
6378 Clouds 13 1019 67 10000 0.88 185 09:42 13.09.2021
6379 Clouds 14 1020 88 10000 1.19 36 07:28 13.09.2021
6380 Clear 17 1020 75 10000 0.76 49 23:50 12.09.2021
6381 Clouds 18 1019 70 10000 0.94 83 22:26 12.09.2021
6382 Clouds 17 1019 85 10000 0.94 83 21:43 12.09.2021
6383 Clouds 18 1019 82 10000 0.84 132 20:40 12.09.2021
6384 Clouds 19 1018 76 10000 1.37 171 19:54 12.09.2021
6385 Clouds 22 1017 57 10000 1.68 184 19:28 12.09.2021
6386 Clouds 24 1016 51 10000 1.36 209 18:29 12.09.2021
6387 Clouds 25 1016 58 10000 2.16 216 16:33 12.09.2021
6388 Clouds 21 1019 47 10000 1.79 259 14:59 12.09.2021
6389 Clouds 24 1017 55 10000 2.67 208 13:49 12.09.2021
6390 Clouds 19 1018 73 10000 2.4 214 11:31 12.09.2021
6391 Clouds 17 1019 69 10000 1.21 202 09:35 12.09.2021
6392 Clouds 7 1020 85 10000 0.21 40 08:38 12.09.2021
6393 Clouds 16 1021 86 10000 0.82 58 02:22 12.09.2021
6394 Clouds 17 1021 92 10000 1.09 47 23:28 11.09.2021
6395 Clouds 18 1021 92 10000 1.08 49 21:50 11.09.2021
6396 Clouds 19 1021 91 10000 0.42 50 20:59 11.09.2021
6397 Clouds 21 1019 60 10000 1.56 218 19:21 11.09.2021
6398 Clouds 23 1018 61 10000 1.97 227 17:34 11.09.2021
6399 Clouds 19 1020 51 10000 1.79 292 15:48 11.09.2021
6400 Clouds 22 1019 57 10000 2.87 210 13:33 11.09.2021
6401 Clouds 20 1020 62 10000 2.61 211 12:48 11.09.2021
6402 Clouds 18 1021 79 10000 1.98 207 11:19 11.09.2021
6403 Clouds 15 1021 92 10000 1.44 196 09:38 11.09.2021
6404 Clouds 13 1022 95 10000 0.93 50 07:45 11.09.2021
6405 Clouds 13 1022 96 10000 0.83 49 06:48 11.09.2021
6406 Clouds 12 1022 90 10000 0.88 23 23:23 10.09.2021
6407 Clouds 12 1022 88 10000 1.03 18 22:23 10.09.2021
6408 Clouds 13 1022 87 10000 1.03 18 21:48 10.09.2021
6409 Clouds 17 1020 79 10000 0.34 330 19:57 10.09.2021
6410 Rain 15 1019 74 6469 0.89 69 18:26 10.09.2021
6411 Clouds 21 1018 80 6184 0.76 291 16:48 10.09.2021
6412 Clouds 21 1018 61 7960 0.54 266 13:55 10.09.2021
6413 Clouds 19 1018 86 9308 0.24 297 11:54 10.09.2021
6414 Clouds 14 1017 85 10000 1.03 14 08:36 10.09.2021
6415 Clouds 9 1018 90 10000 1.88 27 07:48 10.09.2021
6416 Clouds 16 1018 95 10000 0.68 66 00:42 10.09.2021
6417 Clouds 13 1018 90 3650 0.57 163 22:24 09.09.2021
6418 Clouds 13 1018 89 3950 1.08 166 21:28 09.09.2021
6419 Clouds 17 1017 85 3950 1.08 166 20:42 09.09.2021
6420 Clouds 15 1017 79 10000 0.45 235 18:55 09.09.2021
6421 Rain 18 1015 90 10000 1.37 217 17:54 09.09.2021
6422 Clouds 22 1015 89 8618 2.52 210 16:40 09.09.2021
6423 Clouds 22 1015 76 6052 2.84 202 15:26 09.09.2021
6424 Clouds 19 1014 87 10000 2.23 212 12:34 09.09.2021
6425 Clouds 18 1015 66 10000 1.91 193 11:33 09.09.2021
6426 Clouds 12 1018 93 10000 0.54 136 09:39 09.09.2021
6427 Rain 10 1018 88 10000 1.06 42 08:32 09.09.2021
6428 Clear 10 1017 88 10000 2.09 36 06:24 09.09.2021
6429 Clear 17 1017 83 10000 1.99 20 01:31 09.09.2021
6430 Clear 17 1017 83 10000 1.99 20 01:31 09.09.2021
6431 Clear 17 1017 83 10000 1.99 20 01:31 09.09.2021
6432 Clear 17 1017 83 10000 1.99 20 01:31 09.09.2021
6433 Clear 20 1016 80 10000 0.83 144 21:50 08.09.2021
6434 Clear 20 1016 76 10000 1.41 181 20:57 08.09.2021
6435 Clouds 16 1016 78 10000 2.63 206 19:47 08.09.2021
6436 Rain 18 1015 68 10000 1.79 315 18:49 08.09.2021
6437 Clouds 24 1013 69 10000 4.13 207 18:27 08.09.2021
6438 Clouds 20 1015 61 10000 1.34 240 17:52 08.09.2021
6439 Clouds 23 1015 47 10000 1.34 245 16:24 08.09.2021
6440 Clear 23 1016 44 10000 0.89 237 13:46 08.09.2021
6441 Clear 21 1017 50 10000 0.89 216 12:42 08.09.2021
6442 Clear 21 1017 52 10000 3.28 207 12:23 08.09.2021
6443 Clear 22 1016 67 10000 2.71 206 11:26 08.09.2021
6444 Clear 19 1016 45 10000 2.71 206 10:31 08.09.2021
6445 Clear 18 1016 48 10000 1.77 202 09:56 08.09.2021
6446 Clouds 10 1019 79 10000 0.84 80 07:46 08.09.2021
6447 Clouds 10 1019 79 10000 0.84 71 07:19 08.09.2021
6448 Clouds 15 1022 78 10000 0.66 73 23:32 07.09.2021
6449 Clouds 20 1022 80 10000 0.41 135 22:19 07.09.2021
6450 Clouds 23 1021 86 10000 0.85 138 20:42 07.09.2021
6451 Clouds 21 1021 63 10000 2.12 213 19:26 07.09.2021
6452 Clouds 24 1020 64 10000 2.12 213 18:37 07.09.2021
6453 Clouds 22 1021 58 10000 2.88 211 17:35 07.09.2021
6454 Clouds 26 1019 60 10000 3.64 215 15:57 07.09.2021
6455 Clouds 26 1020 62 10000 3.56 217 14:53 07.09.2021
6456 Clouds 21 1023 58 10000 3.16 222 13:52 07.09.2021
6457 Clouds 17 1024 57 10000 2.49 216 11:58 07.09.2021
6458 Clouds 15 1025 65 10000 0.45 0 10:50 07.09.2021
6459 Clouds 17 1022 55 10000 1.51 218 09:40 07.09.2021
6460 Clouds 10 1024 80 10000 0.53 60 07:47 07.09.2021
6461 Clouds 11 1024 80 10000 1.01 32 06:19 07.09.2021
6462 Clouds 17 1024 83 10000 0.32 27 02:38 07.09.2021
6463 Clouds 18 1025 82 10000 0.81 56 00:55 07.09.2021
6464 Clouds 19 1025 81 10000 0.73 59 23:46 06.09.2021
6465 Clouds 18 1025 78 10000 0.84 71 23:28 06.09.2021
6466 Clouds 18 1025 78 10000 0.86 71 22:49 06.09.2021
6467 Clouds 18 1025 75 10000 0.71 34 21:52 06.09.2021
6468 Clouds 24 1022 50 10000 1.13 208 19:44 06.09.2021
6469 Clouds 26 1021 49 10000 1.46 221 19:18 06.09.2021
6470 Clouds 28 1021 47 10000 1.46 221 18:33 06.09.2021
6471 Clouds 28 1020 46 10000 2.93 228 17:50 06.09.2021
6472 Clouds 27 1022 37 10000 0.89 281 16:20 06.09.2021
6473 Clouds 27 1022 37 10000 0.89 281 16:20 06.09.2021
6474 Clouds 29 1020 44 10000 2.63 230 14:37 06.09.2021
6475 Clouds 25 1022 54 10000 1.45 243 12:48 06.09.2021
6476 Clouds 22 1022 64 10000 1.31 246 11:43 06.09.2021
6477 Clouds 20 1022 46 10000 0.56 255 09:59 06.09.2021
6478 Clouds 8 1025 81 10000 1.95 28 07:34 06.09.2021
6479 Clouds 18 1024 71 10000 1.27 35 01:32 06.09.2021
6480 Clouds 13 1024 67 10000 1.54 38 23:20 05.09.2021
6481 Clouds 19 1024 72 10000 1.54 38 22:32 05.09.2021
6482 Clouds 20 1023 72 10000 1.95 33 21:55 05.09.2021
6483 Clouds 21 1022 60 10000 2.02 29 21:19 05.09.2021
6484 Clouds 26 1019 50 10000 0.91 12 19:22 05.09.2021
6485 Clouds 28 1019 41 10000 0.59 275 17:51 05.09.2021
6486 Clouds 28 1019 31 10000 1.92 235 15:40 05.09.2021
6487 Clouds 27 1019 36 10000 2.15 226 14:45 05.09.2021
6488 Clouds 22 1020 61 10000 1.82 218 12:34 05.09.2021
6489 Clouds 18 1020 46 10000 0.87 218 10:59 05.09.2021
6490 Clouds 15 1020 46 10000 0.87 218 10:34 05.09.2021
6491 Clouds 15 1021 70 10000 0.75 35 09:26 05.09.2021
6492 Clouds 7 1022 87 10000 1.62 34 08:23 05.09.2021
6493 Clear 10 1022 84 10000 1.21 33 03:20 05.09.2021
6494 Clouds 16 1020 81 10000 1.24 42 00:34 05.09.2021
6495 Clouds 17 1020 79 10000 0.78 28 23:46 04.09.2021
6496 Clouds 18 1020 77 10000 0.71 38 22:36 04.09.2021
6497 Clouds 18 1020 74 10000 0.91 30 21:59 04.09.2021
6498 Clouds 20 1018 80 10000 0.54 309 19:54 04.09.2021
6499 Clouds 22 1017 68 10000 0.94 237 19:29 04.09.2021
6500 Clouds 24 1017 65 10000 1.52 242 16:47 04.09.2021
6501 Clouds 23 1018 65 10000 1.84 213 13:49 04.09.2021
6502 Clear 19 1018 90 10000 1.61 207 11:21 04.09.2021
6503 Clouds 9 1020 90 10000 0.71 212 09:33 04.09.2021
6504 Clouds 13 1019 93 10000 1.04 20 06:55 04.09.2021
6505 Clouds 15 1020 94 10000 1.5 35 00:28 04.09.2021
6506 Rain 15 1020 94 10000 1.5 35 23:32 03.09.2021
6507 Clouds 16 1020 91 10000 1.73 32 22:40 03.09.2021
6508 Clouds 16 1020 90 10000 1.44 31 21:36 03.09.2021
6509 Clouds 17 1019 89 10000 0.4 25 20:49 03.09.2021
6510 Clouds 13 1018 82 10000 0.6 321 19:56 03.09.2021
6511 Clouds 15 1018 78 10000 0.83 259 19:23 03.09.2021
6512 Clouds 22 1018 66 10000 1.32 234 17:56 03.09.2021
6513 Clouds 22 1018 66 10000 1.32 234 17:56 03.09.2021
6514 Rain 20 1017 69 8434 1.87 237 16:38 03.09.2021
6515 Clouds 21 1018 72 8634 2.67 224 14:59 03.09.2021
6516 Clouds 19 1019 81 10000 2.23 209 12:26 03.09.2021
6517 Clouds 16 1019 93 10000 1.86 220 10:32 03.09.2021
6518 Clouds 16 1019 93 10000 1.86 220 10:32 03.09.2021
6519 Clouds 14 1019 96 10000 0.91 217 08:59 03.09.2021
6520 Clouds 9 1021 94 10000 0.45 120 07:47 03.09.2021
6521 Clouds 10 1021 93 10000 0.89 47 05:24 03.09.2021
6522 Clear 11 1022 87 10000 0.89 63 23:20 02.09.2021
6523 Clouds 16 1021 90 10000 0.62 143 21:38 02.09.2021
6524 Clouds 20 1019 85 10000 1.51 199 19:56 02.09.2021
6525 Clouds 23 1019 66 10000 1.99 204 17:33 02.09.2021
6526 Clouds 22 1019 68 10000 2.48 197 15:52 02.09.2021
6527 Clouds 17 1021 68 10000 0.45 0 13:57 02.09.2021
6528 Clouds 18 1020 75 10000 2.54 196 12:48 02.09.2021
6529 Clouds 16 1020 82 10000 2.02 185 11:35 02.09.2021
6530 Clouds 15 1020 97 10000 1.33 151 09:44 02.09.2021
6531 Clouds 13 1020 96 10000 1.27 175 07:57 02.09.2021
6532 Clouds 8 1018 87 10000 1.41 139 07:18 02.09.2021
6533 Clouds 9 1023 83 10000 0.45 94 02:56 02.09.2021
6534 Clouds 13 1022 95 10000 1.53 183 01:56 02.09.2021
6535 Clouds 13 1022 95 10000 1.64 138 01:25 02.09.2021
6536 Clouds 13 1022 95 10000 1.06 93 23:39 01.09.2021
6537 Clouds 13 1022 94 10000 0.88 125 22:40 01.09.2021
6538 Clouds 14 1022 94 10000 0.89 141 21:39 01.09.2021
6539 Clouds 12 1022 87 10000 0.45 0 20:29 01.09.2021
6540 Rain 17 1020 92 10000 1.2 167 18:33 01.09.2021
6541 Rain 13 1022 70 6196 3.58 331 17:38 01.09.2021
6542 Clouds 20 1019 77 8448 2.59 201 16:47 01.09.2021
6543 Clouds 19 1020 50 10000 1.79 296 15:27 01.09.2021
6544 Clouds 13 1021 66 10000 2.28 198 11:50 01.09.2021
6545 Clouds 13 1022 72 10000 0.45 5 10:59 01.09.2021
6546 Clouds 14 1020 90 10000 0.25 344 08:47 01.09.2021
6547 Clouds 8 1021 87 10000 0.1 46 07:51 01.09.2021
6548 Clouds 9 1022 85 10000 0.78 89 01:48 01.09.2021
6549 Clouds 14 1021 86 10000 1.9 36 22:38 31.08.2021
6550 Clouds 11 1021 80 10000 1.74 39 21:23 31.08.2021
6551 Clouds 16 1020 87 10000 2.28 27 19:45 31.08.2021
6552 Clouds 12 1020 75 10000 0.89 30 18:28 31.08.2021
6553 Rain 13 1020 74 10000 1.34 127 17:36 31.08.2021
6554 Rain 12 1020 69 10000 1.79 70 16:52 31.08.2021
6555 Rain 21 1019 76 10000 1.92 9 16:24 31.08.2021
6556 Clouds 18 1020 53 10000 1.34 223 12:57 31.08.2021
6557 Clear 21 1019 60 10000 1.51 229 11:27 31.08.2021
6558 Clear 20 1019 60 10000 1.51 229 10:52 31.08.2021
6559 Clear 17 1019 69 10000 0.64 249 09:43 31.08.2021
6560 Clear 10 1021 75 10000 0.45 0 08:37 31.08.2021
6561 Clouds 14 1019 93 10000 1.07 28 05:58 31.08.2021
6562 Clouds 16 1019 88 10000 1.64 32 00:23 31.08.2021
6563 Clouds 16 1019 86 10000 1.28 25 23:29 30.08.2021
6564 Clouds 15 1019 88 10000 1.44 1 21:43 30.08.2021
6565 Clouds 17 1018 88 10000 1.93 17 20:42 30.08.2021
6566 Clouds 19 1017 88 10000 2 17 19:58 30.08.2021
6567 Clouds 14 1017 68 10000 2.24 239 19:29 30.08.2021
6568 Rain 16 1016 64 10000 2.24 238 18:29 30.08.2021
6569 Clouds 17 1015 60 10000 2.24 252 17:44 30.08.2021
6570 Clouds 24 1014 34 10000 2.48 220 15:56 30.08.2021
6571 Clouds 25 1014 35 10000 3.07 215 14:39 30.08.2021
6572 Clouds 20 1016 45 10000 1.34 256 13:27 30.08.2021
6573 Clouds 20 1015 47 10000 2.72 215 11:56 30.08.2021
6574 Clouds 13 1016 81 10000 0.84 25 08:23 30.08.2021
6575 Clouds 17 1017 58 10000 2.09 23 22:18 29.08.2021
6576 Clouds 18 1017 59 10000 2.47 15 21:25 29.08.2021
6577 Clear 21 1015 53 10000 2.44 359 19:32 29.08.2021
6578 Clear 21 1014 43 10000 1.79 271 18:30 29.08.2021
6579 Clear 22 1014 39 10000 1.79 251 16:25 29.08.2021
6580 Clear 22 1015 38 10000 2.24 267 14:34 29.08.2021
6581 Clear 25 1014 30 10000 1.47 256 13:57 29.08.2021
6582 Clear 23 1014 36 10000 1.21 259 12:58 29.08.2021
6583 Clear 21 1015 39 10000 0.82 281 12:19 29.08.2021
6584 Clear 20 1015 19 10000 0.82 281 11:41 29.08.2021
6585 Clear 18 1015 21 10000 0.83 323 10:48 29.08.2021
6586 Clear 16 1016 24 10000 1.15 354 10:29 29.08.2021
6587 Clear 16 1016 24 10000 1.15 354 09:35 29.08.2021
6588 Clear 12 1018 57 10000 2.15 19 04:21 29.08.2021
6589 Clear 17 1020 67 10000 3.36 16 22:57 28.08.2021
6590 Clear 19 1019 65 10000 3.6 14 20:33 28.08.2021
6591 Clear 23 1015 41 10000 3.86 353 19:29 28.08.2021
6592 Clear 26 1014 33 10000 3.71 345 18:24 28.08.2021
6593 Clear 27 1014 33 10000 3.71 345 17:46 28.08.2021
6594 Clear 28 1013 27 10000 3.15 334 16:32 28.08.2021
6595 Clear 28 1013 23 10000 2.54 320 14:52 28.08.2021
6596 Clear 22 1015 32 10000 0.89 227 13:58 28.08.2021
6597 Clear 21 1015 37 10000 1.34 0 13:39 28.08.2021
6598 Clear 22 1014 23 10000 1.7 294 12:30 28.08.2021
6599 Clear 18 1015 30 10000 1.43 315 10:46 28.08.2021
6600 Clear 16 1015 36 10000 1.64 338 09:34 28.08.2021
6601 Clear 8 1017 55 10000 2.87 13 07:34 28.08.2021
6602 Clear 16 1018 65 10000 2.49 20 23:45 27.08.2021
6603 Clear 21 1018 61 10000 3.59 11 21:26 27.08.2021
6604 Clear 15 1018 61 10000 3.59 11 20:35 27.08.2021
6605 Clouds 26 1016 48 10000 3.54 6 19:30 27.08.2021
6606 Clouds 27 1015 34 10000 3.44 359 18:38 27.08.2021
6607 Clouds 28 1013 26 10000 2.67 339 17:38 27.08.2021
6608 Clouds 30 1013 21 10000 1.86 322 16:28 27.08.2021
6609 Clear 25 1015 15 10000 0.89 218 14:44 27.08.2021
6610 Clouds 21 1016 31 10000 0.45 265 12:56 27.08.2021
6611 Clear 18 1017 43 10000 0.45 244 11:42 27.08.2021
6612 Clear 19 1015 18 10000 1.38 309 10:48 27.08.2021
6613 Clear 20 1015 25 10000 1.52 345 09:52 27.08.2021
6614 Clear 17 1016 47 10000 2.23 9 08:55 27.08.2021
6615 Clear 9 1018 76 10000 2.92 19 07:39 27.08.2021
6616 Clear 9 1018 74 10000 2.71 13 05:33 27.08.2021
6617 Clear 17 1019 75 10000 2.7 17 00:39 27.08.2021
6618 Clear 18 1019 78 10000 2.9 9 23:28 26.08.2021
6619 Clear 19 1019 76 10000 3.06 10 22:19 26.08.2021
6620 Clear 22 1018 70 10000 3.17 9 21:28 26.08.2021
6621 Clear 27 1015 43 10000 3.49 355 19:20 26.08.2021
6622 Clear 28 1015 33 10000 3.24 344 17:45 26.08.2021
6623 Clear 29 1014 28 10000 2.54 332 16:44 26.08.2021
6624 Clear 28 1014 26 10000 1.9 318 16:26 26.08.2021
6625 Clear 28 1014 26 10000 1.9 318 16:26 26.08.2021
6626 Clear 22 1017 21 10000 0.45 0 13:59 26.08.2021
6627 Clear 19 1018 40 10000 1.13 288 12:58 26.08.2021
6628 Clear 18 1018 50 10000 0.45 0 12:31 26.08.2021
6629 Clear 18 1018 50 10000 0.45 0 12:31 26.08.2021
6630 Clear 14 1017 41 10000 1.07 330 10:33 26.08.2021
6631 Clear 17 1017 75 10000 1 1 08:35 26.08.2021
6632 Clear 7 1019 85 10000 1.8 16 07:47 26.08.2021
6633 Clouds 12 1019 82 10000 0.45 0 22:55 25.08.2021
6634 Clouds 12 1019 81 10000 2.1 27 22:36 25.08.2021
6635 Clouds 12 1019 80 10000 2.26 25 21:54 25.08.2021
6636 Clouds 13 1018 78 10000 0.45 265 20:49 25.08.2021
6637 Clouds 12 1018 78 10000 0.95 357 20:28 25.08.2021
6638 Rain 12 1017 79 10000 0.42 12 18:45 25.08.2021
6639 Rain 15 1017 64 6503 2.24 292 17:43 25.08.2021
6640 Clouds 21 1014 50 10000 2.55 222 15:45 25.08.2021
6641 Clouds 19 1016 41 10000 2.24 274 14:48 25.08.2021
6642 Clouds 19 1016 41 10000 2.24 238 14:30 25.08.2021
6643 Clouds 19 1016 45 10000 0.45 274 13:25 25.08.2021
6644 Clouds 21 1016 60 10000 1.36 222 11:27 25.08.2021
6645 Clouds 20 1016 60 10000 1.36 222 10:43 25.08.2021
6646 Clouds 17 1016 74 10000 0.9 214 09:58 25.08.2021
6647 Clouds 11 1017 75 10000 0.56 212 09:18 25.08.2021
6648 Clouds 15 1016 87 10000 0.56 212 08:30 25.08.2021
6649 Clouds 15 1017 98 7292 1.52 187 04:19 25.08.2021
6650 Clouds 17 1018 64 10000 1.41 55 23:54 24.08.2021
6651 Clouds 18 1018 84 10000 2.01 16 21:49 24.08.2021
6652 Clouds 20 1018 85 10000 2.24 26 20:48 24.08.2021
6653 Clouds 21 1017 71 10000 2.55 25 19:52 24.08.2021
6654 Clouds 23 1016 63 10000 2.74 32 18:47 24.08.2021
6655 Clouds 24 1015 59 10000 2.6 20 17:46 24.08.2021
6656 Clouds 25 1015 52 10000 1.9 347 17:19 24.08.2021
6657 Clouds 21 1017 47 10000 2.68 225 14:30 24.08.2021
6658 Clouds 20 1017 51 10000 1.34 307 13:25 24.08.2021
6659 Clouds 20 1018 56 10000 1.34 282 12:33 24.08.2021
6660 Clouds 16 1018 70 10000 0.89 257 10:48 24.08.2021
6661 Clouds 18 1018 76 10000 0.97 9 10:27 24.08.2021
6662 Clouds 16 1018 88 10000 1.42 18 08:50 24.08.2021
6663 Clouds 16 1019 95 10000 2.22 19 06:51 24.08.2021